<?xml version='1.0' encoding='UTF-8'?><gpx version="1.1" creator="JPX - https://github.com/jenetics/jpx" xmlns="http://www.topografix.com/GPX/1/1"><trk><trkseg><trkpt lat="42.1563468" lon="-7.9530899"><ele>517.0</ele><time>2026-04-01T09:20:47.174Z</time></trkpt><trkpt lat="42.1562251" lon="-7.9530176"><ele>517.0</ele><time>2026-04-01T09:20:51.828Z</time></trkpt><trkpt lat="42.156315" lon="-7.9525667"><ele>517.0</ele><time>2026-04-01T09:20:53.809Z</time></trkpt><trkpt lat="42.1562467" lon="-7.9525483"><ele>517.0</ele><time>2026-04-01T09:20:55.809Z</time></trkpt><trkpt lat="42.156175" lon="-7.9525967"><ele>517.0</ele><time>2026-04-01T09:20:56.81Z</time></trkpt><trkpt lat="42.15616" lon="-7.9524783"><ele>517.0</ele><time>2026-04-01T09:20:59.81Z</time></trkpt><trkpt lat="42.1562133" lon="-7.9523983"><ele>517.0</ele><time>2026-04-01T09:21:00.809Z</time></trkpt><trkpt lat="42.1562933" lon="-7.9523083"><ele>517.0</ele><time>2026-04-01T09:21:01.808Z</time></trkpt><trkpt lat="42.156405" lon="-7.95221"><ele>516.6666666666667</ele><time>2026-04-01T09:21:02.808Z</time></trkpt><trkpt lat="42.1565317" lon="-7.9521033"><ele>516.3333333333334</ele><time>2026-04-01T09:21:03.808Z</time></trkpt><trkpt lat="42.1566733" lon="-7.9519667"><ele>516.0</ele><time>2026-04-01T09:21:04.809Z</time></trkpt><trkpt lat="42.1568" lon="-7.9518383"><ele>513.0</ele><time>2026-04-01T09:21:05.809Z</time></trkpt><trkpt lat="42.156935" lon="-7.9516983"><ele>510.0</ele><time>2026-04-01T09:21:06.808Z</time></trkpt><trkpt lat="42.1570617" lon="-7.95157"><ele>507.0</ele><time>2026-04-01T09:21:07.809Z</time></trkpt><trkpt lat="42.1571783" lon="-7.9514517"><ele>507.0</ele><time>2026-04-01T09:21:08.81Z</time></trkpt><trkpt lat="42.1572917" lon="-7.951335"><ele>507.0</ele><time>2026-04-01T09:21:09.808Z</time></trkpt><trkpt lat="42.1574" lon="-7.9512333"><ele>507.0</ele><time>2026-04-01T09:21:10.809Z</time></trkpt><trkpt lat="42.1575" lon="-7.95114"><ele>507.0</ele><time>2026-04-01T09:21:11.809Z</time></trkpt><trkpt lat="42.1575917" lon="-7.9510583"><ele>507.40000000000003</ele><time>2026-04-01T09:21:12.808Z</time></trkpt><trkpt lat="42.15768" lon="-7.9509933"><ele>507.80000000000007</ele><time>2026-04-01T09:21:13.811Z</time></trkpt><trkpt lat="42.15776" lon="-7.950955"><ele>508.2</ele><time>2026-04-01T09:21:14.81Z</time></trkpt><trkpt lat="42.1578333" lon="-7.9509317"><ele>508.6</ele><time>2026-04-01T09:21:15.808Z</time></trkpt><trkpt lat="42.1579033" lon="-7.9509217"><ele>509.0</ele><time>2026-04-01T09:21:16.808Z</time></trkpt><trkpt lat="42.1580233" lon="-7.9508783"><ele>507.6</ele><time>2026-04-01T09:21:18.809Z</time></trkpt><trkpt lat="42.158085" lon="-7.95083"><ele>506.2</ele><time>2026-04-01T09:21:19.809Z</time></trkpt><trkpt lat="42.1581533" lon="-7.9507517"><ele>504.80000000000007</ele><time>2026-04-01T09:21:20.808Z</time></trkpt><trkpt lat="42.15823" lon="-7.95064"><ele>503.40000000000003</ele><time>2026-04-01T09:21:21.81Z</time></trkpt><trkpt lat="42.15831" lon="-7.9505017"><ele>502.0</ele><time>2026-04-01T09:21:22.808Z</time></trkpt><trkpt lat="42.1583933" lon="-7.950365"><ele>501.40000000000003</ele><time>2026-04-01T09:21:23.809Z</time></trkpt><trkpt lat="42.15848" lon="-7.9502483"><ele>500.80000000000007</ele><time>2026-04-01T09:21:24.809Z</time></trkpt><trkpt lat="42.1585717" lon="-7.9501667"><ele>500.2</ele><time>2026-04-01T09:21:25.809Z</time></trkpt><trkpt lat="42.1586633" lon="-7.950115"><ele>499.6</ele><time>2026-04-01T09:21:26.808Z</time></trkpt><trkpt lat="42.1587433" lon="-7.95011"><ele>499.0</ele><time>2026-04-01T09:21:27.809Z</time></trkpt><trkpt lat="42.15881" lon="-7.9501233"><ele>499.00000000000006</ele><time>2026-04-01T09:21:28.808Z</time></trkpt><trkpt lat="42.1588733" lon="-7.9501183"><ele>499.0</ele><time>2026-04-01T09:21:29.808Z</time></trkpt><trkpt lat="42.15895" lon="-7.9500467"><ele>499.0</ele><time>2026-04-01T09:21:31.809Z</time></trkpt><trkpt lat="42.1589267" lon="-7.9499283"><ele>499.0</ele><time>2026-04-01T09:21:33.808Z</time></trkpt><trkpt lat="42.1588583" lon="-7.949875"><ele>499.00000000000006</ele><time>2026-04-01T09:21:36.809Z</time></trkpt><trkpt lat="42.1587883" lon="-7.9498833"><ele>499.0</ele><time>2026-04-01T09:25:15.809Z</time></trkpt><trkpt lat="42.1586617" lon="-7.9499167"><ele>499.0</ele><time>2026-04-01T09:25:17.808Z</time></trkpt><trkpt lat="42.15858" lon="-7.949965"><ele>499.0</ele><time>2026-04-01T09:25:18.81Z</time></trkpt><trkpt lat="42.1585033" lon="-7.9500367"><ele>499.0</ele><time>2026-04-01T09:25:19.809Z</time></trkpt><trkpt lat="42.1584317" lon="-7.9501217"><ele>499.0</ele><time>2026-04-01T09:25:20.809Z</time></trkpt><trkpt lat="42.1583533" lon="-7.950215"><ele>499.0</ele><time>2026-04-01T09:25:21.809Z</time></trkpt><trkpt lat="42.1582567" lon="-7.950345"><ele>499.75</ele><time>2026-04-01T09:25:22.808Z</time></trkpt><trkpt lat="42.15816" lon="-7.9504667"><ele>500.5</ele><time>2026-04-01T09:25:23.808Z</time></trkpt><trkpt lat="42.158045" lon="-7.950615"><ele>501.25</ele><time>2026-04-01T09:25:24.812Z</time></trkpt><trkpt lat="42.1579417" lon="-7.9507417"><ele>502.0</ele><time>2026-04-01T09:25:25.811Z</time></trkpt><trkpt lat="42.1578367" lon="-7.9508633"><ele>503.75</ele><time>2026-04-01T09:25:26.814Z</time></trkpt><trkpt lat="42.157735" lon="-7.9509717"><ele>505.5</ele><time>2026-04-01T09:25:27.811Z</time></trkpt><trkpt lat="42.157635" lon="-7.95108"><ele>507.25</ele><time>2026-04-01T09:25:28.808Z</time></trkpt><trkpt lat="42.157525" lon="-7.951195"><ele>509.0</ele><time>2026-04-01T09:25:29.81Z</time></trkpt><trkpt lat="42.157415" lon="-7.9513067"><ele>508.5</ele><time>2026-04-01T09:25:30.808Z</time></trkpt><trkpt lat="42.1573033" lon="-7.9514183"><ele>508.0</ele><time>2026-04-01T09:25:31.808Z</time></trkpt><trkpt lat="42.1571833" lon="-7.9515283"><ele>507.5</ele><time>2026-04-01T09:25:32.809Z</time></trkpt><trkpt lat="42.157065" lon="-7.9516383"><ele>507.0</ele><time>2026-04-01T09:25:33.811Z</time></trkpt><trkpt lat="42.15694" lon="-7.9517517"><ele>508.0</ele><time>2026-04-01T09:25:34.81Z</time></trkpt><trkpt lat="42.15682" lon="-7.9518633"><ele>509.0</ele><time>2026-04-01T09:25:35.904Z</time></trkpt><trkpt lat="42.1567" lon="-7.9519733"><ele>510.0</ele><time>2026-04-01T09:25:36.808Z</time></trkpt><trkpt lat="42.15658" lon="-7.952085"><ele>511.0</ele><time>2026-04-01T09:25:37.811Z</time></trkpt><trkpt lat="42.156465" lon="-7.95219"><ele>511.0</ele><time>2026-04-01T09:25:38.812Z</time></trkpt><trkpt lat="42.1563517" lon="-7.9522917"><ele>511.0</ele><time>2026-04-01T09:25:39.811Z</time></trkpt><trkpt lat="42.1562433" lon="-7.95239"><ele>511.0</ele><time>2026-04-01T09:25:40.812Z</time></trkpt><trkpt lat="42.1561283" lon="-7.95249"><ele>511.0</ele><time>2026-04-01T09:25:41.811Z</time></trkpt><trkpt lat="42.1560133" lon="-7.9525933"><ele>511.5</ele><time>2026-04-01T09:25:42.808Z</time></trkpt><trkpt lat="42.1558983" lon="-7.9527017"><ele>512.0</ele><time>2026-04-01T09:25:43.812Z</time></trkpt><trkpt lat="42.1557817" lon="-7.9528117"><ele>512.5</ele><time>2026-04-01T09:25:44.812Z</time></trkpt><trkpt lat="42.1556633" lon="-7.9529183"><ele>513.0</ele><time>2026-04-01T09:25:45.808Z</time></trkpt><trkpt lat="42.1555383" lon="-7.9530233"><ele>513.0</ele><time>2026-04-01T09:25:46.809Z</time></trkpt><trkpt lat="42.1554183" lon="-7.9531283"><ele>513.0</ele><time>2026-04-01T09:25:47.809Z</time></trkpt><trkpt lat="42.1553" lon="-7.9532283"><ele>513.0</ele><time>2026-04-01T09:25:48.809Z</time></trkpt><trkpt lat="42.155185" lon="-7.9533383"><ele>513.0</ele><time>2026-04-01T09:25:49.809Z</time></trkpt><trkpt lat="42.1550733" lon="-7.95345"><ele>513.25</ele><time>2026-04-01T09:25:50.809Z</time></trkpt><trkpt lat="42.1549617" lon="-7.9535533"><ele>513.5</ele><time>2026-04-01T09:25:51.81Z</time></trkpt><trkpt lat="42.1548417" lon="-7.9536583"><ele>513.75</ele><time>2026-04-01T09:25:52.809Z</time></trkpt><trkpt lat="42.1547233" lon="-7.9537617"><ele>514.0</ele><time>2026-04-01T09:25:53.809Z</time></trkpt><trkpt lat="42.15461" lon="-7.9538767"><ele>514.0</ele><time>2026-04-01T09:25:54.81Z</time></trkpt><trkpt lat="42.1545033" lon="-7.954"><ele>514.0</ele><time>2026-04-01T09:25:55.809Z</time></trkpt><trkpt lat="42.1543983" lon="-7.9541067"><ele>514.0</ele><time>2026-04-01T09:25:56.81Z</time></trkpt><trkpt lat="42.1542983" lon="-7.9542267"><ele>514.0</ele><time>2026-04-01T09:25:57.812Z</time></trkpt><trkpt lat="42.15421" lon="-7.954365"><ele>514.25</ele><time>2026-04-01T09:25:58.811Z</time></trkpt><trkpt lat="42.154125" lon="-7.95451"><ele>514.5</ele><time>2026-04-01T09:25:59.809Z</time></trkpt><trkpt lat="42.1540383" lon="-7.9546583"><ele>514.75</ele><time>2026-04-01T09:26:00.809Z</time></trkpt><trkpt lat="42.1539617" lon="-7.9547933"><ele>515.0</ele><time>2026-04-01T09:26:01.809Z</time></trkpt><trkpt lat="42.1539167" lon="-7.9549267"><ele>515.0</ele><time>2026-04-01T09:26:02.809Z</time></trkpt><trkpt lat="42.1538617" lon="-7.9550217"><ele>515.0</ele><time>2026-04-01T09:26:03.808Z</time></trkpt><trkpt lat="42.1538133" lon="-7.9551233"><ele>515.0</ele><time>2026-04-01T09:26:04.808Z</time></trkpt><trkpt lat="42.153755" lon="-7.9551983"><ele>515.0</ele><time>2026-04-01T09:26:05.809Z</time></trkpt><trkpt lat="42.1536783" lon="-7.95524"><ele>515.0</ele><time>2026-04-01T09:26:06.809Z</time></trkpt><trkpt lat="42.1536067" lon="-7.9552917"><ele>515.0</ele><time>2026-04-01T09:26:07.808Z</time></trkpt><trkpt lat="42.1535333" lon="-7.9553317"><ele>515.0</ele><time>2026-04-01T09:26:08.809Z</time></trkpt><trkpt lat="42.1534533" lon="-7.9553383"><ele>515.0</ele><time>2026-04-01T09:26:09.809Z</time></trkpt><trkpt lat="42.1533767" lon="-7.9553317"><ele>515.0</ele><time>2026-04-01T09:26:10.81Z</time></trkpt><trkpt lat="42.1533" lon="-7.95532"><ele>515.0</ele><time>2026-04-01T09:26:11.81Z</time></trkpt><trkpt lat="42.153235" lon="-7.9553033"><ele>515.0</ele><time>2026-04-01T09:26:12.809Z</time></trkpt><trkpt lat="42.153125" lon="-7.9553067"><ele>515.0</ele><time>2026-04-01T09:26:14.808Z</time></trkpt><trkpt lat="42.15301" lon="-7.9553033"><ele>515.0</ele><time>2026-04-01T09:26:16.808Z</time></trkpt><trkpt lat="42.1528883" lon="-7.9552933"><ele>515.0</ele><time>2026-04-01T09:26:18.81Z</time></trkpt><trkpt lat="42.1528233" lon="-7.9552867"><ele>515.0</ele><time>2026-04-01T09:26:19.808Z</time></trkpt><trkpt lat="42.1527017" lon="-7.9552433"><ele>515.0</ele><time>2026-04-01T09:26:21.808Z</time></trkpt><trkpt lat="42.1526067" lon="-7.9552233"><ele>515.0</ele><time>2026-04-01T09:26:24.808Z</time></trkpt><trkpt lat="42.1524983" lon="-7.9551717"><ele>515.0</ele><time>2026-04-01T09:26:26.811Z</time></trkpt><trkpt lat="42.1524133" lon="-7.9551517"><ele>515.0</ele><time>2026-04-01T09:26:27.809Z</time></trkpt><trkpt lat="42.1523217" lon="-7.955165"><ele>515.0</ele><time>2026-04-01T09:26:28.811Z</time></trkpt><trkpt lat="42.1522167" lon="-7.9552033"><ele>515.0</ele><time>2026-04-01T09:26:29.811Z</time></trkpt><trkpt lat="42.1521083" lon="-7.955265"><ele>515.0</ele><time>2026-04-01T09:26:30.811Z</time></trkpt><trkpt lat="42.1520033" lon="-7.955345"><ele>513.75</ele><time>2026-04-01T09:26:31.812Z</time></trkpt><trkpt lat="42.151905" lon="-7.9554283"><ele>512.5</ele><time>2026-04-01T09:26:32.811Z</time></trkpt><trkpt lat="42.1518067" lon="-7.955515"><ele>511.25</ele><time>2026-04-01T09:26:33.808Z</time></trkpt><trkpt lat="42.1517133" lon="-7.9556017"><ele>510.0</ele><time>2026-04-01T09:26:34.808Z</time></trkpt><trkpt lat="42.1516233" lon="-7.9556817"><ele>510.4</ele><time>2026-04-01T09:26:35.81Z</time></trkpt><trkpt lat="42.151535" lon="-7.9557583"><ele>510.8</ele><time>2026-04-01T09:26:36.808Z</time></trkpt><trkpt lat="42.151445" lon="-7.9558317"><ele>511.20000000000005</ele><time>2026-04-01T09:26:37.81Z</time></trkpt><trkpt lat="42.151355" lon="-7.955905"><ele>511.6</ele><time>2026-04-01T09:26:38.809Z</time></trkpt><trkpt lat="42.151265" lon="-7.95598"><ele>512.0</ele><time>2026-04-01T09:26:39.809Z</time></trkpt><trkpt lat="42.15118" lon="-7.9560483"><ele>511.99999999999994</ele><time>2026-04-01T09:26:40.809Z</time></trkpt><trkpt lat="42.1511033" lon="-7.9561167"><ele>512.0</ele><time>2026-04-01T09:26:41.811Z</time></trkpt><trkpt lat="42.1510383" lon="-7.956175"><ele>512.0</ele><time>2026-04-01T09:26:42.811Z</time></trkpt><trkpt lat="42.1509783" lon="-7.9562267"><ele>512.0</ele><time>2026-04-01T09:26:43.811Z</time></trkpt><trkpt lat="42.1509283" lon="-7.9562783"><ele>511.99999999999994</ele><time>2026-04-01T09:26:44.812Z</time></trkpt><trkpt lat="42.150855" lon="-7.9563467"><ele>512.0</ele><time>2026-04-01T09:26:46.809Z</time></trkpt><trkpt lat="42.1507567" lon="-7.95644"><ele>511.8333333333333</ele><time>2026-04-01T09:26:48.808Z</time></trkpt><trkpt lat="42.1506983" lon="-7.956495"><ele>511.66666666666663</ele><time>2026-04-01T09:26:49.809Z</time></trkpt><trkpt lat="42.1506433" lon="-7.956545"><ele>511.5</ele><time>2026-04-01T09:26:50.809Z</time></trkpt><trkpt lat="42.1505567" lon="-7.9566333"><ele>511.33333333333337</ele><time>2026-04-01T09:26:52.81Z</time></trkpt><trkpt lat="42.1504733" lon="-7.9567217"><ele>511.1666666666667</ele><time>2026-04-01T09:26:54.809Z</time></trkpt><trkpt lat="42.1504033" lon="-7.9567883"><ele>511.0</ele><time>2026-04-01T09:26:56.812Z</time></trkpt><trkpt lat="42.1503283" lon="-7.9568433"><ele>511.0</ele><time>2026-04-01T09:26:58.808Z</time></trkpt><trkpt lat="42.150245" lon="-7.95692"><ele>511.0</ele><time>2026-04-01T09:27:00.808Z</time></trkpt><trkpt lat="42.150155" lon="-7.9569917"><ele>511.0</ele><time>2026-04-01T09:27:02.809Z</time></trkpt><trkpt lat="42.150075" lon="-7.9570583"><ele>511.0</ele><time>2026-04-01T09:27:04.808Z</time></trkpt><trkpt lat="42.1500067" lon="-7.95711"><ele>511.0</ele><time>2026-04-01T09:27:06.809Z</time></trkpt><trkpt lat="42.1499333" lon="-7.9571683"><ele>511.20000000000005</ele><time>2026-04-01T09:27:09.809Z</time></trkpt><trkpt lat="42.1498383" lon="-7.957245"><ele>511.40000000000003</ele><time>2026-04-01T09:27:12.808Z</time></trkpt><trkpt lat="42.1497833" lon="-7.9572983"><ele>511.6</ele><time>2026-04-01T09:27:13.808Z</time></trkpt><trkpt lat="42.1497017" lon="-7.95737"><ele>511.8</ele><time>2026-04-01T09:27:14.81Z</time></trkpt><trkpt lat="42.149605" lon="-7.9574583"><ele>512.0</ele><time>2026-04-01T09:27:15.811Z</time></trkpt><trkpt lat="42.1495117" lon="-7.9575467"><ele>511.99999999999994</ele><time>2026-04-01T09:27:16.811Z</time></trkpt><trkpt lat="42.14942" lon="-7.9576333"><ele>512.0</ele><time>2026-04-01T09:27:17.809Z</time></trkpt><trkpt lat="42.14934" lon="-7.9577067"><ele>512.0</ele><time>2026-04-01T09:27:18.81Z</time></trkpt><trkpt lat="42.1492783" lon="-7.9577783"><ele>512.0</ele><time>2026-04-01T09:27:19.808Z</time></trkpt><trkpt lat="42.1492283" lon="-7.95785"><ele>511.99999999999994</ele><time>2026-04-01T09:27:20.809Z</time></trkpt><trkpt lat="42.1491883" lon="-7.9579267"><ele>512.0</ele><time>2026-04-01T09:27:21.808Z</time></trkpt><trkpt lat="42.1491617" lon="-7.9580083"><ele>512.0</ele><time>2026-04-01T09:27:22.811Z</time></trkpt><trkpt lat="42.1491417" lon="-7.958145"><ele>512.0</ele><time>2026-04-01T09:27:24.81Z</time></trkpt><trkpt lat="42.1491217" lon="-7.95823"><ele>512.0</ele><time>2026-04-01T09:27:26.809Z</time></trkpt><trkpt lat="42.14905" lon="-7.958325"><ele>512.0</ele><time>2026-04-01T09:27:29.812Z</time></trkpt><trkpt lat="42.1489667" lon="-7.9583767"><ele>512.0</ele><time>2026-04-01T09:27:31.811Z</time></trkpt><trkpt lat="42.1488633" lon="-7.9584033"><ele>511.66666666666663</ele><time>2026-04-01T09:27:33.811Z</time></trkpt><trkpt lat="42.1487783" lon="-7.9584333"><ele>511.3333333333333</ele><time>2026-04-01T09:27:35.811Z</time></trkpt><trkpt lat="42.1486983" lon="-7.95846"><ele>511.0</ele><time>2026-04-01T09:27:37.812Z</time></trkpt><trkpt lat="42.1486267" lon="-7.9584817"><ele>510.66666666666663</ele><time>2026-04-01T09:27:39.811Z</time></trkpt><trkpt lat="42.1485467" lon="-7.9585067"><ele>510.3333333333333</ele><time>2026-04-01T09:27:41.81Z</time></trkpt><trkpt lat="42.1484867" lon="-7.958535"><ele>510.0</ele><time>2026-04-01T09:27:42.812Z</time></trkpt><trkpt lat="42.1484133" lon="-7.9585733"><ele>510.0</ele><time>2026-04-01T09:27:43.808Z</time></trkpt><trkpt lat="42.1483217" lon="-7.9586183"><ele>510.0</ele><time>2026-04-01T09:27:44.809Z</time></trkpt><trkpt lat="42.1482167" lon="-7.9586617"><ele>510.0</ele><time>2026-04-01T09:27:45.812Z</time></trkpt><trkpt lat="42.1481017" lon="-7.9587083"><ele>510.0</ele><time>2026-04-01T09:27:46.809Z</time></trkpt><trkpt lat="42.147985" lon="-7.958755"><ele>510.0</ele><time>2026-04-01T09:27:47.809Z</time></trkpt><trkpt lat="42.147875" lon="-7.9587967"><ele>509.5</ele><time>2026-04-01T09:27:48.81Z</time></trkpt><trkpt lat="42.1477817" lon="-7.958835"><ele>509.0</ele><time>2026-04-01T09:27:49.809Z</time></trkpt><trkpt lat="42.1476967" lon="-7.9588667"><ele>508.5</ele><time>2026-04-01T09:27:50.81Z</time></trkpt><trkpt lat="42.1476217" lon="-7.9588967"><ele>508.0</ele><time>2026-04-01T09:27:51.81Z</time></trkpt><trkpt lat="42.1475583" lon="-7.95891"><ele>507.5</ele><time>2026-04-01T09:27:52.809Z</time></trkpt><trkpt lat="42.1474667" lon="-7.9589383"><ele>507.0</ele><time>2026-04-01T09:27:54.809Z</time></trkpt><trkpt lat="42.1474" lon="-7.9588967"><ele>507.0</ele><time>2026-04-01T09:27:57.808Z</time></trkpt><trkpt lat="42.14747" lon="-7.9588433"><ele>507.0</ele><time>2026-04-01T09:28:00.812Z</time></trkpt><trkpt lat="42.14756" lon="-7.9588283"><ele>507.0</ele><time>2026-04-01T09:28:01.81Z</time></trkpt><trkpt lat="42.14767" lon="-7.9588033"><ele>507.0</ele><time>2026-04-01T09:28:03.808Z</time></trkpt><trkpt lat="42.1477367" lon="-7.9588367"><ele>507.0</ele><time>2026-04-01T09:31:32.81Z</time></trkpt><trkpt lat="42.1476767" lon="-7.9588633"><ele>507.0</ele><time>2026-04-01T09:31:35.809Z</time></trkpt><trkpt lat="42.1475833" lon="-7.9587683"><ele>507.0</ele><time>2026-04-01T09:31:37.81Z</time></trkpt><trkpt lat="42.1475517" lon="-7.9586717"><ele>507.0</ele><time>2026-04-01T09:31:38.811Z</time></trkpt><trkpt lat="42.1475283" lon="-7.9585633"><ele>507.0</ele><time>2026-04-01T09:31:39.809Z</time></trkpt><trkpt lat="42.147505" lon="-7.9584583"><ele>507.0</ele><time>2026-04-01T09:31:40.81Z</time></trkpt><trkpt lat="42.1474867" lon="-7.95836"><ele>507.0</ele><time>2026-04-01T09:31:41.809Z</time></trkpt><trkpt lat="42.147475" lon="-7.9582483"><ele>507.0</ele><time>2026-04-01T09:31:42.809Z</time></trkpt><trkpt lat="42.1474783" lon="-7.9581383"><ele>507.5</ele><time>2026-04-01T09:31:43.811Z</time></trkpt><trkpt lat="42.1474967" lon="-7.9580367"><ele>508.0</ele><time>2026-04-01T09:31:44.809Z</time></trkpt><trkpt lat="42.1475317" lon="-7.957955"><ele>508.5</ele><time>2026-04-01T09:31:45.809Z</time></trkpt><trkpt lat="42.1475917" lon="-7.9578367"><ele>509.0</ele><time>2026-04-01T09:31:47.809Z</time></trkpt><trkpt lat="42.1476417" lon="-7.9577667"><ele>509.5</ele><time>2026-04-01T09:31:49.81Z</time></trkpt><trkpt lat="42.1475867" lon="-7.9578217"><ele>510.0</ele><time>2026-04-01T09:34:28.812Z</time></trkpt><trkpt lat="42.1475283" lon="-7.9579733"><ele>510.0</ele><time>2026-04-01T09:34:30.811Z</time></trkpt><trkpt lat="42.1475017" lon="-7.95807"><ele>510.0</ele><time>2026-04-01T09:34:31.81Z</time></trkpt><trkpt lat="42.14748" lon="-7.9581733"><ele>510.0</ele><time>2026-04-01T09:34:32.809Z</time></trkpt><trkpt lat="42.1474733" lon="-7.9582783"><ele>510.0</ele><time>2026-04-01T09:34:33.809Z</time></trkpt><trkpt lat="42.14748" lon="-7.9583783"><ele>510.0</ele><time>2026-04-01T09:34:34.81Z</time></trkpt><trkpt lat="42.147495" lon="-7.9584633"><ele>510.0</ele><time>2026-04-01T09:34:35.811Z</time></trkpt><trkpt lat="42.147525" lon="-7.9585833"><ele>509.8</ele><time>2026-04-01T09:34:37.809Z</time></trkpt><trkpt lat="42.14755" lon="-7.958665"><ele>509.6</ele><time>2026-04-01T09:34:39.811Z</time></trkpt><trkpt lat="42.1475983" lon="-7.958815"><ele>509.4</ele><time>2026-04-01T09:34:48.808Z</time></trkpt><trkpt lat="42.147555" lon="-7.95891"><ele>509.2</ele><time>2026-04-01T09:34:50.809Z</time></trkpt><trkpt lat="42.1474483" lon="-7.95897"><ele>509.0</ele><time>2026-04-01T09:34:52.808Z</time></trkpt><trkpt lat="42.1473717" lon="-7.959005"><ele>509.0</ele><time>2026-04-01T09:34:53.808Z</time></trkpt><trkpt lat="42.1472917" lon="-7.959055"><ele>509.0</ele><time>2026-04-01T09:34:54.811Z</time></trkpt><trkpt lat="42.1472117" lon="-7.95912"><ele>509.0</ele><time>2026-04-01T09:34:55.811Z</time></trkpt><trkpt lat="42.1471317" lon="-7.95919"><ele>509.0</ele><time>2026-04-01T09:34:56.812Z</time></trkpt><trkpt lat="42.14705" lon="-7.9592533"><ele>509.0</ele><time>2026-04-01T09:34:57.811Z</time></trkpt><trkpt lat="42.14697" lon="-7.9593"><ele>508.6</ele><time>2026-04-01T09:34:58.811Z</time></trkpt><trkpt lat="42.146885" lon="-7.9593217"><ele>508.2</ele><time>2026-04-01T09:34:59.808Z</time></trkpt><trkpt lat="42.1467883" lon="-7.9593283"><ele>507.80000000000007</ele><time>2026-04-01T09:35:00.808Z</time></trkpt><trkpt lat="42.14668" lon="-7.959345"><ele>507.40000000000003</ele><time>2026-04-01T09:35:01.812Z</time></trkpt><trkpt lat="42.1465717" lon="-7.9593833"><ele>507.0</ele><time>2026-04-01T09:35:02.812Z</time></trkpt><trkpt lat="42.1464867" lon="-7.9594333"><ele>508.1666666666667</ele><time>2026-04-01T09:35:03.808Z</time></trkpt><trkpt lat="42.1464267" lon="-7.959505"><ele>509.33333333333337</ele><time>2026-04-01T09:35:04.808Z</time></trkpt><trkpt lat="42.1463817" lon="-7.9596033"><ele>510.5</ele><time>2026-04-01T09:35:05.809Z</time></trkpt><trkpt lat="42.1463483" lon="-7.9597217"><ele>511.6666666666667</ele><time>2026-04-01T09:35:06.812Z</time></trkpt><trkpt lat="42.1463183" lon="-7.9598433"><ele>512.8333333333334</ele><time>2026-04-01T09:35:07.808Z</time></trkpt><trkpt lat="42.14629" lon="-7.9599633"><ele>514.0</ele><time>2026-04-01T09:35:08.813Z</time></trkpt><trkpt lat="42.1462683" lon="-7.9600733"><ele>514.0</ele><time>2026-04-01T09:35:09.809Z</time></trkpt><trkpt lat="42.1462383" lon="-7.9601667"><ele>514.0</ele><time>2026-04-01T09:35:10.811Z</time></trkpt><trkpt lat="42.146195" lon="-7.9602417"><ele>514.0</ele><time>2026-04-01T09:35:11.811Z</time></trkpt><trkpt lat="42.1461283" lon="-7.9602833"><ele>514.0</ele><time>2026-04-01T09:35:12.812Z</time></trkpt><trkpt lat="42.1460517" lon="-7.9603183"><ele>514.0</ele><time>2026-04-01T09:35:13.808Z</time></trkpt><trkpt lat="42.1459567" lon="-7.9603317"><ele>514.0</ele><time>2026-04-01T09:35:14.812Z</time></trkpt><trkpt lat="42.14587" lon="-7.9603683"><ele>514.0</ele><time>2026-04-01T09:35:15.812Z</time></trkpt><trkpt lat="42.1457983" lon="-7.960435"><ele>514.0</ele><time>2026-04-01T09:35:16.811Z</time></trkpt><trkpt lat="42.14574" lon="-7.9605217"><ele>514.0</ele><time>2026-04-01T09:35:17.809Z</time></trkpt><trkpt lat="42.1456817" lon="-7.960625"><ele>514.0</ele><time>2026-04-01T09:35:18.808Z</time></trkpt><trkpt lat="42.1456167" lon="-7.9607467"><ele>514.0</ele><time>2026-04-01T09:35:19.809Z</time></trkpt><trkpt lat="42.1455583" lon="-7.960865"><ele>517.5</ele><time>2026-04-01T09:35:20.809Z</time></trkpt><trkpt lat="42.1455" lon="-7.9609717"><ele>521.0</ele><time>2026-04-01T09:35:21.808Z</time></trkpt><trkpt lat="42.145435" lon="-7.9610617"><ele>524.5</ele><time>2026-04-01T09:35:22.809Z</time></trkpt><trkpt lat="42.1453617" lon="-7.96112"><ele>528.0</ele><time>2026-04-01T09:35:23.808Z</time></trkpt><trkpt lat="42.1452883" lon="-7.9611733"><ele>531.5</ele><time>2026-04-01T09:35:24.809Z</time></trkpt><trkpt lat="42.14523" lon="-7.9612183"><ele>535.0</ele><time>2026-04-01T09:35:25.809Z</time></trkpt><trkpt lat="42.14515" lon="-7.96128"><ele>535.0</ele><time>2026-04-01T09:35:27.809Z</time></trkpt><trkpt lat="42.1450917" lon="-7.961335"><ele>535.0</ele><time>2026-04-01T09:35:29.808Z</time></trkpt><trkpt lat="42.145025" lon="-7.96138"><ele>535.0</ele><time>2026-04-01T09:35:32.811Z</time></trkpt><trkpt lat="42.1449417" lon="-7.9613867"><ele>535.0</ele><time>2026-04-01T09:35:35.809Z</time></trkpt><trkpt lat="42.1448683" lon="-7.9613983"><ele>535.0</ele><time>2026-04-01T09:35:38.809Z</time></trkpt><trkpt lat="42.144785" lon="-7.961425"><ele>535.0</ele><time>2026-04-01T09:35:40.808Z</time></trkpt><trkpt lat="42.1447133" lon="-7.9614383"><ele>536.3333333333334</ele><time>2026-04-01T09:35:41.809Z</time></trkpt><trkpt lat="42.1446483" lon="-7.9614633"><ele>537.6666666666667</ele><time>2026-04-01T09:35:42.81Z</time></trkpt><trkpt lat="42.14458" lon="-7.96148"><ele>539.0</ele><time>2026-04-01T09:35:43.808Z</time></trkpt><trkpt lat="42.1444933" lon="-7.9615167"><ele>540.3333333333334</ele><time>2026-04-01T09:35:44.809Z</time></trkpt><trkpt lat="42.1444217" lon="-7.9615233"><ele>541.6666666666666</ele><time>2026-04-01T09:35:45.812Z</time></trkpt><trkpt lat="42.14434" lon="-7.9615267"><ele>543.0</ele><time>2026-04-01T09:35:46.811Z</time></trkpt><trkpt lat="42.1442483" lon="-7.9615617"><ele>543.0</ele><time>2026-04-01T09:35:47.809Z</time></trkpt><trkpt lat="42.14417" lon="-7.961605"><ele>543.0</ele><time>2026-04-01T09:35:48.808Z</time></trkpt><trkpt lat="42.1441" lon="-7.9616617"><ele>543.0</ele><time>2026-04-01T09:35:49.808Z</time></trkpt><trkpt lat="42.144035" lon="-7.961725"><ele>543.0</ele><time>2026-04-01T09:35:50.812Z</time></trkpt><trkpt lat="42.1439667" lon="-7.961795"><ele>543.0</ele><time>2026-04-01T09:35:51.808Z</time></trkpt><trkpt lat="42.1438983" lon="-7.961905"><ele>543.0</ele><time>2026-04-01T09:35:52.808Z</time></trkpt><trkpt lat="42.143815" lon="-7.9620183"><ele>546.5</ele><time>2026-04-01T09:35:53.809Z</time></trkpt><trkpt lat="42.143715" lon="-7.9621217"><ele>550.0</ele><time>2026-04-01T09:35:54.808Z</time></trkpt><trkpt lat="42.1436017" lon="-7.9622283"><ele>553.5</ele><time>2026-04-01T09:35:55.809Z</time></trkpt><trkpt lat="42.1434933" lon="-7.9623567"><ele>557.0</ele><time>2026-04-01T09:35:56.81Z</time></trkpt><trkpt lat="42.1433833" lon="-7.96248"><ele>558.0</ele><time>2026-04-01T09:35:57.809Z</time></trkpt><trkpt lat="42.143285" lon="-7.9626267"><ele>559.0</ele><time>2026-04-01T09:35:58.811Z</time></trkpt><trkpt lat="42.1432017" lon="-7.9627717"><ele>560.0</ele><time>2026-04-01T09:35:59.811Z</time></trkpt><trkpt lat="42.14314" lon="-7.9629133"><ele>561.0</ele><time>2026-04-01T09:36:00.813Z</time></trkpt><trkpt lat="42.143085" lon="-7.963065"><ele>562.4</ele><time>2026-04-01T09:36:01.811Z</time></trkpt><trkpt lat="42.1430383" lon="-7.9632133"><ele>563.8</ele><time>2026-04-01T09:36:02.811Z</time></trkpt><trkpt lat="42.1429883" lon="-7.96335"><ele>565.1999999999999</ele><time>2026-04-01T09:36:03.81Z</time></trkpt><trkpt lat="42.1429433" lon="-7.963465"><ele>566.6</ele><time>2026-04-01T09:36:04.812Z</time></trkpt><trkpt lat="42.142905" lon="-7.9635533"><ele>568.0</ele><time>2026-04-01T09:36:05.808Z</time></trkpt><trkpt lat="42.1428583" lon="-7.9636267"><ele>569.5714285714286</ele><time>2026-04-01T09:36:06.809Z</time></trkpt><trkpt lat="42.1428083" lon="-7.9636783"><ele>571.1428571428571</ele><time>2026-04-01T09:36:07.811Z</time></trkpt><trkpt lat="42.1427417" lon="-7.9636933"><ele>572.7142857142857</ele><time>2026-04-01T09:36:08.809Z</time></trkpt><trkpt lat="42.1426767" lon="-7.9637167"><ele>574.2857142857142</ele><time>2026-04-01T09:36:09.809Z</time></trkpt><trkpt lat="42.1426083" lon="-7.9637567"><ele>575.8571428571429</ele><time>2026-04-01T09:36:10.808Z</time></trkpt><trkpt lat="42.1425333" lon="-7.9638017"><ele>577.4285714285713</ele><time>2026-04-01T09:36:11.809Z</time></trkpt><trkpt lat="42.1424517" lon="-7.9638517"><ele>579.0</ele><time>2026-04-01T09:36:12.808Z</time></trkpt><trkpt lat="42.14237" lon="-7.9638983"><ele>581.3333333333334</ele><time>2026-04-01T09:36:13.809Z</time></trkpt><trkpt lat="42.1422983" lon="-7.963925"><ele>583.6666666666666</ele><time>2026-04-01T09:36:14.809Z</time></trkpt><trkpt lat="42.1422317" lon="-7.963925"><ele>586.0</ele><time>2026-04-01T09:36:15.808Z</time></trkpt><trkpt lat="42.14219" lon="-7.9638317"><ele>588.3333333333333</ele><time>2026-04-01T09:36:17.809Z</time></trkpt><trkpt lat="42.1421667" lon="-7.9637483"><ele>590.6666666666666</ele><time>2026-04-01T09:36:18.808Z</time></trkpt><trkpt lat="42.1421483" lon="-7.9636183"><ele>593.0</ele><time>2026-04-01T09:36:19.809Z</time></trkpt><trkpt lat="42.142115" lon="-7.9634767"><ele>592.1999999999999</ele><time>2026-04-01T09:36:20.811Z</time></trkpt><trkpt lat="42.1420833" lon="-7.9633283"><ele>591.4</ele><time>2026-04-01T09:36:21.809Z</time></trkpt><trkpt lat="42.1420517" lon="-7.9631983"><ele>590.5999999999999</ele><time>2026-04-01T09:36:22.808Z</time></trkpt><trkpt lat="42.1420217" lon="-7.963075"><ele>589.8</ele><time>2026-04-01T09:36:23.808Z</time></trkpt><trkpt lat="42.1419783" lon="-7.962955"><ele>589.0</ele><time>2026-04-01T09:36:24.811Z</time></trkpt><trkpt lat="42.1419233" lon="-7.96284"><ele>589.0</ele><time>2026-04-01T09:36:25.808Z</time></trkpt><trkpt lat="42.1418617" lon="-7.962715"><ele>589.0</ele><time>2026-04-01T09:36:26.809Z</time></trkpt><trkpt lat="42.1418" lon="-7.9625833"><ele>589.0</ele><time>2026-04-01T09:36:27.808Z</time></trkpt><trkpt lat="42.1417433" lon="-7.962445"><ele>589.0</ele><time>2026-04-01T09:36:28.809Z</time></trkpt><trkpt lat="42.1417067" lon="-7.9623317"><ele>589.0</ele><time>2026-04-01T09:36:29.809Z</time></trkpt><trkpt lat="42.1416917" lon="-7.9622267"><ele>588.2</ele><time>2026-04-01T09:36:30.809Z</time></trkpt><trkpt lat="42.14169" lon="-7.9621167"><ele>587.4</ele><time>2026-04-01T09:36:31.81Z</time></trkpt><trkpt lat="42.141725" lon="-7.9619767"><ele>586.6</ele><time>2026-04-01T09:36:32.809Z</time></trkpt><trkpt lat="42.1417633" lon="-7.96184"><ele>585.8</ele><time>2026-04-01T09:36:33.81Z</time></trkpt><trkpt lat="42.141795" lon="-7.961695"><ele>585.0</ele><time>2026-04-01T09:36:34.808Z</time></trkpt><trkpt lat="42.1418183" lon="-7.9615433"><ele>584.6666666666666</ele><time>2026-04-01T09:36:35.809Z</time></trkpt><trkpt lat="42.1418333" lon="-7.9613933"><ele>584.3333333333334</ele><time>2026-04-01T09:36:36.809Z</time></trkpt><trkpt lat="42.14185" lon="-7.961255"><ele>584.0</ele><time>2026-04-01T09:36:37.809Z</time></trkpt><trkpt lat="42.14187" lon="-7.96114"><ele>583.6666666666667</ele><time>2026-04-01T09:36:38.81Z</time></trkpt><trkpt lat="42.1418817" lon="-7.9610333"><ele>583.3333333333334</ele><time>2026-04-01T09:36:39.808Z</time></trkpt><trkpt lat="42.141865" lon="-7.9609483"><ele>583.0</ele><time>2026-04-01T09:36:40.81Z</time></trkpt><trkpt lat="42.1418433" lon="-7.9608683"><ele>584.0</ele><time>2026-04-01T09:36:41.811Z</time></trkpt><trkpt lat="42.1418283" lon="-7.9607067"><ele>585.0</ele><time>2026-04-01T09:36:43.81Z</time></trkpt><trkpt lat="42.141875" lon="-7.9605517"><ele>586.0</ele><time>2026-04-01T09:36:45.81Z</time></trkpt><trkpt lat="42.14192" lon="-7.9604017"><ele>587.0</ele><time>2026-04-01T09:36:47.809Z</time></trkpt><trkpt lat="42.141935" lon="-7.960255"><ele>587.0</ele><time>2026-04-01T09:36:49.808Z</time></trkpt><trkpt lat="42.1419317" lon="-7.9601683"><ele>587.0</ele><time>2026-04-01T09:36:51.808Z</time></trkpt><trkpt lat="42.1418183" lon="-7.9602483"><ele>587.0</ele><time>2026-04-01T09:36:55.81Z</time></trkpt><trkpt lat="42.1417" lon="-7.9603233"><ele>587.0</ele><time>2026-04-01T09:36:57.809Z</time></trkpt><trkpt lat="42.1416033" lon="-7.9604117"><ele>587.0</ele><time>2026-04-01T09:36:58.81Z</time></trkpt><trkpt lat="42.1415367" lon="-7.960465"><ele>591.6</ele><time>2026-04-01T09:36:59.809Z</time></trkpt><trkpt lat="42.1414617" lon="-7.9605233"><ele>596.2</ele><time>2026-04-01T09:37:00.809Z</time></trkpt><trkpt lat="42.141395" lon="-7.960565"><ele>600.8</ele><time>2026-04-01T09:37:01.808Z</time></trkpt><trkpt lat="42.14127" lon="-7.9606483"><ele>605.4</ele><time>2026-04-01T09:37:02.809Z</time></trkpt><trkpt lat="42.1411517" lon="-7.9607133"><ele>610.0</ele><time>2026-04-01T09:37:03.808Z</time></trkpt><trkpt lat="42.141065" lon="-7.9607517"><ele>610.0</ele><time>2026-04-01T09:37:04.809Z</time></trkpt><trkpt lat="42.1409483" lon="-7.9607867"><ele>610.0</ele><time>2026-04-01T09:37:05.809Z</time></trkpt><trkpt lat="42.1408867" lon="-7.96083"><ele>610.0</ele><time>2026-04-01T09:37:06.809Z</time></trkpt><trkpt lat="42.1408233" lon="-7.960875"><ele>610.0</ele><time>2026-04-01T09:37:07.81Z</time></trkpt><trkpt lat="42.1407333" lon="-7.961025"><ele>610.0</ele><time>2026-04-01T09:37:09.809Z</time></trkpt><trkpt lat="42.1407133" lon="-7.9611717"><ele>613.4</ele><time>2026-04-01T09:37:10.81Z</time></trkpt><trkpt lat="42.1406833" lon="-7.9612833"><ele>616.8</ele><time>2026-04-01T09:37:11.809Z</time></trkpt><trkpt lat="42.1406617" lon="-7.961405"><ele>620.2</ele><time>2026-04-01T09:37:12.809Z</time></trkpt><trkpt lat="42.1406483" lon="-7.96152"><ele>623.6</ele><time>2026-04-01T09:37:13.809Z</time></trkpt><trkpt lat="42.1406783" lon="-7.961645"><ele>627.0</ele><time>2026-04-01T09:37:14.811Z</time></trkpt><trkpt lat="42.1406867" lon="-7.961825"><ele>627.0</ele><time>2026-04-01T09:37:16.808Z</time></trkpt><trkpt lat="42.1406867" lon="-7.9619283"><ele>627.0</ele><time>2026-04-01T09:37:18.809Z</time></trkpt><trkpt lat="42.14077" lon="-7.9618883"><ele>627.0</ele><time>2026-04-01T09:37:30.808Z</time></trkpt><trkpt lat="42.1408267" lon="-7.961975"><ele>627.0</ele><time>2026-04-01T09:37:32.81Z</time></trkpt><trkpt lat="42.1408483" lon="-7.962085"><ele>627.0</ele><time>2026-04-01T09:37:34.808Z</time></trkpt><trkpt lat="42.140825" lon="-7.9621933"><ele>627.0</ele><time>2026-04-01T09:37:36.81Z</time></trkpt><trkpt lat="42.140755" lon="-7.9623217"><ele>627.0</ele><time>2026-04-01T09:37:38.81Z</time></trkpt><trkpt lat="42.140715" lon="-7.9624083"><ele>627.0</ele><time>2026-04-01T09:37:39.809Z</time></trkpt><trkpt lat="42.1406733" lon="-7.9625033"><ele>627.0</ele><time>2026-04-01T09:37:40.809Z</time></trkpt><trkpt lat="42.140655" lon="-7.9626117"><ele>627.0</ele><time>2026-04-01T09:37:41.809Z</time></trkpt><trkpt lat="42.140655" lon="-7.962715"><ele>627.0</ele><time>2026-04-01T09:37:42.809Z</time></trkpt><trkpt lat="42.1406667" lon="-7.9628383"><ele>627.0</ele><time>2026-04-01T09:37:43.809Z</time></trkpt><trkpt lat="42.1406817" lon="-7.9629567"><ele>627.5</ele><time>2026-04-01T09:37:44.809Z</time></trkpt><trkpt lat="42.140705" lon="-7.9630783"><ele>628.0</ele><time>2026-04-01T09:37:45.808Z</time></trkpt><trkpt lat="42.140735" lon="-7.9632167"><ele>628.5</ele><time>2026-04-01T09:37:46.81Z</time></trkpt><trkpt lat="42.1407567" lon="-7.96332"><ele>629.0</ele><time>2026-04-01T09:37:47.809Z</time></trkpt><trkpt lat="42.1407867" lon="-7.96342"><ele>629.5</ele><time>2026-04-01T09:37:48.809Z</time></trkpt><trkpt lat="42.140825" lon="-7.9635117"><ele>630.0</ele><time>2026-04-01T09:37:49.809Z</time></trkpt><trkpt lat="42.14085" lon="-7.9635933"><ele>629.6</ele><time>2026-04-01T09:37:50.809Z</time></trkpt><trkpt lat="42.1408717" lon="-7.963765"><ele>629.2</ele><time>2026-04-01T09:37:52.809Z</time></trkpt><trkpt lat="42.1408633" lon="-7.9639133"><ele>628.8</ele><time>2026-04-01T09:37:54.809Z</time></trkpt><trkpt lat="42.1407967" lon="-7.9640017"><ele>628.4</ele><time>2026-04-01T09:37:56.809Z</time></trkpt><trkpt lat="42.140685" lon="-7.964005"><ele>628.0</ele><time>2026-04-01T09:37:58.81Z</time></trkpt><trkpt lat="42.1405533" lon="-7.964025"><ele>628.0</ele><time>2026-04-01T09:38:00.81Z</time></trkpt><trkpt lat="42.1404583" lon="-7.964055"><ele>628.0</ele><time>2026-04-01T09:38:01.808Z</time></trkpt><trkpt lat="42.1403767" lon="-7.9640917"><ele>628.0</ele><time>2026-04-01T09:38:02.809Z</time></trkpt><trkpt lat="42.1402967" lon="-7.964125"><ele>628.0</ele><time>2026-04-01T09:38:03.812Z</time></trkpt><trkpt lat="42.1402183" lon="-7.9641367"><ele>628.0</ele><time>2026-04-01T09:38:04.81Z</time></trkpt><trkpt lat="42.1401483" lon="-7.9641233"><ele>628.0</ele><time>2026-04-01T09:38:05.809Z</time></trkpt><trkpt lat="42.1400817" lon="-7.9640983"><ele>628.0</ele><time>2026-04-01T09:38:06.81Z</time></trkpt><trkpt lat="42.139985" lon="-7.9640033"><ele>628.0</ele><time>2026-04-01T09:38:08.809Z</time></trkpt><trkpt lat="42.139915" lon="-7.9638983"><ele>628.0</ele><time>2026-04-01T09:38:10.81Z</time></trkpt><trkpt lat="42.1399183" lon="-7.963765"><ele>628.0</ele><time>2026-04-01T09:38:12.811Z</time></trkpt><trkpt lat="42.1399433" lon="-7.9636683"><ele>628.0</ele><time>2026-04-01T09:38:13.809Z</time></trkpt><trkpt lat="42.1399483" lon="-7.96358"><ele>628.0</ele><time>2026-04-01T09:38:14.809Z</time></trkpt><trkpt lat="42.1399383" lon="-7.9634483"><ele>628.0</ele><time>2026-04-01T09:38:16.808Z</time></trkpt><trkpt lat="42.1398567" lon="-7.9634067"><ele>628.0</ele><time>2026-04-01T09:38:18.809Z</time></trkpt><trkpt lat="42.13978" lon="-7.9633583"><ele>628.0</ele><time>2026-04-01T09:38:19.809Z</time></trkpt><trkpt lat="42.139735" lon="-7.96329"><ele>628.0</ele><time>2026-04-01T09:38:20.809Z</time></trkpt><trkpt lat="42.1396833" lon="-7.9632383"><ele>628.0</ele><time>2026-04-01T09:38:21.808Z</time></trkpt><trkpt lat="42.13959" lon="-7.9631533"><ele>631.8</ele><time>2026-04-01T09:38:23.811Z</time></trkpt><trkpt lat="42.139495" lon="-7.9631167"><ele>635.5999999999999</ele><time>2026-04-01T09:38:25.809Z</time></trkpt><trkpt lat="42.1394117" lon="-7.9631283"><ele>639.4000000000001</ele><time>2026-04-01T09:38:27.809Z</time></trkpt><trkpt lat="42.139315" lon="-7.9631733"><ele>643.2</ele><time>2026-04-01T09:38:29.809Z</time></trkpt><trkpt lat="42.1391867" lon="-7.9631983"><ele>647.0</ele><time>2026-04-01T09:38:31.809Z</time></trkpt><trkpt lat="42.1390817" lon="-7.9631633"><ele>651.4000000000001</ele><time>2026-04-01T09:38:33.808Z</time></trkpt><trkpt lat="42.1389767" lon="-7.963125"><ele>655.8000000000001</ele><time>2026-04-01T09:38:35.81Z</time></trkpt><trkpt lat="42.13888" lon="-7.9630967"><ele>660.2</ele><time>2026-04-01T09:38:37.809Z</time></trkpt><trkpt lat="42.1387767" lon="-7.9630633"><ele>664.6</ele><time>2026-04-01T09:38:39.809Z</time></trkpt><trkpt lat="42.1387033" lon="-7.9629867"><ele>669.0</ele><time>2026-04-01T09:38:41.809Z</time></trkpt><trkpt lat="42.1386233" lon="-7.9628467"><ele>669.0</ele><time>2026-04-01T09:38:43.809Z</time></trkpt><trkpt lat="42.1384367" lon="-7.9628383"><ele>669.0</ele><time>2026-04-01T09:38:45.809Z</time></trkpt><trkpt lat="42.138375" lon="-7.9627583"><ele>669.0</ele><time>2026-04-01T09:38:46.809Z</time></trkpt><trkpt lat="42.1383117" lon="-7.9626583"><ele>669.0</ele><time>2026-04-01T09:38:47.809Z</time></trkpt><trkpt lat="42.13823" lon="-7.9625317"><ele>671.6666666666666</ele><time>2026-04-01T09:38:48.809Z</time></trkpt><trkpt lat="42.13817" lon="-7.9624333"><ele>674.3333333333334</ele><time>2026-04-01T09:38:49.809Z</time></trkpt><trkpt lat="42.1381017" lon="-7.962355"><ele>677.0</ele><time>2026-04-01T09:38:50.809Z</time></trkpt><trkpt lat="42.13803" lon="-7.9622883"><ele>679.6666666666667</ele><time>2026-04-01T09:38:51.808Z</time></trkpt><trkpt lat="42.1379533" lon="-7.9622383"><ele>682.3333333333334</ele><time>2026-04-01T09:38:52.809Z</time></trkpt><trkpt lat="42.13788" lon="-7.9621933"><ele>685.0</ele><time>2026-04-01T09:38:53.81Z</time></trkpt><trkpt lat="42.137795" lon="-7.96217"><ele>685.0</ele><time>2026-04-01T09:38:54.81Z</time></trkpt><trkpt lat="42.1376983" lon="-7.9621383"><ele>685.0</ele><time>2026-04-01T09:38:55.809Z</time></trkpt><trkpt lat="42.1376067" lon="-7.962075"><ele>685.0</ele><time>2026-04-01T09:38:56.809Z</time></trkpt><trkpt lat="42.1375383" lon="-7.962025"><ele>685.0</ele><time>2026-04-01T09:38:57.808Z</time></trkpt><trkpt lat="42.1374733" lon="-7.9619617"><ele>685.0</ele><time>2026-04-01T09:38:58.81Z</time></trkpt><trkpt lat="42.1373733" lon="-7.9618817"><ele>687.1428571428571</ele><time>2026-04-01T09:39:00.809Z</time></trkpt><trkpt lat="42.1373017" lon="-7.961845"><ele>689.2857142857143</ele><time>2026-04-01T09:39:02.811Z</time></trkpt><trkpt lat="42.1372567" lon="-7.9619383"><ele>691.4285714285714</ele><time>2026-04-01T09:39:05.81Z</time></trkpt><trkpt lat="42.13723" lon="-7.96203"><ele>693.5714285714286</ele><time>2026-04-01T09:39:06.809Z</time></trkpt><trkpt lat="42.1372033" lon="-7.9621217"><ele>695.7142857142858</ele><time>2026-04-01T09:39:07.81Z</time></trkpt><trkpt lat="42.1371883" lon="-7.962205"><ele>697.8571428571429</ele><time>2026-04-01T09:39:08.809Z</time></trkpt><trkpt lat="42.13718" lon="-7.9623083"><ele>700.0</ele><time>2026-04-01T09:39:09.808Z</time></trkpt><trkpt lat="42.1371667" lon="-7.9624283"><ele>700.0</ele><time>2026-04-01T09:39:10.81Z</time></trkpt><trkpt lat="42.137145" lon="-7.9625267"><ele>700.0</ele><time>2026-04-01T09:39:11.809Z</time></trkpt><trkpt lat="42.1371033" lon="-7.9626267"><ele>700.0</ele><time>2026-04-01T09:39:12.808Z</time></trkpt><trkpt lat="42.137065" lon="-7.9627"><ele>700.0</ele><time>2026-04-01T09:39:13.81Z</time></trkpt><trkpt lat="42.1370017" lon="-7.9627417"><ele>700.0</ele><time>2026-04-01T09:39:14.809Z</time></trkpt><trkpt lat="42.1368417" lon="-7.9629133"><ele>699.4</ele><time>2026-04-01T09:39:15.808Z</time></trkpt><trkpt lat="42.1367183" lon="-7.9628933"><ele>698.8</ele><time>2026-04-01T09:39:17.809Z</time></trkpt><trkpt lat="42.136615" lon="-7.962935"><ele>698.2</ele><time>2026-04-01T09:39:19.809Z</time></trkpt><trkpt lat="42.1365383" lon="-7.9629633"><ele>697.6</ele><time>2026-04-01T09:39:20.811Z</time></trkpt><trkpt lat="42.136465" lon="-7.9629917"><ele>697.0</ele><time>2026-04-01T09:39:21.808Z</time></trkpt><trkpt lat="42.1363433" lon="-7.9630767"><ele>699.3333333333334</ele><time>2026-04-01T09:39:23.81Z</time></trkpt><trkpt lat="42.1362733" lon="-7.963115"><ele>701.6666666666667</ele><time>2026-04-01T09:39:24.809Z</time></trkpt><trkpt lat="42.1361983" lon="-7.9631267"><ele>704.0</ele><time>2026-04-01T09:39:25.809Z</time></trkpt><trkpt lat="42.136105" lon="-7.9630583"><ele>706.3333333333334</ele><time>2026-04-01T09:39:27.809Z</time></trkpt><trkpt lat="42.1360783" lon="-7.9629517"><ele>708.6666666666666</ele><time>2026-04-01T09:39:28.808Z</time></trkpt><trkpt lat="42.13606" lon="-7.96285"><ele>711.0</ele><time>2026-04-01T09:39:29.809Z</time></trkpt><trkpt lat="42.1360733" lon="-7.9627133"><ele>711.0</ele><time>2026-04-01T09:39:30.809Z</time></trkpt><trkpt lat="42.136065" lon="-7.9625933"><ele>711.0</ele><time>2026-04-01T09:39:31.809Z</time></trkpt><trkpt lat="42.1360717" lon="-7.962475"><ele>711.0</ele><time>2026-04-01T09:39:32.809Z</time></trkpt><trkpt lat="42.1360583" lon="-7.9623733"><ele>711.0</ele><time>2026-04-01T09:39:33.808Z</time></trkpt><trkpt lat="42.1360317" lon="-7.9622583"><ele>711.0</ele><time>2026-04-01T09:39:34.808Z</time></trkpt><trkpt lat="42.1359817" lon="-7.9621683"><ele>711.0</ele><time>2026-04-01T09:39:35.809Z</time></trkpt><trkpt lat="42.1359117" lon="-7.9620717"><ele>711.75</ele><time>2026-04-01T09:39:36.809Z</time></trkpt><trkpt lat="42.135825" lon="-7.9619517"><ele>712.5</ele><time>2026-04-01T09:39:37.809Z</time></trkpt><trkpt lat="42.1357433" lon="-7.9618317"><ele>713.25</ele><time>2026-04-01T09:39:38.809Z</time></trkpt><trkpt lat="42.1356767" lon="-7.9617083"><ele>714.0</ele><time>2026-04-01T09:39:39.809Z</time></trkpt><trkpt lat="42.13563" lon="-7.96158"><ele>716.0</ele><time>2026-04-01T09:39:40.809Z</time></trkpt><trkpt lat="42.1355867" lon="-7.9614717"><ele>718.0</ele><time>2026-04-01T09:39:41.808Z</time></trkpt><trkpt lat="42.1355433" lon="-7.9613717"><ele>720.0</ele><time>2026-04-01T09:39:42.809Z</time></trkpt><trkpt lat="42.1354983" lon="-7.9612883"><ele>722.0</ele><time>2026-04-01T09:39:43.809Z</time></trkpt><trkpt lat="42.135375" lon="-7.9612283"><ele>724.0</ele><time>2026-04-01T09:39:45.81Z</time></trkpt><trkpt lat="42.1353083" lon="-7.9612033"><ele>724.0</ele><time>2026-04-01T09:39:46.809Z</time></trkpt><trkpt lat="42.1352383" lon="-7.9612067"><ele>724.0</ele><time>2026-04-01T09:39:47.808Z</time></trkpt><trkpt lat="42.1351717" lon="-7.9612067"><ele>724.0</ele><time>2026-04-01T09:39:48.812Z</time></trkpt><trkpt lat="42.135075" lon="-7.96127"><ele>724.0</ele><time>2026-04-01T09:39:50.81Z</time></trkpt><trkpt lat="42.135015" lon="-7.9613217"><ele>724.0</ele><time>2026-04-01T09:39:51.81Z</time></trkpt><trkpt lat="42.1349433" lon="-7.961365"><ele>724.0</ele><time>2026-04-01T09:39:52.809Z</time></trkpt><trkpt lat="42.1348483" lon="-7.9613883"><ele>725.6666666666667</ele><time>2026-04-01T09:39:53.809Z</time></trkpt><trkpt lat="42.13474" lon="-7.9613617"><ele>727.3333333333334</ele><time>2026-04-01T09:39:54.808Z</time></trkpt><trkpt lat="42.1346683" lon="-7.96136"><ele>729.0</ele><time>2026-04-01T09:39:55.809Z</time></trkpt><trkpt lat="42.1345617" lon="-7.9613567"><ele>730.6666666666666</ele><time>2026-04-01T09:39:57.81Z</time></trkpt><trkpt lat="42.1345017" lon="-7.9614367"><ele>732.3333333333333</ele><time>2026-04-01T09:39:59.809Z</time></trkpt><trkpt lat="42.134485" lon="-7.96152"><ele>734.0</ele><time>2026-04-01T09:40:00.809Z</time></trkpt><trkpt lat="42.1344683" lon="-7.961635"><ele>733.5</ele><time>2026-04-01T09:40:01.81Z</time></trkpt><trkpt lat="42.1344483" lon="-7.9617367"><ele>733.0</ele><time>2026-04-01T09:40:02.81Z</time></trkpt><trkpt lat="42.1344183" lon="-7.961845"><ele>732.5</ele><time>2026-04-01T09:40:03.809Z</time></trkpt><trkpt lat="42.1343817" lon="-7.9619267"><ele>732.0</ele><time>2026-04-01T09:40:04.81Z</time></trkpt><trkpt lat="42.1343233" lon="-7.962015"><ele>731.5</ele><time>2026-04-01T09:40:05.809Z</time></trkpt><trkpt lat="42.1342483" lon="-7.962125"><ele>731.0</ele><time>2026-04-01T09:40:06.809Z</time></trkpt><trkpt lat="42.1341783" lon="-7.962225"><ele>731.0</ele><time>2026-04-01T09:40:07.809Z</time></trkpt><trkpt lat="42.134125" lon="-7.9623167"><ele>731.0</ele><time>2026-04-01T09:40:08.811Z</time></trkpt><trkpt lat="42.1340717" lon="-7.96239"><ele>731.0</ele><time>2026-04-01T09:40:09.808Z</time></trkpt><trkpt lat="42.1340133" lon="-7.9624467"><ele>731.0</ele><time>2026-04-01T09:40:10.809Z</time></trkpt><trkpt lat="42.13394" lon="-7.9624883"><ele>731.0</ele><time>2026-04-01T09:40:11.81Z</time></trkpt><trkpt lat="42.133855" lon="-7.9625167"><ele>731.0</ele><time>2026-04-01T09:40:12.809Z</time></trkpt><trkpt lat="42.1337683" lon="-7.9625367"><ele>732.0</ele><time>2026-04-01T09:40:13.81Z</time></trkpt><trkpt lat="42.1336683" lon="-7.9625567"><ele>733.0</ele><time>2026-04-01T09:40:14.811Z</time></trkpt><trkpt lat="42.1335667" lon="-7.9625533"><ele>734.0</ele><time>2026-04-01T09:40:15.809Z</time></trkpt><trkpt lat="42.1334667" lon="-7.9625567"><ele>735.0</ele><time>2026-04-01T09:40:16.808Z</time></trkpt><trkpt lat="42.1333717" lon="-7.9625633"><ele>736.0</ele><time>2026-04-01T09:40:17.809Z</time></trkpt><trkpt lat="42.133265" lon="-7.9626017"><ele>738.1666666666667</ele><time>2026-04-01T09:40:18.809Z</time></trkpt><trkpt lat="42.1331683" lon="-7.962655"><ele>740.3333333333334</ele><time>2026-04-01T09:40:19.809Z</time></trkpt><trkpt lat="42.133105" lon="-7.9627267"><ele>742.5</ele><time>2026-04-01T09:40:20.81Z</time></trkpt><trkpt lat="42.13305" lon="-7.9627917"><ele>744.6666666666666</ele><time>2026-04-01T09:40:21.809Z</time></trkpt><trkpt lat="42.1329833" lon="-7.9628433"><ele>746.8333333333333</ele><time>2026-04-01T09:40:22.809Z</time></trkpt><trkpt lat="42.1329067" lon="-7.9628983"><ele>749.0</ele><time>2026-04-01T09:40:23.809Z</time></trkpt><trkpt lat="42.1328067" lon="-7.9628983"><ele>749.0</ele><time>2026-04-01T09:40:24.81Z</time></trkpt><trkpt lat="42.1327017" lon="-7.9629017"><ele>749.0</ele><time>2026-04-01T09:40:25.81Z</time></trkpt><trkpt lat="42.1325967" lon="-7.9629083"><ele>749.0</ele><time>2026-04-01T09:40:26.809Z</time></trkpt><trkpt lat="42.13249" lon="-7.96291"><ele>749.0</ele><time>2026-04-01T09:40:27.809Z</time></trkpt><trkpt lat="42.1323829" lon="-7.9629068"><ele>749.0</ele><time>2026-04-01T09:40:28.809Z</time></trkpt><trkpt lat="42.1322706" lon="-7.9628933"><ele>751.75</ele><time>2026-04-01T09:40:29.81Z</time></trkpt><trkpt lat="42.1321556" lon="-7.9628776"><ele>754.5</ele><time>2026-04-01T09:40:30.809Z</time></trkpt><trkpt lat="42.1320357" lon="-7.9628594"><ele>757.25</ele><time>2026-04-01T09:40:31.809Z</time></trkpt><trkpt lat="42.1319152" lon="-7.9628354"><ele>760.0</ele><time>2026-04-01T09:40:32.81Z</time></trkpt><trkpt lat="42.1318074" lon="-7.9627933"><ele>760.0</ele><time>2026-04-01T09:40:33.81Z</time></trkpt><trkpt lat="42.1317007" lon="-7.9627563"><ele>760.0</ele><time>2026-04-01T09:40:34.81Z</time></trkpt><trkpt lat="42.1315941" lon="-7.9627448"><ele>760.0</ele><time>2026-04-01T09:40:35.812Z</time></trkpt><trkpt lat="42.1314845" lon="-7.9627288"><ele>760.0</ele><time>2026-04-01T09:40:36.809Z</time></trkpt><trkpt lat="42.1313711" lon="-7.9627075"><ele>760.0</ele><time>2026-04-01T09:40:37.809Z</time></trkpt><trkpt lat="42.1312585" lon="-7.9626818"><ele>761.75</ele><time>2026-04-01T09:40:38.809Z</time></trkpt><trkpt lat="42.1311461" lon="-7.9626579"><ele>763.5</ele><time>2026-04-01T09:40:39.812Z</time></trkpt><trkpt lat="42.1310356" lon="-7.9626271"><ele>765.25</ele><time>2026-04-01T09:40:40.809Z</time></trkpt><trkpt lat="42.1309298" lon="-7.9625673"><ele>767.0</ele><time>2026-04-01T09:40:41.809Z</time></trkpt><trkpt lat="42.1308354" lon="-7.9624781"><ele>767.0</ele><time>2026-04-01T09:40:42.809Z</time></trkpt><trkpt lat="42.1307588" lon="-7.9623974"><ele>767.0</ele><time>2026-04-01T09:40:43.809Z</time></trkpt><trkpt lat="42.1306958" lon="-7.962343"><ele>767.0</ele><time>2026-04-01T09:40:44.809Z</time></trkpt><trkpt lat="42.1306252" lon="-7.962322"><ele>767.0</ele><time>2026-04-01T09:40:45.809Z</time></trkpt><trkpt lat="42.1305419" lon="-7.9623292"><ele>767.0</ele><time>2026-04-01T09:40:46.81Z</time></trkpt><trkpt lat="42.1304348" lon="-7.9623693"><ele>767.0</ele><time>2026-04-01T09:40:47.809Z</time></trkpt><trkpt lat="42.1303023" lon="-7.9624218"><ele>770.0</ele><time>2026-04-01T09:40:48.809Z</time></trkpt><trkpt lat="42.1301673" lon="-7.962469"><ele>773.0</ele><time>2026-04-01T09:40:49.81Z</time></trkpt><trkpt lat="42.1300355" lon="-7.9625102"><ele>776.0</ele><time>2026-04-01T09:40:50.809Z</time></trkpt><trkpt lat="42.1299069" lon="-7.9625484"><ele>779.0</ele><time>2026-04-01T09:40:51.809Z</time></trkpt><trkpt lat="42.1297895" lon="-7.9625887"><ele>781.25</ele><time>2026-04-01T09:40:52.81Z</time></trkpt><trkpt lat="42.1296701" lon="-7.9626214"><ele>783.5</ele><time>2026-04-01T09:40:53.81Z</time></trkpt><trkpt lat="42.1295327" lon="-7.9626515"><ele>785.75</ele><time>2026-04-01T09:40:54.809Z</time></trkpt><trkpt lat="42.1293701" lon="-7.9626834"><ele>788.0</ele><time>2026-04-01T09:40:55.81Z</time></trkpt><trkpt lat="42.129194" lon="-7.9627129"><ele>787.25</ele><time>2026-04-01T09:40:56.81Z</time></trkpt><trkpt lat="42.1290272" lon="-7.9627443"><ele>786.5</ele><time>2026-04-01T09:40:57.809Z</time></trkpt><trkpt lat="42.1288779" lon="-7.962781"><ele>785.75</ele><time>2026-04-01T09:40:58.809Z</time></trkpt><trkpt lat="42.128769" lon="-7.9628052"><ele>785.0</ele><time>2026-04-01T09:40:59.809Z</time></trkpt><trkpt lat="42.1286978" lon="-7.9628236"><ele>785.0</ele><time>2026-04-01T09:41:00.809Z</time></trkpt><trkpt lat="42.1286187" lon="-7.9628797"><ele>785.0</ele><time>2026-04-01T09:41:02.812Z</time></trkpt><trkpt lat="42.1285857" lon="-7.9630224"><ele>785.0</ele><time>2026-04-01T09:41:04.813Z</time></trkpt><trkpt lat="42.1285591" lon="-7.9631415"><ele>785.0</ele><time>2026-04-01T09:41:05.812Z</time></trkpt><trkpt lat="42.1285145" lon="-7.9633009"><ele>785.0</ele><time>2026-04-01T09:41:06.808Z</time></trkpt><trkpt lat="42.1284575" lon="-7.9634923"><ele>786.3333333333334</ele><time>2026-04-01T09:41:07.813Z</time></trkpt><trkpt lat="42.1283948" lon="-7.9637048"><ele>787.6666666666667</ele><time>2026-04-01T09:41:08.811Z</time></trkpt><trkpt lat="42.1283331" lon="-7.9639235"><ele>789.0</ele><time>2026-04-01T09:41:09.81Z</time></trkpt><trkpt lat="42.1282745" lon="-7.9641327"><ele>789.25</ele><time>2026-04-01T09:41:10.812Z</time></trkpt><trkpt lat="42.1282129" lon="-7.9643267"><ele>789.5</ele><time>2026-04-01T09:41:11.81Z</time></trkpt><trkpt lat="42.1281559" lon="-7.9645077"><ele>789.75</ele><time>2026-04-01T09:41:12.811Z</time></trkpt><trkpt lat="42.1281072" lon="-7.9646929"><ele>790.0</ele><time>2026-04-01T09:41:13.811Z</time></trkpt><trkpt lat="42.1280619" lon="-7.9648983"><ele>792.5</ele><time>2026-04-01T09:41:14.811Z</time></trkpt><trkpt lat="42.1280134" lon="-7.9650988"><ele>795.0</ele><time>2026-04-01T09:41:15.811Z</time></trkpt><trkpt lat="42.1279649" lon="-7.9652791"><ele>797.5</ele><time>2026-04-01T09:41:16.811Z</time></trkpt><trkpt lat="42.1279304" lon="-7.9654373"><ele>800.0</ele><time>2026-04-01T09:41:17.81Z</time></trkpt><trkpt lat="42.1279216" lon="-7.9655727"><ele>800.0</ele><time>2026-04-01T09:41:18.811Z</time></trkpt><trkpt lat="42.1279359" lon="-7.9656987"><ele>800.0</ele><time>2026-04-01T09:41:19.813Z</time></trkpt><trkpt lat="42.1279586" lon="-7.9658186"><ele>800.0</ele><time>2026-04-01T09:41:20.81Z</time></trkpt><trkpt lat="42.1279596" lon="-7.9659408"><ele>800.0</ele><time>2026-04-01T09:41:21.81Z</time></trkpt><trkpt lat="42.1279419" lon="-7.9660692"><ele>800.0</ele><time>2026-04-01T09:41:22.809Z</time></trkpt><trkpt lat="42.127905" lon="-7.9661993"><ele>802.4</ele><time>2026-04-01T09:41:23.811Z</time></trkpt><trkpt lat="42.1278731" lon="-7.9663324"><ele>804.8</ele><time>2026-04-01T09:41:24.811Z</time></trkpt><trkpt lat="42.1278564" lon="-7.9664661"><ele>807.2</ele><time>2026-04-01T09:41:25.81Z</time></trkpt><trkpt lat="42.1278462" lon="-7.9666013"><ele>809.6</ele><time>2026-04-01T09:41:26.81Z</time></trkpt><trkpt lat="42.1278399" lon="-7.9667306"><ele>812.0</ele><time>2026-04-01T09:41:27.811Z</time></trkpt><trkpt lat="42.1278396" lon="-7.966855"><ele>813.8</ele><time>2026-04-01T09:41:28.812Z</time></trkpt><trkpt lat="42.1278459" lon="-7.9669919"><ele>815.6</ele><time>2026-04-01T09:41:29.811Z</time></trkpt><trkpt lat="42.1278492" lon="-7.9671297"><ele>817.4</ele><time>2026-04-01T09:41:30.811Z</time></trkpt><trkpt lat="42.1278569" lon="-7.9672657"><ele>819.1999999999999</ele><time>2026-04-01T09:41:31.81Z</time></trkpt><trkpt lat="42.1278796" lon="-7.9674015"><ele>821.0</ele><time>2026-04-01T09:41:32.811Z</time></trkpt><trkpt lat="42.1279102" lon="-7.9675322"><ele>822.5999999999999</ele><time>2026-04-01T09:41:33.81Z</time></trkpt><trkpt lat="42.1279345" lon="-7.9676602"><ele>824.2</ele><time>2026-04-01T09:41:34.811Z</time></trkpt><trkpt lat="42.1279383" lon="-7.9677967"><ele>825.8</ele><time>2026-04-01T09:41:35.811Z</time></trkpt><trkpt lat="42.1279249" lon="-7.9679366"><ele>827.4000000000001</ele><time>2026-04-01T09:41:36.811Z</time></trkpt><trkpt lat="42.1279001" lon="-7.9680775"><ele>829.0</ele><time>2026-04-01T09:41:37.811Z</time></trkpt><trkpt lat="42.1278798" lon="-7.968222"><ele>831.0</ele><time>2026-04-01T09:41:38.812Z</time></trkpt><trkpt lat="42.1278501" lon="-7.9683643"><ele>833.0</ele><time>2026-04-01T09:41:39.81Z</time></trkpt><trkpt lat="42.1278132" lon="-7.9685041"><ele>835.0</ele><time>2026-04-01T09:41:40.811Z</time></trkpt><trkpt lat="42.1277616" lon="-7.9686295"><ele>837.0</ele><time>2026-04-01T09:41:41.81Z</time></trkpt><trkpt lat="42.1276988" lon="-7.9687494"><ele>839.0</ele><time>2026-04-01T09:41:42.811Z</time></trkpt><trkpt lat="42.1276235" lon="-7.968874"><ele>839.0</ele><time>2026-04-01T09:41:43.81Z</time></trkpt><trkpt lat="42.1275449" lon="-7.9690009"><ele>839.0</ele><time>2026-04-01T09:41:44.81Z</time></trkpt><trkpt lat="42.1274683" lon="-7.9691219"><ele>839.0</ele><time>2026-04-01T09:41:45.81Z</time></trkpt><trkpt lat="42.1273773" lon="-7.9692322"><ele>839.0</ele><time>2026-04-01T09:41:46.812Z</time></trkpt><trkpt lat="42.1272715" lon="-7.969335"><ele>837.75</ele><time>2026-04-01T09:41:47.814Z</time></trkpt><trkpt lat="42.1271753" lon="-7.9694358"><ele>836.5</ele><time>2026-04-01T09:41:48.81Z</time></trkpt><trkpt lat="42.1271088" lon="-7.9695531"><ele>835.25</ele><time>2026-04-01T09:41:49.812Z</time></trkpt><trkpt lat="42.1270617" lon="-7.9696969"><ele>834.0</ele><time>2026-04-01T09:41:50.811Z</time></trkpt><trkpt lat="42.1270216" lon="-7.969859"><ele>834.75</ele><time>2026-04-01T09:41:51.811Z</time></trkpt><trkpt lat="42.1269849" lon="-7.9700327"><ele>835.5</ele><time>2026-04-01T09:41:52.81Z</time></trkpt><trkpt lat="42.1269421" lon="-7.9702242"><ele>836.25</ele><time>2026-04-01T09:41:53.812Z</time></trkpt><trkpt lat="42.1268976" lon="-7.9704267"><ele>837.0</ele><time>2026-04-01T09:41:54.811Z</time></trkpt><trkpt lat="42.1268587" lon="-7.9706352"><ele>837.3333333333333</ele><time>2026-04-01T09:41:55.81Z</time></trkpt><trkpt lat="42.1268163" lon="-7.9708602"><ele>837.6666666666666</ele><time>2026-04-01T09:41:56.811Z</time></trkpt><trkpt lat="42.1267715" lon="-7.9710867"><ele>838.0</ele><time>2026-04-01T09:41:57.811Z</time></trkpt><trkpt lat="42.126726" lon="-7.9712876"><ele>838.0</ele><time>2026-04-01T09:41:58.811Z</time></trkpt><trkpt lat="42.1266782" lon="-7.9714497"><ele>838.0</ele><time>2026-04-01T09:41:59.812Z</time></trkpt><trkpt lat="42.1266081" lon="-7.9715847"><ele>838.0</ele><time>2026-04-01T09:42:00.81Z</time></trkpt><trkpt lat="42.1265064" lon="-7.971735"><ele>838.0</ele><time>2026-04-01T09:42:01.81Z</time></trkpt><trkpt lat="42.1263733" lon="-7.9719171"><ele>837.6666666666666</ele><time>2026-04-01T09:42:02.812Z</time></trkpt><trkpt lat="42.1262237" lon="-7.9721234"><ele>837.3333333333333</ele><time>2026-04-01T09:42:03.809Z</time></trkpt><trkpt lat="42.1260712" lon="-7.9723285"><ele>837.0</ele><time>2026-04-01T09:42:04.812Z</time></trkpt><trkpt lat="42.1259113" lon="-7.9725249"><ele>836.6666666666667</ele><time>2026-04-01T09:42:05.812Z</time></trkpt><trkpt lat="42.1257545" lon="-7.9727185"><ele>836.3333333333334</ele><time>2026-04-01T09:42:06.809Z</time></trkpt><trkpt lat="42.125601" lon="-7.9729093"><ele>836.0</ele><time>2026-04-01T09:42:07.81Z</time></trkpt><trkpt lat="42.1254466" lon="-7.9731019"><ele>835.6666666666667</ele><time>2026-04-01T09:42:08.81Z</time></trkpt><trkpt lat="42.1252946" lon="-7.9732921"><ele>835.3333333333333</ele><time>2026-04-01T09:42:09.812Z</time></trkpt><trkpt lat="42.1251399" lon="-7.9734918"><ele>835.0</ele><time>2026-04-01T09:42:10.812Z</time></trkpt><trkpt lat="42.1249832" lon="-7.9736956"><ele>835.0</ele><time>2026-04-01T09:42:11.809Z</time></trkpt><trkpt lat="42.1248253" lon="-7.9739043"><ele>835.0</ele><time>2026-04-01T09:42:12.81Z</time></trkpt><trkpt lat="42.1246797" lon="-7.9741051"><ele>835.0</ele><time>2026-04-01T09:42:13.81Z</time></trkpt><trkpt lat="42.1245411" lon="-7.9742823"><ele>835.0</ele><time>2026-04-01T09:42:14.812Z</time></trkpt><trkpt lat="42.1244221" lon="-7.9744297"><ele>835.0</ele><time>2026-04-01T09:42:15.812Z</time></trkpt><trkpt lat="42.1243222" lon="-7.9745594"><ele>835.0</ele><time>2026-04-01T09:42:16.809Z</time></trkpt><trkpt lat="42.1242422" lon="-7.974676"><ele>835.0</ele><time>2026-04-01T09:42:17.812Z</time></trkpt><trkpt lat="42.1241882" lon="-7.9747675"><ele>834.9999999999999</ele><time>2026-04-01T09:42:18.808Z</time></trkpt><trkpt lat="42.1241446" lon="-7.9748472"><ele>835.0</ele><time>2026-04-01T09:42:19.81Z</time></trkpt><trkpt lat="42.1241139" lon="-7.9749214"><ele>835.0</ele><time>2026-04-01T09:42:20.812Z</time></trkpt><trkpt lat="42.1240516" lon="-7.9750529"><ele>835.0</ele><time>2026-04-01T09:42:22.812Z</time></trkpt><trkpt lat="42.1240135" lon="-7.9751212"><ele>834.9999999999999</ele><time>2026-04-01T09:42:23.812Z</time></trkpt><trkpt lat="42.1239715" lon="-7.9752029"><ele>835.0</ele><time>2026-04-01T09:42:24.812Z</time></trkpt><trkpt lat="42.1239288" lon="-7.9752949"><ele>834.6</ele><time>2026-04-01T09:42:25.81Z</time></trkpt><trkpt lat="42.1238799" lon="-7.9753898"><ele>834.2</ele><time>2026-04-01T09:42:26.812Z</time></trkpt><trkpt lat="42.1238264" lon="-7.9754939"><ele>833.8</ele><time>2026-04-01T09:42:27.812Z</time></trkpt><trkpt lat="42.1237653" lon="-7.975618"><ele>833.4</ele><time>2026-04-01T09:42:28.811Z</time></trkpt><trkpt lat="42.1236906" lon="-7.9757573"><ele>833.0</ele><time>2026-04-01T09:42:29.811Z</time></trkpt><trkpt lat="42.1236049" lon="-7.975918"><ele>831.75</ele><time>2026-04-01T09:42:30.812Z</time></trkpt><trkpt lat="42.1235223" lon="-7.9760835"><ele>830.5</ele><time>2026-04-01T09:42:31.812Z</time></trkpt><trkpt lat="42.1234469" lon="-7.9762366"><ele>829.25</ele><time>2026-04-01T09:42:32.812Z</time></trkpt><trkpt lat="42.1233824" lon="-7.9763446"><ele>828.0</ele><time>2026-04-01T09:42:33.812Z</time></trkpt><trkpt lat="42.1233324" lon="-7.9764133"><ele>828.0</ele><time>2026-04-01T09:42:34.813Z</time></trkpt><trkpt lat="42.1232643" lon="-7.9764916"><ele>828.0</ele><time>2026-04-01T09:42:36.812Z</time></trkpt><trkpt lat="42.123187" lon="-7.9765265"><ele>828.0</ele><time>2026-04-01T09:42:39.812Z</time></trkpt><trkpt lat="42.1230998" lon="-7.9765454"><ele>828.0</ele><time>2026-04-01T09:42:41.809Z</time></trkpt><trkpt lat="42.1229559" lon="-7.9765692"><ele>828.0</ele><time>2026-04-01T09:42:43.81Z</time></trkpt><trkpt lat="42.1228447" lon="-7.9765789"><ele>829.0</ele><time>2026-04-01T09:42:44.809Z</time></trkpt><trkpt lat="42.1226921" lon="-7.976589"><ele>830.0</ele><time>2026-04-01T09:42:45.809Z</time></trkpt><trkpt lat="42.1225542" lon="-7.9766011"><ele>831.0</ele><time>2026-04-01T09:42:46.809Z</time></trkpt><trkpt lat="42.1224369" lon="-7.9766135"><ele>832.0</ele><time>2026-04-01T09:42:47.809Z</time></trkpt><trkpt lat="42.122342" lon="-7.976625"><ele>832.9999999999999</ele><time>2026-04-01T09:42:48.812Z</time></trkpt><trkpt lat="42.122264" lon="-7.9766349"><ele>834.0</ele><time>2026-04-01T09:42:49.809Z</time></trkpt><trkpt lat="42.1221871" lon="-7.9766448"><ele>835.0</ele><time>2026-04-01T09:42:50.809Z</time></trkpt><trkpt lat="42.1221109" lon="-7.9766588"><ele>836.0</ele><time>2026-04-01T09:42:51.812Z</time></trkpt><trkpt lat="42.1220306" lon="-7.9766727"><ele>836.9999999999999</ele><time>2026-04-01T09:42:52.809Z</time></trkpt><trkpt lat="42.1219404" lon="-7.9766853"><ele>838.0</ele><time>2026-04-01T09:42:53.809Z</time></trkpt><trkpt lat="42.121832" lon="-7.9766865"><ele>838.25</ele><time>2026-04-01T09:42:54.813Z</time></trkpt><trkpt lat="42.1216997" lon="-7.9766892"><ele>838.5</ele><time>2026-04-01T09:42:55.812Z</time></trkpt><trkpt lat="42.1215684" lon="-7.9766967"><ele>838.75</ele><time>2026-04-01T09:42:56.809Z</time></trkpt><trkpt lat="42.1214589" lon="-7.9767165"><ele>839.0</ele><time>2026-04-01T09:42:57.81Z</time></trkpt><trkpt lat="42.1213582" lon="-7.9767553"><ele>840.6</ele><time>2026-04-01T09:42:58.812Z</time></trkpt><trkpt lat="42.121248" lon="-7.9768041"><ele>842.2</ele><time>2026-04-01T09:42:59.809Z</time></trkpt><trkpt lat="42.1211482" lon="-7.9768455"><ele>843.8000000000001</ele><time>2026-04-01T09:43:00.812Z</time></trkpt><trkpt lat="42.1210734" lon="-7.9768727"><ele>845.4000000000001</ele><time>2026-04-01T09:43:01.812Z</time></trkpt><trkpt lat="42.1209832" lon="-7.9768919"><ele>847.0</ele><time>2026-04-01T09:43:03.812Z</time></trkpt><trkpt lat="42.1208935" lon="-7.9769045"><ele>846.9999999999999</ele><time>2026-04-01T09:43:05.812Z</time></trkpt><trkpt lat="42.1208289" lon="-7.9769361"><ele>847.0</ele><time>2026-04-01T09:43:06.812Z</time></trkpt><trkpt lat="42.1207579" lon="-7.9769638"><ele>847.0</ele><time>2026-04-01T09:43:07.812Z</time></trkpt><trkpt lat="42.1206831" lon="-7.9769775"><ele>847.0</ele><time>2026-04-01T09:43:08.813Z</time></trkpt><trkpt lat="42.1206076" lon="-7.9769634"><ele>846.9999999999999</ele><time>2026-04-01T09:43:09.811Z</time></trkpt><trkpt lat="42.1205217" lon="-7.9769166"><ele>847.0</ele><time>2026-04-01T09:43:10.809Z</time></trkpt><trkpt lat="42.1204286" lon="-7.9768471"><ele>847.5</ele><time>2026-04-01T09:43:11.812Z</time></trkpt><trkpt lat="42.1203359" lon="-7.9767885"><ele>848.0</ele><time>2026-04-01T09:43:12.813Z</time></trkpt><trkpt lat="42.1202376" lon="-7.9767475"><ele>848.5</ele><time>2026-04-01T09:43:13.813Z</time></trkpt><trkpt lat="42.1201088" lon="-7.9767333"><ele>849.0</ele><time>2026-04-01T09:43:14.813Z</time></trkpt><trkpt lat="42.1199479" lon="-7.9767292"><ele>850.6666666666667</ele><time>2026-04-01T09:43:15.813Z</time></trkpt><trkpt lat="42.1197723" lon="-7.9767276"><ele>852.3333333333334</ele><time>2026-04-01T09:43:16.813Z</time></trkpt><trkpt lat="42.1195853" lon="-7.9767296"><ele>854.0</ele><time>2026-04-01T09:43:17.812Z</time></trkpt><trkpt lat="42.1193827" lon="-7.9767344"><ele>854.0</ele><time>2026-04-01T09:43:18.809Z</time></trkpt><trkpt lat="42.1191612" lon="-7.9767439"><ele>854.0</ele><time>2026-04-01T09:43:19.811Z</time></trkpt><trkpt lat="42.1189469" lon="-7.9767593"><ele>854.0</ele><time>2026-04-01T09:43:20.809Z</time></trkpt><trkpt lat="42.1187568" lon="-7.9767782"><ele>855.25</ele><time>2026-04-01T09:43:21.809Z</time></trkpt><trkpt lat="42.1185901" lon="-7.9768008"><ele>856.5</ele><time>2026-04-01T09:43:22.809Z</time></trkpt><trkpt lat="42.1184463" lon="-7.9768176"><ele>857.75</ele><time>2026-04-01T09:43:23.809Z</time></trkpt><trkpt lat="42.1183208" lon="-7.9768271"><ele>859.0</ele><time>2026-04-01T09:43:24.809Z</time></trkpt><trkpt lat="42.1182047" lon="-7.9768325"><ele>859.75</ele><time>2026-04-01T09:43:25.813Z</time></trkpt><trkpt lat="42.1180756" lon="-7.9768362"><ele>860.5</ele><time>2026-04-01T09:43:26.813Z</time></trkpt><trkpt lat="42.1179301" lon="-7.9768293"><ele>861.25</ele><time>2026-04-01T09:43:27.809Z</time></trkpt><trkpt lat="42.1177754" lon="-7.9768134"><ele>862.0</ele><time>2026-04-01T09:43:28.809Z</time></trkpt><trkpt lat="42.1176284" lon="-7.9768002"><ele>862.0</ele><time>2026-04-01T09:43:29.812Z</time></trkpt><trkpt lat="42.1174922" lon="-7.9767922"><ele>862.0</ele><time>2026-04-01T09:43:30.814Z</time></trkpt><trkpt lat="42.117354" lon="-7.9767922"><ele>862.0</ele><time>2026-04-01T09:43:31.81Z</time></trkpt><trkpt lat="42.1172107" lon="-7.9767972"><ele>862.0</ele><time>2026-04-01T09:43:32.813Z</time></trkpt><trkpt lat="42.1170804" lon="-7.9768093"><ele>862.2</ele><time>2026-04-01T09:43:33.812Z</time></trkpt><trkpt lat="42.1169763" lon="-7.9768178"><ele>862.4000000000001</ele><time>2026-04-01T09:43:34.812Z</time></trkpt><trkpt lat="42.1168886" lon="-7.9768265"><ele>862.5999999999999</ele><time>2026-04-01T09:43:35.812Z</time></trkpt><trkpt lat="42.1168029" lon="-7.9768304"><ele>862.8</ele><time>2026-04-01T09:43:36.809Z</time></trkpt><trkpt lat="42.116707" lon="-7.9768308"><ele>863.0</ele><time>2026-04-01T09:43:37.812Z</time></trkpt><trkpt lat="42.1165935" lon="-7.9768358"><ele>864.25</ele><time>2026-04-01T09:43:38.812Z</time></trkpt><trkpt lat="42.1164656" lon="-7.9768432"><ele>865.5</ele><time>2026-04-01T09:43:39.812Z</time></trkpt><trkpt lat="42.1163204" lon="-7.9768451"><ele>866.75</ele><time>2026-04-01T09:43:40.809Z</time></trkpt><trkpt lat="42.116164" lon="-7.9768446"><ele>868.0</ele><time>2026-04-01T09:43:41.812Z</time></trkpt><trkpt lat="42.1159943" lon="-7.9768385"><ele>868.0</ele><time>2026-04-01T09:43:42.813Z</time></trkpt><trkpt lat="42.1158285" lon="-7.9768321"><ele>868.0</ele><time>2026-04-01T09:43:43.813Z</time></trkpt><trkpt lat="42.1156791" lon="-7.9768323"><ele>868.0</ele><time>2026-04-01T09:43:44.812Z</time></trkpt><trkpt lat="42.1155501" lon="-7.976841"><ele>868.0</ele><time>2026-04-01T09:43:45.812Z</time></trkpt><trkpt lat="42.115434" lon="-7.9768534"><ele>869.0</ele><time>2026-04-01T09:43:46.812Z</time></trkpt><trkpt lat="42.1153255" lon="-7.976863"><ele>870.0</ele><time>2026-04-01T09:43:47.811Z</time></trkpt><trkpt lat="42.1152158" lon="-7.9768644"><ele>871.0</ele><time>2026-04-01T09:43:48.809Z</time></trkpt><trkpt lat="42.115096" lon="-7.9768534"><ele>872.0</ele><time>2026-04-01T09:43:49.809Z</time></trkpt><trkpt lat="42.1149664" lon="-7.9768379"><ele>874.6666666666667</ele><time>2026-04-01T09:43:50.81Z</time></trkpt><trkpt lat="42.1148167" lon="-7.976831"><ele>877.3333333333333</ele><time>2026-04-01T09:43:51.809Z</time></trkpt><trkpt lat="42.1146556" lon="-7.976833"><ele>880.0</ele><time>2026-04-01T09:43:52.809Z</time></trkpt><trkpt lat="42.114491" lon="-7.9768489"><ele>880.0</ele><time>2026-04-01T09:43:53.809Z</time></trkpt><trkpt lat="42.1143289" lon="-7.9768668"><ele>880.0</ele><time>2026-04-01T09:43:54.811Z</time></trkpt><trkpt lat="42.1141727" lon="-7.9768795"><ele>880.0</ele><time>2026-04-01T09:43:55.812Z</time></trkpt><trkpt lat="42.1140079" lon="-7.9768952"><ele>883.0</ele><time>2026-04-01T09:43:56.809Z</time></trkpt><trkpt lat="42.1138508" lon="-7.9769145"><ele>886.0</ele><time>2026-04-01T09:43:57.812Z</time></trkpt><trkpt lat="42.1137174" lon="-7.9769382"><ele>889.0</ele><time>2026-04-01T09:43:58.812Z</time></trkpt><trkpt lat="42.1136047" lon="-7.9769483"><ele>892.0</ele><time>2026-04-01T09:43:59.809Z</time></trkpt><trkpt lat="42.1135101" lon="-7.9769556"><ele>891.9999999999999</ele><time>2026-04-01T09:44:00.809Z</time></trkpt><trkpt lat="42.113429" lon="-7.9769621"><ele>892.0</ele><time>2026-04-01T09:44:01.812Z</time></trkpt><trkpt lat="42.1133299" lon="-7.9770164"><ele>892.0</ele><time>2026-04-01T09:44:03.812Z</time></trkpt><trkpt lat="42.1132972" lon="-7.977096"><ele>892.0</ele><time>2026-04-01T09:44:05.812Z</time></trkpt><trkpt lat="42.1132471" lon="-7.9771873"><ele>891.9999999999999</ele><time>2026-04-01T09:44:07.811Z</time></trkpt><trkpt lat="42.1131745" lon="-7.9772561"><ele>892.0</ele><time>2026-04-01T09:44:09.81Z</time></trkpt><trkpt lat="42.1130892" lon="-7.9773264"><ele>892.6</ele><time>2026-04-01T09:44:11.812Z</time></trkpt><trkpt lat="42.1129929" lon="-7.9773885"><ele>893.2</ele><time>2026-04-01T09:44:13.812Z</time></trkpt><trkpt lat="42.1128784" lon="-7.9774576"><ele>893.8</ele><time>2026-04-01T09:44:15.81Z</time></trkpt><trkpt lat="42.1127994" lon="-7.9775077"><ele>894.4</ele><time>2026-04-01T09:44:16.813Z</time></trkpt><trkpt lat="42.1127239" lon="-7.9775585"><ele>895.0</ele><time>2026-04-01T09:44:17.813Z</time></trkpt><trkpt lat="42.1126621" lon="-7.9775991"><ele>895.0</ele><time>2026-04-01T09:44:18.812Z</time></trkpt><trkpt lat="42.1125686" lon="-7.9776645"><ele>895.0</ele><time>2026-04-01T09:44:35.812Z</time></trkpt><trkpt lat="42.1124957" lon="-7.9776913"><ele>895.0</ele><time>2026-04-01T09:44:36.812Z</time></trkpt><trkpt lat="42.1123888" lon="-7.9777246"><ele>895.0</ele><time>2026-04-01T09:44:37.809Z</time></trkpt><trkpt lat="42.1122603" lon="-7.9777553"><ele>895.0</ele><time>2026-04-01T09:44:38.809Z</time></trkpt><trkpt lat="42.1121357" lon="-7.9777752"><ele>895.0</ele><time>2026-04-01T09:44:39.809Z</time></trkpt><trkpt lat="42.1120205" lon="-7.9777727"><ele>895.0</ele><time>2026-04-01T09:44:40.809Z</time></trkpt><trkpt lat="42.1119055" lon="-7.9777541"><ele>895.0</ele><time>2026-04-01T09:44:41.812Z</time></trkpt><trkpt lat="42.1117936" lon="-7.977737"><ele>895.0</ele><time>2026-04-01T09:44:42.813Z</time></trkpt><trkpt lat="42.1116867" lon="-7.9777278"><ele>895.0</ele><time>2026-04-01T09:44:43.812Z</time></trkpt><trkpt lat="42.1115892" lon="-7.9777192"><ele>895.0</ele><time>2026-04-01T09:44:44.812Z</time></trkpt><trkpt lat="42.1115228" lon="-7.9777326"><ele>895.0</ele><time>2026-04-01T09:44:45.812Z</time></trkpt><trkpt lat="42.1114561" lon="-7.9778383"><ele>895.0</ele><time>2026-04-01T09:44:47.813Z</time></trkpt><trkpt lat="42.1114247" lon="-7.977954"><ele>895.0</ele><time>2026-04-01T09:44:48.812Z</time></trkpt><trkpt lat="42.1113863" lon="-7.9780985"><ele>895.0</ele><time>2026-04-01T09:44:49.812Z</time></trkpt><trkpt lat="42.1113344" lon="-7.9782592"><ele>895.0</ele><time>2026-04-01T09:44:50.812Z</time></trkpt><trkpt lat="42.1112682" lon="-7.9784223"><ele>895.0</ele><time>2026-04-01T09:44:51.812Z</time></trkpt><trkpt lat="42.1111905" lon="-7.9785735"><ele>895.0</ele><time>2026-04-01T09:44:52.813Z</time></trkpt><trkpt lat="42.1111106" lon="-7.9787106"><ele>895.0</ele><time>2026-04-01T09:44:53.812Z</time></trkpt><trkpt lat="42.1110214" lon="-7.9788297"><ele>895.0</ele><time>2026-04-01T09:44:54.813Z</time></trkpt><trkpt lat="42.1109206" lon="-7.9789379"><ele>895.0</ele><time>2026-04-01T09:44:55.81Z</time></trkpt><trkpt lat="42.1108262" lon="-7.9790531"><ele>895.0</ele><time>2026-04-01T09:44:56.812Z</time></trkpt><trkpt lat="42.1107585" lon="-7.9791832"><ele>896.2</ele><time>2026-04-01T09:44:57.814Z</time></trkpt><trkpt lat="42.1107231" lon="-7.9793148"><ele>897.4</ele><time>2026-04-01T09:44:58.812Z</time></trkpt><trkpt lat="42.110695" lon="-7.9794407"><ele>898.5999999999999</ele><time>2026-04-01T09:44:59.812Z</time></trkpt><trkpt lat="42.1106712" lon="-7.9795605"><ele>899.8</ele><time>2026-04-01T09:45:00.809Z</time></trkpt><trkpt lat="42.1106463" lon="-7.9796712"><ele>901.0</ele><time>2026-04-01T09:45:01.811Z</time></trkpt><trkpt lat="42.1106181" lon="-7.9797613"><ele>901.0</ele><time>2026-04-01T09:45:02.809Z</time></trkpt><trkpt lat="42.1105255" lon="-7.9798324"><ele>900.9999999999999</ele><time>2026-04-01T09:45:04.809Z</time></trkpt><trkpt lat="42.1104128" lon="-7.9798367"><ele>900.9999999999999</ele><time>2026-04-01T09:45:06.813Z</time></trkpt><trkpt lat="42.1103171" lon="-7.9798922"><ele>901.0</ele><time>2026-04-01T09:45:08.81Z</time></trkpt><trkpt lat="42.1102728" lon="-7.9800062"><ele>901.0</ele><time>2026-04-01T09:45:10.809Z</time></trkpt><trkpt lat="42.1102465" lon="-7.9801669"><ele>902.3333333333333</ele><time>2026-04-01T09:45:12.812Z</time></trkpt><trkpt lat="42.1102392" lon="-7.9802518"><ele>903.6666666666666</ele><time>2026-04-01T09:45:13.811Z</time></trkpt><trkpt lat="42.1102266" lon="-7.9803906"><ele>905.0</ele><time>2026-04-01T09:45:15.813Z</time></trkpt><trkpt lat="42.1101967" lon="-7.9804822"><ele>906.3333333333333</ele><time>2026-04-01T09:45:17.812Z</time></trkpt><trkpt lat="42.110117" lon="-7.9805014"><ele>907.6666666666666</ele><time>2026-04-01T09:45:20.812Z</time></trkpt><trkpt lat="42.1099969" lon="-7.9805102"><ele>909.0</ele><time>2026-04-01T09:45:22.809Z</time></trkpt><trkpt lat="42.1099095" lon="-7.9805285"><ele>910.1666666666666</ele><time>2026-04-01T09:45:23.812Z</time></trkpt><trkpt lat="42.1098189" lon="-7.9805547"><ele>911.3333333333333</ele><time>2026-04-01T09:45:24.812Z</time></trkpt><trkpt lat="42.1097326" lon="-7.9805799"><ele>912.5</ele><time>2026-04-01T09:45:25.81Z</time></trkpt><trkpt lat="42.1096443" lon="-7.9806022"><ele>913.6666666666666</ele><time>2026-04-01T09:45:26.809Z</time></trkpt><trkpt lat="42.1095566" lon="-7.980625"><ele>914.8333333333333</ele><time>2026-04-01T09:45:27.812Z</time></trkpt><trkpt lat="42.1094695" lon="-7.980651"><ele>916.0</ele><time>2026-04-01T09:45:28.812Z</time></trkpt><trkpt lat="42.1093788" lon="-7.9806816"><ele>916.0</ele><time>2026-04-01T09:45:29.812Z</time></trkpt><trkpt lat="42.1092908" lon="-7.9807163"><ele>915.9999999999999</ele><time>2026-04-01T09:45:30.812Z</time></trkpt><trkpt lat="42.1091969" lon="-7.9807618"><ele>915.9999999999999</ele><time>2026-04-01T09:45:31.813Z</time></trkpt><trkpt lat="42.1091041" lon="-7.9808134"><ele>916.0</ele><time>2026-04-01T09:45:32.813Z</time></trkpt><trkpt lat="42.1090213" lon="-7.9808581"><ele>916.0</ele><time>2026-04-01T09:45:33.812Z</time></trkpt><trkpt lat="42.1089575" lon="-7.9808963"><ele>917.5999999999999</ele><time>2026-04-01T09:45:34.812Z</time></trkpt><trkpt lat="42.1088943" lon="-7.9809674"><ele>919.1999999999999</ele><time>2026-04-01T09:45:36.813Z</time></trkpt><trkpt lat="42.1088838" lon="-7.9810746"><ele>920.8000000000001</ele><time>2026-04-01T09:45:38.814Z</time></trkpt><trkpt lat="42.1088124" lon="-7.9811968"><ele>922.4000000000001</ele><time>2026-04-01T09:45:40.81Z</time></trkpt><trkpt lat="42.1087462" lon="-7.9812746"><ele>924.0</ele><time>2026-04-01T09:45:41.814Z</time></trkpt><trkpt lat="42.1086702" lon="-7.9813556"><ele>924.0</ele><time>2026-04-01T09:45:42.813Z</time></trkpt><trkpt lat="42.1085871" lon="-7.9814464"><ele>924.0</ele><time>2026-04-01T09:45:43.813Z</time></trkpt><trkpt lat="42.1084937" lon="-7.9815558"><ele>924.0</ele><time>2026-04-01T09:45:44.812Z</time></trkpt><trkpt lat="42.1083959" lon="-7.9816581"><ele>924.0</ele><time>2026-04-01T09:45:45.809Z</time></trkpt><trkpt lat="42.1082973" lon="-7.9817551"><ele>926.25</ele><time>2026-04-01T09:45:46.809Z</time></trkpt><trkpt lat="42.1081881" lon="-7.9818542"><ele>928.5</ele><time>2026-04-01T09:45:47.811Z</time></trkpt><trkpt lat="42.1080719" lon="-7.981948"><ele>930.75</ele><time>2026-04-01T09:45:48.81Z</time></trkpt><trkpt lat="42.107953" lon="-7.9820152"><ele>933.0</ele><time>2026-04-01T09:45:49.811Z</time></trkpt><trkpt lat="42.1078378" lon="-7.9820552"><ele>933.0</ele><time>2026-04-01T09:45:50.812Z</time></trkpt><trkpt lat="42.1077318" lon="-7.9820773"><ele>933.0</ele><time>2026-04-01T09:45:51.809Z</time></trkpt><trkpt lat="42.1076437" lon="-7.9820708"><ele>933.0</ele><time>2026-04-01T09:45:52.812Z</time></trkpt><trkpt lat="42.1075648" lon="-7.9820632"><ele>933.0</ele><time>2026-04-01T09:45:53.81Z</time></trkpt><trkpt lat="42.1074962" lon="-7.9820654"><ele>933.0</ele><time>2026-04-01T09:45:54.81Z</time></trkpt><trkpt lat="42.1074288" lon="-7.9820878"><ele>933.0</ele><time>2026-04-01T09:45:55.809Z</time></trkpt><trkpt lat="42.107347" lon="-7.9821368"><ele>933.0</ele><time>2026-04-01T09:45:56.812Z</time></trkpt><trkpt lat="42.1072429" lon="-7.9822076"><ele>933.0</ele><time>2026-04-01T09:45:57.813Z</time></trkpt><trkpt lat="42.107115" lon="-7.9822845"><ele>933.0</ele><time>2026-04-01T09:45:58.812Z</time></trkpt><trkpt lat="42.1069735" lon="-7.9823645"><ele>933.0</ele><time>2026-04-01T09:45:59.812Z</time></trkpt><trkpt lat="42.1068198" lon="-7.9824558"><ele>935.0</ele><time>2026-04-01T09:46:00.812Z</time></trkpt><trkpt lat="42.106665" lon="-7.9825483"><ele>937.0</ele><time>2026-04-01T09:46:01.812Z</time></trkpt><trkpt lat="42.1065269" lon="-7.9826269"><ele>939.0</ele><time>2026-04-01T09:46:02.812Z</time></trkpt><trkpt lat="42.1064036" lon="-7.9826932"><ele>939.0</ele><time>2026-04-01T09:46:03.809Z</time></trkpt><trkpt lat="42.1062916" lon="-7.982749"><ele>939.0</ele><time>2026-04-01T09:46:04.81Z</time></trkpt><trkpt lat="42.1061875" lon="-7.9828003"><ele>939.0</ele><time>2026-04-01T09:46:05.809Z</time></trkpt><trkpt lat="42.1060829" lon="-7.9828538"><ele>939.0</ele><time>2026-04-01T09:46:06.809Z</time></trkpt><trkpt lat="42.1059785" lon="-7.9829048"><ele>939.0</ele><time>2026-04-01T09:46:07.809Z</time></trkpt><trkpt lat="42.1058631" lon="-7.9829647"><ele>939.0</ele><time>2026-04-01T09:46:08.81Z</time></trkpt><trkpt lat="42.1057244" lon="-7.9830382"><ele>939.0</ele><time>2026-04-01T09:46:09.809Z</time></trkpt><trkpt lat="42.1055778" lon="-7.9831232"><ele>939.0</ele><time>2026-04-01T09:46:10.813Z</time></trkpt><trkpt lat="42.1054318" lon="-7.9832072"><ele>939.0</ele><time>2026-04-01T09:46:11.809Z</time></trkpt><trkpt lat="42.1052836" lon="-7.9832863"><ele>939.0</ele><time>2026-04-01T09:46:12.809Z</time></trkpt><trkpt lat="42.1051402" lon="-7.9833577"><ele>939.0</ele><time>2026-04-01T09:46:13.81Z</time></trkpt><trkpt lat="42.1049948" lon="-7.9834277"><ele>938.6666666666667</ele><time>2026-04-01T09:46:14.81Z</time></trkpt><trkpt lat="42.1048533" lon="-7.9834984"><ele>938.3333333333334</ele><time>2026-04-01T09:46:15.813Z</time></trkpt><trkpt lat="42.1047105" lon="-7.9835782"><ele>938.0</ele><time>2026-04-01T09:46:16.813Z</time></trkpt><trkpt lat="42.1045669" lon="-7.9836666"><ele>938.0</ele><time>2026-04-01T09:46:17.81Z</time></trkpt><trkpt lat="42.1044189" lon="-7.9837555"><ele>938.0</ele><time>2026-04-01T09:46:18.809Z</time></trkpt><trkpt lat="42.1042677" lon="-7.9838411"><ele>938.0</ele><time>2026-04-01T09:46:19.809Z</time></trkpt><trkpt lat="42.1041171" lon="-7.9839188"><ele>939.0</ele><time>2026-04-01T09:46:20.81Z</time></trkpt><trkpt lat="42.1039691" lon="-7.9839836"><ele>940.0</ele><time>2026-04-01T09:46:21.809Z</time></trkpt><trkpt lat="42.1038261" lon="-7.9840424"><ele>941.0</ele><time>2026-04-01T09:46:22.809Z</time></trkpt><trkpt lat="42.1036837" lon="-7.9840948"><ele>941.0</ele><time>2026-04-01T09:46:23.811Z</time></trkpt><trkpt lat="42.1035349" lon="-7.9841454"><ele>941.0</ele><time>2026-04-01T09:46:24.812Z</time></trkpt><trkpt lat="42.1033755" lon="-7.9842016"><ele>941.0</ele><time>2026-04-01T09:46:25.81Z</time></trkpt><trkpt lat="42.1032128" lon="-7.9842712"><ele>942.0</ele><time>2026-04-01T09:46:26.813Z</time></trkpt><trkpt lat="42.1030556" lon="-7.9843587"><ele>943.0</ele><time>2026-04-01T09:46:27.813Z</time></trkpt><trkpt lat="42.1028959" lon="-7.9844585"><ele>944.0</ele><time>2026-04-01T09:46:28.813Z</time></trkpt><trkpt lat="42.1027347" lon="-7.9845763"><ele>944.0</ele><time>2026-04-01T09:46:29.809Z</time></trkpt><trkpt lat="42.1025848" lon="-7.9846896"><ele>944.0</ele><time>2026-04-01T09:46:30.812Z</time></trkpt><trkpt lat="42.1024478" lon="-7.9848005"><ele>944.0</ele><time>2026-04-01T09:46:31.809Z</time></trkpt><trkpt lat="42.1023196" lon="-7.9849235"><ele>945.0</ele><time>2026-04-01T09:46:32.812Z</time></trkpt><trkpt lat="42.1022024" lon="-7.985066"><ele>946.0</ele><time>2026-04-01T09:46:33.812Z</time></trkpt><trkpt lat="42.1020821" lon="-7.9852339"><ele>947.0</ele><time>2026-04-01T09:46:34.812Z</time></trkpt><trkpt lat="42.1019599" lon="-7.98542"><ele>947.0</ele><time>2026-04-01T09:46:35.813Z</time></trkpt><trkpt lat="42.1018371" lon="-7.9856115"><ele>947.0</ele><time>2026-04-01T09:46:36.809Z</time></trkpt><trkpt lat="42.1017179" lon="-7.985802"><ele>947.0</ele><time>2026-04-01T09:46:37.809Z</time></trkpt><trkpt lat="42.1016026" lon="-7.9859887"><ele>949.3333333333334</ele><time>2026-04-01T09:46:38.811Z</time></trkpt><trkpt lat="42.1014907" lon="-7.9861634"><ele>951.6666666666667</ele><time>2026-04-01T09:46:39.809Z</time></trkpt><trkpt lat="42.101377" lon="-7.9863314"><ele>954.0</ele><time>2026-04-01T09:46:40.809Z</time></trkpt><trkpt lat="42.1012612" lon="-7.9864937"><ele>954.0</ele><time>2026-04-01T09:46:41.811Z</time></trkpt><trkpt lat="42.1011488" lon="-7.986652"><ele>954.0</ele><time>2026-04-01T09:46:42.809Z</time></trkpt><trkpt lat="42.1010367" lon="-7.986798"><ele>954.0</ele><time>2026-04-01T09:46:43.81Z</time></trkpt><trkpt lat="42.1009194" lon="-7.9869315"><ele>953.6666666666667</ele><time>2026-04-01T09:46:44.812Z</time></trkpt><trkpt lat="42.1007853" lon="-7.9870519"><ele>953.3333333333334</ele><time>2026-04-01T09:46:45.809Z</time></trkpt><trkpt lat="42.1006465" lon="-7.9871526"><ele>953.0</ele><time>2026-04-01T09:46:46.81Z</time></trkpt><trkpt lat="42.1005045" lon="-7.9872193"><ele>954.3333333333334</ele><time>2026-04-01T09:46:47.809Z</time></trkpt><trkpt lat="42.1003606" lon="-7.9872528"><ele>955.6666666666667</ele><time>2026-04-01T09:46:48.81Z</time></trkpt><trkpt lat="42.10021" lon="-7.9872557"><ele>957.0</ele><time>2026-04-01T09:46:49.809Z</time></trkpt><trkpt lat="42.1000474" lon="-7.9872268"><ele>957.75</ele><time>2026-04-01T09:46:50.81Z</time></trkpt><trkpt lat="42.0998903" lon="-7.9871717"><ele>958.5</ele><time>2026-04-01T09:46:51.81Z</time></trkpt><trkpt lat="42.0997541" lon="-7.9871117"><ele>959.25</ele><time>2026-04-01T09:46:52.81Z</time></trkpt><trkpt lat="42.0996263" lon="-7.9870673"><ele>960.0</ele><time>2026-04-01T09:46:53.809Z</time></trkpt><trkpt lat="42.099504" lon="-7.9870319"><ele>960.0</ele><time>2026-04-01T09:46:54.809Z</time></trkpt><trkpt lat="42.0993802" lon="-7.9870178"><ele>960.0</ele><time>2026-04-01T09:46:55.81Z</time></trkpt><trkpt lat="42.0992473" lon="-7.9870253"><ele>960.0</ele><time>2026-04-01T09:46:56.813Z</time></trkpt><trkpt lat="42.099108" lon="-7.9870593"><ele>960.0</ele><time>2026-04-01T09:46:57.813Z</time></trkpt><trkpt lat="42.0989635" lon="-7.9871251"><ele>962.3333333333333</ele><time>2026-04-01T09:46:58.812Z</time></trkpt><trkpt lat="42.0988167" lon="-7.9872128"><ele>964.6666666666666</ele><time>2026-04-01T09:46:59.81Z</time></trkpt><trkpt lat="42.098672" lon="-7.9873184"><ele>967.0</ele><time>2026-04-01T09:47:00.811Z</time></trkpt><trkpt lat="42.0985374" lon="-7.9874524"><ele>967.3333333333333</ele><time>2026-04-01T09:47:01.812Z</time></trkpt><trkpt lat="42.0984067" lon="-7.9876158"><ele>967.6666666666667</ele><time>2026-04-01T09:47:02.812Z</time></trkpt><trkpt lat="42.0982847" lon="-7.9877994"><ele>968.0</ele><time>2026-04-01T09:47:03.813Z</time></trkpt><trkpt lat="42.0981718" lon="-7.9879916"><ele>971.0</ele><time>2026-04-01T09:47:04.812Z</time></trkpt><trkpt lat="42.0980623" lon="-7.9881959"><ele>974.0</ele><time>2026-04-01T09:47:05.813Z</time></trkpt><trkpt lat="42.0979544" lon="-7.9883926"><ele>977.0</ele><time>2026-04-01T09:47:06.813Z</time></trkpt><trkpt lat="42.0978439" lon="-7.9885787"><ele>977.3333333333334</ele><time>2026-04-01T09:47:07.813Z</time></trkpt><trkpt lat="42.097737" lon="-7.988759"><ele>977.6666666666667</ele><time>2026-04-01T09:47:08.812Z</time></trkpt><trkpt lat="42.0976293" lon="-7.9889268"><ele>978.0</ele><time>2026-04-01T09:47:09.813Z</time></trkpt><trkpt lat="42.0975253" lon="-7.9890735"><ele>977.75</ele><time>2026-04-01T09:47:10.809Z</time></trkpt><trkpt lat="42.0974222" lon="-7.9892049"><ele>977.5</ele><time>2026-04-01T09:47:11.814Z</time></trkpt><trkpt lat="42.0973206" lon="-7.9893138"><ele>977.25</ele><time>2026-04-01T09:47:12.813Z</time></trkpt><trkpt lat="42.0972156" lon="-7.9893985"><ele>977.0</ele><time>2026-04-01T09:47:13.813Z</time></trkpt><trkpt lat="42.0971106" lon="-7.9894531"><ele>978.0</ele><time>2026-04-01T09:47:14.812Z</time></trkpt><trkpt lat="42.0970044" lon="-7.9894765"><ele>979.0</ele><time>2026-04-01T09:47:15.81Z</time></trkpt><trkpt lat="42.0968897" lon="-7.9894817"><ele>980.0</ele><time>2026-04-01T09:47:16.81Z</time></trkpt><trkpt lat="42.0967686" lon="-7.9894723"><ele>981.0</ele><time>2026-04-01T09:47:17.809Z</time></trkpt><trkpt lat="42.096633" lon="-7.9894535"><ele>982.5</ele><time>2026-04-01T09:47:18.811Z</time></trkpt><trkpt lat="42.0965014" lon="-7.9894385"><ele>984.0</ele><time>2026-04-01T09:47:19.811Z</time></trkpt><trkpt lat="42.0963793" lon="-7.9894416"><ele>985.5</ele><time>2026-04-01T09:47:20.81Z</time></trkpt><trkpt lat="42.0962656" lon="-7.9894733"><ele>987.0</ele><time>2026-04-01T09:47:21.809Z</time></trkpt><trkpt lat="42.0961593" lon="-7.9895317"><ele>987.0</ele><time>2026-04-01T09:47:22.809Z</time></trkpt><trkpt lat="42.0960657" lon="-7.9896172"><ele>987.0</ele><time>2026-04-01T09:47:23.81Z</time></trkpt><trkpt lat="42.0959921" lon="-7.9897243"><ele>987.0</ele><time>2026-04-01T09:47:24.812Z</time></trkpt><trkpt lat="42.0959441" lon="-7.9898474"><ele>987.0</ele><time>2026-04-01T09:47:25.812Z</time></trkpt><trkpt lat="42.0959176" lon="-7.9899845"><ele>987.0</ele><time>2026-04-01T09:47:26.81Z</time></trkpt><trkpt lat="42.0959048" lon="-7.9901501"><ele>985.25</ele><time>2026-04-01T09:47:27.811Z</time></trkpt><trkpt lat="42.0958995" lon="-7.9903245"><ele>983.5</ele><time>2026-04-01T09:47:28.813Z</time></trkpt><trkpt lat="42.0958915" lon="-7.9904918"><ele>981.75</ele><time>2026-04-01T09:47:29.812Z</time></trkpt><trkpt lat="42.0958747" lon="-7.9906563"><ele>980.0</ele><time>2026-04-01T09:47:30.809Z</time></trkpt><trkpt lat="42.0958496" lon="-7.990804"><ele>979.4</ele><time>2026-04-01T09:47:31.811Z</time></trkpt><trkpt lat="42.0958018" lon="-7.9909207"><ele>978.8</ele><time>2026-04-01T09:47:32.812Z</time></trkpt><trkpt lat="42.0957316" lon="-7.9910132"><ele>978.2</ele><time>2026-04-01T09:47:33.808Z</time></trkpt><trkpt lat="42.0956428" lon="-7.9911004"><ele>977.6</ele><time>2026-04-01T09:47:34.811Z</time></trkpt><trkpt lat="42.0955352" lon="-7.9911846"><ele>977.0</ele><time>2026-04-01T09:47:35.811Z</time></trkpt><trkpt lat="42.0954106" lon="-7.9912765"><ele>979.3333333333334</ele><time>2026-04-01T09:47:36.809Z</time></trkpt><trkpt lat="42.0952613" lon="-7.991378"><ele>981.6666666666667</ele><time>2026-04-01T09:47:37.811Z</time></trkpt><trkpt lat="42.0950894" lon="-7.9914911"><ele>984.0</ele><time>2026-04-01T09:47:38.812Z</time></trkpt><trkpt lat="42.0948971" lon="-7.9916093"><ele>989.0</ele><time>2026-04-01T09:47:39.812Z</time></trkpt><trkpt lat="42.094684" lon="-7.9917323"><ele>994.0</ele><time>2026-04-01T09:47:40.811Z</time></trkpt><trkpt lat="42.0944722" lon="-7.9918551"><ele>994.0</ele><time>2026-04-01T09:47:41.81Z</time></trkpt><trkpt lat="42.0942804" lon="-7.9919722"><ele>994.0</ele><time>2026-04-01T09:47:42.811Z</time></trkpt><trkpt lat="42.0941166" lon="-7.9920803"><ele>994.0</ele><time>2026-04-01T09:47:43.809Z</time></trkpt><trkpt lat="42.0939719" lon="-7.9921747"><ele>994.5</ele><time>2026-04-01T09:47:44.811Z</time></trkpt><trkpt lat="42.0938392" lon="-7.9922671"><ele>995.0</ele><time>2026-04-01T09:47:45.812Z</time></trkpt><trkpt lat="42.0937217" lon="-7.9923536"><ele>995.5</ele><time>2026-04-01T09:47:46.81Z</time></trkpt><trkpt lat="42.0936153" lon="-7.9924295"><ele>996.0</ele><time>2026-04-01T09:47:47.808Z</time></trkpt><trkpt lat="42.0935289" lon="-7.9924918"><ele>996.0</ele><time>2026-04-01T09:47:48.809Z</time></trkpt><trkpt lat="42.0934573" lon="-7.9925416"><ele>996.0</ele><time>2026-04-01T09:47:49.809Z</time></trkpt><trkpt lat="42.0933964" lon="-7.9925837"><ele>996.0</ele><time>2026-04-01T09:47:50.808Z</time></trkpt><trkpt lat="42.0933117" lon="-7.992642"><ele>996.0</ele><time>2026-04-01T09:47:52.808Z</time></trkpt><trkpt lat="42.0932567" lon="-7.9926924"><ele>996.0</ele><time>2026-04-01T09:48:07.811Z</time></trkpt><trkpt lat="42.0932044" lon="-7.9927506"><ele>996.0</ele><time>2026-04-01T09:48:08.808Z</time></trkpt><trkpt lat="42.09312" lon="-7.9928383"><ele>996.0</ele><time>2026-04-01T09:48:09.811Z</time></trkpt><trkpt lat="42.093035" lon="-7.99291"><ele>996.0</ele><time>2026-04-01T09:48:10.809Z</time></trkpt><trkpt lat="42.0929217" lon="-7.99299"><ele>996.0</ele><time>2026-04-01T09:48:11.811Z</time></trkpt><trkpt lat="42.092785" lon="-7.993095"><ele>996.0</ele><time>2026-04-01T09:48:12.812Z</time></trkpt><trkpt lat="42.0926417" lon="-7.9932217"><ele>996.25</ele><time>2026-04-01T09:48:13.812Z</time></trkpt><trkpt lat="42.0925033" lon="-7.9933467"><ele>996.5</ele><time>2026-04-01T09:48:14.812Z</time></trkpt><trkpt lat="42.0923817" lon="-7.9934633"><ele>996.75</ele><time>2026-04-01T09:48:15.813Z</time></trkpt><trkpt lat="42.0922817" lon="-7.9935583"><ele>997.0</ele><time>2026-04-01T09:48:16.812Z</time></trkpt><trkpt lat="42.0921967" lon="-7.993635"><ele>995.3333333333333</ele><time>2026-04-01T09:48:17.812Z</time></trkpt><trkpt lat="42.0921283" lon="-7.9936883"><ele>993.6666666666666</ele><time>2026-04-01T09:48:18.812Z</time></trkpt><trkpt lat="42.0920567" lon="-7.993765"><ele>992.0</ele><time>2026-04-01T09:48:20.812Z</time></trkpt><trkpt lat="42.0919933" lon="-7.993825"><ele>990.3333333333333</ele><time>2026-04-01T09:48:22.812Z</time></trkpt><trkpt lat="42.0919317" lon="-7.9938717"><ele>988.6666666666666</ele><time>2026-04-01T09:48:24.809Z</time></trkpt><trkpt lat="42.091865" lon="-7.9939133"><ele>987.0</ele><time>2026-04-01T09:48:26.811Z</time></trkpt><trkpt lat="42.0917717" lon="-7.9939883"><ele>987.0</ele><time>2026-04-01T09:48:33.813Z</time></trkpt><trkpt lat="42.0917183" lon="-7.994035"><ele>987.0</ele><time>2026-04-01T09:48:35.811Z</time></trkpt><trkpt lat="42.0916617" lon="-7.9940967"><ele>987.0</ele><time>2026-04-01T09:48:37.812Z</time></trkpt><trkpt lat="42.0916017" lon="-7.9941717"><ele>987.0</ele><time>2026-04-01T09:48:39.812Z</time></trkpt><trkpt lat="42.0915083" lon="-7.994215"><ele>987.0</ele><time>2026-04-01T09:48:41.809Z</time></trkpt><trkpt lat="42.0913933" lon="-7.9941867"><ele>987.0</ele><time>2026-04-01T09:48:43.809Z</time></trkpt><trkpt lat="42.09133" lon="-7.99415"><ele>985.2</ele><time>2026-04-01T09:48:44.809Z</time></trkpt><trkpt lat="42.09127" lon="-7.994115"><ele>983.4000000000001</ele><time>2026-04-01T09:48:45.808Z</time></trkpt><trkpt lat="42.091155" lon="-7.99408"><ele>981.5999999999999</ele><time>2026-04-01T09:48:47.809Z</time></trkpt><trkpt lat="42.0910883" lon="-7.99408"><ele>979.8</ele><time>2026-04-01T09:48:48.811Z</time></trkpt><trkpt lat="42.090965" lon="-7.99406"><ele>978.0</ele><time>2026-04-01T09:48:50.809Z</time></trkpt><trkpt lat="42.0908883" lon="-7.994035"><ele>978.0</ele><time>2026-04-01T09:48:51.808Z</time></trkpt><trkpt lat="42.0907883" lon="-7.9940067"><ele>978.0</ele><time>2026-04-01T09:48:52.809Z</time></trkpt><trkpt lat="42.0906867" lon="-7.9939967"><ele>978.0</ele><time>2026-04-01T09:48:53.808Z</time></trkpt><trkpt lat="42.0905983" lon="-7.99401"><ele>978.0</ele><time>2026-04-01T09:48:54.811Z</time></trkpt><trkpt lat="42.0905267" lon="-7.9940383"><ele>978.0</ele><time>2026-04-01T09:48:55.813Z</time></trkpt><trkpt lat="42.090425" lon="-7.9941183"><ele>977.1666666666666</ele><time>2026-04-01T09:48:57.812Z</time></trkpt><trkpt lat="42.0903517" lon="-7.9942283"><ele>976.3333333333333</ele><time>2026-04-01T09:48:59.813Z</time></trkpt><trkpt lat="42.0903033" lon="-7.9942833"><ele>975.5</ele><time>2026-04-01T09:49:00.811Z</time></trkpt><trkpt lat="42.0902383" lon="-7.9943367"><ele>974.6666666666666</ele><time>2026-04-01T09:49:01.809Z</time></trkpt><trkpt lat="42.0901641" lon="-7.9943868"><ele>973.8333333333333</ele><time>2026-04-01T09:49:02.813Z</time></trkpt><trkpt lat="42.090095" lon="-7.9944434"><ele>973.0</ele><time>2026-04-01T09:49:03.812Z</time></trkpt><trkpt lat="42.0900322" lon="-7.9945301"><ele>973.0</ele><time>2026-04-01T09:49:04.811Z</time></trkpt><trkpt lat="42.0899722" lon="-7.9946518"><ele>973.0</ele><time>2026-04-01T09:49:05.811Z</time></trkpt><trkpt lat="42.0899232" lon="-7.9947712"><ele>973.0</ele><time>2026-04-01T09:49:06.812Z</time></trkpt><trkpt lat="42.0898723" lon="-7.9948807"><ele>973.0</ele><time>2026-04-01T09:49:07.809Z</time></trkpt><trkpt lat="42.0898055" lon="-7.9949759"><ele>973.0</ele><time>2026-04-01T09:49:08.812Z</time></trkpt><trkpt lat="42.0897063" lon="-7.9950629"><ele>972.3333333333333</ele><time>2026-04-01T09:49:09.808Z</time></trkpt><trkpt lat="42.0895715" lon="-7.9951608"><ele>971.6666666666667</ele><time>2026-04-01T09:49:10.811Z</time></trkpt><trkpt lat="42.0894217" lon="-7.9952625"><ele>971.0</ele><time>2026-04-01T09:49:11.809Z</time></trkpt><trkpt lat="42.0892772" lon="-7.9953547"><ele>971.0</ele><time>2026-04-01T09:49:12.809Z</time></trkpt><trkpt lat="42.0891549" lon="-7.995427"><ele>971.0</ele><time>2026-04-01T09:49:13.812Z</time></trkpt><trkpt lat="42.0890538" lon="-7.9955034"><ele>971.0</ele><time>2026-04-01T09:49:14.812Z</time></trkpt><trkpt lat="42.0889583" lon="-7.9956086"><ele>971.0</ele><time>2026-04-01T09:49:15.812Z</time></trkpt><trkpt lat="42.0888668" lon="-7.9957312"><ele>970.8</ele><time>2026-04-01T09:49:16.809Z</time></trkpt><trkpt lat="42.0887845" lon="-7.9958522"><ele>970.5999999999999</ele><time>2026-04-01T09:49:17.809Z</time></trkpt><trkpt lat="42.0887153" lon="-7.9959617"><ele>970.4</ele><time>2026-04-01T09:49:18.808Z</time></trkpt><trkpt lat="42.0886463" lon="-7.9960543"><ele>970.2</ele><time>2026-04-01T09:49:19.809Z</time></trkpt><trkpt lat="42.0885528" lon="-7.9961356"><ele>970.0</ele><time>2026-04-01T09:49:20.809Z</time></trkpt><trkpt lat="42.0884234" lon="-7.9962136"><ele>970.0</ele><time>2026-04-01T09:49:21.81Z</time></trkpt><trkpt lat="42.0882767" lon="-7.9962901"><ele>970.0</ele><time>2026-04-01T09:49:22.812Z</time></trkpt><trkpt lat="42.0881357" lon="-7.9963594"><ele>970.0</ele><time>2026-04-01T09:49:23.809Z</time></trkpt><trkpt lat="42.0880228" lon="-7.9964146"><ele>970.0</ele><time>2026-04-01T09:49:24.812Z</time></trkpt><trkpt lat="42.0879519" lon="-7.996457"><ele>969.8</ele><time>2026-04-01T09:49:25.812Z</time></trkpt><trkpt lat="42.0878782" lon="-7.9965077"><ele>969.6</ele><time>2026-04-01T09:49:27.809Z</time></trkpt><trkpt lat="42.0877997" lon="-7.9965283"><ele>969.4000000000001</ele><time>2026-04-01T09:49:31.809Z</time></trkpt><trkpt lat="42.087733" lon="-7.9965497"><ele>969.2</ele><time>2026-04-01T09:49:33.812Z</time></trkpt><trkpt lat="42.0876279" lon="-7.9966466"><ele>969.0</ele><time>2026-04-01T09:49:35.81Z</time></trkpt><trkpt lat="42.0875439" lon="-7.996784"><ele>969.0</ele><time>2026-04-01T09:49:37.812Z</time></trkpt><trkpt lat="42.0874901" lon="-7.9968683"><ele>969.0</ele><time>2026-04-01T09:49:38.809Z</time></trkpt><trkpt lat="42.0874095" lon="-7.99696"><ele>969.0</ele><time>2026-04-01T09:49:39.812Z</time></trkpt><trkpt lat="42.0872874" lon="-7.997082"><ele>969.0</ele><time>2026-04-01T09:49:40.809Z</time></trkpt><trkpt lat="42.0871236" lon="-7.9972224"><ele>969.3333333333333</ele><time>2026-04-01T09:49:41.812Z</time></trkpt><trkpt lat="42.0869504" lon="-7.9973574"><ele>969.6666666666666</ele><time>2026-04-01T09:49:42.811Z</time></trkpt><trkpt lat="42.0867901" lon="-7.9974785"><ele>970.0</ele><time>2026-04-01T09:49:43.812Z</time></trkpt><trkpt lat="42.0866394" lon="-7.9975854"><ele>968.3333333333333</ele><time>2026-04-01T09:49:44.812Z</time></trkpt><trkpt lat="42.0864867" lon="-7.997695"><ele>966.6666666666667</ele><time>2026-04-01T09:49:45.812Z</time></trkpt><trkpt lat="42.0863367" lon="-7.9978117"><ele>965.0</ele><time>2026-04-01T09:49:46.812Z</time></trkpt><trkpt lat="42.08619" lon="-7.9979317"><ele>965.0</ele><time>2026-04-01T09:49:47.809Z</time></trkpt><trkpt lat="42.0860383" lon="-7.9980517"><ele>965.0</ele><time>2026-04-01T09:49:48.809Z</time></trkpt><trkpt lat="42.0858933" lon="-7.99817"><ele>965.0</ele><time>2026-04-01T09:49:49.811Z</time></trkpt><trkpt lat="42.0857567" lon="-7.998285"><ele>964.75</ele><time>2026-04-01T09:49:50.811Z</time></trkpt><trkpt lat="42.0856333" lon="-7.998395"><ele>964.5</ele><time>2026-04-01T09:49:51.81Z</time></trkpt><trkpt lat="42.0855183" lon="-7.998495"><ele>964.25</ele><time>2026-04-01T09:49:52.811Z</time></trkpt><trkpt lat="42.0854183" lon="-7.9985733"><ele>964.0</ele><time>2026-04-01T09:49:53.811Z</time></trkpt><trkpt lat="42.0853317" lon="-7.9986383"><ele>964.0</ele><time>2026-04-01T09:49:54.809Z</time></trkpt><trkpt lat="42.0852533" lon="-7.9987033"><ele>964.0000000000001</ele><time>2026-04-01T09:49:55.811Z</time></trkpt><trkpt lat="42.085175" lon="-7.99878"><ele>964.0000000000001</ele><time>2026-04-01T09:49:56.813Z</time></trkpt><trkpt lat="42.085095" lon="-7.9988667"><ele>964.0</ele><time>2026-04-01T09:49:57.809Z</time></trkpt><trkpt lat="42.08501" lon="-7.99896"><ele>964.0</ele><time>2026-04-01T09:49:58.809Z</time></trkpt><trkpt lat="42.0849133" lon="-7.9990533"><ele>965.0</ele><time>2026-04-01T09:49:59.812Z</time></trkpt><trkpt lat="42.084795" lon="-7.99914"><ele>966.0</ele><time>2026-04-01T09:50:00.808Z</time></trkpt><trkpt lat="42.08465" lon="-7.9992217"><ele>967.0</ele><time>2026-04-01T09:50:01.81Z</time></trkpt><trkpt lat="42.0845133" lon="-7.9993083"><ele>968.0</ele><time>2026-04-01T09:50:02.812Z</time></trkpt><trkpt lat="42.0844" lon="-7.9993833"><ele>968.0000000000001</ele><time>2026-04-01T09:50:03.812Z</time></trkpt><trkpt lat="42.0843117" lon="-7.9994467"><ele>968.0</ele><time>2026-04-01T09:50:04.813Z</time></trkpt><trkpt lat="42.0842467" lon="-7.999495"><ele>968.0</ele><time>2026-04-01T09:50:05.812Z</time></trkpt><trkpt lat="42.0841767" lon="-7.9995533"><ele>968.0</ele><time>2026-04-01T09:50:07.812Z</time></trkpt><trkpt lat="42.0840817" lon="-7.9996333"><ele>968.0000000000001</ele><time>2026-04-01T09:50:47.81Z</time></trkpt><trkpt lat="42.0840233" lon="-7.999695"><ele>968.0</ele><time>2026-04-01T09:50:48.811Z</time></trkpt><trkpt lat="42.0839533" lon="-7.9997617"><ele>969.0</ele><time>2026-04-01T09:50:49.811Z</time></trkpt><trkpt lat="42.0838783" lon="-7.999835"><ele>970.0</ele><time>2026-04-01T09:50:50.81Z</time></trkpt><trkpt lat="42.083805" lon="-7.999915"><ele>971.0</ele><time>2026-04-01T09:50:51.809Z</time></trkpt><trkpt lat="42.0837317" lon="-7.9999983"><ele>972.0</ele><time>2026-04-01T09:50:52.812Z</time></trkpt><trkpt lat="42.0836383" lon="-8.00008"><ele>973.0</ele><time>2026-04-01T09:50:53.812Z</time></trkpt><trkpt lat="42.0835333" lon="-8.0001683"><ele>973.0</ele><time>2026-04-01T09:50:54.81Z</time></trkpt><trkpt lat="42.0834283" lon="-8.0002617"><ele>973.0</ele><time>2026-04-01T09:50:55.812Z</time></trkpt><trkpt lat="42.0833267" lon="-8.0003617"><ele>973.0</ele><time>2026-04-01T09:50:56.809Z</time></trkpt><trkpt lat="42.0832267" lon="-8.00046"><ele>973.0</ele><time>2026-04-01T09:50:57.81Z</time></trkpt><trkpt lat="42.0831333" lon="-8.0005567"><ele>973.8</ele><time>2026-04-01T09:50:58.812Z</time></trkpt><trkpt lat="42.083045" lon="-8.000655"><ele>974.5999999999999</ele><time>2026-04-01T09:50:59.812Z</time></trkpt><trkpt lat="42.0829533" lon="-8.0007483"><ele>975.4000000000001</ele><time>2026-04-01T09:51:00.809Z</time></trkpt><trkpt lat="42.0828667" lon="-8.0008283"><ele>976.2</ele><time>2026-04-01T09:51:01.812Z</time></trkpt><trkpt lat="42.082775" lon="-8.000905"><ele>977.0</ele><time>2026-04-01T09:51:02.809Z</time></trkpt><trkpt lat="42.0826867" lon="-8.000975"><ele>977.0</ele><time>2026-04-01T09:51:03.812Z</time></trkpt><trkpt lat="42.0826017" lon="-8.0010467"><ele>977.0</ele><time>2026-04-01T09:51:04.808Z</time></trkpt><trkpt lat="42.082515" lon="-8.0011233"><ele>977.0</ele><time>2026-04-01T09:51:05.81Z</time></trkpt><trkpt lat="42.08241" lon="-8.0011967"><ele>977.0</ele><time>2026-04-01T09:51:06.809Z</time></trkpt><trkpt lat="42.0822817" lon="-8.0012833"><ele>977.3333333333334</ele><time>2026-04-01T09:51:07.812Z</time></trkpt><trkpt lat="42.0821467" lon="-8.0013867"><ele>977.6666666666667</ele><time>2026-04-01T09:51:08.812Z</time></trkpt><trkpt lat="42.0820133" lon="-8.0014967"><ele>978.0</ele><time>2026-04-01T09:51:09.808Z</time></trkpt><trkpt lat="42.0818817" lon="-8.0016083"><ele>978.3333333333333</ele><time>2026-04-01T09:51:10.809Z</time></trkpt><trkpt lat="42.08174" lon="-8.00172"><ele>978.6666666666666</ele><time>2026-04-01T09:51:11.81Z</time></trkpt><trkpt lat="42.081595" lon="-8.0018333"><ele>979.0</ele><time>2026-04-01T09:51:12.812Z</time></trkpt><trkpt lat="42.0814467" lon="-8.0019483"><ele>977.3333333333333</ele><time>2026-04-01T09:51:13.809Z</time></trkpt><trkpt lat="42.081305" lon="-8.0020533"><ele>975.6666666666667</ele><time>2026-04-01T09:51:14.812Z</time></trkpt><trkpt lat="42.08117" lon="-8.0021533"><ele>974.0</ele><time>2026-04-01T09:51:15.812Z</time></trkpt><trkpt lat="42.0810533" lon="-8.00225"><ele>974.0</ele><time>2026-04-01T09:51:16.812Z</time></trkpt><trkpt lat="42.080935" lon="-8.002345"><ele>974.0</ele><time>2026-04-01T09:51:17.809Z</time></trkpt><trkpt lat="42.0808" lon="-8.00244"><ele>974.0</ele><time>2026-04-01T09:51:18.811Z</time></trkpt><trkpt lat="42.0806433" lon="-8.00254"><ele>975.0</ele><time>2026-04-01T09:51:19.809Z</time></trkpt><trkpt lat="42.0804667" lon="-8.002655"><ele>976.0</ele><time>2026-04-01T09:51:20.809Z</time></trkpt><trkpt lat="42.0802783" lon="-8.0027833"><ele>977.0</ele><time>2026-04-01T09:51:21.81Z</time></trkpt><trkpt lat="42.0800917" lon="-8.0029083"><ele>976.3333333333334</ele><time>2026-04-01T09:51:22.809Z</time></trkpt><trkpt lat="42.0799117" lon="-8.00302"><ele>975.6666666666667</ele><time>2026-04-01T09:51:23.809Z</time></trkpt><trkpt lat="42.0797433" lon="-8.0031217"><ele>975.0</ele><time>2026-04-01T09:51:24.811Z</time></trkpt><trkpt lat="42.079585" lon="-8.0032133"><ele>975.0</ele><time>2026-04-01T09:51:25.81Z</time></trkpt><trkpt lat="42.0794433" lon="-8.0032933"><ele>975.0</ele><time>2026-04-01T09:51:26.809Z</time></trkpt><trkpt lat="42.0793333" lon="-8.00335"><ele>975.0</ele><time>2026-04-01T09:51:27.808Z</time></trkpt><trkpt lat="42.079255" lon="-8.0034067"><ele>975.0</ele><time>2026-04-01T09:51:28.813Z</time></trkpt><trkpt lat="42.0791967" lon="-8.0034767"><ele>975.0</ele><time>2026-04-01T09:51:29.812Z</time></trkpt><trkpt lat="42.0791467" lon="-8.00357"><ele>975.0</ele><time>2026-04-01T09:51:30.808Z</time></trkpt><trkpt lat="42.0791133" lon="-8.0036983"><ele>975.0</ele><time>2026-04-01T09:51:31.81Z</time></trkpt><trkpt lat="42.0790683" lon="-8.003885"><ele>975.0</ele><time>2026-04-01T09:51:32.812Z</time></trkpt><trkpt lat="42.0790033" lon="-8.0041067"><ele>975.0</ele><time>2026-04-01T09:51:33.808Z</time></trkpt><trkpt lat="42.0789467" lon="-8.0043267"><ele>972.3333333333333</ele><time>2026-04-01T09:51:34.811Z</time></trkpt><trkpt lat="42.0788967" lon="-8.004535"><ele>969.6666666666666</ele><time>2026-04-01T09:51:35.811Z</time></trkpt><trkpt lat="42.0788517" lon="-8.0047267"><ele>967.0</ele><time>2026-04-01T09:51:36.812Z</time></trkpt><trkpt lat="42.0788167" lon="-8.0049083"><ele>966.5</ele><time>2026-04-01T09:51:37.811Z</time></trkpt><trkpt lat="42.0787817" lon="-8.0050767"><ele>966.0</ele><time>2026-04-01T09:51:38.81Z</time></trkpt><trkpt lat="42.0787333" lon="-8.0052383"><ele>965.5</ele><time>2026-04-01T09:51:39.81Z</time></trkpt><trkpt lat="42.0786583" lon="-8.005395"><ele>965.0</ele><time>2026-04-01T09:51:40.81Z</time></trkpt><trkpt lat="42.0785683" lon="-8.00553"><ele>965.0</ele><time>2026-04-01T09:51:41.811Z</time></trkpt><trkpt lat="42.078465" lon="-8.0056333"><ele>965.0</ele><time>2026-04-01T09:51:42.81Z</time></trkpt><trkpt lat="42.0783567" lon="-8.00572"><ele>965.0</ele><time>2026-04-01T09:51:43.812Z</time></trkpt><trkpt lat="42.07826" lon="-8.005805"><ele>965.0</ele><time>2026-04-01T09:51:44.813Z</time></trkpt><trkpt lat="42.07818" lon="-8.00589"><ele>963.4</ele><time>2026-04-01T09:51:45.81Z</time></trkpt><trkpt lat="42.0781133" lon="-8.005965"><ele>961.8</ele><time>2026-04-01T09:51:46.811Z</time></trkpt><trkpt lat="42.0780733" lon="-8.0060317"><ele>960.2</ele><time>2026-04-01T09:51:47.81Z</time></trkpt><trkpt lat="42.078055" lon="-8.0061483"><ele>958.6</ele><time>2026-04-01T09:51:49.81Z</time></trkpt><trkpt lat="42.0781333" lon="-8.0063217"><ele>957.0</ele><time>2026-04-01T09:51:51.81Z</time></trkpt><trkpt lat="42.0782133" lon="-8.0064483"><ele>958.0</ele><time>2026-04-01T09:51:52.809Z</time></trkpt><trkpt lat="42.0782767" lon="-8.0065867"><ele>959.0</ele><time>2026-04-01T09:51:53.81Z</time></trkpt><trkpt lat="42.0783133" lon="-8.0067283"><ele>960.0</ele><time>2026-04-01T09:51:54.81Z</time></trkpt><trkpt lat="42.07832" lon="-8.00688"><ele>961.0</ele><time>2026-04-01T09:51:55.811Z</time></trkpt><trkpt lat="42.078285" lon="-8.0070333"><ele>960.5</ele><time>2026-04-01T09:51:56.812Z</time></trkpt><trkpt lat="42.0782117" lon="-8.0071867"><ele>960.0</ele><time>2026-04-01T09:51:57.81Z</time></trkpt><trkpt lat="42.0781317" lon="-8.0073317"><ele>959.5</ele><time>2026-04-01T09:51:58.809Z</time></trkpt><trkpt lat="42.0780467" lon="-8.0074733"><ele>959.0</ele><time>2026-04-01T09:51:59.811Z</time></trkpt><trkpt lat="42.0779567" lon="-8.00761"><ele>960.0</ele><time>2026-04-01T09:52:00.811Z</time></trkpt><trkpt lat="42.0778583" lon="-8.0077167"><ele>961.0</ele><time>2026-04-01T09:52:01.81Z</time></trkpt><trkpt lat="42.0777533" lon="-8.0077783"><ele>962.0</ele><time>2026-04-01T09:52:02.81Z</time></trkpt><trkpt lat="42.0776283" lon="-8.0077867"><ele>963.0</ele><time>2026-04-01T09:52:03.811Z</time></trkpt><trkpt lat="42.0775017" lon="-8.0077533"><ele>962.5</ele><time>2026-04-01T09:52:04.81Z</time></trkpt><trkpt lat="42.077375" lon="-8.0077067"><ele>962.0</ele><time>2026-04-01T09:52:05.81Z</time></trkpt><trkpt lat="42.0772467" lon="-8.007675"><ele>961.5</ele><time>2026-04-01T09:52:06.811Z</time></trkpt><trkpt lat="42.0771233" lon="-8.0076817"><ele>961.0</ele><time>2026-04-01T09:52:07.811Z</time></trkpt><trkpt lat="42.0770117" lon="-8.0077383"><ele>961.0</ele><time>2026-04-01T09:52:08.81Z</time></trkpt><trkpt lat="42.076905" lon="-8.0078333"><ele>961.0</ele><time>2026-04-01T09:52:09.81Z</time></trkpt><trkpt lat="42.0768067" lon="-8.0079567"><ele>961.0</ele><time>2026-04-01T09:52:10.809Z</time></trkpt><trkpt lat="42.07671" lon="-8.0080967"><ele>961.0</ele><time>2026-04-01T09:52:11.81Z</time></trkpt><trkpt lat="42.0766267" lon="-8.008255"><ele>961.3333333333333</ele><time>2026-04-01T09:52:12.811Z</time></trkpt><trkpt lat="42.0765517" lon="-8.00843"><ele>961.6666666666667</ele><time>2026-04-01T09:52:13.81Z</time></trkpt><trkpt lat="42.076475" lon="-8.008615"><ele>962.0</ele><time>2026-04-01T09:52:14.81Z</time></trkpt><trkpt lat="42.0763933" lon="-8.00882"><ele>962.0</ele><time>2026-04-01T09:52:15.812Z</time></trkpt><trkpt lat="42.0763133" lon="-8.0090283"><ele>962.0</ele><time>2026-04-01T09:52:16.812Z</time></trkpt><trkpt lat="42.0762317" lon="-8.009235"><ele>962.0</ele><time>2026-04-01T09:52:17.813Z</time></trkpt><trkpt lat="42.076145" lon="-8.0094467"><ele>964.6666666666667</ele><time>2026-04-01T09:52:18.808Z</time></trkpt><trkpt lat="42.07606" lon="-8.0096533"><ele>967.3333333333333</ele><time>2026-04-01T09:52:19.813Z</time></trkpt><trkpt lat="42.075975" lon="-8.009845"><ele>970.0</ele><time>2026-04-01T09:52:20.81Z</time></trkpt><trkpt lat="42.0759017" lon="-8.010015"><ele>969.8</ele><time>2026-04-01T09:52:21.81Z</time></trkpt><trkpt lat="42.0758367" lon="-8.0101583"><ele>969.6</ele><time>2026-04-01T09:52:22.81Z</time></trkpt><trkpt lat="42.0757783" lon="-8.010285"><ele>969.4000000000001</ele><time>2026-04-01T09:52:23.81Z</time></trkpt><trkpt lat="42.075725" lon="-8.0103817"><ele>969.2</ele><time>2026-04-01T09:52:24.81Z</time></trkpt><trkpt lat="42.0756667" lon="-8.0104667"><ele>969.0</ele><time>2026-04-01T09:52:25.81Z</time></trkpt><trkpt lat="42.07558" lon="-8.010545"><ele>969.0</ele><time>2026-04-01T09:52:26.811Z</time></trkpt><trkpt lat="42.0754767" lon="-8.010625"><ele>969.0</ele><time>2026-04-01T09:52:27.81Z</time></trkpt><trkpt lat="42.0753767" lon="-8.0107383"><ele>969.0</ele><time>2026-04-01T09:52:28.81Z</time></trkpt><trkpt lat="42.0752717" lon="-8.01089"><ele>969.0</ele><time>2026-04-01T09:52:29.81Z</time></trkpt><trkpt lat="42.0751817" lon="-8.0110217"><ele>968.6</ele><time>2026-04-01T09:52:30.812Z</time></trkpt><trkpt lat="42.0751117" lon="-8.01112"><ele>968.2</ele><time>2026-04-01T09:52:31.813Z</time></trkpt><trkpt lat="42.075045" lon="-8.01119"><ele>967.8000000000001</ele><time>2026-04-01T09:52:32.812Z</time></trkpt><trkpt lat="42.07496" lon="-8.0112417"><ele>967.4000000000001</ele><time>2026-04-01T09:52:33.81Z</time></trkpt><trkpt lat="42.0748667" lon="-8.011285"><ele>967.0</ele><time>2026-04-01T09:52:34.81Z</time></trkpt><trkpt lat="42.0747933" lon="-8.0113383"><ele>966.9999999999999</ele><time>2026-04-01T09:52:35.813Z</time></trkpt><trkpt lat="42.0747417" lon="-8.0114017"><ele>967.0</ele><time>2026-04-01T09:52:36.812Z</time></trkpt><trkpt lat="42.0747167" lon="-8.0114833"><ele>967.0</ele><time>2026-04-01T09:52:37.812Z</time></trkpt><trkpt lat="42.0747233" lon="-8.0115717"><ele>967.0</ele><time>2026-04-01T09:52:38.812Z</time></trkpt><trkpt lat="42.074735" lon="-8.0116667"><ele>966.9999999999999</ele><time>2026-04-01T09:52:39.812Z</time></trkpt><trkpt lat="42.0747767" lon="-8.0118033"><ele>967.0</ele><time>2026-04-01T09:52:40.812Z</time></trkpt><trkpt lat="42.0748283" lon="-8.01196"><ele>967.0</ele><time>2026-04-01T09:52:41.812Z</time></trkpt><trkpt lat="42.0748667" lon="-8.0121033"><ele>967.0</ele><time>2026-04-01T09:52:42.809Z</time></trkpt><trkpt lat="42.0748967" lon="-8.0122233"><ele>967.0</ele><time>2026-04-01T09:52:43.809Z</time></trkpt><trkpt lat="42.0749133" lon="-8.012335"><ele>967.0</ele><time>2026-04-01T09:52:44.809Z</time></trkpt><trkpt lat="42.0749117" lon="-8.0124233"><ele>967.0</ele><time>2026-04-01T09:52:45.809Z</time></trkpt><trkpt lat="42.07484" lon="-8.012535"><ele>966.8</ele><time>2026-04-01T09:52:47.81Z</time></trkpt><trkpt lat="42.074795" lon="-8.0126017"><ele>966.6</ele><time>2026-04-01T09:52:48.809Z</time></trkpt><trkpt lat="42.0747383" lon="-8.0126683"><ele>966.3999999999999</ele><time>2026-04-01T09:52:49.809Z</time></trkpt><trkpt lat="42.0746633" lon="-8.0127383"><ele>966.1999999999999</ele><time>2026-04-01T09:52:50.809Z</time></trkpt><trkpt lat="42.0745533" lon="-8.0128317"><ele>966.0</ele><time>2026-04-01T09:52:51.809Z</time></trkpt><trkpt lat="42.0744033" lon="-8.0129567"><ele>966.0</ele><time>2026-04-01T09:52:52.809Z</time></trkpt><trkpt lat="42.0742517" lon="-8.0130683"><ele>966.0</ele><time>2026-04-01T09:52:53.809Z</time></trkpt><trkpt lat="42.074095" lon="-8.013175"><ele>966.0</ele><time>2026-04-01T09:52:54.809Z</time></trkpt><trkpt lat="42.0739467" lon="-8.0132483"><ele>965.75</ele><time>2026-04-01T09:52:55.809Z</time></trkpt><trkpt lat="42.0738067" lon="-8.0133033"><ele>965.5</ele><time>2026-04-01T09:52:56.81Z</time></trkpt><trkpt lat="42.0736733" lon="-8.0133417"><ele>965.25</ele><time>2026-04-01T09:52:57.809Z</time></trkpt><trkpt lat="42.073555" lon="-8.01338"><ele>965.0</ele><time>2026-04-01T09:52:58.809Z</time></trkpt><trkpt lat="42.0734583" lon="-8.0134267"><ele>965.0</ele><time>2026-04-01T09:52:59.809Z</time></trkpt><trkpt lat="42.073375" lon="-8.0134467"><ele>965.0</ele><time>2026-04-01T09:53:00.81Z</time></trkpt><trkpt lat="42.0732567" lon="-8.01341"><ele>965.0</ele><time>2026-04-01T09:53:02.811Z</time></trkpt><trkpt lat="42.07319" lon="-8.0133667"><ele>965.0</ele><time>2026-04-01T09:53:03.809Z</time></trkpt><trkpt lat="42.0731083" lon="-8.0132867"><ele>965.0</ele><time>2026-04-01T09:53:04.809Z</time></trkpt><trkpt lat="42.0730117" lon="-8.0131433"><ele>965.0</ele><time>2026-04-01T09:53:05.813Z</time></trkpt><trkpt lat="42.07288" lon="-8.0129517"><ele>965.0</ele><time>2026-04-01T09:53:06.81Z</time></trkpt><trkpt lat="42.0727383" lon="-8.0127717"><ele>965.0</ele><time>2026-04-01T09:53:07.811Z</time></trkpt><trkpt lat="42.072605" lon="-8.012615"><ele>965.3333333333334</ele><time>2026-04-01T09:53:08.811Z</time></trkpt><trkpt lat="42.0724817" lon="-8.0124533"><ele>965.6666666666667</ele><time>2026-04-01T09:53:09.809Z</time></trkpt><trkpt lat="42.0723717" lon="-8.012295"><ele>966.0</ele><time>2026-04-01T09:53:10.809Z</time></trkpt><trkpt lat="42.07227" lon="-8.0121033"><ele>967.0</ele><time>2026-04-01T09:53:11.81Z</time></trkpt><trkpt lat="42.07216" lon="-8.0119067"><ele>968.0</ele><time>2026-04-01T09:53:12.81Z</time></trkpt><trkpt lat="42.07205" lon="-8.0117117"><ele>969.0</ele><time>2026-04-01T09:53:13.812Z</time></trkpt><trkpt lat="42.0719533" lon="-8.0115583"><ele>969.0</ele><time>2026-04-01T09:53:14.809Z</time></trkpt><trkpt lat="42.0718683" lon="-8.01142"><ele>969.0</ele><time>2026-04-01T09:53:15.809Z</time></trkpt><trkpt lat="42.0717883" lon="-8.01128"><ele>969.0</ele><time>2026-04-01T09:53:16.809Z</time></trkpt><trkpt lat="42.071715" lon="-8.01117"><ele>969.0</ele><time>2026-04-01T09:53:17.809Z</time></trkpt><trkpt lat="42.0716333" lon="-8.01109"><ele>970.5</ele><time>2026-04-01T09:53:18.809Z</time></trkpt><trkpt lat="42.0715267" lon="-8.01103"><ele>972.0</ele><time>2026-04-01T09:53:19.81Z</time></trkpt><trkpt lat="42.0714117" lon="-8.0109917"><ele>973.5</ele><time>2026-04-01T09:53:20.809Z</time></trkpt><trkpt lat="42.0712717" lon="-8.010975"><ele>975.0</ele><time>2026-04-01T09:53:21.81Z</time></trkpt><trkpt lat="42.0711133" lon="-8.0109667"><ele>975.0</ele><time>2026-04-01T09:53:22.81Z</time></trkpt><trkpt lat="42.0709467" lon="-8.0109667"><ele>975.0</ele><time>2026-04-01T09:53:23.81Z</time></trkpt><trkpt lat="42.0707833" lon="-8.010965"><ele>975.0</ele><time>2026-04-01T09:53:24.812Z</time></trkpt><trkpt lat="42.0706183" lon="-8.01096"><ele>975.6666666666667</ele><time>2026-04-01T09:53:25.812Z</time></trkpt><trkpt lat="42.0704517" lon="-8.0109533"><ele>976.3333333333334</ele><time>2026-04-01T09:53:26.813Z</time></trkpt><trkpt lat="42.0702867" lon="-8.010955"><ele>977.0</ele><time>2026-04-01T09:53:27.813Z</time></trkpt><trkpt lat="42.0701317" lon="-8.0109633"><ele>977.0</ele><time>2026-04-01T09:53:28.812Z</time></trkpt><trkpt lat="42.0699817" lon="-8.010985"><ele>977.0</ele><time>2026-04-01T09:53:29.812Z</time></trkpt><trkpt lat="42.069835" lon="-8.011025"><ele>977.0</ele><time>2026-04-01T09:53:30.812Z</time></trkpt><trkpt lat="42.0696933" lon="-8.0110667"><ele>977.0</ele><time>2026-04-01T09:53:31.812Z</time></trkpt><trkpt lat="42.069545" lon="-8.011085"><ele>977.25</ele><time>2026-04-01T09:53:32.812Z</time></trkpt><trkpt lat="42.0693983" lon="-8.0110983"><ele>977.5</ele><time>2026-04-01T09:53:33.81Z</time></trkpt><trkpt lat="42.069265" lon="-8.011115"><ele>977.75</ele><time>2026-04-01T09:53:34.812Z</time></trkpt><trkpt lat="42.0691517" lon="-8.0111383"><ele>978.0</ele><time>2026-04-01T09:53:35.81Z</time></trkpt><trkpt lat="42.0690533" lon="-8.0111683"><ele>978.0</ele><time>2026-04-01T09:53:36.81Z</time></trkpt><trkpt lat="42.068965" lon="-8.0112133"><ele>978.0</ele><time>2026-04-01T09:53:37.813Z</time></trkpt><trkpt lat="42.0688917" lon="-8.0112783"><ele>978.0</ele><time>2026-04-01T09:53:38.812Z</time></trkpt><trkpt lat="42.0688167" lon="-8.0113667"><ele>978.0</ele><time>2026-04-01T09:53:39.809Z</time></trkpt><trkpt lat="42.068745" lon="-8.0115033"><ele>978.0</ele><time>2026-04-01T09:53:40.812Z</time></trkpt><trkpt lat="42.068665" lon="-8.0116267"><ele>978.0</ele><time>2026-04-01T09:53:41.813Z</time></trkpt><trkpt lat="42.0685617" lon="-8.01176"><ele>978.0</ele><time>2026-04-01T09:53:42.811Z</time></trkpt><trkpt lat="42.068445" lon="-8.011915"><ele>978.0</ele><time>2026-04-01T09:53:43.81Z</time></trkpt><trkpt lat="42.0683267" lon="-8.0120817"><ele>976.6666666666667</ele><time>2026-04-01T09:53:44.812Z</time></trkpt><trkpt lat="42.0682117" lon="-8.012255"><ele>975.3333333333334</ele><time>2026-04-01T09:53:45.812Z</time></trkpt><trkpt lat="42.0681033" lon="-8.0124133"><ele>974.0</ele><time>2026-04-01T09:53:46.812Z</time></trkpt><trkpt lat="42.06802" lon="-8.0125567"><ele>974.0</ele><time>2026-04-01T09:53:47.809Z</time></trkpt><trkpt lat="42.0679567" lon="-8.012705"><ele>974.0</ele><time>2026-04-01T09:53:48.81Z</time></trkpt><trkpt lat="42.0678967" lon="-8.0128433"><ele>974.0</ele><time>2026-04-01T09:53:49.809Z</time></trkpt><trkpt lat="42.0678233" lon="-8.012955"><ele>974.0</ele><time>2026-04-01T09:53:50.81Z</time></trkpt><trkpt lat="42.0677267" lon="-8.0130383"><ele>974.0</ele><time>2026-04-01T09:53:51.809Z</time></trkpt><trkpt lat="42.0676" lon="-8.0131033"><ele>974.0</ele><time>2026-04-01T09:53:52.809Z</time></trkpt><trkpt lat="42.0674433" lon="-8.0131417"><ele>974.0</ele><time>2026-04-01T09:53:53.809Z</time></trkpt><trkpt lat="42.0672433" lon="-8.0131517"><ele>973.3333333333334</ele><time>2026-04-01T09:53:54.809Z</time></trkpt><trkpt lat="42.0670533" lon="-8.01315"><ele>972.6666666666667</ele><time>2026-04-01T09:53:55.812Z</time></trkpt><trkpt lat="42.0668817" lon="-8.0131533"><ele>972.0</ele><time>2026-04-01T09:53:56.813Z</time></trkpt><trkpt lat="42.0667267" lon="-8.0131717"><ele>970.5</ele><time>2026-04-01T09:53:57.812Z</time></trkpt><trkpt lat="42.0665983" lon="-8.0131833"><ele>969.0</ele><time>2026-04-01T09:53:58.812Z</time></trkpt><trkpt lat="42.0664867" lon="-8.013175"><ele>967.5</ele><time>2026-04-01T09:53:59.809Z</time></trkpt><trkpt lat="42.06637" lon="-8.013135"><ele>966.0</ele><time>2026-04-01T09:54:00.813Z</time></trkpt><trkpt lat="42.0662483" lon="-8.0130717"><ele>966.0</ele><time>2026-04-01T09:54:01.812Z</time></trkpt><trkpt lat="42.066125" lon="-8.0129883"><ele>966.0</ele><time>2026-04-01T09:54:02.809Z</time></trkpt><trkpt lat="42.0660067" lon="-8.0128767"><ele>966.0</ele><time>2026-04-01T09:54:03.809Z</time></trkpt><trkpt lat="42.0658933" lon="-8.01276"><ele>966.0</ele><time>2026-04-01T09:54:04.809Z</time></trkpt><trkpt lat="42.06578" lon="-8.01264"><ele>962.75</ele><time>2026-04-01T09:54:05.811Z</time></trkpt><trkpt lat="42.065665" lon="-8.0125283"><ele>959.5</ele><time>2026-04-01T09:54:06.812Z</time></trkpt><trkpt lat="42.06554" lon="-8.0124333"><ele>956.25</ele><time>2026-04-01T09:54:07.813Z</time></trkpt><trkpt lat="42.0654117" lon="-8.0123417"><ele>953.0</ele><time>2026-04-01T09:54:08.809Z</time></trkpt><trkpt lat="42.0652833" lon="-8.0122483"><ele>952.5</ele><time>2026-04-01T09:54:09.809Z</time></trkpt><trkpt lat="42.0651733" lon="-8.012145"><ele>952.0</ele><time>2026-04-01T09:54:10.81Z</time></trkpt><trkpt lat="42.065075" lon="-8.0120317"><ele>951.5</ele><time>2026-04-01T09:54:11.81Z</time></trkpt><trkpt lat="42.064975" lon="-8.0119083"><ele>951.0</ele><time>2026-04-01T09:54:12.81Z</time></trkpt><trkpt lat="42.0648733" lon="-8.0117617"><ele>948.25</ele><time>2026-04-01T09:54:13.815Z</time></trkpt><trkpt lat="42.0647733" lon="-8.0116033"><ele>945.5</ele><time>2026-04-01T09:54:14.809Z</time></trkpt><trkpt lat="42.064685" lon="-8.0114533"><ele>942.75</ele><time>2026-04-01T09:54:15.809Z</time></trkpt><trkpt lat="42.0646067" lon="-8.011315"><ele>940.0</ele><time>2026-04-01T09:54:16.809Z</time></trkpt><trkpt lat="42.06454" lon="-8.0111617"><ele>940.0</ele><time>2026-04-01T09:54:17.81Z</time></trkpt><trkpt lat="42.064475" lon="-8.01098"><ele>940.0</ele><time>2026-04-01T09:54:18.809Z</time></trkpt><trkpt lat="42.0644167" lon="-8.010775"><ele>940.0</ele><time>2026-04-01T09:54:19.812Z</time></trkpt><trkpt lat="42.064365" lon="-8.0105833"><ele>939.75</ele><time>2026-04-01T09:54:20.811Z</time></trkpt><trkpt lat="42.0643" lon="-8.01041"><ele>939.5</ele><time>2026-04-01T09:54:21.812Z</time></trkpt><trkpt lat="42.064215" lon="-8.010255"><ele>939.25</ele><time>2026-04-01T09:54:22.812Z</time></trkpt><trkpt lat="42.064105" lon="-8.0101017"><ele>939.0</ele><time>2026-04-01T09:54:23.809Z</time></trkpt><trkpt lat="42.0639667" lon="-8.0099533"><ele>937.6666666666667</ele><time>2026-04-01T09:54:24.81Z</time></trkpt><trkpt lat="42.06381" lon="-8.0098"><ele>936.3333333333334</ele><time>2026-04-01T09:54:25.812Z</time></trkpt><trkpt lat="42.0636467" lon="-8.009655"><ele>935.0</ele><time>2026-04-01T09:54:26.812Z</time></trkpt><trkpt lat="42.0634933" lon="-8.0095167"><ele>935.0</ele><time>2026-04-01T09:54:27.809Z</time></trkpt><trkpt lat="42.0633583" lon="-8.0093717"><ele>935.0</ele><time>2026-04-01T09:54:28.809Z</time></trkpt><trkpt lat="42.0632417" lon="-8.0092333"><ele>935.0</ele><time>2026-04-01T09:54:29.812Z</time></trkpt><trkpt lat="42.063155" lon="-8.0091233"><ele>935.0</ele><time>2026-04-01T09:54:30.809Z</time></trkpt><trkpt lat="42.0630917" lon="-8.0090483"><ele>933.5000000000001</ele><time>2026-04-01T09:54:31.81Z</time></trkpt><trkpt lat="42.0630267" lon="-8.00898"><ele>932.0</ele><time>2026-04-01T09:54:33.812Z</time></trkpt><trkpt lat="42.063045" lon="-8.0090717"><ele>930.5</ele><time>2026-04-01T09:54:36.809Z</time></trkpt><trkpt lat="42.0631033" lon="-8.0091583"><ele>929.0</ele><time>2026-04-01T09:54:38.809Z</time></trkpt><trkpt lat="42.063175" lon="-8.009285"><ele>927.5000000000001</ele><time>2026-04-01T09:54:40.809Z</time></trkpt><trkpt lat="42.0632033" lon="-8.0093733"><ele>926.0</ele><time>2026-04-01T09:54:41.81Z</time></trkpt><trkpt lat="42.0632333" lon="-8.0095133"><ele>926.0</ele><time>2026-04-01T09:54:42.809Z</time></trkpt><trkpt lat="42.0632533" lon="-8.009655"><ele>926.0</ele><time>2026-04-01T09:54:43.81Z</time></trkpt><trkpt lat="42.063265" lon="-8.0098567"><ele>926.0</ele><time>2026-04-01T09:54:44.81Z</time></trkpt><trkpt lat="42.0632833" lon="-8.0100583"><ele>926.0</ele><time>2026-04-01T09:54:45.811Z</time></trkpt><trkpt lat="42.0632983" lon="-8.01022"><ele>925.5</ele><time>2026-04-01T09:54:46.81Z</time></trkpt><trkpt lat="42.0632983" lon="-8.0103683"><ele>925.0</ele><time>2026-04-01T09:54:47.811Z</time></trkpt><trkpt lat="42.0632733" lon="-8.010525"><ele>924.5</ele><time>2026-04-01T09:54:48.812Z</time></trkpt><trkpt lat="42.063225" lon="-8.0106967"><ele>924.0</ele><time>2026-04-01T09:54:49.809Z</time></trkpt><trkpt lat="42.063155" lon="-8.010895"><ele>924.0</ele><time>2026-04-01T09:54:50.814Z</time></trkpt><trkpt lat="42.0630867" lon="-8.0110883"><ele>924.0</ele><time>2026-04-01T09:54:51.812Z</time></trkpt><trkpt lat="42.0630217" lon="-8.011265"><ele>924.0</ele><time>2026-04-01T09:54:52.812Z</time></trkpt><trkpt lat="42.0629717" lon="-8.0114117"><ele>924.0</ele><time>2026-04-01T09:54:53.813Z</time></trkpt><trkpt lat="42.0629417" lon="-8.0115533"><ele>924.1666666666666</ele><time>2026-04-01T09:54:54.809Z</time></trkpt><trkpt lat="42.0629283" lon="-8.0116833"><ele>924.3333333333333</ele><time>2026-04-01T09:54:55.81Z</time></trkpt><trkpt lat="42.0629267" lon="-8.0117967"><ele>924.5</ele><time>2026-04-01T09:54:56.811Z</time></trkpt><trkpt lat="42.062935" lon="-8.0118833"><ele>924.6666666666666</ele><time>2026-04-01T09:54:57.813Z</time></trkpt><trkpt lat="42.0629617" lon="-8.011995"><ele>924.8333333333333</ele><time>2026-04-01T09:54:59.812Z</time></trkpt><trkpt lat="42.0630017" lon="-8.0120917"><ele>925.0</ele><time>2026-04-01T09:55:01.81Z</time></trkpt><trkpt lat="42.06305" lon="-8.0121483"><ele>924.9999999999999</ele><time>2026-04-01T09:55:02.81Z</time></trkpt><trkpt lat="42.0631283" lon="-8.0121917"><ele>925.0</ele><time>2026-04-01T09:55:03.809Z</time></trkpt><trkpt lat="42.0632" lon="-8.0122367"><ele>925.0</ele><time>2026-04-01T09:55:04.81Z</time></trkpt><trkpt lat="42.063255" lon="-8.01229"><ele>925.0</ele><time>2026-04-01T09:55:05.81Z</time></trkpt><trkpt lat="42.063305" lon="-8.0123433"><ele>924.9999999999999</ele><time>2026-04-01T09:55:06.81Z</time></trkpt><trkpt lat="42.0633567" lon="-8.0124"><ele>925.0</ele><time>2026-04-01T09:55:08.81Z</time></trkpt><trkpt lat="42.063265" lon="-8.0124617"><ele>925.6666666666666</ele><time>2026-04-01T09:55:11.809Z</time></trkpt><trkpt lat="42.0632" lon="-8.01249"><ele>926.3333333333333</ele><time>2026-04-01T09:55:12.809Z</time></trkpt><trkpt lat="42.0631233" lon="-8.012505"><ele>927.0</ele><time>2026-04-01T09:55:13.81Z</time></trkpt><trkpt lat="42.0630167" lon="-8.0125133"><ele>927.6666666666667</ele><time>2026-04-01T09:55:15.809Z</time></trkpt><trkpt lat="42.0629583" lon="-8.012545"><ele>928.3333333333334</ele><time>2026-04-01T09:55:17.811Z</time></trkpt><trkpt lat="42.0629183" lon="-8.0126317"><ele>929.0</ele><time>2026-04-01T09:55:20.81Z</time></trkpt><trkpt lat="42.0628583" lon="-8.0127333"><ele>929.0</ele><time>2026-04-01T09:55:22.809Z</time></trkpt><trkpt lat="42.0627917" lon="-8.01281"><ele>929.0000000000001</ele><time>2026-04-01T09:55:24.809Z</time></trkpt><trkpt lat="42.062735" lon="-8.0128817"><ele>929.0000000000001</ele><time>2026-04-01T09:55:26.812Z</time></trkpt><trkpt lat="42.06265" lon="-8.0129917"><ele>929.0</ele><time>2026-04-01T09:55:28.809Z</time></trkpt><trkpt lat="42.0626" lon="-8.0130567"><ele>929.0</ele><time>2026-04-01T09:55:29.809Z</time></trkpt><trkpt lat="42.0625317" lon="-8.0131683"><ele>929.0</ele><time>2026-04-01T09:55:31.812Z</time></trkpt><trkpt lat="42.062495" lon="-8.0132467"><ele>929.0000000000001</ele><time>2026-04-01T09:55:33.813Z</time></trkpt><trkpt lat="42.0624933" lon="-8.0133317"><ele>929.0000000000001</ele><time>2026-04-01T09:55:35.813Z</time></trkpt><trkpt lat="42.06254" lon="-8.0134517"><ele>929.0</ele><time>2026-04-01T09:55:37.809Z</time></trkpt><trkpt lat="42.0625817" lon="-8.0135583"><ele>929.0</ele><time>2026-04-01T09:55:39.809Z</time></trkpt><trkpt lat="42.0624933" lon="-8.0136967"><ele>929.0</ele><time>2026-04-01T09:55:41.811Z</time></trkpt><trkpt lat="42.0623883" lon="-8.0138233"><ele>929.0</ele><time>2026-04-01T09:55:42.809Z</time></trkpt><trkpt lat="42.06228" lon="-8.0139933"><ele>929.0</ele><time>2026-04-01T09:55:43.812Z</time></trkpt><trkpt lat="42.06218" lon="-8.0141667"><ele>933.0</ele><time>2026-04-01T09:55:44.809Z</time></trkpt><trkpt lat="42.06205" lon="-8.0143467"><ele>937.0</ele><time>2026-04-01T09:55:45.809Z</time></trkpt><trkpt lat="42.0619083" lon="-8.0145183"><ele>941.0</ele><time>2026-04-01T09:55:46.812Z</time></trkpt><trkpt lat="42.0617717" lon="-8.0146633"><ele>941.0</ele><time>2026-04-01T09:55:47.809Z</time></trkpt><trkpt lat="42.0616417" lon="-8.0147767"><ele>941.0</ele><time>2026-04-01T09:55:48.81Z</time></trkpt><trkpt lat="42.06151" lon="-8.0148517"><ele>941.0</ele><time>2026-04-01T09:55:49.809Z</time></trkpt><trkpt lat="42.0613667" lon="-8.014905"><ele>941.0</ele><time>2026-04-01T09:55:50.81Z</time></trkpt><trkpt lat="42.0612217" lon="-8.0149483"><ele>940.0</ele><time>2026-04-01T09:55:51.81Z</time></trkpt><trkpt lat="42.0610933" lon="-8.0149917"><ele>939.0</ele><time>2026-04-01T09:55:52.812Z</time></trkpt><trkpt lat="42.0609833" lon="-8.0150467"><ele>938.0</ele><time>2026-04-01T09:55:53.81Z</time></trkpt><trkpt lat="42.0608717" lon="-8.0151017"><ele>937.0</ele><time>2026-04-01T09:55:54.81Z</time></trkpt><trkpt lat="42.0607617" lon="-8.0151633"><ele>937.0</ele><time>2026-04-01T09:55:55.812Z</time></trkpt><trkpt lat="42.0606617" lon="-8.015235"><ele>937.0</ele><time>2026-04-01T09:55:56.809Z</time></trkpt><trkpt lat="42.0605767" lon="-8.0153217"><ele>937.0</ele><time>2026-04-01T09:55:57.814Z</time></trkpt><trkpt lat="42.0604977" lon="-8.0154251"><ele>937.0</ele><time>2026-04-01T09:55:58.813Z</time></trkpt><trkpt lat="42.0604307" lon="-8.0155463"><ele>937.0</ele><time>2026-04-01T09:55:59.809Z</time></trkpt><trkpt lat="42.0603787" lon="-8.015685"><ele>943.25</ele><time>2026-04-01T09:56:00.809Z</time></trkpt><trkpt lat="42.0603382" lon="-8.0158339"><ele>949.5</ele><time>2026-04-01T09:56:01.813Z</time></trkpt><trkpt lat="42.0603125" lon="-8.0159787"><ele>955.75</ele><time>2026-04-01T09:56:02.81Z</time></trkpt><trkpt lat="42.0602983" lon="-8.0161318"><ele>962.0</ele><time>2026-04-01T09:56:03.812Z</time></trkpt><trkpt lat="42.0602915" lon="-8.0162982"><ele>962.0</ele><time>2026-04-01T09:56:04.81Z</time></trkpt><trkpt lat="42.0603008" lon="-8.016457"><ele>962.0</ele><time>2026-04-01T09:56:05.812Z</time></trkpt><trkpt lat="42.0603122" lon="-8.0166035"><ele>962.0</ele><time>2026-04-01T09:56:06.812Z</time></trkpt><trkpt lat="42.0603061" lon="-8.0167456"><ele>962.0</ele><time>2026-04-01T09:56:07.81Z</time></trkpt><trkpt lat="42.0602809" lon="-8.0168847"><ele>962.0</ele><time>2026-04-01T09:56:08.81Z</time></trkpt><trkpt lat="42.0602402" lon="-8.0170182"><ele>961.8</ele><time>2026-04-01T09:56:09.809Z</time></trkpt><trkpt lat="42.0602008" lon="-8.0171429"><ele>961.6</ele><time>2026-04-01T09:56:10.809Z</time></trkpt><trkpt lat="42.0601779" lon="-8.0172635"><ele>961.3999999999999</ele><time>2026-04-01T09:56:11.809Z</time></trkpt><trkpt lat="42.0601769" lon="-8.0173876"><ele>961.1999999999999</ele><time>2026-04-01T09:56:12.811Z</time></trkpt><trkpt lat="42.0601984" lon="-8.0175139"><ele>961.0</ele><time>2026-04-01T09:56:13.809Z</time></trkpt><trkpt lat="42.0602486" lon="-8.0176537"><ele>961.0</ele><time>2026-04-01T09:56:14.809Z</time></trkpt><trkpt lat="42.0603148" lon="-8.0178131"><ele>961.0</ele><time>2026-04-01T09:56:15.81Z</time></trkpt><trkpt lat="42.0603911" lon="-8.0179919"><ele>961.0</ele><time>2026-04-01T09:56:16.81Z</time></trkpt><trkpt lat="42.0604682" lon="-8.0181639"><ele>961.0</ele><time>2026-04-01T09:56:17.809Z</time></trkpt><trkpt lat="42.0605515" lon="-8.0183198"><ele>961.0</ele><time>2026-04-01T09:56:18.812Z</time></trkpt><trkpt lat="42.0606396" lon="-8.0184602"><ele>960.9999999999999</ele><time>2026-04-01T09:56:19.809Z</time></trkpt><trkpt lat="42.0607098" lon="-8.018581"><ele>960.9999999999999</ele><time>2026-04-01T09:56:20.811Z</time></trkpt><trkpt lat="42.0607558" lon="-8.0186925"><ele>961.0</ele><time>2026-04-01T09:56:21.809Z</time></trkpt><trkpt lat="42.0607833" lon="-8.0188007"><ele>961.0</ele><time>2026-04-01T09:56:22.81Z</time></trkpt><trkpt lat="42.0607977" lon="-8.0189096"><ele>961.0</ele><time>2026-04-01T09:56:23.81Z</time></trkpt><trkpt lat="42.0607819" lon="-8.0190201"><ele>960.9999999999999</ele><time>2026-04-01T09:56:24.812Z</time></trkpt><trkpt lat="42.0607531" lon="-8.0191461"><ele>960.9999999999999</ele><time>2026-04-01T09:56:25.809Z</time></trkpt><trkpt lat="42.0607344" lon="-8.019282"><ele>961.0</ele><time>2026-04-01T09:56:26.81Z</time></trkpt><trkpt lat="42.0607393" lon="-8.0194171"><ele>961.0</ele><time>2026-04-01T09:56:27.81Z</time></trkpt><trkpt lat="42.0607566" lon="-8.019547"><ele>961.1999999999999</ele><time>2026-04-01T09:56:28.809Z</time></trkpt><trkpt lat="42.0607706" lon="-8.0196541"><ele>961.3999999999999</ele><time>2026-04-01T09:56:29.81Z</time></trkpt><trkpt lat="42.0607559" lon="-8.01978"><ele>961.6</ele><time>2026-04-01T09:56:31.812Z</time></trkpt><trkpt lat="42.0606709" lon="-8.0197637"><ele>961.8</ele><time>2026-04-01T09:56:33.81Z</time></trkpt><trkpt lat="42.0605786" lon="-8.0196977"><ele>962.0</ele><time>2026-04-01T09:56:34.81Z</time></trkpt><trkpt lat="42.0604706" lon="-8.0196016"><ele>962.0</ele><time>2026-04-01T09:56:35.812Z</time></trkpt><trkpt lat="42.0603366" lon="-8.0194862"><ele>962.0</ele><time>2026-04-01T09:56:36.813Z</time></trkpt><trkpt lat="42.0601913" lon="-8.0193733"><ele>962.0</ele><time>2026-04-01T09:56:37.813Z</time></trkpt><trkpt lat="42.0600358" lon="-8.0192585"><ele>961.0</ele><time>2026-04-01T09:56:38.81Z</time></trkpt><trkpt lat="42.0598841" lon="-8.0191344"><ele>960.0</ele><time>2026-04-01T09:56:39.811Z</time></trkpt><trkpt lat="42.0597523" lon="-8.0190013"><ele>959.0</ele><time>2026-04-01T09:56:40.813Z</time></trkpt><trkpt lat="42.0596375" lon="-8.0188666"><ele>959.0</ele><time>2026-04-01T09:56:41.811Z</time></trkpt><trkpt lat="42.0595227" lon="-8.01875"><ele>959.0</ele><time>2026-04-01T09:56:42.812Z</time></trkpt><trkpt lat="42.0594011" lon="-8.0186708"><ele>959.0</ele><time>2026-04-01T09:56:43.812Z</time></trkpt><trkpt lat="42.0592719" lon="-8.0186049"><ele>959.0</ele><time>2026-04-01T09:56:44.809Z</time></trkpt><trkpt lat="42.059132" lon="-8.0185254"><ele>959.0</ele><time>2026-04-01T09:56:45.81Z</time></trkpt><trkpt lat="42.0589929" lon="-8.0184252"><ele>959.0</ele><time>2026-04-01T09:56:46.812Z</time></trkpt><trkpt lat="42.0588529" lon="-8.0183064"><ele>959.0</ele><time>2026-04-01T09:56:47.81Z</time></trkpt><trkpt lat="42.0587219" lon="-8.0181768"><ele>956.0</ele><time>2026-04-01T09:56:48.812Z</time></trkpt><trkpt lat="42.0586127" lon="-8.018034"><ele>953.0</ele><time>2026-04-01T09:56:49.809Z</time></trkpt><trkpt lat="42.0585261" lon="-8.0178876"><ele>950.0</ele><time>2026-04-01T09:56:50.812Z</time></trkpt><trkpt lat="42.0584712" lon="-8.0177357"><ele>947.0</ele><time>2026-04-01T09:56:51.809Z</time></trkpt><trkpt lat="42.0584286" lon="-8.0175814"><ele>943.75</ele><time>2026-04-01T09:56:52.812Z</time></trkpt><trkpt lat="42.0583748" lon="-8.0174363"><ele>940.5</ele><time>2026-04-01T09:56:53.812Z</time></trkpt><trkpt lat="42.0582982" lon="-8.017311"><ele>937.25</ele><time>2026-04-01T09:56:54.809Z</time></trkpt><trkpt lat="42.0582044" lon="-8.0171957"><ele>934.0</ele><time>2026-04-01T09:56:55.813Z</time></trkpt><trkpt lat="42.0580836" lon="-8.0170928"><ele>934.0</ele><time>2026-04-01T09:56:56.812Z</time></trkpt><trkpt lat="42.0579556" lon="-8.016969"><ele>934.0</ele><time>2026-04-01T09:56:57.811Z</time></trkpt><trkpt lat="42.0578325" lon="-8.0168303"><ele>934.0</ele><time>2026-04-01T09:56:58.809Z</time></trkpt><trkpt lat="42.0577192" lon="-8.0166793"><ele>935.6666666666666</ele><time>2026-04-01T09:56:59.809Z</time></trkpt><trkpt lat="42.0576101" lon="-8.0165261"><ele>937.3333333333333</ele><time>2026-04-01T09:57:00.81Z</time></trkpt><trkpt lat="42.0574959" lon="-8.0163837"><ele>939.0</ele><time>2026-04-01T09:57:01.811Z</time></trkpt><trkpt lat="42.0573733" lon="-8.0162691"><ele>939.0</ele><time>2026-04-01T09:57:02.812Z</time></trkpt><trkpt lat="42.0572629" lon="-8.0161664"><ele>939.0</ele><time>2026-04-01T09:57:03.811Z</time></trkpt><trkpt lat="42.0571643" lon="-8.016067"><ele>939.0</ele><time>2026-04-01T09:57:04.809Z</time></trkpt><trkpt lat="42.057088" lon="-8.0159344"><ele>939.0</ele><time>2026-04-01T09:57:05.808Z</time></trkpt><trkpt lat="42.0570274" lon="-8.015768"><ele>940.6666666666667</ele><time>2026-04-01T09:57:06.808Z</time></trkpt><trkpt lat="42.056958" lon="-8.0155801"><ele>942.3333333333334</ele><time>2026-04-01T09:57:07.811Z</time></trkpt><trkpt lat="42.0568677" lon="-8.0153871"><ele>944.0</ele><time>2026-04-01T09:57:08.812Z</time></trkpt><trkpt lat="42.0567578" lon="-8.0152111"><ele>944.0</ele><time>2026-04-01T09:57:09.811Z</time></trkpt><trkpt lat="42.056643" lon="-8.0150472"><ele>944.0</ele><time>2026-04-01T09:57:10.808Z</time></trkpt><trkpt lat="42.0565231" lon="-8.0148889"><ele>944.0</ele><time>2026-04-01T09:57:11.811Z</time></trkpt><trkpt lat="42.0564138" lon="-8.0147238"><ele>945.3333333333334</ele><time>2026-04-01T09:57:12.809Z</time></trkpt><trkpt lat="42.0563012" lon="-8.014564"><ele>946.6666666666667</ele><time>2026-04-01T09:57:13.81Z</time></trkpt><trkpt lat="42.0561875" lon="-8.0144076"><ele>948.0</ele><time>2026-04-01T09:57:14.81Z</time></trkpt><trkpt lat="42.0560695" lon="-8.0142663"><ele>947.6666666666667</ele><time>2026-04-01T09:57:15.811Z</time></trkpt><trkpt lat="42.0559388" lon="-8.0141453"><ele>947.3333333333334</ele><time>2026-04-01T09:57:16.81Z</time></trkpt><trkpt lat="42.0558106" lon="-8.0140225"><ele>947.0</ele><time>2026-04-01T09:57:17.81Z</time></trkpt><trkpt lat="42.055683" lon="-8.0138923"><ele>947.6666666666667</ele><time>2026-04-01T09:57:18.809Z</time></trkpt><trkpt lat="42.0555623" lon="-8.0137529"><ele>948.3333333333333</ele><time>2026-04-01T09:57:19.81Z</time></trkpt><trkpt lat="42.0554441" lon="-8.0136093"><ele>949.0</ele><time>2026-04-01T09:57:20.81Z</time></trkpt><trkpt lat="42.0553275" lon="-8.0134635"><ele>949.0</ele><time>2026-04-01T09:57:21.811Z</time></trkpt><trkpt lat="42.0552237" lon="-8.0133254"><ele>949.0000000000001</ele><time>2026-04-01T09:57:22.808Z</time></trkpt><trkpt lat="42.055141" lon="-8.0132006"><ele>949.0000000000001</ele><time>2026-04-01T09:57:23.81Z</time></trkpt><trkpt lat="42.0550841" lon="-8.0130991"><ele>949.0</ele><time>2026-04-01T09:57:24.811Z</time></trkpt><trkpt lat="42.0550383" lon="-8.0130301"><ele>949.0</ele><time>2026-04-01T09:57:25.812Z</time></trkpt><trkpt lat="42.0549434" lon="-8.0129704"><ele>949.0</ele><time>2026-04-01T09:57:27.811Z</time></trkpt><trkpt lat="42.0548762" lon="-8.0129935"><ele>949.0000000000001</ele><time>2026-04-01T09:57:28.811Z</time></trkpt><trkpt lat="42.0548005" lon="-8.0130389"><ele>949.0000000000001</ele><time>2026-04-01T09:57:29.811Z</time></trkpt><trkpt lat="42.0547139" lon="-8.0130818"><ele>949.0</ele><time>2026-04-01T09:57:30.808Z</time></trkpt><trkpt lat="42.0545984" lon="-8.0131125"><ele>949.0</ele><time>2026-04-01T09:57:31.808Z</time></trkpt><trkpt lat="42.0544738" lon="-8.0131353"><ele>949.0</ele><time>2026-04-01T09:57:32.809Z</time></trkpt><trkpt lat="42.0543413" lon="-8.0131646"><ele>949.0</ele><time>2026-04-01T09:57:33.808Z</time></trkpt><trkpt lat="42.0542005" lon="-8.013226"><ele>949.0</ele><time>2026-04-01T09:57:34.808Z</time></trkpt><trkpt lat="42.0540468" lon="-8.0133139"><ele>949.0</ele><time>2026-04-01T09:57:35.809Z</time></trkpt><trkpt lat="42.0538966" lon="-8.013405"><ele>949.6</ele><time>2026-04-01T09:57:36.808Z</time></trkpt><trkpt lat="42.0537618" lon="-8.0134912"><ele>950.2</ele><time>2026-04-01T09:57:37.81Z</time></trkpt><trkpt lat="42.0536575" lon="-8.0135748"><ele>950.8000000000001</ele><time>2026-04-01T09:57:38.811Z</time></trkpt><trkpt lat="42.0535888" lon="-8.0136652"><ele>951.4000000000001</ele><time>2026-04-01T09:57:39.811Z</time></trkpt><trkpt lat="42.0535419" lon="-8.0137498"><ele>952.0</ele><time>2026-04-01T09:57:40.812Z</time></trkpt><trkpt lat="42.0535195" lon="-8.0138516"><ele>952.0</ele><time>2026-04-01T09:57:41.809Z</time></trkpt><trkpt lat="42.0535334" lon="-8.013985"><ele>952.0</ele><time>2026-04-01T09:57:42.812Z</time></trkpt><trkpt lat="42.0535717" lon="-8.014143"><ele>952.0</ele><time>2026-04-01T09:57:43.811Z</time></trkpt><trkpt lat="42.0536096" lon="-8.0142942"><ele>952.0</ele><time>2026-04-01T09:57:44.809Z</time></trkpt><trkpt lat="42.0536508" lon="-8.014432"><ele>952.3333333333333</ele><time>2026-04-01T09:57:45.808Z</time></trkpt><trkpt lat="42.0536855" lon="-8.0145642"><ele>952.6666666666666</ele><time>2026-04-01T09:57:46.811Z</time></trkpt><trkpt lat="42.0537039" lon="-8.0146881"><ele>953.0</ele><time>2026-04-01T09:57:47.809Z</time></trkpt><trkpt lat="42.0537254" lon="-8.0147961"><ele>953.3333333333333</ele><time>2026-04-01T09:57:48.808Z</time></trkpt><trkpt lat="42.0537528" lon="-8.0148927"><ele>953.6666666666666</ele><time>2026-04-01T09:57:49.808Z</time></trkpt><trkpt lat="42.053783" lon="-8.0149765"><ele>954.0</ele><time>2026-04-01T09:57:50.809Z</time></trkpt><trkpt lat="42.0538148" lon="-8.0150525"><ele>954.4000000000001</ele><time>2026-04-01T09:57:51.808Z</time></trkpt><trkpt lat="42.0538742" lon="-8.0151788"><ele>954.8000000000001</ele><time>2026-04-01T09:57:53.809Z</time></trkpt><trkpt lat="42.0539365" lon="-8.0152833"><ele>955.1999999999999</ele><time>2026-04-01T09:57:55.808Z</time></trkpt><trkpt lat="42.0540303" lon="-8.0153918"><ele>955.5999999999999</ele><time>2026-04-01T09:57:57.808Z</time></trkpt><trkpt lat="42.0541058" lon="-8.0154679"><ele>956.0</ele><time>2026-04-01T09:57:58.808Z</time></trkpt><trkpt lat="42.054198" lon="-8.0155486"><ele>956.0</ele><time>2026-04-01T09:57:59.812Z</time></trkpt><trkpt lat="42.0543003" lon="-8.0156382"><ele>956.0</ele><time>2026-04-01T09:58:00.808Z</time></trkpt><trkpt lat="42.0543995" lon="-8.0157311"><ele>956.0</ele><time>2026-04-01T09:58:01.81Z</time></trkpt><trkpt lat="42.0544899" lon="-8.0158212"><ele>956.0</ele><time>2026-04-01T09:58:02.811Z</time></trkpt><trkpt lat="42.0545669" lon="-8.0159035"><ele>956.5000000000001</ele><time>2026-04-01T09:58:03.812Z</time></trkpt><trkpt lat="42.0546288" lon="-8.0159705"><ele>957.0</ele><time>2026-04-01T09:58:04.811Z</time></trkpt><trkpt lat="42.0546766" lon="-8.0160491"><ele>957.5</ele><time>2026-04-01T09:58:05.81Z</time></trkpt><trkpt lat="42.0547033" lon="-8.016131"><ele>958.0</ele><time>2026-04-01T09:58:06.809Z</time></trkpt><trkpt lat="42.0547414" lon="-8.0162865"><ele>958.5000000000001</ele><time>2026-04-01T09:58:08.81Z</time></trkpt><trkpt lat="42.0547569" lon="-8.0163805"><ele>959.0</ele><time>2026-04-01T09:58:09.809Z</time></trkpt><trkpt lat="42.0547519" lon="-8.0164791"><ele>959.0</ele><time>2026-04-01T09:58:10.809Z</time></trkpt><trkpt lat="42.0547505" lon="-8.0166046"><ele>959.0000000000001</ele><time>2026-04-01T09:58:11.811Z</time></trkpt><trkpt lat="42.0547715" lon="-8.0167189"><ele>959.0000000000001</ele><time>2026-04-01T09:58:12.811Z</time></trkpt><trkpt lat="42.0548251" lon="-8.0168404"><ele>959.0</ele><time>2026-04-01T09:58:13.809Z</time></trkpt><trkpt lat="42.0548906" lon="-8.016958"><ele>959.0</ele><time>2026-04-01T09:58:14.812Z</time></trkpt><trkpt lat="42.0549527" lon="-8.0170659"><ele>958.5000000000001</ele><time>2026-04-01T09:58:15.808Z</time></trkpt><trkpt lat="42.0550159" lon="-8.0171661"><ele>958.0</ele><time>2026-04-01T09:58:16.809Z</time></trkpt><trkpt lat="42.0550809" lon="-8.0172602"><ele>957.5</ele><time>2026-04-01T09:58:17.81Z</time></trkpt><trkpt lat="42.0551375" lon="-8.0173364"><ele>957.0</ele><time>2026-04-01T09:58:18.811Z</time></trkpt><trkpt lat="42.0551919" lon="-8.0173972"><ele>956.5000000000001</ele><time>2026-04-01T09:58:19.81Z</time></trkpt><trkpt lat="42.0552506" lon="-8.0174352"><ele>956.0</ele><time>2026-04-01T09:58:20.813Z</time></trkpt><trkpt lat="42.0553294" lon="-8.017437"><ele>956.0000000000001</ele><time>2026-04-01T09:58:21.811Z</time></trkpt><trkpt lat="42.0554143" lon="-8.0174096"><ele>956.0</ele><time>2026-04-01T09:58:22.81Z</time></trkpt><trkpt lat="42.0554996" lon="-8.0173665"><ele>956.0</ele><time>2026-04-01T09:58:23.809Z</time></trkpt><trkpt lat="42.0555816" lon="-8.0173193"><ele>956.0</ele><time>2026-04-01T09:58:24.81Z</time></trkpt><trkpt lat="42.0556533" lon="-8.017265"><ele>956.0000000000001</ele><time>2026-04-01T09:58:25.81Z</time></trkpt><trkpt lat="42.0557233" lon="-8.0172467"><ele>956.0</ele><time>2026-04-01T09:58:26.811Z</time></trkpt><trkpt lat="42.0558033" lon="-8.0172467"><ele>955.5000000000001</ele><time>2026-04-01T09:58:27.809Z</time></trkpt><trkpt lat="42.0558783" lon="-8.017265"><ele>955.0</ele><time>2026-04-01T09:58:28.809Z</time></trkpt><trkpt lat="42.0559733" lon="-8.01731"><ele>954.5</ele><time>2026-04-01T09:58:29.812Z</time></trkpt><trkpt lat="42.0560633" lon="-8.0173533"><ele>954.0</ele><time>2026-04-01T09:58:30.81Z</time></trkpt><trkpt lat="42.0561333" lon="-8.0174067"><ele>953.5000000000001</ele><time>2026-04-01T09:58:31.81Z</time></trkpt><trkpt lat="42.0561933" lon="-8.0174533"><ele>953.0</ele><time>2026-04-01T09:58:32.81Z</time></trkpt><trkpt lat="42.0562283" lon="-8.01754"><ele>955.2</ele><time>2026-04-01T09:58:33.81Z</time></trkpt><trkpt lat="42.0562467" lon="-8.0176283"><ele>957.4</ele><time>2026-04-01T09:58:34.809Z</time></trkpt><trkpt lat="42.05626" lon="-8.0177767"><ele>959.6000000000001</ele><time>2026-04-01T09:58:36.812Z</time></trkpt><trkpt lat="42.0562267" lon="-8.0178717"><ele>961.8000000000001</ele><time>2026-04-01T09:58:38.81Z</time></trkpt><trkpt lat="42.0561183" lon="-8.0179017"><ele>964.0</ele><time>2026-04-01T09:58:40.811Z</time></trkpt><trkpt lat="42.0560317" lon="-8.0179067"><ele>964.0</ele><time>2026-04-01T09:58:41.812Z</time></trkpt><trkpt lat="42.055945" lon="-8.017935"><ele>964.0000000000001</ele><time>2026-04-01T09:58:42.81Z</time></trkpt><trkpt lat="42.0558483" lon="-8.0179717"><ele>964.0000000000001</ele><time>2026-04-01T09:58:43.809Z</time></trkpt><trkpt lat="42.055745" lon="-8.0180267"><ele>964.0</ele><time>2026-04-01T09:58:44.81Z</time></trkpt><trkpt lat="42.0556283" lon="-8.0180817"><ele>964.0</ele><time>2026-04-01T09:58:45.81Z</time></trkpt><trkpt lat="42.05552" lon="-8.0181333"><ele>964.6</ele><time>2026-04-01T09:58:46.812Z</time></trkpt><trkpt lat="42.0554233" lon="-8.01817"><ele>965.2</ele><time>2026-04-01T09:58:47.808Z</time></trkpt><trkpt lat="42.055325" lon="-8.018185"><ele>965.8000000000001</ele><time>2026-04-01T09:58:48.809Z</time></trkpt><trkpt lat="42.0552183" lon="-8.0181767"><ele>966.4000000000001</ele><time>2026-04-01T09:58:49.81Z</time></trkpt><trkpt lat="42.0550917" lon="-8.0181367"><ele>967.0</ele><time>2026-04-01T09:58:50.809Z</time></trkpt><trkpt lat="42.0549333" lon="-8.0180767"><ele>971.3333333333333</ele><time>2026-04-01T09:58:51.809Z</time></trkpt><trkpt lat="42.0547833" lon="-8.0180117"><ele>975.6666666666667</ele><time>2026-04-01T09:58:52.809Z</time></trkpt><trkpt lat="42.0546367" lon="-8.0179333"><ele>980.0</ele><time>2026-04-01T09:58:53.809Z</time></trkpt><trkpt lat="42.054495" lon="-8.01787"><ele>980.0</ele><time>2026-04-01T09:58:54.809Z</time></trkpt><trkpt lat="42.0543683" lon="-8.0178267"><ele>980.0</ele><time>2026-04-01T09:58:55.81Z</time></trkpt><trkpt lat="42.0542667" lon="-8.0177917"><ele>980.0</ele><time>2026-04-01T09:58:56.811Z</time></trkpt><trkpt lat="42.054185" lon="-8.0177583"><ele>980.0</ele><time>2026-04-01T09:58:57.812Z</time></trkpt><trkpt lat="42.0542417" lon="-8.0178667"><ele>980.0</ele><time>2026-04-01T09:59:03.812Z</time></trkpt><trkpt lat="42.0543033" lon="-8.0179167"><ele>980.0</ele><time>2026-04-01T09:59:04.808Z</time></trkpt><trkpt lat="42.0543667" lon="-8.0179717"><ele>980.0</ele><time>2026-04-01T09:59:05.813Z</time></trkpt><trkpt lat="42.054445" lon="-8.0180483"><ele>980.0</ele><time>2026-04-01T09:59:07.809Z</time></trkpt><trkpt lat="42.054505" lon="-8.01813"><ele>980.0</ele><time>2026-04-01T09:59:36.81Z</time></trkpt><trkpt lat="42.0546167" lon="-8.0182517"><ele>980.0</ele><time>2026-04-01T09:59:38.812Z</time></trkpt><trkpt lat="42.0547" lon="-8.018355"><ele>980.25</ele><time>2026-04-01T09:59:39.809Z</time></trkpt><trkpt lat="42.0548017" lon="-8.0184917"><ele>980.5</ele><time>2026-04-01T09:59:40.813Z</time></trkpt><trkpt lat="42.0549067" lon="-8.018635"><ele>980.75</ele><time>2026-04-01T09:59:41.811Z</time></trkpt><trkpt lat="42.0550033" lon="-8.0187817"><ele>981.0</ele><time>2026-04-01T09:59:42.81Z</time></trkpt><trkpt lat="42.0550933" lon="-8.0189333"><ele>981.0</ele><time>2026-04-01T09:59:43.812Z</time></trkpt><trkpt lat="42.0551767" lon="-8.0190933"><ele>981.0</ele><time>2026-04-01T09:59:44.812Z</time></trkpt><trkpt lat="42.0552467" lon="-8.0192483"><ele>981.0</ele><time>2026-04-01T09:59:45.812Z</time></trkpt><trkpt lat="42.0553083" lon="-8.0193983"><ele>981.0</ele><time>2026-04-01T09:59:46.809Z</time></trkpt><trkpt lat="42.05535" lon="-8.019535"><ele>983.0</ele><time>2026-04-01T09:59:47.812Z</time></trkpt><trkpt lat="42.0553667" lon="-8.0196617"><ele>985.0</ele><time>2026-04-01T09:59:48.808Z</time></trkpt><trkpt lat="42.0553683" lon="-8.0198083"><ele>987.0</ele><time>2026-04-01T09:59:49.811Z</time></trkpt><trkpt lat="42.0553483" lon="-8.0199767"><ele>989.0</ele><time>2026-04-01T09:59:50.813Z</time></trkpt><trkpt lat="42.0553333" lon="-8.020165"><ele>989.0</ele><time>2026-04-01T09:59:51.812Z</time></trkpt><trkpt lat="42.0553283" lon="-8.020355"><ele>989.0</ele><time>2026-04-01T09:59:52.809Z</time></trkpt><trkpt lat="42.0553367" lon="-8.0205483"><ele>989.0</ele><time>2026-04-01T09:59:53.812Z</time></trkpt><trkpt lat="42.0553433" lon="-8.020735"><ele>989.0</ele><time>2026-04-01T09:59:54.808Z</time></trkpt><trkpt lat="42.0553533" lon="-8.0209133"><ele>989.75</ele><time>2026-04-01T09:59:55.808Z</time></trkpt><trkpt lat="42.0553783" lon="-8.021085"><ele>990.5</ele><time>2026-04-01T09:59:56.81Z</time></trkpt><trkpt lat="42.055415" lon="-8.02126"><ele>991.25</ele><time>2026-04-01T09:59:57.808Z</time></trkpt><trkpt lat="42.0554583" lon="-8.0214533"><ele>992.0</ele><time>2026-04-01T09:59:58.809Z</time></trkpt><trkpt lat="42.0555033" lon="-8.0216517"><ele>993.25</ele><time>2026-04-01T09:59:59.809Z</time></trkpt><trkpt lat="42.0555417" lon="-8.02185"><ele>994.5</ele><time>2026-04-01T10:00:00.809Z</time></trkpt><trkpt lat="42.055555" lon="-8.0220367"><ele>995.75</ele><time>2026-04-01T10:00:01.809Z</time></trkpt><trkpt lat="42.0555533" lon="-8.0222267"><ele>997.0</ele><time>2026-04-01T10:00:02.809Z</time></trkpt><trkpt lat="42.0555617" lon="-8.0224217"><ele>999.5</ele><time>2026-04-01T10:00:03.808Z</time></trkpt><trkpt lat="42.0555683" lon="-8.0225967"><ele>1002.0</ele><time>2026-04-01T10:00:04.809Z</time></trkpt><trkpt lat="42.0555783" lon="-8.0227633"><ele>1004.5</ele><time>2026-04-01T10:00:05.809Z</time></trkpt><trkpt lat="42.0556083" lon="-8.0229233"><ele>1007.0</ele><time>2026-04-01T10:00:06.81Z</time></trkpt><trkpt lat="42.0556483" lon="-8.0231133"><ele>1007.0</ele><time>2026-04-01T10:00:07.81Z</time></trkpt><trkpt lat="42.0556917" lon="-8.0233017"><ele>1007.0</ele><time>2026-04-01T10:00:08.809Z</time></trkpt><trkpt lat="42.05573" lon="-8.0234867"><ele>1007.0</ele><time>2026-04-01T10:00:09.809Z</time></trkpt><trkpt lat="42.0557533" lon="-8.023665"><ele>1007.0</ele><time>2026-04-01T10:00:10.81Z</time></trkpt><trkpt lat="42.05578" lon="-8.0238267"><ele>1005.1666666666667</ele><time>2026-04-01T10:00:11.809Z</time></trkpt><trkpt lat="42.0558133" lon="-8.0239717"><ele>1003.3333333333334</ele><time>2026-04-01T10:00:12.809Z</time></trkpt><trkpt lat="42.0558333" lon="-8.02408"><ele>1001.5</ele><time>2026-04-01T10:00:13.81Z</time></trkpt><trkpt lat="42.05584" lon="-8.0241667"><ele>999.6666666666667</ele><time>2026-04-01T10:00:14.812Z</time></trkpt><trkpt lat="42.0558633" lon="-8.0242733"><ele>997.8333333333334</ele><time>2026-04-01T10:00:16.81Z</time></trkpt><trkpt lat="42.0559033" lon="-8.0243633"><ele>996.0</ele><time>2026-04-01T10:00:18.809Z</time></trkpt><trkpt lat="42.0559517" lon="-8.0245083"><ele>996.0</ele><time>2026-04-01T10:00:20.812Z</time></trkpt><trkpt lat="42.056005" lon="-8.0246617"><ele>996.0</ele><time>2026-04-01T10:00:22.809Z</time></trkpt><trkpt lat="42.0560433" lon="-8.0247467"><ele>996.0</ele><time>2026-04-01T10:00:23.812Z</time></trkpt><trkpt lat="42.0560867" lon="-8.0248167"><ele>996.0</ele><time>2026-04-01T10:00:24.808Z</time></trkpt><trkpt lat="42.0561467" lon="-8.02488"><ele>996.0</ele><time>2026-04-01T10:00:25.809Z</time></trkpt><trkpt lat="42.0562217" lon="-8.024955"><ele>996.0</ele><time>2026-04-01T10:00:26.809Z</time></trkpt><trkpt lat="42.0563067" lon="-8.025035"><ele>998.0</ele><time>2026-04-01T10:00:27.809Z</time></trkpt><trkpt lat="42.0563917" lon="-8.0251183"><ele>999.9999999999999</ele><time>2026-04-01T10:00:28.81Z</time></trkpt><trkpt lat="42.056485" lon="-8.02522"><ele>1001.9999999999999</ele><time>2026-04-01T10:00:29.809Z</time></trkpt><trkpt lat="42.056585" lon="-8.0253067"><ele>1004.0</ele><time>2026-04-01T10:00:30.811Z</time></trkpt><trkpt lat="42.0566717" lon="-8.025385"><ele>1006.0</ele><time>2026-04-01T10:00:31.81Z</time></trkpt><trkpt lat="42.05676" lon="-8.0254183"><ele>1006.4</ele><time>2026-04-01T10:00:32.81Z</time></trkpt><trkpt lat="42.0568583" lon="-8.0254267"><ele>1006.8</ele><time>2026-04-01T10:00:33.809Z</time></trkpt><trkpt lat="42.0569583" lon="-8.0254733"><ele>1007.1999999999999</ele><time>2026-04-01T10:00:34.809Z</time></trkpt><trkpt lat="42.057055" lon="-8.0255367"><ele>1007.5999999999999</ele><time>2026-04-01T10:00:35.811Z</time></trkpt><trkpt lat="42.0571383" lon="-8.0256417"><ele>1008.0</ele><time>2026-04-01T10:00:36.809Z</time></trkpt><trkpt lat="42.0572133" lon="-8.0257867"><ele>1009.5999999999999</ele><time>2026-04-01T10:00:37.809Z</time></trkpt><trkpt lat="42.0572767" lon="-8.0259333"><ele>1011.1999999999999</ele><time>2026-04-01T10:00:38.809Z</time></trkpt><trkpt lat="42.057325" lon="-8.026075"><ele>1012.8</ele><time>2026-04-01T10:00:39.809Z</time></trkpt><trkpt lat="42.0573717" lon="-8.02619"><ele>1014.4</ele><time>2026-04-01T10:00:40.809Z</time></trkpt><trkpt lat="42.0574267" lon="-8.0262867"><ele>1016.0</ele><time>2026-04-01T10:00:41.809Z</time></trkpt><trkpt lat="42.05751" lon="-8.0263883"><ele>1016.0</ele><time>2026-04-01T10:00:42.809Z</time></trkpt><trkpt lat="42.0576167" lon="-8.026505"><ele>1016.0</ele><time>2026-04-01T10:00:43.809Z</time></trkpt><trkpt lat="42.0577433" lon="-8.0266267"><ele>1016.0</ele><time>2026-04-01T10:00:44.809Z</time></trkpt><trkpt lat="42.0578433" lon="-8.0267417"><ele>1016.0</ele><time>2026-04-01T10:00:45.813Z</time></trkpt><trkpt lat="42.0579183" lon="-8.0268533"><ele>1018.5999999999999</ele><time>2026-04-01T10:00:46.813Z</time></trkpt><trkpt lat="42.057985" lon="-8.02698"><ele>1021.1999999999999</ele><time>2026-04-01T10:00:47.809Z</time></trkpt><trkpt lat="42.0580433" lon="-8.02712"><ele>1023.8000000000001</ele><time>2026-04-01T10:00:48.811Z</time></trkpt><trkpt lat="42.0580867" lon="-8.02723"><ele>1026.4</ele><time>2026-04-01T10:00:49.809Z</time></trkpt><trkpt lat="42.0581117" lon="-8.02733"><ele>1029.0</ele><time>2026-04-01T10:00:50.809Z</time></trkpt><trkpt lat="42.0581217" lon="-8.0274517"><ele>1029.25</ele><time>2026-04-01T10:00:51.809Z</time></trkpt><trkpt lat="42.05812" lon="-8.02759"><ele>1029.5</ele><time>2026-04-01T10:00:52.809Z</time></trkpt><trkpt lat="42.0580933" lon="-8.027775"><ele>1029.75</ele><time>2026-04-01T10:00:53.809Z</time></trkpt><trkpt lat="42.0580517" lon="-8.0280017"><ele>1030.0</ele><time>2026-04-01T10:00:54.81Z</time></trkpt><trkpt lat="42.058015" lon="-8.0282083"><ele>1029.2</ele><time>2026-04-01T10:00:55.809Z</time></trkpt><trkpt lat="42.0579717" lon="-8.0283733"><ele>1028.4</ele><time>2026-04-01T10:00:56.809Z</time></trkpt><trkpt lat="42.0579267" lon="-8.0284967"><ele>1027.6</ele><time>2026-04-01T10:00:57.809Z</time></trkpt><trkpt lat="42.05789" lon="-8.0285783"><ele>1026.8</ele><time>2026-04-01T10:00:58.809Z</time></trkpt><trkpt lat="42.057845" lon="-8.0286817"><ele>1026.0</ele><time>2026-04-01T10:01:00.809Z</time></trkpt><trkpt lat="42.0577967" lon="-8.028815"><ele>1026.0</ele><time>2026-04-01T10:01:02.809Z</time></trkpt><trkpt lat="42.0577517" lon="-8.0289533"><ele>1026.0</ele><time>2026-04-01T10:01:04.81Z</time></trkpt><trkpt lat="42.0576817" lon="-8.0289933"><ele>1026.0</ele><time>2026-04-01T10:01:06.811Z</time></trkpt><trkpt lat="42.0575633" lon="-8.0289183"><ele>1026.0</ele><time>2026-04-01T10:01:08.809Z</time></trkpt><trkpt lat="42.05748" lon="-8.0288767"><ele>1026.0</ele><time>2026-04-01T10:01:09.809Z</time></trkpt><trkpt lat="42.0573783" lon="-8.0288283"><ele>1026.0</ele><time>2026-04-01T10:01:10.809Z</time></trkpt><trkpt lat="42.0572783" lon="-8.028785"><ele>1026.0</ele><time>2026-04-01T10:01:11.81Z</time></trkpt><trkpt lat="42.0571917" lon="-8.02874"><ele>1026.0</ele><time>2026-04-01T10:01:12.809Z</time></trkpt><trkpt lat="42.05711" lon="-8.0286767"><ele>1026.0</ele><time>2026-04-01T10:01:13.811Z</time></trkpt><trkpt lat="42.0570467" lon="-8.0285967"><ele>1026.0</ele><time>2026-04-01T10:01:14.809Z</time></trkpt><trkpt lat="42.056985" lon="-8.0285167"><ele>1026.0</ele><time>2026-04-01T10:01:15.812Z</time></trkpt><trkpt lat="42.0569267" lon="-8.0284417"><ele>1026.0</ele><time>2026-04-01T10:01:16.812Z</time></trkpt><trkpt lat="42.05688" lon="-8.0283783"><ele>1026.0</ele><time>2026-04-01T10:01:17.809Z</time></trkpt><trkpt lat="42.0568067" lon="-8.0282767"><ele>1026.0</ele><time>2026-04-01T10:01:19.809Z</time></trkpt><trkpt lat="42.0567233" lon="-8.0281767"><ele>1026.0</ele><time>2026-04-01T10:01:21.809Z</time></trkpt><trkpt lat="42.056675" lon="-8.0281117"><ele>1026.0</ele><time>2026-04-01T10:01:22.811Z</time></trkpt><trkpt lat="42.056615" lon="-8.0280233"><ele>1026.0</ele><time>2026-04-01T10:01:23.811Z</time></trkpt><trkpt lat="42.0565483" lon="-8.02792"><ele>1026.0</ele><time>2026-04-01T10:01:24.809Z</time></trkpt><trkpt lat="42.0564817" lon="-8.0278283"><ele>1026.0</ele><time>2026-04-01T10:01:25.81Z</time></trkpt><trkpt lat="42.0564167" lon="-8.027725"><ele>1026.0</ele><time>2026-04-01T10:01:26.81Z</time></trkpt><trkpt lat="42.0563467" lon="-8.0276467"><ele>1026.0</ele><time>2026-04-01T10:01:27.809Z</time></trkpt><trkpt lat="42.0562683" lon="-8.0275717"><ele>1026.0</ele><time>2026-04-01T10:01:28.809Z</time></trkpt><trkpt lat="42.0561867" lon="-8.0275183"><ele>1026.0</ele><time>2026-04-01T10:01:29.81Z</time></trkpt><trkpt lat="42.0560833" lon="-8.0274883"><ele>1026.0</ele><time>2026-04-01T10:01:30.809Z</time></trkpt><trkpt lat="42.05594" lon="-8.0274583"><ele>1026.0</ele><time>2026-04-01T10:01:31.81Z</time></trkpt><trkpt lat="42.0558117" lon="-8.02744"><ele>1023.4</ele><time>2026-04-01T10:01:32.811Z</time></trkpt><trkpt lat="42.055695" lon="-8.02742"><ele>1020.8</ele><time>2026-04-01T10:01:33.809Z</time></trkpt><trkpt lat="42.0555917" lon="-8.0274083"><ele>1018.1999999999999</ele><time>2026-04-01T10:01:34.809Z</time></trkpt><trkpt lat="42.05548" lon="-8.0273833"><ele>1015.5999999999999</ele><time>2026-04-01T10:01:35.809Z</time></trkpt><trkpt lat="42.0553767" lon="-8.0273567"><ele>1013.0</ele><time>2026-04-01T10:01:36.81Z</time></trkpt><trkpt lat="42.0552967" lon="-8.0273217"><ele>1013.0</ele><time>2026-04-01T10:01:37.811Z</time></trkpt><trkpt lat="42.0552167" lon="-8.02728"><ele>1013.0</ele><time>2026-04-01T10:01:38.81Z</time></trkpt><trkpt lat="42.0551283" lon="-8.0272483"><ele>1013.0</ele><time>2026-04-01T10:01:39.81Z</time></trkpt><trkpt lat="42.0550283" lon="-8.02721"><ele>1013.0</ele><time>2026-04-01T10:01:40.812Z</time></trkpt><trkpt lat="42.05492" lon="-8.0271717"><ele>1013.0</ele><time>2026-04-01T10:01:41.81Z</time></trkpt><trkpt lat="42.0548283" lon="-8.027145"><ele>1014.6666666666667</ele><time>2026-04-01T10:01:42.81Z</time></trkpt><trkpt lat="42.05475" lon="-8.0271217"><ele>1016.3333333333334</ele><time>2026-04-01T10:01:43.81Z</time></trkpt><trkpt lat="42.0546867" lon="-8.027095"><ele>1018.0</ele><time>2026-04-01T10:01:44.81Z</time></trkpt><trkpt lat="42.05462" lon="-8.0269917"><ele>1019.6666666666667</ele><time>2026-04-01T10:01:46.809Z</time></trkpt><trkpt lat="42.0545983" lon="-8.0268917"><ele>1021.3333333333334</ele><time>2026-04-01T10:01:48.811Z</time></trkpt><trkpt lat="42.0546117" lon="-8.0267733"><ele>1023.0</ele><time>2026-04-01T10:01:50.81Z</time></trkpt><trkpt lat="42.0546133" lon="-8.0266583"><ele>1021.0</ele><time>2026-04-01T10:01:52.81Z</time></trkpt><trkpt lat="42.0546067" lon="-8.026545"><ele>1019.0</ele><time>2026-04-01T10:01:54.81Z</time></trkpt><trkpt lat="42.05458" lon="-8.0264083"><ele>1017.0</ele><time>2026-04-01T10:01:56.81Z</time></trkpt><trkpt lat="42.0545833" lon="-8.02628"><ele>1015.0</ele><time>2026-04-01T10:01:58.81Z</time></trkpt><trkpt lat="42.0545733" lon="-8.0261817"><ele>1013.0</ele><time>2026-04-01T10:02:00.81Z</time></trkpt><trkpt lat="42.0545683" lon="-8.0260133"><ele>1013.0</ele><time>2026-04-01T10:02:02.809Z</time></trkpt><trkpt lat="42.0545683" lon="-8.0259217"><ele>1013.0</ele><time>2026-04-01T10:02:03.809Z</time></trkpt><trkpt lat="42.0545717" lon="-8.025815"><ele>1013.0</ele><time>2026-04-01T10:02:04.809Z</time></trkpt><trkpt lat="42.0545867" lon="-8.0256667"><ele>1013.0</ele><time>2026-04-01T10:02:06.81Z</time></trkpt><trkpt lat="42.05458" lon="-8.0255033"><ele>1013.0</ele><time>2026-04-01T10:02:08.811Z</time></trkpt><trkpt lat="42.05458" lon="-8.025395"><ele>1013.5000000000001</ele><time>2026-04-01T10:02:09.81Z</time></trkpt><trkpt lat="42.0545783" lon="-8.025305"><ele>1014.0</ele><time>2026-04-01T10:02:10.81Z</time></trkpt><trkpt lat="42.0545867" lon="-8.0252033"><ele>1014.5</ele><time>2026-04-01T10:02:11.809Z</time></trkpt><trkpt lat="42.0546217" lon="-8.0250833"><ele>1015.0</ele><time>2026-04-01T10:02:12.812Z</time></trkpt><trkpt lat="42.054655" lon="-8.02497"><ele>1015.5000000000001</ele><time>2026-04-01T10:02:13.812Z</time></trkpt><trkpt lat="42.0546817" lon="-8.0248533"><ele>1016.0</ele><time>2026-04-01T10:02:14.81Z</time></trkpt><trkpt lat="42.0547033" lon="-8.02473"><ele>1018.1999999999999</ele><time>2026-04-01T10:02:15.809Z</time></trkpt><trkpt lat="42.0547233" lon="-8.024605"><ele>1020.3999999999999</ele><time>2026-04-01T10:02:16.809Z</time></trkpt><trkpt lat="42.0547333" lon="-8.024475"><ele>1022.6</ele><time>2026-04-01T10:02:17.809Z</time></trkpt><trkpt lat="42.05475" lon="-8.02433"><ele>1024.8</ele><time>2026-04-01T10:02:18.81Z</time></trkpt><trkpt lat="42.0547733" lon="-8.024175"><ele>1027.0</ele><time>2026-04-01T10:02:19.809Z</time></trkpt><trkpt lat="42.0548017" lon="-8.0240183"><ele>1027.6</ele><time>2026-04-01T10:02:20.81Z</time></trkpt><trkpt lat="42.0548317" lon="-8.0238683"><ele>1028.2</ele><time>2026-04-01T10:02:21.808Z</time></trkpt><trkpt lat="42.05486" lon="-8.0237233"><ele>1028.8</ele><time>2026-04-01T10:02:22.811Z</time></trkpt><trkpt lat="42.0548783" lon="-8.023585"><ele>1029.4</ele><time>2026-04-01T10:02:23.809Z</time></trkpt><trkpt lat="42.0548867" lon="-8.023465"><ele>1030.0</ele><time>2026-04-01T10:02:24.809Z</time></trkpt><trkpt lat="42.0548767" lon="-8.0233433"><ele>1028.5</ele><time>2026-04-01T10:02:25.811Z</time></trkpt><trkpt lat="42.0548533" lon="-8.0232033"><ele>1027.0</ele><time>2026-04-01T10:02:26.809Z</time></trkpt><trkpt lat="42.0548117" lon="-8.0230583"><ele>1025.5</ele><time>2026-04-01T10:02:27.809Z</time></trkpt><trkpt lat="42.0547683" lon="-8.022915"><ele>1024.0</ele><time>2026-04-01T10:02:28.809Z</time></trkpt><trkpt lat="42.0547" lon="-8.022775"><ele>1024.0</ele><time>2026-04-01T10:02:29.81Z</time></trkpt><trkpt lat="42.054615" lon="-8.022655"><ele>1024.0</ele><time>2026-04-01T10:02:30.81Z</time></trkpt><trkpt lat="42.0545417" lon="-8.0225483"><ele>1024.0</ele><time>2026-04-01T10:02:31.809Z</time></trkpt><trkpt lat="42.054485" lon="-8.0224217"><ele>1024.0</ele><time>2026-04-01T10:02:32.809Z</time></trkpt><trkpt lat="42.0544233" lon="-8.0222533"><ele>1021.0</ele><time>2026-04-01T10:02:33.812Z</time></trkpt><trkpt lat="42.0543617" lon="-8.0221083"><ele>1018.0</ele><time>2026-04-01T10:02:34.811Z</time></trkpt><trkpt lat="42.0542933" lon="-8.0219833"><ele>1015.0</ele><time>2026-04-01T10:02:35.809Z</time></trkpt><trkpt lat="42.0542" lon="-8.0217983"><ele>1012.0</ele><time>2026-04-01T10:02:36.81Z</time></trkpt><trkpt lat="42.0541217" lon="-8.0216417"><ele>1010.3333333333333</ele><time>2026-04-01T10:02:37.809Z</time></trkpt><trkpt lat="42.054025" lon="-8.0214483"><ele>1008.6666666666667</ele><time>2026-04-01T10:02:38.81Z</time></trkpt><trkpt lat="42.0539467" lon="-8.0212533"><ele>1007.0</ele><time>2026-04-01T10:02:39.809Z</time></trkpt><trkpt lat="42.0538633" lon="-8.0210417"><ele>1007.0</ele><time>2026-04-01T10:02:40.809Z</time></trkpt><trkpt lat="42.0537983" lon="-8.0208533"><ele>1007.0</ele><time>2026-04-01T10:02:41.809Z</time></trkpt><trkpt lat="42.05375" lon="-8.020695"><ele>1007.0</ele><time>2026-04-01T10:02:42.809Z</time></trkpt><trkpt lat="42.0537117" lon="-8.02058"><ele>1007.0</ele><time>2026-04-01T10:02:43.81Z</time></trkpt><trkpt lat="42.05366" lon="-8.0205"><ele>1005.2</ele><time>2026-04-01T10:02:44.81Z</time></trkpt><trkpt lat="42.0535867" lon="-8.0204417"><ele>1003.4000000000001</ele><time>2026-04-01T10:02:45.812Z</time></trkpt><trkpt lat="42.053525" lon="-8.020395"><ele>1001.5999999999999</ele><time>2026-04-01T10:02:46.812Z</time></trkpt><trkpt lat="42.0534283" lon="-8.0203933"><ele>999.8</ele><time>2026-04-01T10:02:48.81Z</time></trkpt><trkpt lat="42.0533383" lon="-8.0205067"><ele>998.0</ele><time>2026-04-01T10:02:50.81Z</time></trkpt><trkpt lat="42.0532767" lon="-8.0205867"><ele>998.0</ele><time>2026-04-01T10:02:51.809Z</time></trkpt><trkpt lat="42.0531867" lon="-8.0206933"><ele>998.0</ele><time>2026-04-01T10:02:52.809Z</time></trkpt><trkpt lat="42.05307" lon="-8.02083"><ele>998.0</ele><time>2026-04-01T10:02:53.809Z</time></trkpt><trkpt lat="42.052975" lon="-8.020965"><ele>998.0</ele><time>2026-04-01T10:02:54.81Z</time></trkpt><trkpt lat="42.0528983" lon="-8.0210883"><ele>1000.0</ele><time>2026-04-01T10:02:55.811Z</time></trkpt><trkpt lat="42.0528083" lon="-8.021205"><ele>1002.0</ele><time>2026-04-01T10:02:56.81Z</time></trkpt><trkpt lat="42.052675" lon="-8.0213083"><ele>1004.0</ele><time>2026-04-01T10:02:57.808Z</time></trkpt><trkpt lat="42.0525367" lon="-8.0214367"><ele>1006.0</ele><time>2026-04-01T10:02:58.809Z</time></trkpt><trkpt lat="42.0523967" lon="-8.0215533"><ele>1008.5</ele><time>2026-04-01T10:02:59.809Z</time></trkpt><trkpt lat="42.0522767" lon="-8.0216617"><ele>1011.0</ele><time>2026-04-01T10:03:00.809Z</time></trkpt><trkpt lat="42.0521683" lon="-8.021765"><ele>1013.5</ele><time>2026-04-01T10:03:01.809Z</time></trkpt><trkpt lat="42.05209" lon="-8.02188"><ele>1016.0</ele><time>2026-04-01T10:03:02.809Z</time></trkpt><trkpt lat="42.0520333" lon="-8.0220367"><ele>1016.0</ele><time>2026-04-01T10:03:03.81Z</time></trkpt><trkpt lat="42.0519783" lon="-8.022195"><ele>1016.0</ele><time>2026-04-01T10:03:04.809Z</time></trkpt><trkpt lat="42.0519083" lon="-8.0223417"><ele>1016.0</ele><time>2026-04-01T10:03:05.81Z</time></trkpt><trkpt lat="42.0518167" lon="-8.02249"><ele>1016.0</ele><time>2026-04-01T10:03:06.81Z</time></trkpt><trkpt lat="42.0517017" lon="-8.022615"><ele>1018.1999999999999</ele><time>2026-04-01T10:03:07.809Z</time></trkpt><trkpt lat="42.0515983" lon="-8.0227033"><ele>1020.3999999999999</ele><time>2026-04-01T10:03:08.81Z</time></trkpt><trkpt lat="42.0515117" lon="-8.02279"><ele>1022.6</ele><time>2026-04-01T10:03:09.811Z</time></trkpt><trkpt lat="42.0514383" lon="-8.022885"><ele>1024.8</ele><time>2026-04-01T10:03:10.81Z</time></trkpt><trkpt lat="42.05139" lon="-8.0229833"><ele>1027.0</ele><time>2026-04-01T10:03:11.809Z</time></trkpt><trkpt lat="42.05136" lon="-8.023095"><ele>1027.0</ele><time>2026-04-01T10:03:12.809Z</time></trkpt><trkpt lat="42.05135" lon="-8.0232117"><ele>1027.0</ele><time>2026-04-01T10:03:13.81Z</time></trkpt><trkpt lat="42.0513633" lon="-8.023375"><ele>1027.0</ele><time>2026-04-01T10:03:14.809Z</time></trkpt><trkpt lat="42.0513683" lon="-8.0235367"><ele>1027.0</ele><time>2026-04-01T10:03:15.81Z</time></trkpt><trkpt lat="42.0513483" lon="-8.023705"><ele>1030.3333333333333</ele><time>2026-04-01T10:03:16.812Z</time></trkpt><trkpt lat="42.0513117" lon="-8.0238867"><ele>1033.6666666666667</ele><time>2026-04-01T10:03:17.809Z</time></trkpt><trkpt lat="42.05124" lon="-8.0240817"><ele>1037.0</ele><time>2026-04-01T10:03:18.809Z</time></trkpt><trkpt lat="42.05115" lon="-8.0243033"><ele>1037.0</ele><time>2026-04-01T10:03:19.811Z</time></trkpt><trkpt lat="42.0510767" lon="-8.0245083"><ele>1037.0</ele><time>2026-04-01T10:03:20.81Z</time></trkpt><trkpt lat="42.051005" lon="-8.0246783"><ele>1037.0</ele><time>2026-04-01T10:03:21.809Z</time></trkpt><trkpt lat="42.050925" lon="-8.02481"><ele>1037.0</ele><time>2026-04-01T10:03:22.809Z</time></trkpt><trkpt lat="42.050825" lon="-8.024935"><ele>1036.5</ele><time>2026-04-01T10:03:23.81Z</time></trkpt><trkpt lat="42.050705" lon="-8.0250533"><ele>1036.0</ele><time>2026-04-01T10:03:24.81Z</time></trkpt><trkpt lat="42.0506" lon="-8.0251717"><ele>1035.5</ele><time>2026-04-01T10:03:25.809Z</time></trkpt><trkpt lat="42.0505117" lon="-8.025265"><ele>1035.0</ele><time>2026-04-01T10:03:26.81Z</time></trkpt><trkpt lat="42.0504433" lon="-8.0253533"><ele>1035.0</ele><time>2026-04-01T10:03:27.809Z</time></trkpt><trkpt lat="42.0503917" lon="-8.0254517"><ele>1035.0</ele><time>2026-04-01T10:03:28.81Z</time></trkpt><trkpt lat="42.0503833" lon="-8.025575"><ele>1035.0</ele><time>2026-04-01T10:03:29.809Z</time></trkpt><trkpt lat="42.0503917" lon="-8.0257167"><ele>1035.0</ele><time>2026-04-01T10:03:30.81Z</time></trkpt><trkpt lat="42.0504133" lon="-8.02588"><ele>1035.0</ele><time>2026-04-01T10:03:31.809Z</time></trkpt><trkpt lat="42.05044" lon="-8.02605"><ele>1035.75</ele><time>2026-04-01T10:03:32.81Z</time></trkpt><trkpt lat="42.0504817" lon="-8.0262067"><ele>1036.5</ele><time>2026-04-01T10:03:33.809Z</time></trkpt><trkpt lat="42.0505367" lon="-8.0263767"><ele>1037.25</ele><time>2026-04-01T10:03:34.809Z</time></trkpt><trkpt lat="42.0505983" lon="-8.0265383"><ele>1038.0</ele><time>2026-04-01T10:03:35.81Z</time></trkpt><trkpt lat="42.050665" lon="-8.0266767"><ele>1039.25</ele><time>2026-04-01T10:03:36.81Z</time></trkpt><trkpt lat="42.0507383" lon="-8.0267917"><ele>1040.5</ele><time>2026-04-01T10:03:37.809Z</time></trkpt><trkpt lat="42.050825" lon="-8.0268983"><ele>1041.75</ele><time>2026-04-01T10:03:38.81Z</time></trkpt><trkpt lat="42.050915" lon="-8.0269917"><ele>1043.0</ele><time>2026-04-01T10:03:39.809Z</time></trkpt><trkpt lat="42.0509983" lon="-8.0270817"><ele>1043.0</ele><time>2026-04-01T10:03:40.81Z</time></trkpt><trkpt lat="42.0510717" lon="-8.0271483"><ele>1043.0</ele><time>2026-04-01T10:03:41.81Z</time></trkpt><trkpt lat="42.05114" lon="-8.0272083"><ele>1043.0</ele><time>2026-04-01T10:03:42.809Z</time></trkpt><trkpt lat="42.0512067" lon="-8.0272583"><ele>1043.0</ele><time>2026-04-01T10:03:43.81Z</time></trkpt><trkpt lat="42.051275" lon="-8.0272867"><ele>1043.0</ele><time>2026-04-01T10:03:44.811Z</time></trkpt><trkpt lat="42.0513617" lon="-8.0273017"><ele>1043.0</ele><time>2026-04-01T10:03:45.809Z</time></trkpt><trkpt lat="42.051465" lon="-8.0272967"><ele>1043.0</ele><time>2026-04-01T10:03:46.809Z</time></trkpt><trkpt lat="42.0515867" lon="-8.0273067"><ele>1043.0</ele><time>2026-04-01T10:03:47.809Z</time></trkpt><trkpt lat="42.051735" lon="-8.0273333"><ele>1043.0</ele><time>2026-04-01T10:03:48.809Z</time></trkpt><trkpt lat="42.051895" lon="-8.02737"><ele>1043.0</ele><time>2026-04-01T10:03:49.81Z</time></trkpt><trkpt lat="42.0520467" lon="-8.0274117"><ele>1043.5</ele><time>2026-04-01T10:03:50.81Z</time></trkpt><trkpt lat="42.0521917" lon="-8.0274667"><ele>1044.0</ele><time>2026-04-01T10:03:51.809Z</time></trkpt><trkpt lat="42.0523167" lon="-8.0275433"><ele>1044.5</ele><time>2026-04-01T10:03:52.81Z</time></trkpt><trkpt lat="42.05242" lon="-8.0276233"><ele>1045.0</ele><time>2026-04-01T10:03:53.81Z</time></trkpt><trkpt lat="42.0525083" lon="-8.0277133"><ele>1045.0</ele><time>2026-04-01T10:03:54.81Z</time></trkpt><trkpt lat="42.0525933" lon="-8.0278133"><ele>1045.0</ele><time>2026-04-01T10:03:55.809Z</time></trkpt><trkpt lat="42.0526633" lon="-8.027915"><ele>1045.0</ele><time>2026-04-01T10:03:56.81Z</time></trkpt><trkpt lat="42.0527117" lon="-8.0280217"><ele>1045.0</ele><time>2026-04-01T10:03:57.809Z</time></trkpt><trkpt lat="42.0527433" lon="-8.0281283"><ele>1045.0</ele><time>2026-04-01T10:03:58.81Z</time></trkpt><trkpt lat="42.0527583" lon="-8.0282467"><ele>1047.0</ele><time>2026-04-01T10:03:59.81Z</time></trkpt><trkpt lat="42.052755" lon="-8.028365"><ele>1049.0</ele><time>2026-04-01T10:04:00.809Z</time></trkpt><trkpt lat="42.0527433" lon="-8.0284983"><ele>1051.0</ele><time>2026-04-01T10:04:01.809Z</time></trkpt><trkpt lat="42.0527333" lon="-8.0286667"><ele>1053.0</ele><time>2026-04-01T10:04:02.81Z</time></trkpt><trkpt lat="42.0527283" lon="-8.028815"><ele>1055.0</ele><time>2026-04-01T10:04:03.809Z</time></trkpt><trkpt lat="42.05275" lon="-8.02896"><ele>1055.0</ele><time>2026-04-01T10:04:04.813Z</time></trkpt><trkpt lat="42.0528017" lon="-8.0291083"><ele>1055.0</ele><time>2026-04-01T10:04:05.809Z</time></trkpt><trkpt lat="42.052875" lon="-8.029265"><ele>1055.0</ele><time>2026-04-01T10:04:06.809Z</time></trkpt><trkpt lat="42.0529333" lon="-8.029405"><ele>1055.0</ele><time>2026-04-01T10:04:07.809Z</time></trkpt><trkpt lat="42.05298" lon="-8.0295483"><ele>1056.0</ele><time>2026-04-01T10:04:08.809Z</time></trkpt><trkpt lat="42.0530033" lon="-8.0296817"><ele>1057.0</ele><time>2026-04-01T10:04:09.809Z</time></trkpt><trkpt lat="42.0530167" lon="-8.029825"><ele>1058.0</ele><time>2026-04-01T10:04:10.809Z</time></trkpt><trkpt lat="42.0530067" lon="-8.029965"><ele>1059.0</ele><time>2026-04-01T10:04:11.81Z</time></trkpt><trkpt lat="42.0529883" lon="-8.0301233"><ele>1060.0</ele><time>2026-04-01T10:04:12.811Z</time></trkpt><trkpt lat="42.052965" lon="-8.030305"><ele>1060.75</ele><time>2026-04-01T10:04:13.81Z</time></trkpt><trkpt lat="42.052935" lon="-8.030485"><ele>1061.5</ele><time>2026-04-01T10:04:14.81Z</time></trkpt><trkpt lat="42.0528967" lon="-8.03065"><ele>1062.25</ele><time>2026-04-01T10:04:15.809Z</time></trkpt><trkpt lat="42.052865" lon="-8.030825"><ele>1063.0</ele><time>2026-04-01T10:04:16.809Z</time></trkpt><trkpt lat="42.0528433" lon="-8.0309933"><ele>1063.2</ele><time>2026-04-01T10:04:17.81Z</time></trkpt><trkpt lat="42.0528267" lon="-8.0311533"><ele>1063.4</ele><time>2026-04-01T10:04:18.809Z</time></trkpt><trkpt lat="42.0528217" lon="-8.0312733"><ele>1063.6000000000001</ele><time>2026-04-01T10:04:19.809Z</time></trkpt><trkpt lat="42.05285" lon="-8.0313933"><ele>1063.8</ele><time>2026-04-01T10:04:20.811Z</time></trkpt><trkpt lat="42.0529" lon="-8.031525"><ele>1064.0</ele><time>2026-04-01T10:04:21.809Z</time></trkpt><trkpt lat="42.0529567" lon="-8.0316667"><ele>1064.0</ele><time>2026-04-01T10:04:22.809Z</time></trkpt><trkpt lat="42.05301" lon="-8.0318083"><ele>1064.0</ele><time>2026-04-01T10:04:23.81Z</time></trkpt><trkpt lat="42.053065" lon="-8.0319517"><ele>1064.0</ele><time>2026-04-01T10:04:24.809Z</time></trkpt><trkpt lat="42.0531117" lon="-8.03208"><ele>1064.0</ele><time>2026-04-01T10:04:25.81Z</time></trkpt><trkpt lat="42.0531533" lon="-8.0321733"><ele>1064.0</ele><time>2026-04-01T10:04:26.81Z</time></trkpt><trkpt lat="42.05319" lon="-8.0322917"><ele>1064.0</ele><time>2026-04-01T10:04:28.809Z</time></trkpt><trkpt lat="42.0531183" lon="-8.032335"><ele>1064.0</ele><time>2026-04-01T10:04:30.81Z</time></trkpt><trkpt lat="42.0530617" lon="-8.0323833"><ele>1064.0</ele><time>2026-04-01T10:04:31.809Z</time></trkpt><trkpt lat="42.053005" lon="-8.0324517"><ele>1064.0</ele><time>2026-04-01T10:04:32.81Z</time></trkpt><trkpt lat="42.0529417" lon="-8.0325317"><ele>1064.0</ele><time>2026-04-01T10:04:33.809Z</time></trkpt><trkpt lat="42.0528683" lon="-8.032615"><ele>1064.0</ele><time>2026-04-01T10:04:34.81Z</time></trkpt><trkpt lat="42.0528" lon="-8.03269"><ele>1065.3333333333335</ele><time>2026-04-01T10:04:35.809Z</time></trkpt><trkpt lat="42.0527283" lon="-8.0327533"><ele>1066.6666666666667</ele><time>2026-04-01T10:04:36.81Z</time></trkpt><trkpt lat="42.0526633" lon="-8.0328217"><ele>1068.0</ele><time>2026-04-01T10:04:37.811Z</time></trkpt><trkpt lat="42.0525967" lon="-8.032885"><ele>1069.3333333333333</ele><time>2026-04-01T10:04:38.81Z</time></trkpt><trkpt lat="42.0525333" lon="-8.03292"><ele>1070.6666666666665</ele><time>2026-04-01T10:04:39.809Z</time></trkpt><trkpt lat="42.0524633" lon="-8.0329467"><ele>1072.0</ele><time>2026-04-01T10:04:40.809Z</time></trkpt><trkpt lat="42.0523833" lon="-8.0329567"><ele>1073.1666666666665</ele><time>2026-04-01T10:04:41.809Z</time></trkpt><trkpt lat="42.0523" lon="-8.0329533"><ele>1074.3333333333333</ele><time>2026-04-01T10:04:42.81Z</time></trkpt><trkpt lat="42.0522183" lon="-8.032945"><ele>1075.5</ele><time>2026-04-01T10:04:43.809Z</time></trkpt><trkpt lat="42.0521467" lon="-8.0329317"><ele>1076.6666666666667</ele><time>2026-04-01T10:04:44.811Z</time></trkpt><trkpt lat="42.0520717" lon="-8.03291"><ele>1077.8333333333335</ele><time>2026-04-01T10:04:45.813Z</time></trkpt><trkpt lat="42.0519917" lon="-8.0328933"><ele>1079.0</ele><time>2026-04-01T10:04:46.813Z</time></trkpt><trkpt lat="42.051905" lon="-8.0328883"><ele>1079.0</ele><time>2026-04-01T10:04:47.809Z</time></trkpt><trkpt lat="42.051815" lon="-8.0328917"><ele>1079.0</ele><time>2026-04-01T10:04:48.809Z</time></trkpt><trkpt lat="42.0517233" lon="-8.032895"><ele>1079.0</ele><time>2026-04-01T10:04:49.81Z</time></trkpt><trkpt lat="42.05163" lon="-8.0328917"><ele>1079.0</ele><time>2026-04-01T10:04:50.81Z</time></trkpt><trkpt lat="42.0515433" lon="-8.0328817"><ele>1079.0</ele><time>2026-04-01T10:04:51.809Z</time></trkpt><trkpt lat="42.0514617" lon="-8.032865"><ele>1079.0</ele><time>2026-04-01T10:04:52.809Z</time></trkpt><trkpt lat="42.05138" lon="-8.0328467"><ele>1080.6000000000001</ele><time>2026-04-01T10:04:53.81Z</time></trkpt><trkpt lat="42.051295" lon="-8.032835"><ele>1082.2</ele><time>2026-04-01T10:04:54.81Z</time></trkpt><trkpt lat="42.051205" lon="-8.0328317"><ele>1083.8000000000002</ele><time>2026-04-01T10:04:55.81Z</time></trkpt><trkpt lat="42.0511083" lon="-8.0328383"><ele>1085.4</ele><time>2026-04-01T10:04:56.81Z</time></trkpt><trkpt lat="42.051015" lon="-8.032855"><ele>1087.0</ele><time>2026-04-01T10:04:57.81Z</time></trkpt><trkpt lat="42.0509317" lon="-8.0328833"><ele>1087.0</ele><time>2026-04-01T10:04:58.81Z</time></trkpt><trkpt lat="42.0508433" lon="-8.0329267"><ele>1087.0</ele><time>2026-04-01T10:04:59.81Z</time></trkpt><trkpt lat="42.050745" lon="-8.0329667"><ele>1087.0</ele><time>2026-04-01T10:05:00.811Z</time></trkpt><trkpt lat="42.05064" lon="-8.0330017"><ele>1087.0</ele><time>2026-04-01T10:05:01.811Z</time></trkpt><trkpt lat="42.0505467" lon="-8.0330333"><ele>1087.0</ele><time>2026-04-01T10:05:02.81Z</time></trkpt><trkpt lat="42.0504617" lon="-8.0330667"><ele>1088.2</ele><time>2026-04-01T10:05:03.809Z</time></trkpt><trkpt lat="42.05038" lon="-8.0330983"><ele>1089.4</ele><time>2026-04-01T10:05:04.81Z</time></trkpt><trkpt lat="42.0502867" lon="-8.0331383"><ele>1090.6</ele><time>2026-04-01T10:05:05.81Z</time></trkpt><trkpt lat="42.0501767" lon="-8.0331883"><ele>1091.8</ele><time>2026-04-01T10:05:06.809Z</time></trkpt><trkpt lat="42.05008" lon="-8.0332267"><ele>1093.0</ele><time>2026-04-01T10:05:07.81Z</time></trkpt><trkpt lat="42.0500083" lon="-8.0332617"><ele>1092.3333333333333</ele><time>2026-04-01T10:05:08.81Z</time></trkpt><trkpt lat="42.0499017" lon="-8.0333117"><ele>1091.6666666666665</ele><time>2026-04-01T10:05:10.809Z</time></trkpt><trkpt lat="42.04984" lon="-8.0333433"><ele>1091.0</ele><time>2026-04-01T10:05:11.81Z</time></trkpt><trkpt lat="42.0497783" lon="-8.033375"><ele>1090.3333333333333</ele><time>2026-04-01T10:05:12.81Z</time></trkpt><trkpt lat="42.0497183" lon="-8.033415"><ele>1089.6666666666667</ele><time>2026-04-01T10:05:13.81Z</time></trkpt><trkpt lat="42.0496567" lon="-8.0334633"><ele>1089.0</ele><time>2026-04-01T10:05:14.809Z</time></trkpt><trkpt lat="42.0496" lon="-8.033515"><ele>1089.0</ele><time>2026-04-01T10:05:15.81Z</time></trkpt><trkpt lat="42.0495267" lon="-8.0335783"><ele>1089.0</ele><time>2026-04-01T10:05:16.809Z</time></trkpt><trkpt lat="42.0494217" lon="-8.03365"><ele>1089.0</ele><time>2026-04-01T10:05:17.811Z</time></trkpt><trkpt lat="42.0493183" lon="-8.0337067"><ele>1089.0</ele><time>2026-04-01T10:05:18.809Z</time></trkpt><trkpt lat="42.0492067" lon="-8.0337567"><ele>1089.0</ele><time>2026-04-01T10:05:19.811Z</time></trkpt><trkpt lat="42.0490967" lon="-8.0337983"><ele>1089.0</ele><time>2026-04-01T10:05:20.81Z</time></trkpt><trkpt lat="42.049" lon="-8.033845"><ele>1089.0</ele><time>2026-04-01T10:05:21.81Z</time></trkpt><trkpt lat="42.0489233" lon="-8.033905"><ele>1089.0</ele><time>2026-04-01T10:05:22.809Z</time></trkpt><trkpt lat="42.0488683" lon="-8.0339767"><ele>1089.0</ele><time>2026-04-01T10:05:23.811Z</time></trkpt><trkpt lat="42.048815" lon="-8.0340667"><ele>1089.0</ele><time>2026-04-01T10:05:25.811Z</time></trkpt><trkpt lat="42.0487433" lon="-8.0340933"><ele>1089.0</ele><time>2026-04-01T10:05:28.81Z</time></trkpt><trkpt lat="42.0486333" lon="-8.0341833"><ele>1089.0</ele><time>2026-04-01T10:05:30.81Z</time></trkpt><trkpt lat="42.048555" lon="-8.03427"><ele>1089.0</ele><time>2026-04-01T10:05:31.81Z</time></trkpt><trkpt lat="42.048475" lon="-8.03437"><ele>1089.0</ele><time>2026-04-01T10:05:32.808Z</time></trkpt><trkpt lat="42.0483967" lon="-8.0344717"><ele>1089.0</ele><time>2026-04-01T10:05:33.808Z</time></trkpt><trkpt lat="42.048315" lon="-8.0345917"><ele>1089.0</ele><time>2026-04-01T10:05:34.809Z</time></trkpt><trkpt lat="42.0482333" lon="-8.0347133"><ele>1087.8</ele><time>2026-04-01T10:05:35.809Z</time></trkpt><trkpt lat="42.0481617" lon="-8.0348183"><ele>1086.6000000000001</ele><time>2026-04-01T10:05:36.809Z</time></trkpt><trkpt lat="42.0480917" lon="-8.0349183"><ele>1085.4</ele><time>2026-04-01T10:05:37.809Z</time></trkpt><trkpt lat="42.0480183" lon="-8.0350133"><ele>1084.2</ele><time>2026-04-01T10:05:38.81Z</time></trkpt><trkpt lat="42.0479367" lon="-8.0351083"><ele>1083.0</ele><time>2026-04-01T10:05:39.808Z</time></trkpt><trkpt lat="42.0478583" lon="-8.0351933"><ele>1083.0</ele><time>2026-04-01T10:05:40.808Z</time></trkpt><trkpt lat="42.047785" lon="-8.0352583"><ele>1083.0</ele><time>2026-04-01T10:05:41.808Z</time></trkpt><trkpt lat="42.0477133" lon="-8.035295"><ele>1083.0</ele><time>2026-04-01T10:05:42.809Z</time></trkpt><trkpt lat="42.0476467" lon="-8.035315"><ele>1083.0</ele><time>2026-04-01T10:05:43.808Z</time></trkpt><trkpt lat="42.04758" lon="-8.0352983"><ele>1083.0</ele><time>2026-04-01T10:05:44.809Z</time></trkpt><trkpt lat="42.0475033" lon="-8.0352483"><ele>1083.0</ele><time>2026-04-01T10:05:45.808Z</time></trkpt><trkpt lat="42.0474233" lon="-8.03517"><ele>1083.6</ele><time>2026-04-01T10:05:46.808Z</time></trkpt><trkpt lat="42.04735" lon="-8.0350733"><ele>1084.1999999999998</ele><time>2026-04-01T10:05:47.81Z</time></trkpt><trkpt lat="42.047285" lon="-8.0349533"><ele>1084.8</ele><time>2026-04-01T10:05:48.808Z</time></trkpt><trkpt lat="42.0472267" lon="-8.03483"><ele>1085.3999999999999</ele><time>2026-04-01T10:05:49.808Z</time></trkpt><trkpt lat="42.0471717" lon="-8.0347"><ele>1086.0</ele><time>2026-04-01T10:05:50.81Z</time></trkpt><trkpt lat="42.047115" lon="-8.03458"><ele>1084.3999999999999</ele><time>2026-04-01T10:05:51.808Z</time></trkpt><trkpt lat="42.04705" lon="-8.034465"><ele>1082.8</ele><time>2026-04-01T10:05:52.809Z</time></trkpt><trkpt lat="42.046985" lon="-8.0343817"><ele>1081.1999999999998</ele><time>2026-04-01T10:05:53.809Z</time></trkpt><trkpt lat="42.0469133" lon="-8.0343117"><ele>1079.6</ele><time>2026-04-01T10:05:54.809Z</time></trkpt><trkpt lat="42.046835" lon="-8.0342733"><ele>1078.0</ele><time>2026-04-01T10:05:55.809Z</time></trkpt><trkpt lat="42.046745" lon="-8.03426"><ele>1078.0</ele><time>2026-04-01T10:05:56.809Z</time></trkpt><trkpt lat="42.0466517" lon="-8.0342383"><ele>1078.0</ele><time>2026-04-01T10:05:57.808Z</time></trkpt><trkpt lat="42.04655" lon="-8.0341883"><ele>1078.0</ele><time>2026-04-01T10:05:58.808Z</time></trkpt><trkpt lat="42.046445" lon="-8.0341133"><ele>1078.0</ele><time>2026-04-01T10:05:59.808Z</time></trkpt><trkpt lat="42.0463467" lon="-8.0340517"><ele>1078.0</ele><time>2026-04-01T10:06:00.809Z</time></trkpt><trkpt lat="42.046265" lon="-8.034005"><ele>1077.4285714285713</ele><time>2026-04-01T10:06:01.809Z</time></trkpt><trkpt lat="42.0461867" lon="-8.0339867"><ele>1076.857142857143</ele><time>2026-04-01T10:06:02.81Z</time></trkpt><trkpt lat="42.0461167" lon="-8.0339833"><ele>1076.2857142857142</ele><time>2026-04-01T10:06:03.808Z</time></trkpt><trkpt lat="42.04605" lon="-8.0339683"><ele>1075.7142857142858</ele><time>2026-04-01T10:06:04.809Z</time></trkpt><trkpt lat="42.045985" lon="-8.0339317"><ele>1075.142857142857</ele><time>2026-04-01T10:06:05.809Z</time></trkpt><trkpt lat="42.0459183" lon="-8.033875"><ele>1074.5714285714284</ele><time>2026-04-01T10:06:06.809Z</time></trkpt><trkpt lat="42.0458667" lon="-8.033805"><ele>1074.0</ele><time>2026-04-01T10:06:07.809Z</time></trkpt><trkpt lat="42.045815" lon="-8.0337317"><ele>1074.6666666666667</ele><time>2026-04-01T10:06:08.809Z</time></trkpt><trkpt lat="42.0457533" lon="-8.0336717"><ele>1075.3333333333333</ele><time>2026-04-01T10:06:09.809Z</time></trkpt><trkpt lat="42.04569" lon="-8.0336117"><ele>1076.0</ele><time>2026-04-01T10:06:10.809Z</time></trkpt><trkpt lat="42.045615" lon="-8.0335617"><ele>1076.6666666666665</ele><time>2026-04-01T10:06:11.81Z</time></trkpt><trkpt lat="42.0455233" lon="-8.033505"><ele>1077.3333333333333</ele><time>2026-04-01T10:06:12.809Z</time></trkpt><trkpt lat="42.0454317" lon="-8.0334417"><ele>1078.0</ele><time>2026-04-01T10:06:13.809Z</time></trkpt><trkpt lat="42.0453483" lon="-8.0333717"><ele>1077.0</ele><time>2026-04-01T10:06:14.808Z</time></trkpt><trkpt lat="42.0452683" lon="-8.033295"><ele>1076.0</ele><time>2026-04-01T10:06:15.809Z</time></trkpt><trkpt lat="42.0451933" lon="-8.0332283"><ele>1075.0</ele><time>2026-04-01T10:06:16.809Z</time></trkpt><trkpt lat="42.0451133" lon="-8.0331817"><ele>1074.0</ele><time>2026-04-01T10:06:17.809Z</time></trkpt><trkpt lat="42.045015" lon="-8.0331567"><ele>1073.0</ele><time>2026-04-01T10:06:18.808Z</time></trkpt><trkpt lat="42.044905" lon="-8.0331483"><ele>1073.0</ele><time>2026-04-01T10:06:19.81Z</time></trkpt><trkpt lat="42.0448033" lon="-8.03314"><ele>1073.0</ele><time>2026-04-01T10:06:20.81Z</time></trkpt><trkpt lat="42.0446933" lon="-8.033125"><ele>1073.0</ele><time>2026-04-01T10:06:21.81Z</time></trkpt><trkpt lat="42.04459" lon="-8.0331233"><ele>1073.0</ele><time>2026-04-01T10:06:22.812Z</time></trkpt><trkpt lat="42.0444917" lon="-8.0331317"><ele>1073.0</ele><time>2026-04-01T10:06:23.808Z</time></trkpt><trkpt lat="42.0443867" lon="-8.0331617"><ele>1073.0</ele><time>2026-04-01T10:06:24.809Z</time></trkpt><trkpt lat="42.0442733" lon="-8.0332017"><ele>1073.0</ele><time>2026-04-01T10:06:25.81Z</time></trkpt><trkpt lat="42.0441517" lon="-8.03325"><ele>1073.0</ele><time>2026-04-01T10:06:26.81Z</time></trkpt><trkpt lat="42.044015" lon="-8.0333083"><ele>1073.0</ele><time>2026-04-01T10:06:27.809Z</time></trkpt><trkpt lat="42.0438783" lon="-8.0333667"><ele>1075.75</ele><time>2026-04-01T10:06:28.81Z</time></trkpt><trkpt lat="42.0437467" lon="-8.0334183"><ele>1078.5</ele><time>2026-04-01T10:06:29.81Z</time></trkpt><trkpt lat="42.04362" lon="-8.0334417"><ele>1081.25</ele><time>2026-04-01T10:06:30.81Z</time></trkpt><trkpt lat="42.0434767" lon="-8.03345"><ele>1084.0</ele><time>2026-04-01T10:06:31.81Z</time></trkpt><trkpt lat="42.0433267" lon="-8.0334467"><ele>1084.8</ele><time>2026-04-01T10:06:32.811Z</time></trkpt><trkpt lat="42.0431883" lon="-8.03344"><ele>1085.6000000000001</ele><time>2026-04-01T10:06:33.81Z</time></trkpt><trkpt lat="42.0430783" lon="-8.0334317"><ele>1086.4</ele><time>2026-04-01T10:06:34.81Z</time></trkpt><trkpt lat="42.0429883" lon="-8.0334433"><ele>1087.2</ele><time>2026-04-01T10:06:35.811Z</time></trkpt><trkpt lat="42.04291" lon="-8.03347"><ele>1088.0</ele><time>2026-04-01T10:06:36.81Z</time></trkpt><trkpt lat="42.04283" lon="-8.0335017"><ele>1088.0</ele><time>2026-04-01T10:06:37.81Z</time></trkpt><trkpt lat="42.0427483" lon="-8.0335233"><ele>1088.0</ele><time>2026-04-01T10:06:38.81Z</time></trkpt><trkpt lat="42.0426517" lon="-8.0335333"><ele>1088.0</ele><time>2026-04-01T10:06:39.81Z</time></trkpt><trkpt lat="42.0425433" lon="-8.0335267"><ele>1088.0</ele><time>2026-04-01T10:06:40.811Z</time></trkpt><trkpt lat="42.0424367" lon="-8.033505"><ele>1088.0</ele><time>2026-04-01T10:06:41.811Z</time></trkpt><trkpt lat="42.04233" lon="-8.0334833"><ele>1089.4</ele><time>2026-04-01T10:06:42.81Z</time></trkpt><trkpt lat="42.0422183" lon="-8.0334617"><ele>1090.8</ele><time>2026-04-01T10:06:43.811Z</time></trkpt><trkpt lat="42.042105" lon="-8.0334433"><ele>1092.2</ele><time>2026-04-01T10:06:44.811Z</time></trkpt><trkpt lat="42.042" lon="-8.0334217"><ele>1093.6</ele><time>2026-04-01T10:06:45.811Z</time></trkpt><trkpt lat="42.04191" lon="-8.0333833"><ele>1095.0</ele><time>2026-04-01T10:06:46.81Z</time></trkpt><trkpt lat="42.04183" lon="-8.0333233"><ele>1094.8</ele><time>2026-04-01T10:06:47.81Z</time></trkpt><trkpt lat="42.041755" lon="-8.03323"><ele>1094.6</ele><time>2026-04-01T10:06:48.811Z</time></trkpt><trkpt lat="42.0417033" lon="-8.0330983"><ele>1094.4</ele><time>2026-04-01T10:06:49.812Z</time></trkpt><trkpt lat="42.0416683" lon="-8.032955"><ele>1094.2</ele><time>2026-04-01T10:06:50.809Z</time></trkpt><trkpt lat="42.0416383" lon="-8.032795"><ele>1094.0</ele><time>2026-04-01T10:06:51.808Z</time></trkpt><trkpt lat="42.0416033" lon="-8.0326233"><ele>1094.5</ele><time>2026-04-01T10:06:52.808Z</time></trkpt><trkpt lat="42.041565" lon="-8.03245"><ele>1095.0</ele><time>2026-04-01T10:06:53.809Z</time></trkpt><trkpt lat="42.041515" lon="-8.0322783"><ele>1095.5</ele><time>2026-04-01T10:06:54.809Z</time></trkpt><trkpt lat="42.0414667" lon="-8.03213"><ele>1096.0</ele><time>2026-04-01T10:06:55.809Z</time></trkpt><trkpt lat="42.0414167" lon="-8.0320167"><ele>1096.0</ele><time>2026-04-01T10:06:56.811Z</time></trkpt><trkpt lat="42.041355" lon="-8.0319133"><ele>1096.0</ele><time>2026-04-01T10:06:57.809Z</time></trkpt><trkpt lat="42.0412817" lon="-8.0318233"><ele>1096.0</ele><time>2026-04-01T10:06:58.809Z</time></trkpt><trkpt lat="42.0411967" lon="-8.0317667"><ele>1096.0</ele><time>2026-04-01T10:06:59.809Z</time></trkpt><trkpt lat="42.041085" lon="-8.0317183"><ele>1096.0</ele><time>2026-04-01T10:07:00.808Z</time></trkpt><trkpt lat="42.04097" lon="-8.031655"><ele>1094.5</ele><time>2026-04-01T10:07:01.809Z</time></trkpt><trkpt lat="42.040845" lon="-8.0316167"><ele>1093.0</ele><time>2026-04-01T10:07:02.809Z</time></trkpt><trkpt lat="42.0407083" lon="-8.031585"><ele>1091.5</ele><time>2026-04-01T10:07:03.808Z</time></trkpt><trkpt lat="42.0405517" lon="-8.031535"><ele>1090.0</ele><time>2026-04-01T10:07:04.808Z</time></trkpt><trkpt lat="42.040405" lon="-8.031465"><ele>1090.0</ele><time>2026-04-01T10:07:05.809Z</time></trkpt><trkpt lat="42.040275" lon="-8.0314183"><ele>1090.0</ele><time>2026-04-01T10:07:06.808Z</time></trkpt><trkpt lat="42.04017" lon="-8.0313867"><ele>1090.0</ele><time>2026-04-01T10:07:07.809Z</time></trkpt><trkpt lat="42.0401" lon="-8.031375"><ele>1090.0</ele><time>2026-04-01T10:07:08.81Z</time></trkpt><trkpt lat="42.0400283" lon="-8.03137"><ele>1090.0</ele><time>2026-04-01T10:07:09.809Z</time></trkpt><trkpt lat="42.0399367" lon="-8.0313317"><ele>1089.1666666666665</ele><time>2026-04-01T10:07:11.809Z</time></trkpt><trkpt lat="42.0398767" lon="-8.0312333"><ele>1088.3333333333333</ele><time>2026-04-01T10:07:14.81Z</time></trkpt><trkpt lat="42.0398583" lon="-8.0311467"><ele>1087.5</ele><time>2026-04-01T10:07:16.811Z</time></trkpt><trkpt lat="42.03979" lon="-8.031095"><ele>1086.6666666666667</ele><time>2026-04-01T10:07:19.809Z</time></trkpt><trkpt lat="42.039695" lon="-8.0311033"><ele>1085.8333333333335</ele><time>2026-04-01T10:07:21.809Z</time></trkpt><trkpt lat="42.0396133" lon="-8.0311267"><ele>1085.0</ele><time>2026-04-01T10:07:23.809Z</time></trkpt><trkpt lat="42.0395467" lon="-8.0311583"><ele>1085.0</ele><time>2026-04-01T10:07:26.81Z</time></trkpt><trkpt lat="42.039665" lon="-8.0311683"><ele>1085.0</ele><time>2026-04-01T10:09:19.583Z</time></trkpt><trkpt lat="42.0395917" lon="-8.0311067"><ele>1085.0</ele><time>2026-04-01T10:09:21.81Z</time></trkpt><trkpt lat="42.03955" lon="-8.0311717"><ele>1085.0</ele><time>2026-04-01T10:10:28.812Z</time></trkpt><trkpt lat="42.0395817" lon="-8.0312567"><ele>1085.0</ele><time>2026-04-01T10:10:48.809Z</time></trkpt><trkpt lat="42.0396283" lon="-8.0311733"><ele>1085.0</ele><time>2026-04-01T10:10:54.81Z</time></trkpt><trkpt lat="42.039685" lon="-8.031115"><ele>1085.0</ele><time>2026-04-01T10:10:56.81Z</time></trkpt><trkpt lat="42.0397533" lon="-8.0310983"><ele>1085.0</ele><time>2026-04-01T10:10:57.81Z</time></trkpt><trkpt lat="42.0398167" lon="-8.031085"><ele>1085.0</ele><time>2026-04-01T10:10:58.81Z</time></trkpt><trkpt lat="42.0399033" lon="-8.0310583"><ele>1085.0</ele><time>2026-04-01T10:11:00.809Z</time></trkpt><trkpt lat="42.03991" lon="-8.030935"><ele>1085.0</ele><time>2026-04-01T10:11:03.809Z</time></trkpt><trkpt lat="42.0398633" lon="-8.0307667"><ele>1085.0</ele><time>2026-04-01T10:11:05.81Z</time></trkpt><trkpt lat="42.0398383" lon="-8.0306283"><ele>1083.3333333333335</ele><time>2026-04-01T10:11:06.809Z</time></trkpt><trkpt lat="42.039805" lon="-8.0304383"><ele>1081.6666666666667</ele><time>2026-04-01T10:11:07.809Z</time></trkpt><trkpt lat="42.039765" lon="-8.030235"><ele>1080.0</ele><time>2026-04-01T10:11:08.809Z</time></trkpt><trkpt lat="42.039725" lon="-8.03004"><ele>1077.75</ele><time>2026-04-01T10:11:09.809Z</time></trkpt><trkpt lat="42.0396817" lon="-8.02985"><ele>1075.5</ele><time>2026-04-01T10:11:10.81Z</time></trkpt><trkpt lat="42.0396433" lon="-8.0296817"><ele>1073.25</ele><time>2026-04-01T10:11:11.81Z</time></trkpt><trkpt lat="42.0396067" lon="-8.0295217"><ele>1071.0</ele><time>2026-04-01T10:11:12.81Z</time></trkpt><trkpt lat="42.039575" lon="-8.029365"><ele>1071.0</ele><time>2026-04-01T10:11:13.81Z</time></trkpt><trkpt lat="42.0395467" lon="-8.0292133"><ele>1071.0</ele><time>2026-04-01T10:11:14.81Z</time></trkpt><trkpt lat="42.039525" lon="-8.0290667"><ele>1071.0</ele><time>2026-04-01T10:11:15.809Z</time></trkpt><trkpt lat="42.0395017" lon="-8.028925"><ele>1071.0</ele><time>2026-04-01T10:11:16.809Z</time></trkpt><trkpt lat="42.0394783" lon="-8.02879"><ele>1071.0</ele><time>2026-04-01T10:11:17.81Z</time></trkpt><trkpt lat="42.0394567" lon="-8.0286533"><ele>1069.0</ele><time>2026-04-01T10:11:18.81Z</time></trkpt><trkpt lat="42.0394267" lon="-8.0285117"><ele>1067.0</ele><time>2026-04-01T10:11:19.81Z</time></trkpt><trkpt lat="42.0393883" lon="-8.0283467"><ele>1065.0</ele><time>2026-04-01T10:11:20.81Z</time></trkpt><trkpt lat="42.0393467" lon="-8.0281417"><ele>1063.0</ele><time>2026-04-01T10:11:21.81Z</time></trkpt><trkpt lat="42.0393017" lon="-8.02792"><ele>1061.3333333333333</ele><time>2026-04-01T10:11:22.81Z</time></trkpt><trkpt lat="42.0392567" lon="-8.027705"><ele>1059.6666666666667</ele><time>2026-04-01T10:11:23.809Z</time></trkpt><trkpt lat="42.0392117" lon="-8.0274983"><ele>1058.0</ele><time>2026-04-01T10:11:24.81Z</time></trkpt><trkpt lat="42.0391667" lon="-8.0272967"><ele>1052.3333333333335</ele><time>2026-04-01T10:11:25.81Z</time></trkpt><trkpt lat="42.0391217" lon="-8.0270917"><ele>1046.6666666666667</ele><time>2026-04-01T10:11:26.81Z</time></trkpt><trkpt lat="42.0390717" lon="-8.02686"><ele>1041.0</ele><time>2026-04-01T10:11:27.809Z</time></trkpt><trkpt lat="42.03902" lon="-8.0266183"><ele>1041.0</ele><time>2026-04-01T10:11:28.809Z</time></trkpt><trkpt lat="42.038965" lon="-8.0263933"><ele>1041.0</ele><time>2026-04-01T10:11:29.811Z</time></trkpt><trkpt lat="42.0389117" lon="-8.0261883"><ele>1041.0</ele><time>2026-04-01T10:11:30.809Z</time></trkpt><trkpt lat="42.0388467" lon="-8.026"><ele>1041.0</ele><time>2026-04-01T10:11:31.809Z</time></trkpt><trkpt lat="42.0387617" lon="-8.0258317"><ele>1041.0</ele><time>2026-04-01T10:11:32.809Z</time></trkpt><trkpt lat="42.0386533" lon="-8.0256617"><ele>1041.0</ele><time>2026-04-01T10:11:33.809Z</time></trkpt><trkpt lat="42.0385183" lon="-8.025505"><ele>1041.0</ele><time>2026-04-01T10:11:34.809Z</time></trkpt><trkpt lat="42.0383733" lon="-8.02536"><ele>1041.0</ele><time>2026-04-01T10:11:35.81Z</time></trkpt><trkpt lat="42.03822" lon="-8.0252217"><ele>1041.0</ele><time>2026-04-01T10:11:36.811Z</time></trkpt><trkpt lat="42.03806" lon="-8.0251067"><ele>1041.0</ele><time>2026-04-01T10:11:37.809Z</time></trkpt><trkpt lat="42.037895" lon="-8.0250183"><ele>1041.0</ele><time>2026-04-01T10:11:38.81Z</time></trkpt><trkpt lat="42.0377183" lon="-8.0249483"><ele>1041.0</ele><time>2026-04-01T10:11:39.809Z</time></trkpt><trkpt lat="42.0375333" lon="-8.02489"><ele>1039.3333333333333</ele><time>2026-04-01T10:11:40.809Z</time></trkpt><trkpt lat="42.0373417" lon="-8.0248433"><ele>1037.6666666666665</ele><time>2026-04-01T10:11:41.809Z</time></trkpt><trkpt lat="42.0371583" lon="-8.0248"><ele>1036.0</ele><time>2026-04-01T10:11:42.809Z</time></trkpt><trkpt lat="42.0369833" lon="-8.0247667"><ele>1036.0</ele><time>2026-04-01T10:11:43.809Z</time></trkpt><trkpt lat="42.0368133" lon="-8.0247233"><ele>1036.0</ele><time>2026-04-01T10:11:44.81Z</time></trkpt><trkpt lat="42.03664" lon="-8.0246733"><ele>1036.0</ele><time>2026-04-01T10:11:45.81Z</time></trkpt><trkpt lat="42.0364633" lon="-8.0246167"><ele>1033.0</ele><time>2026-04-01T10:11:46.81Z</time></trkpt><trkpt lat="42.03629" lon="-8.0245583"><ele>1030.0</ele><time>2026-04-01T10:11:47.809Z</time></trkpt><trkpt lat="42.0361183" lon="-8.0245033"><ele>1027.0</ele><time>2026-04-01T10:11:48.809Z</time></trkpt><trkpt lat="42.035945" lon="-8.0244383"><ele>1024.0</ele><time>2026-04-01T10:11:49.81Z</time></trkpt><trkpt lat="42.0357667" lon="-8.02437"><ele>1021.0</ele><time>2026-04-01T10:11:50.811Z</time></trkpt><trkpt lat="42.0355817" lon="-8.0242933"><ele>1018.0</ele><time>2026-04-01T10:11:51.809Z</time></trkpt><trkpt lat="42.0354033" lon="-8.024215"><ele>1018.0</ele><time>2026-04-01T10:11:52.81Z</time></trkpt><trkpt lat="42.03523" lon="-8.0241433"><ele>1018.0</ele><time>2026-04-01T10:11:53.811Z</time></trkpt><trkpt lat="42.0350567" lon="-8.024075"><ele>1018.0</ele><time>2026-04-01T10:11:54.809Z</time></trkpt><trkpt lat="42.0348783" lon="-8.0240017"><ele>1015.6666666666666</ele><time>2026-04-01T10:11:55.809Z</time></trkpt><trkpt lat="42.0347" lon="-8.02393"><ele>1013.3333333333333</ele><time>2026-04-01T10:11:56.81Z</time></trkpt><trkpt lat="42.03452" lon="-8.02386"><ele>1011.0</ele><time>2026-04-01T10:11:57.81Z</time></trkpt><trkpt lat="42.034335" lon="-8.0237983"><ele>1011.0</ele><time>2026-04-01T10:11:58.81Z</time></trkpt><trkpt lat="42.0341533" lon="-8.0237417"><ele>1011.0</ele><time>2026-04-01T10:11:59.81Z</time></trkpt><trkpt lat="42.033975" lon="-8.02368"><ele>1011.0</ele><time>2026-04-01T10:12:00.81Z</time></trkpt><trkpt lat="42.0337983" lon="-8.0236183"><ele>1010.0</ele><time>2026-04-01T10:12:01.81Z</time></trkpt><trkpt lat="42.033625" lon="-8.02356"><ele>1009.0</ele><time>2026-04-01T10:12:02.81Z</time></trkpt><trkpt lat="42.0334583" lon="-8.0234983"><ele>1008.0</ele><time>2026-04-01T10:12:03.81Z</time></trkpt><trkpt lat="42.0332983" lon="-8.02344"><ele>1006.75</ele><time>2026-04-01T10:12:04.81Z</time></trkpt><trkpt lat="42.0331583" lon="-8.0233933"><ele>1005.5</ele><time>2026-04-01T10:12:05.809Z</time></trkpt><trkpt lat="42.033025" lon="-8.0233617"><ele>1004.25</ele><time>2026-04-01T10:12:06.809Z</time></trkpt><trkpt lat="42.032885" lon="-8.0233333"><ele>1003.0</ele><time>2026-04-01T10:12:07.811Z</time></trkpt><trkpt lat="42.032745" lon="-8.0233133"><ele>1000.5</ele><time>2026-04-01T10:12:08.81Z</time></trkpt><trkpt lat="42.0326117" lon="-8.0233017"><ele>998.0</ele><time>2026-04-01T10:12:09.809Z</time></trkpt><trkpt lat="42.0324783" lon="-8.023305"><ele>995.5</ele><time>2026-04-01T10:12:10.809Z</time></trkpt><trkpt lat="42.0323317" lon="-8.0233217"><ele>993.0</ele><time>2026-04-01T10:12:11.81Z</time></trkpt><trkpt lat="42.0321833" lon="-8.0233467"><ele>992.25</ele><time>2026-04-01T10:12:12.809Z</time></trkpt><trkpt lat="42.03205" lon="-8.023375"><ele>991.5</ele><time>2026-04-01T10:12:13.81Z</time></trkpt><trkpt lat="42.031925" lon="-8.02341"><ele>990.75</ele><time>2026-04-01T10:12:14.81Z</time></trkpt><trkpt lat="42.0318083" lon="-8.0234533"><ele>990.0</ele><time>2026-04-01T10:12:15.809Z</time></trkpt><trkpt lat="42.0316967" lon="-8.0235067"><ele>988.2</ele><time>2026-04-01T10:12:16.809Z</time></trkpt><trkpt lat="42.0315967" lon="-8.023575"><ele>986.4</ele><time>2026-04-01T10:12:17.81Z</time></trkpt><trkpt lat="42.0315083" lon="-8.02366"><ele>984.5999999999999</ele><time>2026-04-01T10:12:18.809Z</time></trkpt><trkpt lat="42.031425" lon="-8.0237483"><ele>982.8</ele><time>2026-04-01T10:12:19.809Z</time></trkpt><trkpt lat="42.03134" lon="-8.0238233"><ele>981.0</ele><time>2026-04-01T10:12:20.81Z</time></trkpt><trkpt lat="42.031255" lon="-8.0238717"><ele>981.0</ele><time>2026-04-01T10:12:21.809Z</time></trkpt><trkpt lat="42.0311683" lon="-8.0238967"><ele>980.9999999999999</ele><time>2026-04-01T10:12:22.809Z</time></trkpt><trkpt lat="42.0310783" lon="-8.0238983"><ele>980.9999999999999</ele><time>2026-04-01T10:12:23.81Z</time></trkpt><trkpt lat="42.0309733" lon="-8.0238717"><ele>981.0</ele><time>2026-04-01T10:12:24.809Z</time></trkpt><trkpt lat="42.03086" lon="-8.0237867"><ele>981.0</ele><time>2026-04-01T10:12:25.81Z</time></trkpt><trkpt lat="42.03075" lon="-8.0236933"><ele>980.5</ele><time>2026-04-01T10:12:26.81Z</time></trkpt><trkpt lat="42.0306433" lon="-8.023575"><ele>980.0</ele><time>2026-04-01T10:12:27.809Z</time></trkpt><trkpt lat="42.030545" lon="-8.0234417"><ele>979.5</ele><time>2026-04-01T10:12:28.81Z</time></trkpt><trkpt lat="42.0304517" lon="-8.0233033"><ele>979.0</ele><time>2026-04-01T10:12:29.809Z</time></trkpt><trkpt lat="42.0303583" lon="-8.02317"><ele>977.0</ele><time>2026-04-01T10:12:30.809Z</time></trkpt><trkpt lat="42.0302633" lon="-8.0230333"><ele>975.0</ele><time>2026-04-01T10:12:31.81Z</time></trkpt><trkpt lat="42.0301583" lon="-8.022895"><ele>973.0</ele><time>2026-04-01T10:12:32.81Z</time></trkpt><trkpt lat="42.0300467" lon="-8.0227633"><ele>971.0</ele><time>2026-04-01T10:12:33.809Z</time></trkpt><trkpt lat="42.0299383" lon="-8.0226383"><ele>969.75</ele><time>2026-04-01T10:12:34.809Z</time></trkpt><trkpt lat="42.029835" lon="-8.0225183"><ele>968.5</ele><time>2026-04-01T10:12:35.81Z</time></trkpt><trkpt lat="42.0297333" lon="-8.0224"><ele>967.25</ele><time>2026-04-01T10:12:36.809Z</time></trkpt><trkpt lat="42.0296267" lon="-8.0222817"><ele>966.0</ele><time>2026-04-01T10:12:37.81Z</time></trkpt><trkpt lat="42.0295167" lon="-8.022175"><ele>965.1999999999999</ele><time>2026-04-01T10:12:38.81Z</time></trkpt><trkpt lat="42.0294233" lon="-8.0220833"><ele>964.3999999999999</ele><time>2026-04-01T10:12:39.809Z</time></trkpt><trkpt lat="42.0293467" lon="-8.0219983"><ele>963.6</ele><time>2026-04-01T10:12:40.809Z</time></trkpt><trkpt lat="42.029275" lon="-8.0219183"><ele>962.8</ele><time>2026-04-01T10:12:41.811Z</time></trkpt><trkpt lat="42.0291967" lon="-8.0218417"><ele>962.0</ele><time>2026-04-01T10:12:42.809Z</time></trkpt><trkpt lat="42.0291067" lon="-8.021745"><ele>958.0</ele><time>2026-04-01T10:12:43.81Z</time></trkpt><trkpt lat="42.0290033" lon="-8.0216233"><ele>954.0</ele><time>2026-04-01T10:12:44.811Z</time></trkpt><trkpt lat="42.0288917" lon="-8.021485"><ele>950.0</ele><time>2026-04-01T10:12:45.809Z</time></trkpt><trkpt lat="42.0287833" lon="-8.0213417"><ele>946.0</ele><time>2026-04-01T10:12:46.81Z</time></trkpt><trkpt lat="42.0286767" lon="-8.0211917"><ele>946.0</ele><time>2026-04-01T10:12:47.811Z</time></trkpt><trkpt lat="42.02857" lon="-8.021045"><ele>946.0</ele><time>2026-04-01T10:12:48.809Z</time></trkpt><trkpt lat="42.0284683" lon="-8.0209033"><ele>946.0</ele><time>2026-04-01T10:12:49.809Z</time></trkpt><trkpt lat="42.0283733" lon="-8.020755"><ele>946.0</ele><time>2026-04-01T10:12:50.81Z</time></trkpt><trkpt lat="42.0282817" lon="-8.0206217"><ele>941.75</ele><time>2026-04-01T10:12:51.81Z</time></trkpt><trkpt lat="42.0281917" lon="-8.020485"><ele>937.5</ele><time>2026-04-01T10:12:52.81Z</time></trkpt><trkpt lat="42.0280933" lon="-8.0203417"><ele>933.25</ele><time>2026-04-01T10:12:53.809Z</time></trkpt><trkpt lat="42.0279833" lon="-8.0201817"><ele>929.0</ele><time>2026-04-01T10:12:54.809Z</time></trkpt><trkpt lat="42.0278667" lon="-8.020015"><ele>928.0</ele><time>2026-04-01T10:12:55.809Z</time></trkpt><trkpt lat="42.0277433" lon="-8.01985"><ele>927.0</ele><time>2026-04-01T10:12:56.81Z</time></trkpt><trkpt lat="42.0276217" lon="-8.0196883"><ele>926.0</ele><time>2026-04-01T10:12:57.81Z</time></trkpt><trkpt lat="42.027505" lon="-8.01954"><ele>924.5</ele><time>2026-04-01T10:12:58.809Z</time></trkpt><trkpt lat="42.0273967" lon="-8.01941"><ele>923.0</ele><time>2026-04-01T10:12:59.809Z</time></trkpt><trkpt lat="42.0272967" lon="-8.0192967"><ele>921.5</ele><time>2026-04-01T10:13:00.81Z</time></trkpt><trkpt lat="42.0272033" lon="-8.0192"><ele>920.0</ele><time>2026-04-01T10:13:01.81Z</time></trkpt><trkpt lat="42.0271183" lon="-8.0191217"><ele>920.0</ele><time>2026-04-01T10:13:02.81Z</time></trkpt><trkpt lat="42.0270317" lon="-8.0190617"><ele>920.0</ele><time>2026-04-01T10:13:03.809Z</time></trkpt><trkpt lat="42.0269333" lon="-8.0190117"><ele>920.0</ele><time>2026-04-01T10:13:04.809Z</time></trkpt><trkpt lat="42.026825" lon="-8.0189617"><ele>920.0</ele><time>2026-04-01T10:13:05.81Z</time></trkpt><trkpt lat="42.0267017" lon="-8.0189167"><ele>920.0</ele><time>2026-04-01T10:13:06.81Z</time></trkpt><trkpt lat="42.026575" lon="-8.01888"><ele>917.4</ele><time>2026-04-01T10:13:07.81Z</time></trkpt><trkpt lat="42.0264583" lon="-8.0188467"><ele>914.8</ele><time>2026-04-01T10:13:08.811Z</time></trkpt><trkpt lat="42.0263583" lon="-8.0188017"><ele>912.2</ele><time>2026-04-01T10:13:09.809Z</time></trkpt><trkpt lat="42.0262783" lon="-8.0187333"><ele>909.6</ele><time>2026-04-01T10:13:10.809Z</time></trkpt><trkpt lat="42.0262167" lon="-8.01864"><ele>907.0</ele><time>2026-04-01T10:13:11.81Z</time></trkpt><trkpt lat="42.0261783" lon="-8.0185183"><ele>907.0</ele><time>2026-04-01T10:13:12.81Z</time></trkpt><trkpt lat="42.0261617" lon="-8.0183683"><ele>907.0</ele><time>2026-04-01T10:13:13.81Z</time></trkpt><trkpt lat="42.0261467" lon="-8.018215"><ele>907.0</ele><time>2026-04-01T10:13:14.81Z</time></trkpt><trkpt lat="42.0261083" lon="-8.018055"><ele>907.0</ele><time>2026-04-01T10:13:15.808Z</time></trkpt><trkpt lat="42.0260417" lon="-8.0178883"><ele>906.0</ele><time>2026-04-01T10:13:16.808Z</time></trkpt><trkpt lat="42.02595" lon="-8.0177333"><ele>905.0</ele><time>2026-04-01T10:13:17.808Z</time></trkpt><trkpt lat="42.025845" lon="-8.0176"><ele>904.0</ele><time>2026-04-01T10:13:18.808Z</time></trkpt><trkpt lat="42.0257283" lon="-8.017485"><ele>903.0</ele><time>2026-04-01T10:13:19.81Z</time></trkpt><trkpt lat="42.0256083" lon="-8.017365"><ele>897.3333333333333</ele><time>2026-04-01T10:13:20.809Z</time></trkpt><trkpt lat="42.0254817" lon="-8.0172317"><ele>891.6666666666666</ele><time>2026-04-01T10:13:21.808Z</time></trkpt><trkpt lat="42.0253483" lon="-8.0170933"><ele>886.0</ele><time>2026-04-01T10:13:22.809Z</time></trkpt><trkpt lat="42.02521" lon="-8.016955"><ele>886.0</ele><time>2026-04-01T10:13:23.809Z</time></trkpt><trkpt lat="42.025065" lon="-8.0167967"><ele>886.0</ele><time>2026-04-01T10:13:24.811Z</time></trkpt><trkpt lat="42.02491" lon="-8.0166233"><ele>886.0</ele><time>2026-04-01T10:13:25.809Z</time></trkpt><trkpt lat="42.0247483" lon="-8.0164417"><ele>885.0</ele><time>2026-04-01T10:13:26.809Z</time></trkpt><trkpt lat="42.0245833" lon="-8.01626"><ele>884.0</ele><time>2026-04-01T10:13:27.808Z</time></trkpt><trkpt lat="42.024425" lon="-8.0160917"><ele>883.0</ele><time>2026-04-01T10:13:28.809Z</time></trkpt><trkpt lat="42.024275" lon="-8.0159333"><ele>881.0</ele><time>2026-04-01T10:13:29.809Z</time></trkpt><trkpt lat="42.024135" lon="-8.0157817"><ele>879.0</ele><time>2026-04-01T10:13:30.809Z</time></trkpt><trkpt lat="42.024" lon="-8.0156367"><ele>877.0</ele><time>2026-04-01T10:13:31.81Z</time></trkpt><trkpt lat="42.0238767" lon="-8.0155017"><ele>877.0</ele><time>2026-04-01T10:13:32.808Z</time></trkpt><trkpt lat="42.0237683" lon="-8.0153783"><ele>877.0</ele><time>2026-04-01T10:13:33.808Z</time></trkpt><trkpt lat="42.0236783" lon="-8.0152633"><ele>877.0</ele><time>2026-04-01T10:13:34.808Z</time></trkpt><trkpt lat="42.0236017" lon="-8.0151567"><ele>877.0</ele><time>2026-04-01T10:13:35.808Z</time></trkpt><trkpt lat="42.02353" lon="-8.0150467"><ele>877.4999999999999</ele><time>2026-04-01T10:13:36.808Z</time></trkpt><trkpt lat="42.023465" lon="-8.0149283"><ele>878.0</ele><time>2026-04-01T10:13:37.809Z</time></trkpt><trkpt lat="42.0234117" lon="-8.0148233"><ele>878.5</ele><time>2026-04-01T10:13:38.809Z</time></trkpt><trkpt lat="42.02338" lon="-8.0147433"><ele>879.0</ele><time>2026-04-01T10:13:39.808Z</time></trkpt><trkpt lat="42.0233417" lon="-8.01466"><ele>879.4999999999999</ele><time>2026-04-01T10:13:41.809Z</time></trkpt><trkpt lat="42.023275" lon="-8.01472"><ele>880.0</ele><time>2026-04-01T10:13:44.809Z</time></trkpt><trkpt lat="42.023215" lon="-8.0147633"><ele>880.2</ele><time>2026-04-01T10:13:45.808Z</time></trkpt><trkpt lat="42.0231183" lon="-8.01479"><ele>880.4</ele><time>2026-04-01T10:13:47.809Z</time></trkpt><trkpt lat="42.023055" lon="-8.01481"><ele>880.5999999999999</ele><time>2026-04-01T10:13:49.808Z</time></trkpt><trkpt lat="42.0229583" lon="-8.0148883"><ele>880.8</ele><time>2026-04-01T10:13:51.808Z</time></trkpt><trkpt lat="42.0228667" lon="-8.0149567"><ele>881.0</ele><time>2026-04-01T10:13:52.808Z</time></trkpt><trkpt lat="42.02276" lon="-8.0150217"><ele>879.8</ele><time>2026-04-01T10:13:53.81Z</time></trkpt><trkpt lat="42.0226533" lon="-8.0150817"><ele>878.5999999999999</ele><time>2026-04-01T10:13:54.809Z</time></trkpt><trkpt lat="42.02256" lon="-8.015135"><ele>877.4</ele><time>2026-04-01T10:13:55.809Z</time></trkpt><trkpt lat="42.0224783" lon="-8.0151883"><ele>876.2</ele><time>2026-04-01T10:13:56.809Z</time></trkpt><trkpt lat="42.0224117" lon="-8.01524"><ele>875.0</ele><time>2026-04-01T10:13:57.809Z</time></trkpt><trkpt lat="42.02235" lon="-8.0152867"><ele>874.5000000000001</ele><time>2026-04-01T10:13:58.809Z</time></trkpt><trkpt lat="42.0222917" lon="-8.0153267"><ele>874.0</ele><time>2026-04-01T10:13:59.809Z</time></trkpt><trkpt lat="42.0222233" lon="-8.0153667"><ele>873.5</ele><time>2026-04-01T10:14:00.809Z</time></trkpt><trkpt lat="42.0221517" lon="-8.01542"><ele>873.0</ele><time>2026-04-01T10:14:01.808Z</time></trkpt><trkpt lat="42.02207" lon="-8.0154867"><ele>872.5000000000001</ele><time>2026-04-01T10:14:02.809Z</time></trkpt><trkpt lat="42.0219983" lon="-8.015555"><ele>872.0</ele><time>2026-04-01T10:14:03.809Z</time></trkpt><trkpt lat="42.0219183" lon="-8.0156417"><ele>872.0000000000001</ele><time>2026-04-01T10:14:04.808Z</time></trkpt><trkpt lat="42.021845" lon="-8.0157267"><ele>872.0</ele><time>2026-04-01T10:14:05.809Z</time></trkpt><trkpt lat="42.021775" lon="-8.015795"><ele>872.0</ele><time>2026-04-01T10:14:06.809Z</time></trkpt><trkpt lat="42.0217017" lon="-8.01585"><ele>872.0</ele><time>2026-04-01T10:14:07.809Z</time></trkpt><trkpt lat="42.0216217" lon="-8.01589"><ele>872.0000000000001</ele><time>2026-04-01T10:14:08.809Z</time></trkpt><trkpt lat="42.02153" lon="-8.0159033"><ele>872.0</ele><time>2026-04-01T10:14:09.808Z</time></trkpt><trkpt lat="42.02142" lon="-8.0158883"><ele>868.8</ele><time>2026-04-01T10:14:10.81Z</time></trkpt><trkpt lat="42.0213067" lon="-8.0158767"><ele>865.6</ele><time>2026-04-01T10:14:11.808Z</time></trkpt><trkpt lat="42.0211983" lon="-8.015865"><ele>862.3999999999999</ele><time>2026-04-01T10:14:12.809Z</time></trkpt><trkpt lat="42.0210967" lon="-8.015865"><ele>859.1999999999999</ele><time>2026-04-01T10:14:13.809Z</time></trkpt><trkpt lat="42.0209967" lon="-8.0158617"><ele>856.0</ele><time>2026-04-01T10:14:14.809Z</time></trkpt><trkpt lat="42.0208917" lon="-8.0158517"><ele>859.0</ele><time>2026-04-01T10:14:15.808Z</time></trkpt><trkpt lat="42.0207717" lon="-8.0158117"><ele>862.0</ele><time>2026-04-01T10:14:16.809Z</time></trkpt><trkpt lat="42.0206433" lon="-8.015755"><ele>865.0</ele><time>2026-04-01T10:14:17.808Z</time></trkpt><trkpt lat="42.0205117" lon="-8.0157267"><ele>868.0</ele><time>2026-04-01T10:14:18.808Z</time></trkpt><trkpt lat="42.0203867" lon="-8.0157333"><ele>868.0</ele><time>2026-04-01T10:14:19.808Z</time></trkpt><trkpt lat="42.020265" lon="-8.0157617"><ele>868.0</ele><time>2026-04-01T10:14:20.81Z</time></trkpt><trkpt lat="42.0201483" lon="-8.0157817"><ele>868.0</ele><time>2026-04-01T10:14:21.808Z</time></trkpt><trkpt lat="42.0200267" lon="-8.015785"><ele>868.0</ele><time>2026-04-01T10:14:22.809Z</time></trkpt><trkpt lat="42.019885" lon="-8.01579"><ele>867.75</ele><time>2026-04-01T10:14:23.81Z</time></trkpt><trkpt lat="42.0197367" lon="-8.0157967"><ele>867.5</ele><time>2026-04-01T10:14:24.809Z</time></trkpt><trkpt lat="42.0195867" lon="-8.0158017"><ele>867.25</ele><time>2026-04-01T10:14:25.809Z</time></trkpt><trkpt lat="42.0194483" lon="-8.0158167"><ele>867.0</ele><time>2026-04-01T10:14:26.809Z</time></trkpt><trkpt lat="42.0193317" lon="-8.01584"><ele>862.75</ele><time>2026-04-01T10:14:27.809Z</time></trkpt><trkpt lat="42.0192183" lon="-8.015855"><ele>858.5</ele><time>2026-04-01T10:14:28.809Z</time></trkpt><trkpt lat="42.0190883" lon="-8.0158567"><ele>854.25</ele><time>2026-04-01T10:14:29.81Z</time></trkpt><trkpt lat="42.01895" lon="-8.015865"><ele>850.0</ele><time>2026-04-01T10:14:30.809Z</time></trkpt><trkpt lat="42.0188217" lon="-8.0158883"><ele>849.5</ele><time>2026-04-01T10:14:31.809Z</time></trkpt><trkpt lat="42.018695" lon="-8.0159167"><ele>849.0</ele><time>2026-04-01T10:14:32.809Z</time></trkpt><trkpt lat="42.0185733" lon="-8.015935"><ele>848.5</ele><time>2026-04-01T10:14:33.808Z</time></trkpt><trkpt lat="42.01846" lon="-8.01594"><ele>848.0</ele><time>2026-04-01T10:14:34.808Z</time></trkpt><trkpt lat="42.0183733" lon="-8.0159183"><ele>848.2</ele><time>2026-04-01T10:14:35.809Z</time></trkpt><trkpt lat="42.0183033" lon="-8.0158733"><ele>848.4</ele><time>2026-04-01T10:14:36.809Z</time></trkpt><trkpt lat="42.0182317" lon="-8.015815"><ele>848.6</ele><time>2026-04-01T10:14:37.809Z</time></trkpt><trkpt lat="42.0181667" lon="-8.01573"><ele>848.8000000000001</ele><time>2026-04-01T10:14:38.81Z</time></trkpt><trkpt lat="42.0181067" lon="-8.0156167"><ele>849.0</ele><time>2026-04-01T10:14:39.808Z</time></trkpt><trkpt lat="42.01804" lon="-8.0155"><ele>849.0</ele><time>2026-04-01T10:14:40.808Z</time></trkpt><trkpt lat="42.0179633" lon="-8.0154767"><ele>849.0</ele><time>2026-04-01T10:14:41.81Z</time></trkpt><trkpt lat="42.0178883" lon="-8.015505"><ele>849.0</ele><time>2026-04-01T10:14:42.81Z</time></trkpt><trkpt lat="42.0178117" lon="-8.0155983"><ele>849.0</ele><time>2026-04-01T10:14:43.809Z</time></trkpt><trkpt lat="42.0177433" lon="-8.01575"><ele>849.0</ele><time>2026-04-01T10:14:44.81Z</time></trkpt><trkpt lat="42.01769" lon="-8.0158667"><ele>849.0</ele><time>2026-04-01T10:14:45.808Z</time></trkpt><trkpt lat="42.0176417" lon="-8.0159617"><ele>849.0</ele><time>2026-04-01T10:14:46.809Z</time></trkpt><trkpt lat="42.0175833" lon="-8.0160267"><ele>849.0</ele><time>2026-04-01T10:14:47.809Z</time></trkpt><trkpt lat="42.01751" lon="-8.016065"><ele>849.0</ele><time>2026-04-01T10:14:48.809Z</time></trkpt><trkpt lat="42.0174267" lon="-8.0160717"><ele>849.0</ele><time>2026-04-01T10:14:49.808Z</time></trkpt><trkpt lat="42.0173367" lon="-8.0160567"><ele>849.0</ele><time>2026-04-01T10:14:50.809Z</time></trkpt><trkpt lat="42.017235" lon="-8.0160033"><ele>849.2</ele><time>2026-04-01T10:14:51.809Z</time></trkpt><trkpt lat="42.01713" lon="-8.0159"><ele>849.4000000000001</ele><time>2026-04-01T10:14:52.809Z</time></trkpt><trkpt lat="42.0170417" lon="-8.01584"><ele>849.6</ele><time>2026-04-01T10:14:53.809Z</time></trkpt><trkpt lat="42.0169767" lon="-8.01581"><ele>849.8</ele><time>2026-04-01T10:14:54.809Z</time></trkpt><trkpt lat="42.016885" lon="-8.015865"><ele>850.0</ele><time>2026-04-01T10:14:56.809Z</time></trkpt><trkpt lat="42.016835" lon="-8.0159217"><ele>850.0</ele><time>2026-04-01T10:14:57.808Z</time></trkpt><trkpt lat="42.0167717" lon="-8.0159817"><ele>850.0</ele><time>2026-04-01T10:14:58.809Z</time></trkpt><trkpt lat="42.0166833" lon="-8.016025"><ele>850.0</ele><time>2026-04-01T10:14:59.809Z</time></trkpt><trkpt lat="42.0165633" lon="-8.0160633"><ele>850.0</ele><time>2026-04-01T10:15:00.809Z</time></trkpt><trkpt lat="42.016455" lon="-8.0161017"><ele>850.0</ele><time>2026-04-01T10:15:01.809Z</time></trkpt><trkpt lat="42.01637" lon="-8.0161583"><ele>850.0</ele><time>2026-04-01T10:15:02.809Z</time></trkpt><trkpt lat="42.0163033" lon="-8.0162317"><ele>850.0</ele><time>2026-04-01T10:15:03.808Z</time></trkpt><trkpt lat="42.0162533" lon="-8.0163233"><ele>850.0</ele><time>2026-04-01T10:15:04.809Z</time></trkpt><trkpt lat="42.0162233" lon="-8.0164417"><ele>850.0</ele><time>2026-04-01T10:15:05.809Z</time></trkpt><trkpt lat="42.0162033" lon="-8.0165967"><ele>850.0</ele><time>2026-04-01T10:15:06.809Z</time></trkpt><trkpt lat="42.0161933" lon="-8.0167917"><ele>850.0</ele><time>2026-04-01T10:15:07.809Z</time></trkpt><trkpt lat="42.0161633" lon="-8.01696"><ele>850.0</ele><time>2026-04-01T10:15:08.809Z</time></trkpt><trkpt lat="42.016125" lon="-8.01712"><ele>850.0</ele><time>2026-04-01T10:15:09.809Z</time></trkpt><trkpt lat="42.0160783" lon="-8.017255"><ele>850.0</ele><time>2026-04-01T10:15:10.809Z</time></trkpt><trkpt lat="42.016015" lon="-8.0173917"><ele>849.0</ele><time>2026-04-01T10:15:11.809Z</time></trkpt><trkpt lat="42.015935" lon="-8.0175133"><ele>848.0</ele><time>2026-04-01T10:15:12.808Z</time></trkpt><trkpt lat="42.0158483" lon="-8.0176167"><ele>847.0</ele><time>2026-04-01T10:15:13.809Z</time></trkpt><trkpt lat="42.015755" lon="-8.0177017"><ele>846.0</ele><time>2026-04-01T10:15:14.809Z</time></trkpt><trkpt lat="42.0156583" lon="-8.017765"><ele>846.0</ele><time>2026-04-01T10:15:15.808Z</time></trkpt><trkpt lat="42.0155517" lon="-8.01781"><ele>846.0</ele><time>2026-04-01T10:15:16.808Z</time></trkpt><trkpt lat="42.0154317" lon="-8.0178267"><ele>846.0</ele><time>2026-04-01T10:15:17.809Z</time></trkpt><trkpt lat="42.0152933" lon="-8.0178467"><ele>846.0</ele><time>2026-04-01T10:15:18.809Z</time></trkpt><trkpt lat="42.0151417" lon="-8.01789"><ele>846.0</ele><time>2026-04-01T10:15:19.809Z</time></trkpt><trkpt lat="42.014995" lon="-8.017945"><ele>846.0</ele><time>2026-04-01T10:15:20.809Z</time></trkpt><trkpt lat="42.0148583" lon="-8.0179967"><ele>846.0</ele><time>2026-04-01T10:15:21.809Z</time></trkpt><trkpt lat="42.014705" lon="-8.018045"><ele>844.0</ele><time>2026-04-01T10:15:22.808Z</time></trkpt><trkpt lat="42.0145567" lon="-8.0180883"><ele>842.0</ele><time>2026-04-01T10:15:23.809Z</time></trkpt><trkpt lat="42.0144317" lon="-8.018125"><ele>840.0</ele><time>2026-04-01T10:15:24.809Z</time></trkpt><trkpt lat="42.014335" lon="-8.018155"><ele>838.0</ele><time>2026-04-01T10:15:25.809Z</time></trkpt><trkpt lat="42.0142517" lon="-8.0181667"><ele>837.9999999999999</ele><time>2026-04-01T10:15:26.81Z</time></trkpt><trkpt lat="42.014165" lon="-8.018165"><ele>838.0</ele><time>2026-04-01T10:15:27.808Z</time></trkpt><trkpt lat="42.01408" lon="-8.0181583"><ele>838.0</ele><time>2026-04-01T10:15:28.808Z</time></trkpt><trkpt lat="42.0139933" lon="-8.018145"><ele>838.0</ele><time>2026-04-01T10:15:29.81Z</time></trkpt><trkpt lat="42.01392" lon="-8.0181283"><ele>837.9999999999999</ele><time>2026-04-01T10:15:30.808Z</time></trkpt><trkpt lat="42.0138467" lon="-8.0180933"><ele>838.0</ele><time>2026-04-01T10:15:32.809Z</time></trkpt><trkpt lat="42.0137817" lon="-8.0180367"><ele>835.4999999999999</ele><time>2026-04-01T10:15:43.809Z</time></trkpt><trkpt lat="42.013725" lon="-8.0179583"><ele>833.0</ele><time>2026-04-01T10:15:45.811Z</time></trkpt><trkpt lat="42.01367" lon="-8.01787"><ele>830.5</ele><time>2026-04-01T10:15:47.81Z</time></trkpt><trkpt lat="42.013635" lon="-8.017795"><ele>828.0</ele><time>2026-04-01T10:15:49.81Z</time></trkpt><trkpt lat="42.01357" lon="-8.0177233"><ele>825.4999999999999</ele><time>2026-04-01T10:16:06.809Z</time></trkpt><trkpt lat="42.0135367" lon="-8.017635"><ele>823.0</ele><time>2026-04-01T10:16:07.811Z</time></trkpt><trkpt lat="42.0134883" lon="-8.0175083"><ele>825.2</ele><time>2026-04-01T10:16:08.809Z</time></trkpt><trkpt lat="42.01345" lon="-8.0173717"><ele>827.4</ele><time>2026-04-01T10:16:09.808Z</time></trkpt><trkpt lat="42.013425" lon="-8.017245"><ele>829.6</ele><time>2026-04-01T10:16:10.809Z</time></trkpt><trkpt lat="42.013415" lon="-8.01711"><ele>831.8000000000001</ele><time>2026-04-01T10:16:11.809Z</time></trkpt><trkpt lat="42.0134217" lon="-8.0169867"><ele>834.0</ele><time>2026-04-01T10:16:12.81Z</time></trkpt><trkpt lat="42.0134267" lon="-8.0168783"><ele>834.0</ele><time>2026-04-01T10:16:13.809Z</time></trkpt><trkpt lat="42.0133933" lon="-8.016755"><ele>834.0</ele><time>2026-04-01T10:16:15.809Z</time></trkpt><trkpt lat="42.013295" lon="-8.0167817"><ele>834.0</ele><time>2026-04-01T10:16:17.809Z</time></trkpt><trkpt lat="42.0132283" lon="-8.0168333"><ele>834.0</ele><time>2026-04-01T10:16:18.809Z</time></trkpt><trkpt lat="42.01314" lon="-8.0169"><ele>834.0</ele><time>2026-04-01T10:16:19.809Z</time></trkpt><trkpt lat="42.0130117" lon="-8.0169667"><ele>834.25</ele><time>2026-04-01T10:16:20.809Z</time></trkpt><trkpt lat="42.0128733" lon="-8.0170317"><ele>834.5</ele><time>2026-04-01T10:16:21.808Z</time></trkpt><trkpt lat="42.01274" lon="-8.01709"><ele>834.75</ele><time>2026-04-01T10:16:22.81Z</time></trkpt><trkpt lat="42.0126217" lon="-8.017145"><ele>835.0</ele><time>2026-04-01T10:16:23.809Z</time></trkpt><trkpt lat="42.0125117" lon="-8.0171883"><ele>834.4</ele><time>2026-04-01T10:16:24.808Z</time></trkpt><trkpt lat="42.012405" lon="-8.0172167"><ele>833.8</ele><time>2026-04-01T10:16:25.809Z</time></trkpt><trkpt lat="42.0123017" lon="-8.0172317"><ele>833.2</ele><time>2026-04-01T10:16:26.809Z</time></trkpt><trkpt lat="42.012195" lon="-8.01724"><ele>832.6</ele><time>2026-04-01T10:16:27.808Z</time></trkpt><trkpt lat="42.0120883" lon="-8.0172133"><ele>832.0</ele><time>2026-04-01T10:16:28.808Z</time></trkpt><trkpt lat="42.01198" lon="-8.0171617"><ele>832.0</ele><time>2026-04-01T10:16:29.809Z</time></trkpt><trkpt lat="42.0118817" lon="-8.0170767"><ele>832.0</ele><time>2026-04-01T10:16:30.809Z</time></trkpt><trkpt lat="42.0117867" lon="-8.0170017"><ele>832.0</ele><time>2026-04-01T10:16:31.809Z</time></trkpt><trkpt lat="42.0117" lon="-8.0169483"><ele>832.0</ele><time>2026-04-01T10:16:32.81Z</time></trkpt><trkpt lat="42.0115917" lon="-8.0169483"><ele>832.0</ele><time>2026-04-01T10:16:33.808Z</time></trkpt><trkpt lat="42.0114683" lon="-8.0169567"><ele>831.0</ele><time>2026-04-01T10:16:34.809Z</time></trkpt><trkpt lat="42.01134" lon="-8.01697"><ele>830.0</ele><time>2026-04-01T10:16:35.809Z</time></trkpt><trkpt lat="42.0112117" lon="-8.0169717"><ele>829.0</ele><time>2026-04-01T10:16:36.809Z</time></trkpt><trkpt lat="42.0110817" lon="-8.0169633"><ele>828.0</ele><time>2026-04-01T10:16:37.809Z</time></trkpt><trkpt lat="42.0109567" lon="-8.01693"><ele>828.0</ele><time>2026-04-01T10:16:38.809Z</time></trkpt><trkpt lat="42.010835" lon="-8.0168617"><ele>828.0</ele><time>2026-04-01T10:16:39.809Z</time></trkpt><trkpt lat="42.0107317" lon="-8.0167917"><ele>828.0</ele><time>2026-04-01T10:16:40.809Z</time></trkpt><trkpt lat="42.0106517" lon="-8.0167517"><ele>828.0</ele><time>2026-04-01T10:16:41.808Z</time></trkpt><trkpt lat="42.0105733" lon="-8.01674"><ele>828.0</ele><time>2026-04-01T10:16:42.809Z</time></trkpt><trkpt lat="42.0104433" lon="-8.0168167"><ele>829.5999999999999</ele><time>2026-04-01T10:16:44.81Z</time></trkpt><trkpt lat="42.0103817" lon="-8.016935"><ele>831.1999999999999</ele><time>2026-04-01T10:16:45.809Z</time></trkpt><trkpt lat="42.0103317" lon="-8.0170533"><ele>832.8</ele><time>2026-04-01T10:16:46.81Z</time></trkpt><trkpt lat="42.010295" lon="-8.0171867"><ele>834.4</ele><time>2026-04-01T10:16:47.81Z</time></trkpt><trkpt lat="42.0102467" lon="-8.0173067"><ele>836.0</ele><time>2026-04-01T10:16:48.808Z</time></trkpt><trkpt lat="42.010185" lon="-8.017395"><ele>836.0</ele><time>2026-04-01T10:16:49.809Z</time></trkpt><trkpt lat="42.0101167" lon="-8.0174833"><ele>836.0</ele><time>2026-04-01T10:16:50.809Z</time></trkpt><trkpt lat="42.0100283" lon="-8.0175283"><ele>836.0</ele><time>2026-04-01T10:16:51.809Z</time></trkpt><trkpt lat="42.009935" lon="-8.0175467"><ele>836.0</ele><time>2026-04-01T10:16:52.809Z</time></trkpt><trkpt lat="42.0098517" lon="-8.017545"><ele>836.0</ele><time>2026-04-01T10:16:53.809Z</time></trkpt><trkpt lat="42.0097567" lon="-8.0175"><ele>833.0</ele><time>2026-04-01T10:16:54.809Z</time></trkpt><trkpt lat="42.0096483" lon="-8.01745"><ele>830.0</ele><time>2026-04-01T10:16:55.809Z</time></trkpt><trkpt lat="42.0095117" lon="-8.0173233"><ele>827.0</ele><time>2026-04-01T10:16:56.81Z</time></trkpt><trkpt lat="42.0093317" lon="-8.01713"><ele>827.0</ele><time>2026-04-01T10:16:57.809Z</time></trkpt><trkpt lat="42.00916" lon="-8.01696"><ele>827.0</ele><time>2026-04-01T10:16:58.808Z</time></trkpt><trkpt lat="42.0089983" lon="-8.0168"><ele>827.0</ele><time>2026-04-01T10:16:59.809Z</time></trkpt><trkpt lat="42.0088483" lon="-8.01666"><ele>827.2</ele><time>2026-04-01T10:17:00.809Z</time></trkpt><trkpt lat="42.0087267" lon="-8.016525"><ele>827.4000000000001</ele><time>2026-04-01T10:17:01.809Z</time></trkpt><trkpt lat="42.00864" lon="-8.0164133"><ele>827.5999999999999</ele><time>2026-04-01T10:17:02.81Z</time></trkpt><trkpt lat="42.00858" lon="-8.0163433"><ele>827.8</ele><time>2026-04-01T10:17:03.809Z</time></trkpt><trkpt lat="42.0085183" lon="-8.0163033"><ele>828.0</ele><time>2026-04-01T10:17:04.809Z</time></trkpt><trkpt lat="42.0084133" lon="-8.0163717"><ele>828.0</ele><time>2026-04-01T10:17:06.809Z</time></trkpt><trkpt lat="42.0083667" lon="-8.0164533"><ele>828.0</ele><time>2026-04-01T10:17:07.81Z</time></trkpt><trkpt lat="42.0083117" lon="-8.01652"><ele>828.0</ele><time>2026-04-01T10:17:08.809Z</time></trkpt><trkpt lat="42.0082467" lon="-8.0165683"><ele>828.0</ele><time>2026-04-01T10:17:09.809Z</time></trkpt><trkpt lat="42.00812" lon="-8.01656"><ele>828.0</ele><time>2026-04-01T10:17:11.809Z</time></trkpt><trkpt lat="42.0080467" lon="-8.0164833"><ele>828.0</ele><time>2026-04-01T10:17:12.809Z</time></trkpt><trkpt lat="42.0079633" lon="-8.0163533"><ele>827.0</ele><time>2026-04-01T10:17:13.809Z</time></trkpt><trkpt lat="42.0078883" lon="-8.01619"><ele>826.0</ele><time>2026-04-01T10:17:14.81Z</time></trkpt><trkpt lat="42.0078217" lon="-8.01609"><ele>825.0</ele><time>2026-04-01T10:17:15.809Z</time></trkpt><trkpt lat="42.0077633" lon="-8.0160183"><ele>824.0</ele><time>2026-04-01T10:17:16.809Z</time></trkpt><trkpt lat="42.007655" lon="-8.016035"><ele>823.0</ele><time>2026-04-01T10:17:18.809Z</time></trkpt><trkpt lat="42.007605" lon="-8.0160917"><ele>822.9999999999999</ele><time>2026-04-01T10:17:19.809Z</time></trkpt><trkpt lat="42.0075533" lon="-8.016205"><ele>823.0</ele><time>2026-04-01T10:17:20.809Z</time></trkpt><trkpt lat="42.0075233" lon="-8.016335"><ele>823.0</ele><time>2026-04-01T10:17:21.808Z</time></trkpt><trkpt lat="42.007485" lon="-8.01643"><ele>823.0</ele><time>2026-04-01T10:17:22.809Z</time></trkpt><trkpt lat="42.0074467" lon="-8.016515"><ele>822.9999999999999</ele><time>2026-04-01T10:17:23.809Z</time></trkpt><trkpt lat="42.0073967" lon="-8.0165867"><ele>823.0</ele><time>2026-04-01T10:17:24.809Z</time></trkpt><trkpt lat="42.00727" lon="-8.0165867"><ele>823.2</ele><time>2026-04-01T10:17:26.81Z</time></trkpt><trkpt lat="42.0071767" lon="-8.0165733"><ele>823.4</ele><time>2026-04-01T10:17:27.809Z</time></trkpt><trkpt lat="42.0070767" lon="-8.01653"><ele>823.6</ele><time>2026-04-01T10:17:28.81Z</time></trkpt><trkpt lat="42.0069817" lon="-8.016475"><ele>823.8000000000001</ele><time>2026-04-01T10:17:29.809Z</time></trkpt><trkpt lat="42.00689" lon="-8.0163967"><ele>824.0</ele><time>2026-04-01T10:17:30.81Z</time></trkpt><trkpt lat="42.0068117" lon="-8.01633"><ele>824.0000000000001</ele><time>2026-04-01T10:17:31.809Z</time></trkpt><trkpt lat="42.006725" lon="-8.0162633"><ele>824.0</ele><time>2026-04-01T10:17:32.809Z</time></trkpt><trkpt lat="42.006665" lon="-8.0162367"><ele>824.0</ele><time>2026-04-01T10:17:33.809Z</time></trkpt><trkpt lat="42.00659" lon="-8.0163083"><ele>824.0</ele><time>2026-04-01T10:17:35.81Z</time></trkpt><trkpt lat="42.0065533" lon="-8.0163983"><ele>824.0000000000001</ele><time>2026-04-01T10:17:36.809Z</time></trkpt><trkpt lat="42.006505" lon="-8.0164767"><ele>824.0</ele><time>2026-04-01T10:17:37.809Z</time></trkpt><trkpt lat="42.00644" lon="-8.0165917"><ele>824.5</ele><time>2026-04-01T10:17:38.81Z</time></trkpt><trkpt lat="42.0063467" lon="-8.0166967"><ele>825.0</ele><time>2026-04-01T10:17:39.81Z</time></trkpt><trkpt lat="42.0062383" lon="-8.0167983"><ele>825.5</ele><time>2026-04-01T10:17:40.81Z</time></trkpt><trkpt lat="42.00613" lon="-8.0169367"><ele>826.0</ele><time>2026-04-01T10:17:41.809Z</time></trkpt><trkpt lat="42.0060333" lon="-8.0170883"><ele>826.0</ele><time>2026-04-01T10:17:42.809Z</time></trkpt><trkpt lat="42.005955" lon="-8.0172367"><ele>826.0</ele><time>2026-04-01T10:17:43.811Z</time></trkpt><trkpt lat="42.0058733" lon="-8.0173717"><ele>826.0</ele><time>2026-04-01T10:17:44.81Z</time></trkpt><trkpt lat="42.0057817" lon="-8.0175117"><ele>826.0</ele><time>2026-04-01T10:17:45.81Z</time></trkpt><trkpt lat="42.0056933" lon="-8.01763"><ele>825.1999999999999</ele><time>2026-04-01T10:17:46.809Z</time></trkpt><trkpt lat="42.0056367" lon="-8.0177067"><ele>824.4</ele><time>2026-04-01T10:17:47.81Z</time></trkpt><trkpt lat="42.0055867" lon="-8.0177667"><ele>823.6</ele><time>2026-04-01T10:17:49.809Z</time></trkpt><trkpt lat="42.005505" lon="-8.0178533"><ele>822.8</ele><time>2026-04-01T10:17:57.809Z</time></trkpt><trkpt lat="42.0054183" lon="-8.0179233"><ele>822.0</ele><time>2026-04-01T10:17:58.809Z</time></trkpt><trkpt lat="42.0052983" lon="-8.018"><ele>822.0</ele><time>2026-04-01T10:17:59.81Z</time></trkpt><trkpt lat="42.0051767" lon="-8.0180717"><ele>822.0</ele><time>2026-04-01T10:18:00.809Z</time></trkpt><trkpt lat="42.0050617" lon="-8.0181383"><ele>822.0</ele><time>2026-04-01T10:18:01.81Z</time></trkpt><trkpt lat="42.0049367" lon="-8.018205"><ele>822.0</ele><time>2026-04-01T10:18:02.81Z</time></trkpt><trkpt lat="42.0047983" lon="-8.0182783"><ele>819.5</ele><time>2026-04-01T10:18:03.809Z</time></trkpt><trkpt lat="42.0046533" lon="-8.0183633"><ele>817.0</ele><time>2026-04-01T10:18:04.81Z</time></trkpt><trkpt lat="42.0045183" lon="-8.0184483"><ele>814.5</ele><time>2026-04-01T10:18:05.809Z</time></trkpt><trkpt lat="42.0044017" lon="-8.01852"><ele>812.0</ele><time>2026-04-01T10:18:06.809Z</time></trkpt><trkpt lat="42.00429" lon="-8.018575"><ele>812.0</ele><time>2026-04-01T10:18:07.811Z</time></trkpt><trkpt lat="42.004185" lon="-8.0186067"><ele>812.0</ele><time>2026-04-01T10:18:08.81Z</time></trkpt><trkpt lat="42.0040733" lon="-8.0186183"><ele>812.0</ele><time>2026-04-01T10:18:09.809Z</time></trkpt><trkpt lat="42.00396" lon="-8.0186067"><ele>812.0</ele><time>2026-04-01T10:18:10.81Z</time></trkpt><trkpt lat="42.00384" lon="-8.0186183"><ele>812.4000000000001</ele><time>2026-04-01T10:18:11.81Z</time></trkpt><trkpt lat="42.0037233" lon="-8.0186417"><ele>812.8000000000001</ele><time>2026-04-01T10:18:12.809Z</time></trkpt><trkpt lat="42.0036217" lon="-8.01867"><ele>813.2</ele><time>2026-04-01T10:18:13.809Z</time></trkpt><trkpt lat="42.00353" lon="-8.0186767"><ele>813.6</ele><time>2026-04-01T10:18:14.809Z</time></trkpt><trkpt lat="42.003445" lon="-8.018655"><ele>814.0</ele><time>2026-04-01T10:18:15.811Z</time></trkpt><trkpt lat="42.0033633" lon="-8.01863"><ele>814.4999999999999</ele><time>2026-04-01T10:18:16.81Z</time></trkpt><trkpt lat="42.0032917" lon="-8.0186183"><ele>815.0</ele><time>2026-04-01T10:18:17.81Z</time></trkpt><trkpt lat="42.0032267" lon="-8.0186733"><ele>815.5</ele><time>2026-04-01T10:18:19.809Z</time></trkpt><trkpt lat="42.00321" lon="-8.0188217"><ele>816.0</ele><time>2026-04-01T10:18:21.809Z</time></trkpt><trkpt lat="42.0031883" lon="-8.0189067"><ele>816.4999999999999</ele><time>2026-04-01T10:18:22.81Z</time></trkpt><trkpt lat="42.0031483" lon="-8.018985"><ele>817.0</ele><time>2026-04-01T10:18:23.81Z</time></trkpt><trkpt lat="42.0030917" lon="-8.0190383"><ele>817.0</ele><time>2026-04-01T10:18:24.811Z</time></trkpt><trkpt lat="42.0030217" lon="-8.0190933"><ele>817.0</ele><time>2026-04-01T10:18:25.809Z</time></trkpt><trkpt lat="42.0029283" lon="-8.019165"><ele>817.0</ele><time>2026-04-01T10:18:26.81Z</time></trkpt><trkpt lat="42.0028333" lon="-8.0192"><ele>817.0</ele><time>2026-04-01T10:18:27.81Z</time></trkpt><trkpt lat="42.0027" lon="-8.019195"><ele>817.0</ele><time>2026-04-01T10:18:28.809Z</time></trkpt><trkpt lat="42.00256" lon="-8.0191617"><ele>814.6666666666666</ele><time>2026-04-01T10:18:29.81Z</time></trkpt><trkpt lat="42.00241" lon="-8.0191133"><ele>812.3333333333333</ele><time>2026-04-01T10:18:30.809Z</time></trkpt><trkpt lat="42.0022533" lon="-8.0190617"><ele>810.0</ele><time>2026-04-01T10:18:31.81Z</time></trkpt><trkpt lat="42.0021117" lon="-8.0190283"><ele>810.0</ele><time>2026-04-01T10:18:32.81Z</time></trkpt><trkpt lat="42.0019883" lon="-8.018995"><ele>810.0</ele><time>2026-04-01T10:18:33.809Z</time></trkpt><trkpt lat="42.001885" lon="-8.01896"><ele>810.0</ele><time>2026-04-01T10:18:34.81Z</time></trkpt><trkpt lat="42.0017933" lon="-8.018915"><ele>810.0</ele><time>2026-04-01T10:18:35.809Z</time></trkpt><trkpt lat="42.0017183" lon="-8.0188483"><ele>810.0</ele><time>2026-04-01T10:18:36.809Z</time></trkpt><trkpt lat="42.0016617" lon="-8.0187567"><ele>810.8</ele><time>2026-04-01T10:18:37.811Z</time></trkpt><trkpt lat="42.00162" lon="-8.0186467"><ele>811.6</ele><time>2026-04-01T10:18:38.809Z</time></trkpt><trkpt lat="42.001605" lon="-8.0184967"><ele>812.4000000000001</ele><time>2026-04-01T10:18:39.809Z</time></trkpt><trkpt lat="42.0015917" lon="-8.0183617"><ele>813.2</ele><time>2026-04-01T10:18:40.809Z</time></trkpt><trkpt lat="42.0015767" lon="-8.0182533"><ele>814.0</ele><time>2026-04-01T10:18:41.809Z</time></trkpt><trkpt lat="42.0015017" lon="-8.0181633"><ele>814.0</ele><time>2026-04-01T10:18:43.809Z</time></trkpt><trkpt lat="42.0014083" lon="-8.0181733"><ele>814.0</ele><time>2026-04-01T10:18:45.809Z</time></trkpt><trkpt lat="42.0013517" lon="-8.018225"><ele>814.0</ele><time>2026-04-01T10:18:46.809Z</time></trkpt><trkpt lat="42.001265" lon="-8.0183367"><ele>814.0</ele><time>2026-04-01T10:18:47.81Z</time></trkpt><trkpt lat="42.0011683" lon="-8.0184733"><ele>814.0</ele><time>2026-04-01T10:18:48.81Z</time></trkpt><trkpt lat="42.0010717" lon="-8.0185883"><ele>814.0</ele><time>2026-04-01T10:18:49.81Z</time></trkpt><trkpt lat="42.0009867" lon="-8.0186483"><ele>814.0</ele><time>2026-04-01T10:18:50.809Z</time></trkpt><trkpt lat="42.0008933" lon="-8.0187117"><ele>814.0</ele><time>2026-04-01T10:18:51.809Z</time></trkpt><trkpt lat="42.00078" lon="-8.0187633"><ele>814.0</ele><time>2026-04-01T10:18:52.809Z</time></trkpt><trkpt lat="42.0006567" lon="-8.0188017"><ele>814.0</ele><time>2026-04-01T10:18:53.809Z</time></trkpt><trkpt lat="42.000525" lon="-8.0188333"><ele>815.25</ele><time>2026-04-01T10:18:54.809Z</time></trkpt><trkpt lat="42.0004017" lon="-8.018875"><ele>816.5</ele><time>2026-04-01T10:18:55.811Z</time></trkpt><trkpt lat="42.00028" lon="-8.0189367"><ele>817.75</ele><time>2026-04-01T10:18:56.81Z</time></trkpt><trkpt lat="42.0001717" lon="-8.01901"><ele>819.0</ele><time>2026-04-01T10:18:57.81Z</time></trkpt><trkpt lat="42.0000783" lon="-8.01908"><ele>819.0</ele><time>2026-04-01T10:18:58.809Z</time></trkpt><trkpt lat="41.9999867" lon="-8.0191433"><ele>819.0</ele><time>2026-04-01T10:18:59.809Z</time></trkpt><trkpt lat="41.9998967" lon="-8.0191733"><ele>819.0</ele><time>2026-04-01T10:19:00.809Z</time></trkpt><trkpt lat="41.9998083" lon="-8.0192033"><ele>819.0</ele><time>2026-04-01T10:19:01.809Z</time></trkpt><trkpt lat="41.9997267" lon="-8.0192217"><ele>819.0</ele><time>2026-04-01T10:19:02.809Z</time></trkpt><trkpt lat="41.9996433" lon="-8.01922"><ele>819.0</ele><time>2026-04-01T10:19:03.809Z</time></trkpt><trkpt lat="41.9995383" lon="-8.0191967"><ele>819.0</ele><time>2026-04-01T10:19:04.811Z</time></trkpt><trkpt lat="41.9994217" lon="-8.0191483"><ele>819.0</ele><time>2026-04-01T10:19:05.81Z</time></trkpt><trkpt lat="41.99932" lon="-8.0191217"><ele>819.0</ele><time>2026-04-01T10:19:06.809Z</time></trkpt><trkpt lat="41.9992333" lon="-8.0191067"><ele>819.0</ele><time>2026-04-01T10:19:07.809Z</time></trkpt><trkpt lat="41.9991483" lon="-8.0190983"><ele>817.6</ele><time>2026-04-01T10:19:08.811Z</time></trkpt><trkpt lat="41.9990683" lon="-8.019115"><ele>816.2</ele><time>2026-04-01T10:19:09.81Z</time></trkpt><trkpt lat="41.998995" lon="-8.0191783"><ele>814.8000000000001</ele><time>2026-04-01T10:19:10.81Z</time></trkpt><trkpt lat="41.998925" lon="-8.019265"><ele>813.4000000000001</ele><time>2026-04-01T10:19:11.811Z</time></trkpt><trkpt lat="41.9988433" lon="-8.0193717"><ele>812.0</ele><time>2026-04-01T10:19:12.809Z</time></trkpt><trkpt lat="41.998765" lon="-8.0194867"><ele>812.0</ele><time>2026-04-01T10:19:13.809Z</time></trkpt><trkpt lat="41.9986979" lon="-8.0195846"><ele>812.0</ele><time>2026-04-01T10:19:14.81Z</time></trkpt><trkpt lat="41.9986341" lon="-8.019674"><ele>812.0</ele><time>2026-04-01T10:19:15.811Z</time></trkpt><trkpt lat="41.9985735" lon="-8.019748"><ele>812.0</ele><time>2026-04-01T10:19:16.809Z</time></trkpt><trkpt lat="41.9985057" lon="-8.019832"><ele>812.0</ele><time>2026-04-01T10:19:17.809Z</time></trkpt><trkpt lat="41.9984318" lon="-8.0199456"><ele>812.0</ele><time>2026-04-01T10:19:18.809Z</time></trkpt><trkpt lat="41.9983497" lon="-8.0200924"><ele>812.0</ele><time>2026-04-01T10:19:19.809Z</time></trkpt><trkpt lat="41.9982531" lon="-8.0202698"><ele>812.0</ele><time>2026-04-01T10:19:20.81Z</time></trkpt><trkpt lat="41.9981488" lon="-8.02046"><ele>812.0</ele><time>2026-04-01T10:19:21.809Z</time></trkpt><trkpt lat="41.9980426" lon="-8.0206493"><ele>812.0</ele><time>2026-04-01T10:19:22.809Z</time></trkpt><trkpt lat="41.9979429" lon="-8.0208339"><ele>812.0</ele><time>2026-04-01T10:19:23.81Z</time></trkpt><trkpt lat="41.997846" lon="-8.0210129"><ele>808.3333333333334</ele><time>2026-04-01T10:19:24.809Z</time></trkpt><trkpt lat="41.9977505" lon="-8.0211841"><ele>804.6666666666667</ele><time>2026-04-01T10:19:25.81Z</time></trkpt><trkpt lat="41.9976525" lon="-8.0213469"><ele>801.0</ele><time>2026-04-01T10:19:26.811Z</time></trkpt><trkpt lat="41.9975459" lon="-8.0214986"><ele>800.6666666666667</ele><time>2026-04-01T10:19:27.81Z</time></trkpt><trkpt lat="41.9974333" lon="-8.0216425"><ele>800.3333333333334</ele><time>2026-04-01T10:19:28.81Z</time></trkpt><trkpt lat="41.9973147" lon="-8.0217797"><ele>800.0</ele><time>2026-04-01T10:19:29.81Z</time></trkpt><trkpt lat="41.997193" lon="-8.0219139"><ele>800.0</ele><time>2026-04-01T10:19:30.811Z</time></trkpt><trkpt lat="41.9970721" lon="-8.0220463"><ele>800.0</ele><time>2026-04-01T10:19:31.81Z</time></trkpt><trkpt lat="41.996949" lon="-8.0221793"><ele>800.0</ele><time>2026-04-01T10:19:32.81Z</time></trkpt><trkpt lat="41.9968237" lon="-8.0223126"><ele>800.0</ele><time>2026-04-01T10:19:33.809Z</time></trkpt><trkpt lat="41.9966983" lon="-8.0224472"><ele>800.0</ele><time>2026-04-01T10:19:34.81Z</time></trkpt><trkpt lat="41.996572" lon="-8.0225786"><ele>800.0</ele><time>2026-04-01T10:19:35.811Z</time></trkpt><trkpt lat="41.9964489" lon="-8.0227102"><ele>799.3333333333334</ele><time>2026-04-01T10:19:36.81Z</time></trkpt><trkpt lat="41.9963234" lon="-8.0228418"><ele>798.6666666666667</ele><time>2026-04-01T10:19:37.81Z</time></trkpt><trkpt lat="41.9962051" lon="-8.0229725"><ele>798.0</ele><time>2026-04-01T10:19:38.809Z</time></trkpt><trkpt lat="41.996093" lon="-8.0231011"><ele>798.0</ele><time>2026-04-01T10:19:39.811Z</time></trkpt><trkpt lat="41.995984" lon="-8.0232336"><ele>798.0</ele><time>2026-04-01T10:19:40.809Z</time></trkpt><trkpt lat="41.9958728" lon="-8.0233732"><ele>798.0</ele><time>2026-04-01T10:19:41.81Z</time></trkpt><trkpt lat="41.9957601" lon="-8.0235182"><ele>795.3333333333333</ele><time>2026-04-01T10:19:42.81Z</time></trkpt><trkpt lat="41.9956454" lon="-8.0236747"><ele>792.6666666666666</ele><time>2026-04-01T10:19:43.81Z</time></trkpt><trkpt lat="41.9955303" lon="-8.023839"><ele>790.0</ele><time>2026-04-01T10:19:44.812Z</time></trkpt><trkpt lat="41.9954139" lon="-8.0240093"><ele>787.0</ele><time>2026-04-01T10:19:45.81Z</time></trkpt><trkpt lat="41.9952956" lon="-8.0241816"><ele>784.0</ele><time>2026-04-01T10:19:46.81Z</time></trkpt><trkpt lat="41.9951758" lon="-8.0243538"><ele>781.0</ele><time>2026-04-01T10:19:47.81Z</time></trkpt><trkpt lat="41.9950561" lon="-8.0245271"><ele>781.0</ele><time>2026-04-01T10:19:48.81Z</time></trkpt><trkpt lat="41.9949374" lon="-8.024705"><ele>781.0</ele><time>2026-04-01T10:19:49.811Z</time></trkpt><trkpt lat="41.9948183" lon="-8.0248828"><ele>781.0</ele><time>2026-04-01T10:19:50.811Z</time></trkpt><trkpt lat="41.9947011" lon="-8.0250587"><ele>781.0</ele><time>2026-04-01T10:19:51.809Z</time></trkpt><trkpt lat="41.994583" lon="-8.0252328"><ele>781.0</ele><time>2026-04-01T10:19:52.81Z</time></trkpt><trkpt lat="41.994463" lon="-8.0254067"><ele>781.0</ele><time>2026-04-01T10:19:53.81Z</time></trkpt><trkpt lat="41.9943417" lon="-8.02558"><ele>781.0</ele><time>2026-04-01T10:19:54.81Z</time></trkpt><trkpt lat="41.9942233" lon="-8.0257483"><ele>781.0</ele><time>2026-04-01T10:19:55.809Z</time></trkpt><trkpt lat="41.9941067" lon="-8.0259167"><ele>781.0</ele><time>2026-04-01T10:19:56.812Z</time></trkpt><trkpt lat="41.99399" lon="-8.0260833"><ele>782.3333333333333</ele><time>2026-04-01T10:19:57.81Z</time></trkpt><trkpt lat="41.9938767" lon="-8.026245"><ele>783.6666666666667</ele><time>2026-04-01T10:19:58.81Z</time></trkpt><trkpt lat="41.9937667" lon="-8.026395"><ele>785.0</ele><time>2026-04-01T10:19:59.81Z</time></trkpt><trkpt lat="41.9936583" lon="-8.0265433"><ele>782.3333333333334</ele><time>2026-04-01T10:20:00.809Z</time></trkpt><trkpt lat="41.9935517" lon="-8.0266967"><ele>779.6666666666667</ele><time>2026-04-01T10:20:01.809Z</time></trkpt><trkpt lat="41.9934433" lon="-8.02685"><ele>777.0</ele><time>2026-04-01T10:20:02.811Z</time></trkpt><trkpt lat="41.9933367" lon="-8.0270117"><ele>777.0</ele><time>2026-04-01T10:20:03.811Z</time></trkpt><trkpt lat="41.9932317" lon="-8.02718"><ele>777.0</ele><time>2026-04-01T10:20:04.81Z</time></trkpt><trkpt lat="41.9931233" lon="-8.02734"><ele>777.0</ele><time>2026-04-01T10:20:05.81Z</time></trkpt><trkpt lat="41.9930133" lon="-8.0275033"><ele>773.3333333333334</ele><time>2026-04-01T10:20:06.809Z</time></trkpt><trkpt lat="41.9929033" lon="-8.027665"><ele>769.6666666666667</ele><time>2026-04-01T10:20:07.811Z</time></trkpt><trkpt lat="41.992795" lon="-8.0278317"><ele>766.0</ele><time>2026-04-01T10:20:08.81Z</time></trkpt><trkpt lat="41.9926867" lon="-8.027995"><ele>766.0</ele><time>2026-04-01T10:20:09.81Z</time></trkpt><trkpt lat="41.9925817" lon="-8.0281583"><ele>766.0</ele><time>2026-04-01T10:20:10.811Z</time></trkpt><trkpt lat="41.992475" lon="-8.028315"><ele>766.0</ele><time>2026-04-01T10:20:11.81Z</time></trkpt><trkpt lat="41.9923667" lon="-8.028475"><ele>764.0</ele><time>2026-04-01T10:20:12.809Z</time></trkpt><trkpt lat="41.9922583" lon="-8.02863"><ele>762.0</ele><time>2026-04-01T10:20:13.81Z</time></trkpt><trkpt lat="41.9921433" lon="-8.02877"><ele>760.0</ele><time>2026-04-01T10:20:14.809Z</time></trkpt><trkpt lat="41.9920167" lon="-8.028875"><ele>760.0</ele><time>2026-04-01T10:20:15.809Z</time></trkpt><trkpt lat="41.991875" lon="-8.0289433"><ele>760.0</ele><time>2026-04-01T10:20:16.81Z</time></trkpt><trkpt lat="41.9917167" lon="-8.028965"><ele>760.0</ele><time>2026-04-01T10:20:17.811Z</time></trkpt><trkpt lat="41.9915583" lon="-8.0289467"><ele>760.3333333333334</ele><time>2026-04-01T10:20:18.81Z</time></trkpt><trkpt lat="41.9913983" lon="-8.0288833"><ele>760.6666666666666</ele><time>2026-04-01T10:20:19.809Z</time></trkpt><trkpt lat="41.9912417" lon="-8.0287983"><ele>761.0</ele><time>2026-04-01T10:20:20.81Z</time></trkpt><trkpt lat="41.99108" lon="-8.0287083"><ele>761.0</ele><time>2026-04-01T10:20:21.809Z</time></trkpt><trkpt lat="41.9909133" lon="-8.0286367"><ele>761.0</ele><time>2026-04-01T10:20:22.809Z</time></trkpt><trkpt lat="41.990745" lon="-8.02859"><ele>761.0</ele><time>2026-04-01T10:20:23.81Z</time></trkpt><trkpt lat="41.9905767" lon="-8.0285667"><ele>757.6666666666666</ele><time>2026-04-01T10:20:24.81Z</time></trkpt><trkpt lat="41.99041" lon="-8.02855"><ele>754.3333333333334</ele><time>2026-04-01T10:20:25.811Z</time></trkpt><trkpt lat="41.9902533" lon="-8.0285333"><ele>751.0</ele><time>2026-04-01T10:20:26.811Z</time></trkpt><trkpt lat="41.9901017" lon="-8.0285217"><ele>750.25</ele><time>2026-04-01T10:20:27.812Z</time></trkpt><trkpt lat="41.98996" lon="-8.0285083"><ele>749.5</ele><time>2026-04-01T10:20:28.81Z</time></trkpt><trkpt lat="41.9898217" lon="-8.0284917"><ele>748.75</ele><time>2026-04-01T10:20:29.81Z</time></trkpt><trkpt lat="41.9896867" lon="-8.0284833"><ele>748.0</ele><time>2026-04-01T10:20:30.809Z</time></trkpt><trkpt lat="41.9895517" lon="-8.0284917"><ele>748.0</ele><time>2026-04-01T10:20:31.812Z</time></trkpt><trkpt lat="41.9894283" lon="-8.0285217"><ele>748.0</ele><time>2026-04-01T10:20:32.809Z</time></trkpt><trkpt lat="41.98932" lon="-8.0285983"><ele>748.0</ele><time>2026-04-01T10:20:33.809Z</time></trkpt><trkpt lat="41.9892333" lon="-8.0287017"><ele>748.0</ele><time>2026-04-01T10:20:34.809Z</time></trkpt><trkpt lat="41.98916" lon="-8.0288267"><ele>747.25</ele><time>2026-04-01T10:20:35.811Z</time></trkpt><trkpt lat="41.989115" lon="-8.02898"><ele>746.5</ele><time>2026-04-01T10:20:36.81Z</time></trkpt><trkpt lat="41.9891083" lon="-8.0291517"><ele>745.75</ele><time>2026-04-01T10:20:37.809Z</time></trkpt><trkpt lat="41.989125" lon="-8.0293133"><ele>745.0</ele><time>2026-04-01T10:20:38.811Z</time></trkpt><trkpt lat="41.9891633" lon="-8.0294617"><ele>741.75</ele><time>2026-04-01T10:20:39.809Z</time></trkpt><trkpt lat="41.9892217" lon="-8.0295867"><ele>738.5</ele><time>2026-04-01T10:20:40.809Z</time></trkpt><trkpt lat="41.9892983" lon="-8.029695"><ele>735.25</ele><time>2026-04-01T10:20:41.809Z</time></trkpt><trkpt lat="41.9894" lon="-8.02979"><ele>732.0</ele><time>2026-04-01T10:20:42.809Z</time></trkpt><trkpt lat="41.9895183" lon="-8.029885"><ele>732.0</ele><time>2026-04-01T10:20:43.809Z</time></trkpt><trkpt lat="41.9896367" lon="-8.0299717"><ele>732.0</ele><time>2026-04-01T10:20:44.81Z</time></trkpt><trkpt lat="41.9897517" lon="-8.03006"><ele>732.0</ele><time>2026-04-01T10:20:45.809Z</time></trkpt><trkpt lat="41.98986" lon="-8.0301517"><ele>732.0</ele><time>2026-04-01T10:20:46.809Z</time></trkpt><trkpt lat="41.9899633" lon="-8.0302433"><ele>729.8</ele><time>2026-04-01T10:20:47.809Z</time></trkpt><trkpt lat="41.9900567" lon="-8.0303417"><ele>727.6</ele><time>2026-04-01T10:20:48.81Z</time></trkpt><trkpt lat="41.990135" lon="-8.0304567"><ele>725.4</ele><time>2026-04-01T10:20:49.809Z</time></trkpt><trkpt lat="41.9901983" lon="-8.03058"><ele>723.1999999999999</ele><time>2026-04-01T10:20:50.81Z</time></trkpt><trkpt lat="41.9902483" lon="-8.0306967"><ele>721.0</ele><time>2026-04-01T10:20:51.811Z</time></trkpt><trkpt lat="41.9902683" lon="-8.03083"><ele>719.25</ele><time>2026-04-01T10:20:52.811Z</time></trkpt><trkpt lat="41.9902417" lon="-8.03099"><ele>717.5</ele><time>2026-04-01T10:20:53.81Z</time></trkpt><trkpt lat="41.9901967" lon="-8.031155"><ele>715.75</ele><time>2026-04-01T10:20:54.81Z</time></trkpt><trkpt lat="41.9901517" lon="-8.031305"><ele>714.0</ele><time>2026-04-01T10:20:55.809Z</time></trkpt><trkpt lat="41.9901033" lon="-8.0314383"><ele>714.0</ele><time>2026-04-01T10:20:56.809Z</time></trkpt><trkpt lat="41.9900567" lon="-8.03156"><ele>714.0</ele><time>2026-04-01T10:20:57.81Z</time></trkpt><trkpt lat="41.9900133" lon="-8.0316717"><ele>714.0</ele><time>2026-04-01T10:20:58.813Z</time></trkpt><trkpt lat="41.9899833" lon="-8.0317667"><ele>714.0</ele><time>2026-04-01T10:20:59.811Z</time></trkpt><trkpt lat="41.9899467" lon="-8.031875"><ele>714.0</ele><time>2026-04-01T10:21:00.813Z</time></trkpt><trkpt lat="41.9899133" lon="-8.0319817"><ele>714.0</ele><time>2026-04-01T10:21:01.813Z</time></trkpt><trkpt lat="41.9898783" lon="-8.03209"><ele>712.3333333333334</ele><time>2026-04-01T10:21:02.84Z</time></trkpt><trkpt lat="41.989845" lon="-8.0321967"><ele>710.6666666666666</ele><time>2026-04-01T10:21:03.81Z</time></trkpt><trkpt lat="41.98981" lon="-8.0323"><ele>709.0</ele><time>2026-04-01T10:21:04.81Z</time></trkpt><trkpt lat="41.9897717" lon="-8.0324"><ele>707.3333333333333</ele><time>2026-04-01T10:21:05.809Z</time></trkpt><trkpt lat="41.9897283" lon="-8.0325017"><ele>705.6666666666666</ele><time>2026-04-01T10:21:06.813Z</time></trkpt><trkpt lat="41.9896867" lon="-8.03261"><ele>704.0</ele><time>2026-04-01T10:21:07.812Z</time></trkpt><trkpt lat="41.98964" lon="-8.0327317"><ele>703.5</ele><time>2026-04-01T10:21:08.813Z</time></trkpt><trkpt lat="41.989595" lon="-8.0328717"><ele>703.0</ele><time>2026-04-01T10:21:09.81Z</time></trkpt><trkpt lat="41.9895467" lon="-8.0330233"><ele>702.5</ele><time>2026-04-01T10:21:10.811Z</time></trkpt><trkpt lat="41.9894883" lon="-8.0331867"><ele>702.0</ele><time>2026-04-01T10:21:11.809Z</time></trkpt><trkpt lat="41.9894267" lon="-8.033355"><ele>700.0</ele><time>2026-04-01T10:21:12.811Z</time></trkpt><trkpt lat="41.98937" lon="-8.0335217"><ele>698.0</ele><time>2026-04-01T10:21:13.811Z</time></trkpt><trkpt lat="41.989315" lon="-8.0336817"><ele>696.0</ele><time>2026-04-01T10:21:14.81Z</time></trkpt><trkpt lat="41.989265" lon="-8.03383"><ele>694.0</ele><time>2026-04-01T10:21:15.81Z</time></trkpt><trkpt lat="41.989215" lon="-8.03397"><ele>694.0</ele><time>2026-04-01T10:21:16.81Z</time></trkpt><trkpt lat="41.9891683" lon="-8.0341033"><ele>694.0</ele><time>2026-04-01T10:21:17.811Z</time></trkpt><trkpt lat="41.9891183" lon="-8.0342267"><ele>694.0</ele><time>2026-04-01T10:21:18.811Z</time></trkpt><trkpt lat="41.9890717" lon="-8.0343467"><ele>694.0</ele><time>2026-04-01T10:21:19.811Z</time></trkpt><trkpt lat="41.9890267" lon="-8.0344717"><ele>694.0</ele><time>2026-04-01T10:21:20.81Z</time></trkpt><trkpt lat="41.98898" lon="-8.0345983"><ele>693.75</ele><time>2026-04-01T10:21:21.809Z</time></trkpt><trkpt lat="41.9889383" lon="-8.03473"><ele>693.5</ele><time>2026-04-01T10:21:22.812Z</time></trkpt><trkpt lat="41.98885" lon="-8.0349783"><ele>693.25</ele><time>2026-04-01T10:21:24.81Z</time></trkpt><trkpt lat="41.9888017" lon="-8.0351117"><ele>693.0</ele><time>2026-04-01T10:21:25.812Z</time></trkpt><trkpt lat="41.98876" lon="-8.0352417"><ele>693.0</ele><time>2026-04-01T10:21:26.81Z</time></trkpt><trkpt lat="41.9887133" lon="-8.03537"><ele>693.0</ele><time>2026-04-01T10:21:27.809Z</time></trkpt><trkpt lat="41.9886717" lon="-8.03551"><ele>693.0</ele><time>2026-04-01T10:21:28.809Z</time></trkpt><trkpt lat="41.9886183" lon="-8.0356633"><ele>693.0</ele><time>2026-04-01T10:21:29.81Z</time></trkpt><trkpt lat="41.9885633" lon="-8.035825"><ele>692.75</ele><time>2026-04-01T10:21:30.809Z</time></trkpt><trkpt lat="41.988505" lon="-8.0359867"><ele>692.5</ele><time>2026-04-01T10:21:31.809Z</time></trkpt><trkpt lat="41.9884467" lon="-8.0361467"><ele>692.25</ele><time>2026-04-01T10:21:32.811Z</time></trkpt><trkpt lat="41.9883833" lon="-8.03631"><ele>692.0</ele><time>2026-04-01T10:21:33.809Z</time></trkpt><trkpt lat="41.98833" lon="-8.0364767"><ele>691.25</ele><time>2026-04-01T10:21:34.813Z</time></trkpt><trkpt lat="41.98828" lon="-8.03664"><ele>690.5</ele><time>2026-04-01T10:21:35.809Z</time></trkpt><trkpt lat="41.9882267" lon="-8.0368033"><ele>689.75</ele><time>2026-04-01T10:21:36.809Z</time></trkpt><trkpt lat="41.9881767" lon="-8.036965"><ele>689.0</ele><time>2026-04-01T10:21:37.812Z</time></trkpt><trkpt lat="41.98813" lon="-8.03712"><ele>689.0</ele><time>2026-04-01T10:21:38.813Z</time></trkpt><trkpt lat="41.988085" lon="-8.0372617"><ele>689.0</ele><time>2026-04-01T10:21:39.809Z</time></trkpt><trkpt lat="41.9880417" lon="-8.0373933"><ele>689.0</ele><time>2026-04-01T10:21:40.81Z</time></trkpt><trkpt lat="41.9879933" lon="-8.03752"><ele>689.0</ele><time>2026-04-01T10:21:41.81Z</time></trkpt><trkpt lat="41.9879533" lon="-8.037655"><ele>689.0</ele><time>2026-04-01T10:21:42.809Z</time></trkpt><trkpt lat="41.98791" lon="-8.0377933"><ele>689.0</ele><time>2026-04-01T10:21:43.81Z</time></trkpt><trkpt lat="41.9878467" lon="-8.0379283"><ele>689.0</ele><time>2026-04-01T10:21:44.809Z</time></trkpt><trkpt lat="41.987765" lon="-8.0380583"><ele>689.0</ele><time>2026-04-01T10:21:45.809Z</time></trkpt><trkpt lat="41.98767" lon="-8.038185"><ele>689.0</ele><time>2026-04-01T10:21:46.811Z</time></trkpt><trkpt lat="41.9875633" lon="-8.0383033"><ele>689.75</ele><time>2026-04-01T10:21:47.81Z</time></trkpt><trkpt lat="41.98745" lon="-8.038415"><ele>690.5</ele><time>2026-04-01T10:21:48.811Z</time></trkpt><trkpt lat="41.98734" lon="-8.038515"><ele>691.25</ele><time>2026-04-01T10:21:49.81Z</time></trkpt><trkpt lat="41.98724" lon="-8.03861"><ele>692.0</ele><time>2026-04-01T10:21:50.809Z</time></trkpt><trkpt lat="41.9871533" lon="-8.0386983"><ele>692.0</ele><time>2026-04-01T10:21:51.809Z</time></trkpt><trkpt lat="41.9870633" lon="-8.038795"><ele>692.0</ele><time>2026-04-01T10:21:52.809Z</time></trkpt><trkpt lat="41.9869883" lon="-8.0388933"><ele>692.0</ele><time>2026-04-01T10:21:53.809Z</time></trkpt><trkpt lat="41.9869267" lon="-8.038985"><ele>692.0</ele><time>2026-04-01T10:21:54.809Z</time></trkpt><trkpt lat="41.9868767" lon="-8.03907"><ele>692.0</ele><time>2026-04-01T10:21:55.811Z</time></trkpt><trkpt lat="41.98681" lon="-8.039175"><ele>691.8333333333333</ele><time>2026-04-01T10:21:57.809Z</time></trkpt><trkpt lat="41.9867267" lon="-8.0391733"><ele>691.6666666666666</ele><time>2026-04-01T10:22:01.809Z</time></trkpt><trkpt lat="41.986655" lon="-8.0390683"><ele>691.5</ele><time>2026-04-01T10:22:03.809Z</time></trkpt><trkpt lat="41.9866133" lon="-8.0389583"><ele>691.3333333333334</ele><time>2026-04-01T10:22:05.81Z</time></trkpt><trkpt lat="41.9865583" lon="-8.0390567"><ele>691.1666666666667</ele><time>2026-04-01T10:29:33.808Z</time></trkpt><trkpt lat="41.98659" lon="-8.0391467"><ele>691.0</ele><time>2026-04-01T10:29:35.809Z</time></trkpt><trkpt lat="41.98665" lon="-8.0392183"><ele>691.1999999999999</ele><time>2026-04-01T10:29:38.809Z</time></trkpt><trkpt lat="41.98672" lon="-8.03918"><ele>691.4</ele><time>2026-04-01T10:29:53.809Z</time></trkpt><trkpt lat="41.9867833" lon="-8.039085"><ele>691.6</ele><time>2026-04-01T10:29:55.809Z</time></trkpt><trkpt lat="41.98685" lon="-8.0389683"><ele>691.8</ele><time>2026-04-01T10:29:57.808Z</time></trkpt><trkpt lat="41.986935" lon="-8.0388483"><ele>692.0</ele><time>2026-04-01T10:29:59.809Z</time></trkpt><trkpt lat="41.986985" lon="-8.0387933"><ele>692.0</ele><time>2026-04-01T10:30:00.809Z</time></trkpt><trkpt lat="41.9870367" lon="-8.0387383"><ele>692.0</ele><time>2026-04-01T10:30:01.81Z</time></trkpt><trkpt lat="41.9870967" lon="-8.0386833"><ele>692.0</ele><time>2026-04-01T10:30:02.81Z</time></trkpt><trkpt lat="41.98716" lon="-8.038625"><ele>692.0</ele><time>2026-04-01T10:30:03.809Z</time></trkpt><trkpt lat="41.9872217" lon="-8.03856"><ele>692.0</ele><time>2026-04-01T10:30:04.809Z</time></trkpt><trkpt lat="41.987285" lon="-8.0384983"><ele>692.0</ele><time>2026-04-01T10:30:05.809Z</time></trkpt><trkpt lat="41.9873517" lon="-8.0384383"><ele>692.0</ele><time>2026-04-01T10:30:06.808Z</time></trkpt><trkpt lat="41.9874183" lon="-8.0383817"><ele>692.0</ele><time>2026-04-01T10:30:07.81Z</time></trkpt><trkpt lat="41.9874817" lon="-8.0383267"><ele>692.0</ele><time>2026-04-01T10:30:08.81Z</time></trkpt><trkpt lat="41.98754" lon="-8.0382733"><ele>692.0</ele><time>2026-04-01T10:30:09.809Z</time></trkpt><trkpt lat="41.98759" lon="-8.0382217"><ele>692.0</ele><time>2026-04-01T10:30:10.809Z</time></trkpt><trkpt lat="41.98764" lon="-8.0381683"><ele>692.0</ele><time>2026-04-01T10:30:11.809Z</time></trkpt><trkpt lat="41.9877317" lon="-8.0380583"><ele>691.3333333333333</ele><time>2026-04-01T10:30:13.809Z</time></trkpt><trkpt lat="41.98778" lon="-8.03799"><ele>690.6666666666666</ele><time>2026-04-01T10:30:14.809Z</time></trkpt><trkpt lat="41.987825" lon="-8.03791"><ele>690.0</ele><time>2026-04-01T10:30:15.809Z</time></trkpt><trkpt lat="41.9878683" lon="-8.0378233"><ele>689.3333333333334</ele><time>2026-04-01T10:30:16.808Z</time></trkpt><trkpt lat="41.98791" lon="-8.037725"><ele>688.6666666666667</ele><time>2026-04-01T10:30:17.809Z</time></trkpt><trkpt lat="41.9879467" lon="-8.0376233"><ele>688.0</ele><time>2026-04-01T10:30:18.809Z</time></trkpt><trkpt lat="41.98798" lon="-8.03752"><ele>688.1666666666667</ele><time>2026-04-01T10:30:19.809Z</time></trkpt><trkpt lat="41.9880117" lon="-8.0374133"><ele>688.3333333333334</ele><time>2026-04-01T10:30:20.81Z</time></trkpt><trkpt lat="41.9880383" lon="-8.0373067"><ele>688.5</ele><time>2026-04-01T10:30:21.81Z</time></trkpt><trkpt lat="41.9880683" lon="-8.0371983"><ele>688.6666666666666</ele><time>2026-04-01T10:30:22.809Z</time></trkpt><trkpt lat="41.9881" lon="-8.03709"><ele>688.8333333333333</ele><time>2026-04-01T10:30:23.809Z</time></trkpt><trkpt lat="41.988135" lon="-8.0369783"><ele>689.0</ele><time>2026-04-01T10:30:24.809Z</time></trkpt><trkpt lat="41.9881683" lon="-8.0368683"><ele>689.0</ele><time>2026-04-01T10:30:25.809Z</time></trkpt><trkpt lat="41.9882017" lon="-8.03676"><ele>689.0</ele><time>2026-04-01T10:30:26.809Z</time></trkpt><trkpt lat="41.9882383" lon="-8.0366467"><ele>689.0</ele><time>2026-04-01T10:30:27.808Z</time></trkpt><trkpt lat="41.9882717" lon="-8.0365283"><ele>689.0</ele><time>2026-04-01T10:30:28.809Z</time></trkpt><trkpt lat="41.9883067" lon="-8.0364133"><ele>689.0</ele><time>2026-04-01T10:30:29.809Z</time></trkpt><trkpt lat="41.9883467" lon="-8.0362967"><ele>688.8000000000001</ele><time>2026-04-01T10:30:30.809Z</time></trkpt><trkpt lat="41.988385" lon="-8.03618"><ele>688.6</ele><time>2026-04-01T10:30:31.809Z</time></trkpt><trkpt lat="41.9884217" lon="-8.0360667"><ele>688.4</ele><time>2026-04-01T10:30:32.81Z</time></trkpt><trkpt lat="41.988455" lon="-8.0359517"><ele>688.2</ele><time>2026-04-01T10:30:33.809Z</time></trkpt><trkpt lat="41.9884933" lon="-8.0358367"><ele>688.0</ele><time>2026-04-01T10:30:34.809Z</time></trkpt><trkpt lat="41.9885333" lon="-8.0357217"><ele>689.0</ele><time>2026-04-01T10:30:35.81Z</time></trkpt><trkpt lat="41.9885767" lon="-8.0356067"><ele>690.0</ele><time>2026-04-01T10:30:36.809Z</time></trkpt><trkpt lat="41.9886183" lon="-8.03549"><ele>691.0</ele><time>2026-04-01T10:30:37.809Z</time></trkpt><trkpt lat="41.9886617" lon="-8.0353783"><ele>692.0</ele><time>2026-04-01T10:30:38.81Z</time></trkpt><trkpt lat="41.9887033" lon="-8.0352733"><ele>693.0</ele><time>2026-04-01T10:30:39.809Z</time></trkpt><trkpt lat="41.988745" lon="-8.035175"><ele>693.0</ele><time>2026-04-01T10:30:40.809Z</time></trkpt><trkpt lat="41.9887833" lon="-8.0350767"><ele>693.0</ele><time>2026-04-01T10:30:41.81Z</time></trkpt><trkpt lat="41.9888167" lon="-8.0349733"><ele>693.0</ele><time>2026-04-01T10:30:42.81Z</time></trkpt><trkpt lat="41.9888517" lon="-8.03487"><ele>693.0</ele><time>2026-04-01T10:30:43.809Z</time></trkpt><trkpt lat="41.988885" lon="-8.0347667"><ele>693.0</ele><time>2026-04-01T10:30:44.81Z</time></trkpt><trkpt lat="41.98892" lon="-8.0346667"><ele>693.0</ele><time>2026-04-01T10:30:45.809Z</time></trkpt><trkpt lat="41.9889583" lon="-8.0345633"><ele>693.0</ele><time>2026-04-01T10:30:46.809Z</time></trkpt><trkpt lat="41.9889933" lon="-8.0344583"><ele>693.0</ele><time>2026-04-01T10:30:47.809Z</time></trkpt><trkpt lat="41.98903" lon="-8.0343517"><ele>693.0</ele><time>2026-04-01T10:30:48.809Z</time></trkpt><trkpt lat="41.9890717" lon="-8.0342417"><ele>693.0</ele><time>2026-04-01T10:30:49.81Z</time></trkpt><trkpt lat="41.98911" lon="-8.0341367"><ele>693.0</ele><time>2026-04-01T10:30:50.81Z</time></trkpt><trkpt lat="41.9891483" lon="-8.0340267"><ele>693.0</ele><time>2026-04-01T10:30:51.81Z</time></trkpt><trkpt lat="41.9891883" lon="-8.0339183"><ele>693.2</ele><time>2026-04-01T10:30:52.809Z</time></trkpt><trkpt lat="41.989225" lon="-8.0338117"><ele>693.4</ele><time>2026-04-01T10:30:53.81Z</time></trkpt><trkpt lat="41.9892667" lon="-8.0337"><ele>693.6</ele><time>2026-04-01T10:30:54.81Z</time></trkpt><trkpt lat="41.98931" lon="-8.033585"><ele>693.8000000000001</ele><time>2026-04-01T10:30:55.81Z</time></trkpt><trkpt lat="41.9893533" lon="-8.033475"><ele>694.0</ele><time>2026-04-01T10:30:56.81Z</time></trkpt><trkpt lat="41.9893933" lon="-8.0333717"><ele>695.6</ele><time>2026-04-01T10:30:57.809Z</time></trkpt><trkpt lat="41.9894317" lon="-8.033265"><ele>697.2</ele><time>2026-04-01T10:30:58.809Z</time></trkpt><trkpt lat="41.9894683" lon="-8.033155"><ele>698.8000000000001</ele><time>2026-04-01T10:30:59.809Z</time></trkpt><trkpt lat="41.98951" lon="-8.0330433"><ele>700.4000000000001</ele><time>2026-04-01T10:31:00.809Z</time></trkpt><trkpt lat="41.9895517" lon="-8.03293"><ele>702.0</ele><time>2026-04-01T10:31:01.81Z</time></trkpt><trkpt lat="41.9895917" lon="-8.0328133"><ele>702.0</ele><time>2026-04-01T10:31:02.81Z</time></trkpt><trkpt lat="41.989635" lon="-8.0326967"><ele>702.0</ele><time>2026-04-01T10:31:03.809Z</time></trkpt><trkpt lat="41.9896733" lon="-8.0325933"><ele>702.0</ele><time>2026-04-01T10:31:04.81Z</time></trkpt><trkpt lat="41.9897083" lon="-8.0324967"><ele>702.0</ele><time>2026-04-01T10:31:05.81Z</time></trkpt><trkpt lat="41.98974" lon="-8.03242"><ele>702.0</ele><time>2026-04-01T10:31:06.809Z</time></trkpt><trkpt lat="41.9898033" lon="-8.032315"><ele>702.0</ele><time>2026-04-01T10:31:08.81Z</time></trkpt><trkpt lat="41.989905" lon="-8.032345"><ele>702.1666666666666</ele><time>2026-04-01T10:31:10.809Z</time></trkpt><trkpt lat="41.98996" lon="-8.032405"><ele>702.3333333333334</ele><time>2026-04-01T10:31:11.809Z</time></trkpt><trkpt lat="41.990015" lon="-8.03247"><ele>702.5</ele><time>2026-04-01T10:31:12.809Z</time></trkpt><trkpt lat="41.9900683" lon="-8.0325233"><ele>702.6666666666667</ele><time>2026-04-01T10:31:13.809Z</time></trkpt><trkpt lat="41.9901367" lon="-8.0325617"><ele>702.8333333333334</ele><time>2026-04-01T10:31:14.809Z</time></trkpt><trkpt lat="41.990215" lon="-8.0325867"><ele>703.0</ele><time>2026-04-01T10:31:15.809Z</time></trkpt><trkpt lat="41.9903017" lon="-8.0325933"><ele>703.0</ele><time>2026-04-01T10:31:16.809Z</time></trkpt><trkpt lat="41.990395" lon="-8.0325733"><ele>703.0</ele><time>2026-04-01T10:31:17.81Z</time></trkpt><trkpt lat="41.9904917" lon="-8.0325467"><ele>703.0</ele><time>2026-04-01T10:31:18.809Z</time></trkpt><trkpt lat="41.99059" lon="-8.0325217"><ele>703.0</ele><time>2026-04-01T10:31:19.81Z</time></trkpt><trkpt lat="41.9906917" lon="-8.032495"><ele>703.0</ele><time>2026-04-01T10:31:20.811Z</time></trkpt><trkpt lat="41.9907967" lon="-8.0324633"><ele>704.0</ele><time>2026-04-01T10:31:21.809Z</time></trkpt><trkpt lat="41.990905" lon="-8.0324317"><ele>705.0</ele><time>2026-04-01T10:31:22.811Z</time></trkpt><trkpt lat="41.9910167" lon="-8.032395"><ele>706.0</ele><time>2026-04-01T10:31:23.81Z</time></trkpt><trkpt lat="41.9911333" lon="-8.0323583"><ele>707.0</ele><time>2026-04-01T10:31:24.809Z</time></trkpt><trkpt lat="41.9912533" lon="-8.032315"><ele>707.0</ele><time>2026-04-01T10:31:25.81Z</time></trkpt><trkpt lat="41.991365" lon="-8.03227"><ele>707.0</ele><time>2026-04-01T10:31:26.81Z</time></trkpt><trkpt lat="41.99147" lon="-8.032215"><ele>707.0</ele><time>2026-04-01T10:31:27.81Z</time></trkpt><trkpt lat="41.991565" lon="-8.0321567"><ele>707.0</ele><time>2026-04-01T10:31:28.81Z</time></trkpt><trkpt lat="41.9916533" lon="-8.0320867"><ele>707.0</ele><time>2026-04-01T10:31:29.809Z</time></trkpt><trkpt lat="41.9917383" lon="-8.032005"><ele>709.0</ele><time>2026-04-01T10:31:30.81Z</time></trkpt><trkpt lat="41.99183" lon="-8.0319117"><ele>711.0</ele><time>2026-04-01T10:31:31.809Z</time></trkpt><trkpt lat="41.991925" lon="-8.0318067"><ele>713.0</ele><time>2026-04-01T10:31:32.81Z</time></trkpt><trkpt lat="41.9920233" lon="-8.0316983"><ele>715.0</ele><time>2026-04-01T10:31:33.81Z</time></trkpt><trkpt lat="41.992125" lon="-8.0315883"><ele>715.0</ele><time>2026-04-01T10:31:34.809Z</time></trkpt><trkpt lat="41.9922283" lon="-8.0314767"><ele>715.0</ele><time>2026-04-01T10:31:35.809Z</time></trkpt><trkpt lat="41.9923317" lon="-8.03137"><ele>715.0</ele><time>2026-04-01T10:31:36.809Z</time></trkpt><trkpt lat="41.99243" lon="-8.0312633"><ele>715.0</ele><time>2026-04-01T10:31:37.81Z</time></trkpt><trkpt lat="41.9925333" lon="-8.0311483"><ele>713.25</ele><time>2026-04-01T10:31:38.809Z</time></trkpt><trkpt lat="41.992635" lon="-8.0310267"><ele>711.5</ele><time>2026-04-01T10:31:39.809Z</time></trkpt><trkpt lat="41.9927383" lon="-8.030905"><ele>709.75</ele><time>2026-04-01T10:31:40.81Z</time></trkpt><trkpt lat="41.9928467" lon="-8.0307867"><ele>708.0</ele><time>2026-04-01T10:31:41.81Z</time></trkpt><trkpt lat="41.99296" lon="-8.030675"><ele>711.25</ele><time>2026-04-01T10:31:42.81Z</time></trkpt><trkpt lat="41.993075" lon="-8.0305717"><ele>714.5</ele><time>2026-04-01T10:31:43.809Z</time></trkpt><trkpt lat="41.9931983" lon="-8.0305017"><ele>717.75</ele><time>2026-04-01T10:31:44.811Z</time></trkpt><trkpt lat="41.9933267" lon="-8.030455"><ele>721.0</ele><time>2026-04-01T10:31:45.809Z</time></trkpt><trkpt lat="41.993455" lon="-8.0304217"><ele>721.0</ele><time>2026-04-01T10:31:46.811Z</time></trkpt><trkpt lat="41.993575" lon="-8.030395"><ele>721.0</ele><time>2026-04-01T10:31:47.809Z</time></trkpt><trkpt lat="41.9936883" lon="-8.03037"><ele>721.0</ele><time>2026-04-01T10:31:48.81Z</time></trkpt><trkpt lat="41.9938033" lon="-8.0303217"><ele>721.0</ele><time>2026-04-01T10:31:49.812Z</time></trkpt><trkpt lat="41.99392" lon="-8.03027"><ele>721.0</ele><time>2026-04-01T10:31:50.809Z</time></trkpt><trkpt lat="41.994035" lon="-8.0302217"><ele>721.0</ele><time>2026-04-01T10:31:51.809Z</time></trkpt><trkpt lat="41.9941483" lon="-8.0301733"><ele>721.0</ele><time>2026-04-01T10:31:52.809Z</time></trkpt><trkpt lat="41.9942667" lon="-8.0301117"><ele>721.0</ele><time>2026-04-01T10:31:53.81Z</time></trkpt><trkpt lat="41.99438" lon="-8.0300533"><ele>722.75</ele><time>2026-04-01T10:31:54.81Z</time></trkpt><trkpt lat="41.994495" lon="-8.0299967"><ele>724.5</ele><time>2026-04-01T10:31:55.809Z</time></trkpt><trkpt lat="41.9946167" lon="-8.0299333"><ele>726.25</ele><time>2026-04-01T10:31:56.811Z</time></trkpt><trkpt lat="41.9947333" lon="-8.02986"><ele>728.0</ele><time>2026-04-01T10:31:57.809Z</time></trkpt><trkpt lat="41.994845" lon="-8.0297883"><ele>728.0</ele><time>2026-04-01T10:31:58.809Z</time></trkpt><trkpt lat="41.9949567" lon="-8.029725"><ele>728.0</ele><time>2026-04-01T10:31:59.809Z</time></trkpt><trkpt lat="41.995065" lon="-8.0296583"><ele>728.0</ele><time>2026-04-01T10:32:00.809Z</time></trkpt><trkpt lat="41.995175" lon="-8.0295883"><ele>728.0</ele><time>2026-04-01T10:32:01.809Z</time></trkpt><trkpt lat="41.99528" lon="-8.029505"><ele>729.5</ele><time>2026-04-01T10:32:02.813Z</time></trkpt><trkpt lat="41.9953883" lon="-8.0294083"><ele>731.0</ele><time>2026-04-01T10:32:03.809Z</time></trkpt><trkpt lat="41.9954967" lon="-8.029305"><ele>732.5</ele><time>2026-04-01T10:32:04.809Z</time></trkpt><trkpt lat="41.9956017" lon="-8.0292033"><ele>734.0</ele><time>2026-04-01T10:32:05.812Z</time></trkpt><trkpt lat="41.9957017" lon="-8.0290967"><ele>734.0</ele><time>2026-04-01T10:32:06.808Z</time></trkpt><trkpt lat="41.9957983" lon="-8.029"><ele>734.0</ele><time>2026-04-01T10:32:07.808Z</time></trkpt><trkpt lat="41.9958983" lon="-8.0289"><ele>734.0</ele><time>2026-04-01T10:32:08.808Z</time></trkpt><trkpt lat="41.99599" lon="-8.0288083"><ele>734.0</ele><time>2026-04-01T10:32:09.808Z</time></trkpt><trkpt lat="41.9960817" lon="-8.0287167"><ele>733.0</ele><time>2026-04-01T10:32:10.809Z</time></trkpt><trkpt lat="41.9961783" lon="-8.028615"><ele>732.0</ele><time>2026-04-01T10:32:11.808Z</time></trkpt><trkpt lat="41.9962717" lon="-8.0285067"><ele>731.0</ele><time>2026-04-01T10:32:12.812Z</time></trkpt><trkpt lat="41.99637" lon="-8.0284017"><ele>730.0</ele><time>2026-04-01T10:32:13.812Z</time></trkpt><trkpt lat="41.99647" lon="-8.0282933"><ele>730.0</ele><time>2026-04-01T10:32:14.815Z</time></trkpt><trkpt lat="41.99665" lon="-8.02805"><ele>730.0</ele><time>2026-04-01T10:32:16.807Z</time></trkpt><trkpt lat="41.9967383" lon="-8.027925"><ele>730.0</ele><time>2026-04-01T10:32:17.808Z</time></trkpt><trkpt lat="41.9968317" lon="-8.027805"><ele>730.5</ele><time>2026-04-01T10:32:18.808Z</time></trkpt><trkpt lat="41.9969183" lon="-8.0276867"><ele>731.0</ele><time>2026-04-01T10:32:19.808Z</time></trkpt><trkpt lat="41.997" lon="-8.0275667"><ele>731.5</ele><time>2026-04-01T10:32:20.811Z</time></trkpt><trkpt lat="41.9970867" lon="-8.0274417"><ele>732.0</ele><time>2026-04-01T10:32:21.811Z</time></trkpt><trkpt lat="41.9971733" lon="-8.0273183"><ele>732.0</ele><time>2026-04-01T10:32:22.808Z</time></trkpt><trkpt lat="41.9972583" lon="-8.027205"><ele>732.0</ele><time>2026-04-01T10:32:23.811Z</time></trkpt><trkpt lat="41.9973467" lon="-8.02709"><ele>732.0</ele><time>2026-04-01T10:32:24.811Z</time></trkpt><trkpt lat="41.9974367" lon="-8.0269783"><ele>732.0</ele><time>2026-04-01T10:32:25.813Z</time></trkpt><trkpt lat="41.9975183" lon="-8.0268633"><ele>731.75</ele><time>2026-04-01T10:32:26.812Z</time></trkpt><trkpt lat="41.9976" lon="-8.0267533"><ele>731.5</ele><time>2026-04-01T10:32:27.808Z</time></trkpt><trkpt lat="41.9976767" lon="-8.0266433"><ele>731.25</ele><time>2026-04-01T10:32:28.811Z</time></trkpt><trkpt lat="41.9977567" lon="-8.0265417"><ele>731.0</ele><time>2026-04-01T10:32:29.811Z</time></trkpt><trkpt lat="41.99784" lon="-8.02644"><ele>731.0</ele><time>2026-04-01T10:32:30.812Z</time></trkpt><trkpt lat="41.99792" lon="-8.026335"><ele>731.0</ele><time>2026-04-01T10:32:31.811Z</time></trkpt><trkpt lat="41.998" lon="-8.0262283"><ele>731.0</ele><time>2026-04-01T10:32:32.811Z</time></trkpt><trkpt lat="41.998065" lon="-8.0261233"><ele>731.0</ele><time>2026-04-01T10:32:33.811Z</time></trkpt><trkpt lat="41.9981017" lon="-8.02603"><ele>731.0</ele><time>2026-04-01T10:32:34.811Z</time></trkpt><trkpt lat="41.9981333" lon="-8.0259183"><ele>730.8</ele><time>2026-04-01T10:32:35.812Z</time></trkpt><trkpt lat="41.9981683" lon="-8.025805"><ele>730.5999999999999</ele><time>2026-04-01T10:32:36.812Z</time></trkpt><trkpt lat="41.998225" lon="-8.025695"><ele>730.4</ele><time>2026-04-01T10:32:37.808Z</time></trkpt><trkpt lat="41.9982983" lon="-8.0255833"><ele>730.2</ele><time>2026-04-01T10:32:38.81Z</time></trkpt><trkpt lat="41.99838" lon="-8.0254667"><ele>730.0</ele><time>2026-04-01T10:32:39.812Z</time></trkpt><trkpt lat="41.9984617" lon="-8.025355"><ele>730.0</ele><time>2026-04-01T10:32:40.809Z</time></trkpt><trkpt lat="41.99855" lon="-8.0252417"><ele>730.0</ele><time>2026-04-01T10:32:41.809Z</time></trkpt><trkpt lat="41.998635" lon="-8.0251567"><ele>730.0</ele><time>2026-04-01T10:32:42.811Z</time></trkpt><trkpt lat="41.998715" lon="-8.0250783"><ele>730.0</ele><time>2026-04-01T10:32:43.811Z</time></trkpt><trkpt lat="41.998775" lon="-8.0249967"><ele>730.0</ele><time>2026-04-01T10:32:44.812Z</time></trkpt><trkpt lat="41.9988133" lon="-8.02491"><ele>731.3333333333334</ele><time>2026-04-01T10:32:45.811Z</time></trkpt><trkpt lat="41.9988333" lon="-8.0248"><ele>732.6666666666667</ele><time>2026-04-01T10:32:46.811Z</time></trkpt><trkpt lat="41.9988567" lon="-8.0247"><ele>734.0</ele><time>2026-04-01T10:32:47.811Z</time></trkpt><trkpt lat="41.9988883" lon="-8.024615"><ele>735.3333333333334</ele><time>2026-04-01T10:32:48.812Z</time></trkpt><trkpt lat="41.998935" lon="-8.02454"><ele>736.6666666666666</ele><time>2026-04-01T10:32:49.808Z</time></trkpt><trkpt lat="41.9990483" lon="-8.024485"><ele>738.0</ele><time>2026-04-01T10:32:51.808Z</time></trkpt><trkpt lat="41.9991883" lon="-8.0245083"><ele>738.0</ele><time>2026-04-01T10:32:53.809Z</time></trkpt><trkpt lat="41.9992683" lon="-8.0245133"><ele>738.0</ele><time>2026-04-01T10:32:54.809Z</time></trkpt><trkpt lat="41.99935" lon="-8.024525"><ele>738.0</ele><time>2026-04-01T10:32:55.81Z</time></trkpt><trkpt lat="41.999415" lon="-8.02452"><ele>738.0</ele><time>2026-04-01T10:32:56.809Z</time></trkpt><trkpt lat="41.9995117" lon="-8.02449"><ele>738.0</ele><time>2026-04-01T10:32:58.811Z</time></trkpt><trkpt lat="41.99958" lon="-8.0244667"><ele>738.0</ele><time>2026-04-01T10:33:00.808Z</time></trkpt><trkpt lat="41.9997217" lon="-8.0244217"><ele>738.0</ele><time>2026-04-01T10:33:12.812Z</time></trkpt><trkpt lat="41.999825" lon="-8.0243983"><ele>738.0</ele><time>2026-04-01T10:33:14.808Z</time></trkpt><trkpt lat="41.9998983" lon="-8.024375"><ele>738.0</ele><time>2026-04-01T10:33:15.808Z</time></trkpt><trkpt lat="41.9999817" lon="-8.0243383"><ele>738.0</ele><time>2026-04-01T10:33:16.809Z</time></trkpt><trkpt lat="42.0000717" lon="-8.0242883"><ele>738.0</ele><time>2026-04-01T10:33:17.81Z</time></trkpt><trkpt lat="42.0001517" lon="-8.0242333"><ele>738.0</ele><time>2026-04-01T10:33:18.813Z</time></trkpt><trkpt lat="42.0002283" lon="-8.0241767"><ele>738.0</ele><time>2026-04-01T10:33:19.811Z</time></trkpt><trkpt lat="42.0003017" lon="-8.0241233"><ele>738.0</ele><time>2026-04-01T10:33:20.81Z</time></trkpt><trkpt lat="42.0003667" lon="-8.0240667"><ele>738.0</ele><time>2026-04-01T10:33:21.811Z</time></trkpt><trkpt lat="42.0004217" lon="-8.0240133"><ele>738.0</ele><time>2026-04-01T10:33:22.808Z</time></trkpt><trkpt lat="42.0004717" lon="-8.023955"><ele>738.0</ele><time>2026-04-01T10:33:23.813Z</time></trkpt><trkpt lat="42.000515" lon="-8.0238933"><ele>738.0</ele><time>2026-04-01T10:33:24.811Z</time></trkpt><trkpt lat="42.0005517" lon="-8.0238067"><ele>739.8333333333334</ele><time>2026-04-01T10:33:25.814Z</time></trkpt><trkpt lat="42.0005967" lon="-8.0237"><ele>741.6666666666666</ele><time>2026-04-01T10:33:26.809Z</time></trkpt><trkpt lat="42.0006433" lon="-8.02359"><ele>743.5</ele><time>2026-04-01T10:33:27.808Z</time></trkpt><trkpt lat="42.00069" lon="-8.0234917"><ele>745.3333333333333</ele><time>2026-04-01T10:33:28.808Z</time></trkpt><trkpt lat="42.0007417" lon="-8.0234117"><ele>747.1666666666666</ele><time>2026-04-01T10:33:29.809Z</time></trkpt><trkpt lat="42.0008167" lon="-8.0233583"><ele>749.0</ele><time>2026-04-01T10:33:30.81Z</time></trkpt><trkpt lat="42.0009183" lon="-8.0232883"><ele>749.25</ele><time>2026-04-01T10:33:31.812Z</time></trkpt><trkpt lat="42.0010483" lon="-8.023195"><ele>749.5</ele><time>2026-04-01T10:33:32.809Z</time></trkpt><trkpt lat="42.0011883" lon="-8.0231083"><ele>749.75</ele><time>2026-04-01T10:33:33.809Z</time></trkpt><trkpt lat="42.00131" lon="-8.0230367"><ele>750.0</ele><time>2026-04-01T10:33:34.809Z</time></trkpt><trkpt lat="42.0014133" lon="-8.0229833"><ele>750.0</ele><time>2026-04-01T10:33:35.811Z</time></trkpt><trkpt lat="42.0015" lon="-8.02292"><ele>750.0</ele><time>2026-04-01T10:33:36.811Z</time></trkpt><trkpt lat="42.0015733" lon="-8.0228617"><ele>750.0</ele><time>2026-04-01T10:33:37.809Z</time></trkpt><trkpt lat="42.0016367" lon="-8.022835"><ele>750.0</ele><time>2026-04-01T10:33:38.811Z</time></trkpt><trkpt lat="42.0017017" lon="-8.02282"><ele>750.0</ele><time>2026-04-01T10:33:39.811Z</time></trkpt><trkpt lat="42.001785" lon="-8.022835"><ele>750.0</ele><time>2026-04-01T10:33:40.808Z</time></trkpt><trkpt lat="42.0018933" lon="-8.022875"><ele>748.6</ele><time>2026-04-01T10:33:41.811Z</time></trkpt><trkpt lat="42.00202" lon="-8.0229183"><ele>747.2</ele><time>2026-04-01T10:33:42.81Z</time></trkpt><trkpt lat="42.0021233" lon="-8.022955"><ele>745.8</ele><time>2026-04-01T10:33:43.812Z</time></trkpt><trkpt lat="42.00222" lon="-8.02299"><ele>744.4</ele><time>2026-04-01T10:33:44.809Z</time></trkpt><trkpt lat="42.0023" lon="-8.0230417"><ele>743.0</ele><time>2026-04-01T10:33:45.808Z</time></trkpt><trkpt lat="42.00238" lon="-8.02311"><ele>743.0</ele><time>2026-04-01T10:33:46.808Z</time></trkpt><trkpt lat="42.00247" lon="-8.02323"><ele>743.0</ele><time>2026-04-01T10:33:47.81Z</time></trkpt><trkpt lat="42.0025417" lon="-8.02332"><ele>743.0</ele><time>2026-04-01T10:33:48.81Z</time></trkpt><trkpt lat="42.0026167" lon="-8.0233883"><ele>743.0</ele><time>2026-04-01T10:33:49.809Z</time></trkpt><trkpt lat="42.0027" lon="-8.0234467"><ele>743.0</ele><time>2026-04-01T10:33:50.81Z</time></trkpt><trkpt lat="42.0027917" lon="-8.023505"><ele>741.0</ele><time>2026-04-01T10:33:51.81Z</time></trkpt><trkpt lat="42.0028983" lon="-8.02355"><ele>739.0</ele><time>2026-04-01T10:33:52.808Z</time></trkpt><trkpt lat="42.003005" lon="-8.0235967"><ele>737.0</ele><time>2026-04-01T10:33:53.81Z</time></trkpt><trkpt lat="42.00311" lon="-8.023645"><ele>735.0</ele><time>2026-04-01T10:33:54.812Z</time></trkpt><trkpt lat="42.0032167" lon="-8.0237033"><ele>737.75</ele><time>2026-04-01T10:33:55.808Z</time></trkpt><trkpt lat="42.0033317" lon="-8.0237717"><ele>740.5</ele><time>2026-04-01T10:33:56.812Z</time></trkpt><trkpt lat="42.00345" lon="-8.023815"><ele>743.25</ele><time>2026-04-01T10:33:57.813Z</time></trkpt><trkpt lat="42.0035633" lon="-8.0238417"><ele>746.0</ele><time>2026-04-01T10:33:58.808Z</time></trkpt><trkpt lat="42.0036733" lon="-8.0238683"><ele>746.0</ele><time>2026-04-01T10:33:59.809Z</time></trkpt><trkpt lat="42.003795" lon="-8.0238767"><ele>746.0</ele><time>2026-04-01T10:34:00.812Z</time></trkpt><trkpt lat="42.0039383" lon="-8.0238767"><ele>746.0</ele><time>2026-04-01T10:34:01.808Z</time></trkpt><trkpt lat="42.0040817" lon="-8.02388"><ele>746.0</ele><time>2026-04-01T10:34:02.81Z</time></trkpt><trkpt lat="42.0042217" lon="-8.0238733"><ele>747.75</ele><time>2026-04-01T10:34:03.809Z</time></trkpt><trkpt lat="42.0043483" lon="-8.0238617"><ele>749.5</ele><time>2026-04-01T10:34:04.811Z</time></trkpt><trkpt lat="42.0044833" lon="-8.023835"><ele>751.25</ele><time>2026-04-01T10:34:05.811Z</time></trkpt><trkpt lat="42.0046233" lon="-8.023815"><ele>753.0</ele><time>2026-04-01T10:34:06.81Z</time></trkpt><trkpt lat="42.0047467" lon="-8.0237883"><ele>753.0</ele><time>2026-04-01T10:34:07.811Z</time></trkpt><trkpt lat="42.0048383" lon="-8.023755"><ele>753.0</ele><time>2026-04-01T10:34:08.809Z</time></trkpt><trkpt lat="42.0049167" lon="-8.0237117"><ele>753.0</ele><time>2026-04-01T10:34:09.812Z</time></trkpt><trkpt lat="42.004995" lon="-8.0236617"><ele>753.0</ele><time>2026-04-01T10:34:10.809Z</time></trkpt><trkpt lat="42.00507" lon="-8.0236133"><ele>753.0</ele><time>2026-04-01T10:34:11.811Z</time></trkpt><trkpt lat="42.0051483" lon="-8.0235617"><ele>753.0</ele><time>2026-04-01T10:34:12.809Z</time></trkpt><trkpt lat="42.0052217" lon="-8.0235083"><ele>751.8</ele><time>2026-04-01T10:34:13.808Z</time></trkpt><trkpt lat="42.0053017" lon="-8.0234583"><ele>750.5999999999999</ele><time>2026-04-01T10:34:14.809Z</time></trkpt><trkpt lat="42.0053817" lon="-8.0233783"><ele>749.4000000000001</ele><time>2026-04-01T10:34:15.809Z</time></trkpt><trkpt lat="42.0054717" lon="-8.0232917"><ele>748.2</ele><time>2026-04-01T10:34:16.809Z</time></trkpt><trkpt lat="42.00557" lon="-8.0232017"><ele>747.0</ele><time>2026-04-01T10:34:17.808Z</time></trkpt><trkpt lat="42.0056683" lon="-8.0231217"><ele>749.6</ele><time>2026-04-01T10:34:18.808Z</time></trkpt><trkpt lat="42.00576" lon="-8.0230467"><ele>752.2</ele><time>2026-04-01T10:34:19.81Z</time></trkpt><trkpt lat="42.005855" lon="-8.0229833"><ele>754.8</ele><time>2026-04-01T10:34:20.81Z</time></trkpt><trkpt lat="42.00595" lon="-8.022915"><ele>757.4</ele><time>2026-04-01T10:34:21.809Z</time></trkpt><trkpt lat="42.0060317" lon="-8.0228367"><ele>760.0</ele><time>2026-04-01T10:34:22.808Z</time></trkpt><trkpt lat="42.0061033" lon="-8.0227467"><ele>760.0</ele><time>2026-04-01T10:34:23.809Z</time></trkpt><trkpt lat="42.006165" lon="-8.0226567"><ele>760.0</ele><time>2026-04-01T10:34:24.812Z</time></trkpt><trkpt lat="42.0062217" lon="-8.0225683"><ele>760.0</ele><time>2026-04-01T10:34:25.811Z</time></trkpt><trkpt lat="42.0062683" lon="-8.0224867"><ele>760.0</ele><time>2026-04-01T10:34:26.812Z</time></trkpt><trkpt lat="42.00631" lon="-8.0224117"><ele>760.0</ele><time>2026-04-01T10:34:27.808Z</time></trkpt><trkpt lat="42.006345" lon="-8.0223333"><ele>760.0</ele><time>2026-04-01T10:34:28.809Z</time></trkpt><trkpt lat="42.00642" lon="-8.022215"><ele>760.0</ele><time>2026-04-01T10:34:30.808Z</time></trkpt><trkpt lat="42.0065133" lon="-8.022125"><ele>760.0</ele><time>2026-04-01T10:34:32.811Z</time></trkpt><trkpt lat="42.0066" lon="-8.0221083"><ele>760.0</ele><time>2026-04-01T10:34:34.811Z</time></trkpt><trkpt lat="42.0066783" lon="-8.0221367"><ele>760.0</ele><time>2026-04-01T10:34:36.81Z</time></trkpt><trkpt lat="42.0067533" lon="-8.0221683"><ele>760.0</ele><time>2026-04-01T10:34:38.81Z</time></trkpt><trkpt lat="42.0068433" lon="-8.022175"><ele>760.0</ele><time>2026-04-01T10:34:40.81Z</time></trkpt><trkpt lat="42.006945" lon="-8.0221517"><ele>760.0</ele><time>2026-04-01T10:34:42.81Z</time></trkpt><trkpt lat="42.00704" lon="-8.0221167"><ele>760.0</ele><time>2026-04-01T10:34:44.809Z</time></trkpt><trkpt lat="42.0071417" lon="-8.0220867"><ele>760.0</ele><time>2026-04-01T10:34:47.81Z</time></trkpt><trkpt lat="42.0072333" lon="-8.022015"><ele>760.0</ele><time>2026-04-01T10:34:49.812Z</time></trkpt><trkpt lat="42.007275" lon="-8.0219467"><ele>760.0</ele><time>2026-04-01T10:34:50.81Z</time></trkpt><trkpt lat="42.00732" lon="-8.0218667"><ele>760.0</ele><time>2026-04-01T10:34:51.808Z</time></trkpt><trkpt lat="42.0073633" lon="-8.021765"><ele>760.0</ele><time>2026-04-01T10:34:52.808Z</time></trkpt><trkpt lat="42.0074083" lon="-8.0216617"><ele>760.0</ele><time>2026-04-01T10:34:53.81Z</time></trkpt><trkpt lat="42.0074517" lon="-8.02157"><ele>760.0</ele><time>2026-04-01T10:34:54.81Z</time></trkpt><trkpt lat="42.007495" lon="-8.021505"><ele>760.0</ele><time>2026-04-01T10:34:55.81Z</time></trkpt><trkpt lat="42.0075783" lon="-8.0214667"><ele>760.8</ele><time>2026-04-01T10:34:57.809Z</time></trkpt><trkpt lat="42.0076367" lon="-8.021515"><ele>761.6</ele><time>2026-04-01T10:34:59.809Z</time></trkpt><trkpt lat="42.0076867" lon="-8.021635"><ele>762.4000000000001</ele><time>2026-04-01T10:35:02.812Z</time></trkpt><trkpt lat="42.0077583" lon="-8.0217017"><ele>763.2</ele><time>2026-04-01T10:35:04.808Z</time></trkpt><trkpt lat="42.0078317" lon="-8.0216817"><ele>764.0</ele><time>2026-04-01T10:35:06.81Z</time></trkpt><trkpt lat="42.0079417" lon="-8.02157"><ele>764.0</ele><time>2026-04-01T10:35:08.81Z</time></trkpt><trkpt lat="42.0080383" lon="-8.0214733"><ele>764.0</ele><time>2026-04-01T10:35:09.812Z</time></trkpt><trkpt lat="42.0081517" lon="-8.0213683"><ele>764.0</ele><time>2026-04-01T10:35:10.808Z</time></trkpt><trkpt lat="42.0082667" lon="-8.0212667"><ele>764.0</ele><time>2026-04-01T10:35:11.809Z</time></trkpt><trkpt lat="42.0083667" lon="-8.02119"><ele>763.0</ele><time>2026-04-01T10:35:12.809Z</time></trkpt><trkpt lat="42.008455" lon="-8.0211217"><ele>762.0</ele><time>2026-04-01T10:35:13.809Z</time></trkpt><trkpt lat="42.0085317" lon="-8.0210717"><ele>761.0</ele><time>2026-04-01T10:35:14.809Z</time></trkpt><trkpt lat="42.00861" lon="-8.0210417"><ele>760.0</ele><time>2026-04-01T10:35:15.81Z</time></trkpt><trkpt lat="42.00871" lon="-8.0210417"><ele>759.0</ele><time>2026-04-01T10:35:16.809Z</time></trkpt><trkpt lat="42.00884" lon="-8.0210633"><ele>759.0</ele><time>2026-04-01T10:35:17.809Z</time></trkpt><trkpt lat="42.00898" lon="-8.021115"><ele>759.0</ele><time>2026-04-01T10:35:18.809Z</time></trkpt><trkpt lat="42.0091067" lon="-8.0211717"><ele>759.0</ele><time>2026-04-01T10:35:19.81Z</time></trkpt><trkpt lat="42.0092317" lon="-8.0212333"><ele>759.0</ele><time>2026-04-01T10:35:20.809Z</time></trkpt><trkpt lat="42.0093583" lon="-8.02129"><ele>758.6666666666666</ele><time>2026-04-01T10:35:21.81Z</time></trkpt><trkpt lat="42.0094933" lon="-8.0213317"><ele>758.3333333333333</ele><time>2026-04-01T10:35:22.81Z</time></trkpt><trkpt lat="42.009645" lon="-8.0213467"><ele>758.0</ele><time>2026-04-01T10:35:23.809Z</time></trkpt><trkpt lat="42.0098133" lon="-8.02134"><ele>758.0</ele><time>2026-04-01T10:35:24.809Z</time></trkpt><trkpt lat="42.00998" lon="-8.0213367"><ele>758.0</ele><time>2026-04-01T10:35:25.809Z</time></trkpt><trkpt lat="42.0101217" lon="-8.0213283"><ele>758.0</ele><time>2026-04-01T10:35:26.811Z</time></trkpt><trkpt lat="42.010235" lon="-8.0213233"><ele>758.0</ele><time>2026-04-01T10:35:27.809Z</time></trkpt><trkpt lat="42.0103283" lon="-8.0212967"><ele>758.8333333333333</ele><time>2026-04-01T10:35:28.809Z</time></trkpt><trkpt lat="42.0103983" lon="-8.021245"><ele>759.6666666666666</ele><time>2026-04-01T10:35:29.81Z</time></trkpt><trkpt lat="42.0104567" lon="-8.021185"><ele>760.5</ele><time>2026-04-01T10:35:30.811Z</time></trkpt><trkpt lat="42.0105" lon="-8.02111"><ele>761.3333333333334</ele><time>2026-04-01T10:35:31.809Z</time></trkpt><trkpt lat="42.01056" lon="-8.0209967"><ele>762.1666666666667</ele><time>2026-04-01T10:35:33.81Z</time></trkpt><trkpt lat="42.0106433" lon="-8.020965"><ele>763.0</ele><time>2026-04-01T10:35:36.809Z</time></trkpt><trkpt lat="42.010695" lon="-8.0210467"><ele>763.0</ele><time>2026-04-01T10:35:38.81Z</time></trkpt><trkpt lat="42.0107333" lon="-8.02112"><ele>763.0</ele><time>2026-04-01T10:35:39.811Z</time></trkpt><trkpt lat="42.0108033" lon="-8.0212017"><ele>763.0</ele><time>2026-04-01T10:35:40.811Z</time></trkpt><trkpt lat="42.010895" lon="-8.0212683"><ele>763.0</ele><time>2026-04-01T10:35:41.812Z</time></trkpt><trkpt lat="42.0110267" lon="-8.0213117"><ele>763.0</ele><time>2026-04-01T10:35:42.812Z</time></trkpt><trkpt lat="42.01118" lon="-8.02134"><ele>762.0</ele><time>2026-04-01T10:35:43.809Z</time></trkpt><trkpt lat="42.01133" lon="-8.0213517"><ele>761.0</ele><time>2026-04-01T10:35:44.809Z</time></trkpt><trkpt lat="42.0114833" lon="-8.0213533"><ele>760.0</ele><time>2026-04-01T10:35:45.809Z</time></trkpt><trkpt lat="42.0116467" lon="-8.02134"><ele>763.0</ele><time>2026-04-01T10:35:46.811Z</time></trkpt><trkpt lat="42.0117933" lon="-8.0213217"><ele>766.0</ele><time>2026-04-01T10:35:47.811Z</time></trkpt><trkpt lat="42.0119367" lon="-8.021285"><ele>769.0</ele><time>2026-04-01T10:35:48.809Z</time></trkpt><trkpt lat="42.0120767" lon="-8.0212233"><ele>772.0</ele><time>2026-04-01T10:35:49.81Z</time></trkpt><trkpt lat="42.0122" lon="-8.0211483"><ele>771.9999999999999</ele><time>2026-04-01T10:35:50.812Z</time></trkpt><trkpt lat="42.012295" lon="-8.0210733"><ele>772.0</ele><time>2026-04-01T10:35:51.812Z</time></trkpt><trkpt lat="42.0123567" lon="-8.021015"><ele>772.0</ele><time>2026-04-01T10:35:52.813Z</time></trkpt><trkpt lat="42.0124367" lon="-8.0209067"><ele>772.0</ele><time>2026-04-01T10:35:54.812Z</time></trkpt><trkpt lat="42.0124717" lon="-8.02082"><ele>771.9999999999999</ele><time>2026-04-01T10:35:56.81Z</time></trkpt><trkpt lat="42.0125283" lon="-8.0207783"><ele>772.0</ele><time>2026-04-01T10:35:58.809Z</time></trkpt><trkpt lat="42.0126367" lon="-8.0207917"><ele>775.0</ele><time>2026-04-01T10:36:00.809Z</time></trkpt><trkpt lat="42.0127133" lon="-8.0207983"><ele>778.0</ele><time>2026-04-01T10:36:01.809Z</time></trkpt><trkpt lat="42.0127983" lon="-8.020785"><ele>781.0</ele><time>2026-04-01T10:36:02.809Z</time></trkpt><trkpt lat="42.0128933" lon="-8.0207667"><ele>784.0</ele><time>2026-04-01T10:36:03.809Z</time></trkpt><trkpt lat="42.0129867" lon="-8.02074"><ele>787.0</ele><time>2026-04-01T10:36:04.809Z</time></trkpt><trkpt lat="42.013085" lon="-8.0207083"><ele>787.0</ele><time>2026-04-01T10:36:05.813Z</time></trkpt><trkpt lat="42.0131817" lon="-8.0206767"><ele>787.0</ele><time>2026-04-01T10:36:06.809Z</time></trkpt><trkpt lat="42.01327" lon="-8.0206567"><ele>787.0</ele><time>2026-04-01T10:36:07.812Z</time></trkpt><trkpt lat="42.013345" lon="-8.0206467"><ele>787.0</ele><time>2026-04-01T10:36:08.813Z</time></trkpt><trkpt lat="42.013445" lon="-8.02063"><ele>787.0</ele><time>2026-04-01T10:36:10.81Z</time></trkpt><trkpt lat="42.0135267" lon="-8.02059"><ele>787.1428571428571</ele><time>2026-04-01T10:36:13.809Z</time></trkpt><trkpt lat="42.0136033" lon="-8.0205617"><ele>787.2857142857142</ele><time>2026-04-01T10:36:16.809Z</time></trkpt><trkpt lat="42.013675" lon="-8.0205417"><ele>787.4285714285714</ele><time>2026-04-01T10:36:19.811Z</time></trkpt><trkpt lat="42.0136067" lon="-8.0205767"><ele>787.5714285714286</ele><time>2026-04-01T10:36:24.812Z</time></trkpt><trkpt lat="42.01354" lon="-8.0205917"><ele>787.7142857142858</ele><time>2026-04-01T10:36:27.809Z</time></trkpt><trkpt lat="42.013555" lon="-8.0205017"><ele>787.8571428571429</ele><time>2026-04-01T10:36:33.809Z</time></trkpt><trkpt lat="42.013595" lon="-8.0204117"><ele>788.0</ele><time>2026-04-01T10:36:37.81Z</time></trkpt><trkpt lat="42.0136217" lon="-8.02033"><ele>788.0</ele><time>2026-04-01T10:36:39.809Z</time></trkpt><trkpt lat="42.0137067" lon="-8.0201767"><ele>788.0</ele><time>2026-04-01T10:38:06.809Z</time></trkpt><trkpt lat="42.01368" lon="-8.0200867"><ele>788.0</ele><time>2026-04-01T10:38:42.808Z</time></trkpt><trkpt lat="42.013685" lon="-8.0200017"><ele>788.0</ele><time>2026-04-01T10:38:44.809Z</time></trkpt><trkpt lat="42.0136967" lon="-8.019875"><ele>788.0</ele><time>2026-04-01T10:38:46.812Z</time></trkpt><trkpt lat="42.0137167" lon="-8.0197517"><ele>790.5000000000001</ele><time>2026-04-01T10:38:48.812Z</time></trkpt><trkpt lat="42.01373" lon="-8.01966"><ele>793.0</ele><time>2026-04-01T10:38:50.812Z</time></trkpt><trkpt lat="42.0137583" lon="-8.01956"><ele>795.5</ele><time>2026-04-01T10:38:53.809Z</time></trkpt><trkpt lat="42.013815" lon="-8.0195017"><ele>798.0</ele><time>2026-04-01T10:38:56.811Z</time></trkpt><trkpt lat="42.0138717" lon="-8.019405"><ele>800.5000000000001</ele><time>2026-04-01T10:38:59.81Z</time></trkpt><trkpt lat="42.0139233" lon="-8.0193483"><ele>803.0</ele><time>2026-04-01T10:39:01.81Z</time></trkpt><trkpt lat="42.01399" lon="-8.019305"><ele>803.0</ele><time>2026-04-01T10:39:03.811Z</time></trkpt><trkpt lat="42.0140767" lon="-8.019255"><ele>803.0</ele><time>2026-04-01T10:39:06.809Z</time></trkpt><trkpt lat="42.014165" lon="-8.019245"><ele>803.0</ele><time>2026-04-01T10:39:08.809Z</time></trkpt><trkpt lat="42.0142733" lon="-8.0192217"><ele>803.0</ele><time>2026-04-01T10:39:10.808Z</time></trkpt><trkpt lat="42.01438" lon="-8.0191883"><ele>803.0</ele><time>2026-04-01T10:39:12.812Z</time></trkpt><trkpt lat="42.0144967" lon="-8.0191417"><ele>807.5999999999999</ele><time>2026-04-01T10:39:14.812Z</time></trkpt><trkpt lat="42.01456" lon="-8.0190983"><ele>812.1999999999999</ele><time>2026-04-01T10:39:15.809Z</time></trkpt><trkpt lat="42.0146267" lon="-8.0190483"><ele>816.8</ele><time>2026-04-01T10:39:16.809Z</time></trkpt><trkpt lat="42.0147117" lon="-8.0189967"><ele>821.4</ele><time>2026-04-01T10:39:17.808Z</time></trkpt><trkpt lat="42.0148133" lon="-8.0189367"><ele>826.0</ele><time>2026-04-01T10:39:18.809Z</time></trkpt><trkpt lat="42.014925" lon="-8.0188817"><ele>825.75</ele><time>2026-04-01T10:39:19.809Z</time></trkpt><trkpt lat="42.0150417" lon="-8.0188367"><ele>825.5</ele><time>2026-04-01T10:39:20.809Z</time></trkpt><trkpt lat="42.0151717" lon="-8.0187917"><ele>825.25</ele><time>2026-04-01T10:39:21.809Z</time></trkpt><trkpt lat="42.0153033" lon="-8.018755"><ele>825.0</ele><time>2026-04-01T10:39:22.809Z</time></trkpt><trkpt lat="42.01543" lon="-8.0187233"><ele>825.0</ele><time>2026-04-01T10:39:23.809Z</time></trkpt><trkpt lat="42.0155683" lon="-8.01869"><ele>825.0</ele><time>2026-04-01T10:39:24.81Z</time></trkpt><trkpt lat="42.0157083" lon="-8.0186717"><ele>825.0</ele><time>2026-04-01T10:39:25.809Z</time></trkpt><trkpt lat="42.0158367" lon="-8.01864"><ele>825.0</ele><time>2026-04-01T10:39:26.809Z</time></trkpt><trkpt lat="42.0159517" lon="-8.0185883"><ele>823.75</ele><time>2026-04-01T10:39:27.808Z</time></trkpt><trkpt lat="42.0160733" lon="-8.0185267"><ele>822.5</ele><time>2026-04-01T10:39:28.808Z</time></trkpt><trkpt lat="42.0161967" lon="-8.01847"><ele>821.25</ele><time>2026-04-01T10:39:29.812Z</time></trkpt><trkpt lat="42.01632" lon="-8.0184133"><ele>820.0</ele><time>2026-04-01T10:39:30.812Z</time></trkpt><trkpt lat="42.0164467" lon="-8.0183583"><ele>821.0</ele><time>2026-04-01T10:39:31.809Z</time></trkpt><trkpt lat="42.0165617" lon="-8.0183033"><ele>822.0</ele><time>2026-04-01T10:39:32.81Z</time></trkpt><trkpt lat="42.016655" lon="-8.018235"><ele>823.0</ele><time>2026-04-01T10:39:33.811Z</time></trkpt><trkpt lat="42.0167483" lon="-8.01816"><ele>824.0</ele><time>2026-04-01T10:39:34.809Z</time></trkpt><trkpt lat="42.0168467" lon="-8.01807"><ele>824.0</ele><time>2026-04-01T10:39:35.81Z</time></trkpt><trkpt lat="42.016935" lon="-8.01797"><ele>824.0</ele><time>2026-04-01T10:39:36.812Z</time></trkpt><trkpt lat="42.017005" lon="-8.0178833"><ele>824.0</ele><time>2026-04-01T10:39:37.809Z</time></trkpt><trkpt lat="42.0170883" lon="-8.0178"><ele>824.0</ele><time>2026-04-01T10:39:38.809Z</time></trkpt><trkpt lat="42.01718" lon="-8.0177267"><ele>824.0</ele><time>2026-04-01T10:39:39.808Z</time></trkpt><trkpt lat="42.0172567" lon="-8.0176533"><ele>824.0000000000001</ele><time>2026-04-01T10:39:40.809Z</time></trkpt><trkpt lat="42.0173217" lon="-8.0175933"><ele>824.0</ele><time>2026-04-01T10:39:41.808Z</time></trkpt><trkpt lat="42.0174017" lon="-8.01753"><ele>824.0</ele><time>2026-04-01T10:39:42.809Z</time></trkpt><trkpt lat="42.01747" lon="-8.017495"><ele>824.0</ele><time>2026-04-01T10:39:43.809Z</time></trkpt><trkpt lat="42.0175483" lon="-8.0175033"><ele>824.0000000000001</ele><time>2026-04-01T10:39:44.811Z</time></trkpt><trkpt lat="42.017655" lon="-8.0175883"><ele>824.0</ele><time>2026-04-01T10:39:45.811Z</time></trkpt><trkpt lat="42.0177583" lon="-8.017635"><ele>822.3333333333334</ele><time>2026-04-01T10:39:46.808Z</time></trkpt><trkpt lat="42.0178533" lon="-8.0176683"><ele>820.6666666666667</ele><time>2026-04-01T10:39:47.808Z</time></trkpt><trkpt lat="42.0179417" lon="-8.0176767"><ele>819.0</ele><time>2026-04-01T10:39:48.808Z</time></trkpt><trkpt lat="42.0180283" lon="-8.0176617"><ele>817.3333333333333</ele><time>2026-04-01T10:39:49.809Z</time></trkpt><trkpt lat="42.0181117" lon="-8.017625"><ele>815.6666666666666</ele><time>2026-04-01T10:39:50.81Z</time></trkpt><trkpt lat="42.01818" lon="-8.01757"><ele>814.0</ele><time>2026-04-01T10:39:51.809Z</time></trkpt><trkpt lat="42.0182433" lon="-8.0174983"><ele>816.9999999999999</ele><time>2026-04-01T10:39:52.809Z</time></trkpt><trkpt lat="42.0182883" lon="-8.0174083"><ele>820.0</ele><time>2026-04-01T10:39:53.81Z</time></trkpt><trkpt lat="42.0183383" lon="-8.017345"><ele>823.0</ele><time>2026-04-01T10:39:54.809Z</time></trkpt><trkpt lat="42.0183983" lon="-8.0172917"><ele>826.0</ele><time>2026-04-01T10:39:55.809Z</time></trkpt><trkpt lat="42.018475" lon="-8.0172633"><ele>828.9999999999999</ele><time>2026-04-01T10:39:56.81Z</time></trkpt><trkpt lat="42.0185867" lon="-8.01725"><ele>832.0</ele><time>2026-04-01T10:39:57.809Z</time></trkpt><trkpt lat="42.0187233" lon="-8.0172517"><ele>832.0</ele><time>2026-04-01T10:39:58.809Z</time></trkpt><trkpt lat="42.01886" lon="-8.0172483"><ele>832.0</ele><time>2026-04-01T10:39:59.81Z</time></trkpt><trkpt lat="42.0189917" lon="-8.01726"><ele>832.0</ele><time>2026-04-01T10:40:00.809Z</time></trkpt><trkpt lat="42.0191167" lon="-8.0172983"><ele>832.0</ele><time>2026-04-01T10:40:01.81Z</time></trkpt><trkpt lat="42.0192267" lon="-8.0173483"><ele>832.2857142857142</ele><time>2026-04-01T10:40:02.81Z</time></trkpt><trkpt lat="42.0193083" lon="-8.0173917"><ele>832.5714285714287</ele><time>2026-04-01T10:40:03.812Z</time></trkpt><trkpt lat="42.019375" lon="-8.0174117"><ele>832.8571428571429</ele><time>2026-04-01T10:40:04.809Z</time></trkpt><trkpt lat="42.0194383" lon="-8.0174133"><ele>833.1428571428571</ele><time>2026-04-01T10:40:05.81Z</time></trkpt><trkpt lat="42.019505" lon="-8.017385"><ele>833.4285714285713</ele><time>2026-04-01T10:40:06.81Z</time></trkpt><trkpt lat="42.0195717" lon="-8.01735"><ele>833.7142857142858</ele><time>2026-04-01T10:40:07.812Z</time></trkpt><trkpt lat="42.0196317" lon="-8.0173233"><ele>834.0</ele><time>2026-04-01T10:40:08.813Z</time></trkpt><trkpt lat="42.0197083" lon="-8.0172917"><ele>834.0</ele><time>2026-04-01T10:40:10.81Z</time></trkpt><trkpt lat="42.0197833" lon="-8.0172517"><ele>834.0</ele><time>2026-04-01T10:40:14.809Z</time></trkpt><trkpt lat="42.01991" lon="-8.0172133"><ele>834.0</ele><time>2026-04-01T10:40:16.812Z</time></trkpt><trkpt lat="42.0199933" lon="-8.0171817"><ele>834.0</ele><time>2026-04-01T10:40:17.812Z</time></trkpt><trkpt lat="42.0200967" lon="-8.017135"><ele>834.0</ele><time>2026-04-01T10:40:18.81Z</time></trkpt><trkpt lat="42.0202317" lon="-8.0170667"><ele>834.75</ele><time>2026-04-01T10:40:19.81Z</time></trkpt><trkpt lat="42.0203633" lon="-8.0170033"><ele>835.5</ele><time>2026-04-01T10:40:20.809Z</time></trkpt><trkpt lat="42.0204867" lon="-8.0169617"><ele>836.25</ele><time>2026-04-01T10:40:21.809Z</time></trkpt><trkpt lat="42.0206033" lon="-8.0169233"><ele>837.0</ele><time>2026-04-01T10:40:22.809Z</time></trkpt><trkpt lat="42.0207117" lon="-8.01689"><ele>837.8</ele><time>2026-04-01T10:40:23.809Z</time></trkpt><trkpt lat="42.0208183" lon="-8.01685"><ele>838.6</ele><time>2026-04-01T10:40:24.809Z</time></trkpt><trkpt lat="42.0209117" lon="-8.016785"><ele>839.4</ele><time>2026-04-01T10:40:25.809Z</time></trkpt><trkpt lat="42.021005" lon="-8.0167067"><ele>840.1999999999999</ele><time>2026-04-01T10:40:26.809Z</time></trkpt><trkpt lat="42.0211067" lon="-8.0166333"><ele>841.0</ele><time>2026-04-01T10:40:27.809Z</time></trkpt><trkpt lat="42.0212" lon="-8.0165633"><ele>844.0</ele><time>2026-04-01T10:40:28.81Z</time></trkpt><trkpt lat="42.0212917" lon="-8.0165033"><ele>847.0</ele><time>2026-04-01T10:40:29.812Z</time></trkpt><trkpt lat="42.0213933" lon="-8.0164367"><ele>849.9999999999999</ele><time>2026-04-01T10:40:30.808Z</time></trkpt><trkpt lat="42.0214883" lon="-8.0163817"><ele>853.0</ele><time>2026-04-01T10:40:31.809Z</time></trkpt><trkpt lat="42.021565" lon="-8.0163317"><ele>856.0</ele><time>2026-04-01T10:40:32.81Z</time></trkpt><trkpt lat="42.02164" lon="-8.0162767"><ele>856.8</ele><time>2026-04-01T10:40:33.813Z</time></trkpt><trkpt lat="42.0217" lon="-8.0162083"><ele>857.5999999999999</ele><time>2026-04-01T10:40:34.81Z</time></trkpt><trkpt lat="42.0217517" lon="-8.0161133"><ele>858.4</ele><time>2026-04-01T10:40:35.81Z</time></trkpt><trkpt lat="42.0218" lon="-8.0159967"><ele>859.2</ele><time>2026-04-01T10:40:36.81Z</time></trkpt><trkpt lat="42.0218583" lon="-8.015895"><ele>860.0</ele><time>2026-04-01T10:40:37.81Z</time></trkpt><trkpt lat="42.0218967" lon="-8.0157833"><ele>862.4</ele><time>2026-04-01T10:40:38.811Z</time></trkpt><trkpt lat="42.02194" lon="-8.0156833"><ele>864.8</ele><time>2026-04-01T10:40:39.81Z</time></trkpt><trkpt lat="42.0219883" lon="-8.0155917"><ele>867.2</ele><time>2026-04-01T10:40:40.812Z</time></trkpt><trkpt lat="42.0220583" lon="-8.0155"><ele>869.6</ele><time>2026-04-01T10:40:41.812Z</time></trkpt><trkpt lat="42.022145" lon="-8.01541"><ele>872.0</ele><time>2026-04-01T10:40:42.809Z</time></trkpt><trkpt lat="42.02226" lon="-8.0153317"><ele>872.0</ele><time>2026-04-01T10:40:43.813Z</time></trkpt><trkpt lat="42.0223883" lon="-8.0152517"><ele>872.0</ele><time>2026-04-01T10:40:44.813Z</time></trkpt><trkpt lat="42.0225267" lon="-8.0151717"><ele>872.0</ele><time>2026-04-01T10:40:45.809Z</time></trkpt><trkpt lat="42.022665" lon="-8.015075"><ele>872.0</ele><time>2026-04-01T10:40:46.809Z</time></trkpt><trkpt lat="42.0227933" lon="-8.01499"><ele>873.8</ele><time>2026-04-01T10:40:47.811Z</time></trkpt><trkpt lat="42.02291" lon="-8.0149133"><ele>875.6</ele><time>2026-04-01T10:40:48.809Z</time></trkpt><trkpt lat="42.023005" lon="-8.0148467"><ele>877.3999999999999</ele><time>2026-04-01T10:40:49.809Z</time></trkpt><trkpt lat="42.023095" lon="-8.0147917"><ele>879.1999999999999</ele><time>2026-04-01T10:40:50.81Z</time></trkpt><trkpt lat="42.023175" lon="-8.014755"><ele>881.0</ele><time>2026-04-01T10:40:51.809Z</time></trkpt><trkpt lat="42.02325" lon="-8.0147317"><ele>880.8333333333334</ele><time>2026-04-01T10:40:52.81Z</time></trkpt><trkpt lat="42.0233233" lon="-8.0146867"><ele>880.6666666666667</ele><time>2026-04-01T10:40:53.809Z</time></trkpt><trkpt lat="42.0233833" lon="-8.014635"><ele>880.5</ele><time>2026-04-01T10:40:54.809Z</time></trkpt><trkpt lat="42.0234617" lon="-8.0145717"><ele>880.3333333333333</ele><time>2026-04-01T10:40:56.809Z</time></trkpt><trkpt lat="42.0234983" lon="-8.01469"><ele>880.1666666666666</ele><time>2026-04-01T10:40:58.81Z</time></trkpt><trkpt lat="42.0235283" lon="-8.0148033"><ele>880.0</ele><time>2026-04-01T10:40:59.81Z</time></trkpt><trkpt lat="42.0235733" lon="-8.0149233"><ele>879.25</ele><time>2026-04-01T10:41:00.809Z</time></trkpt><trkpt lat="42.02363" lon="-8.0150617"><ele>878.5</ele><time>2026-04-01T10:41:01.809Z</time></trkpt><trkpt lat="42.0237033" lon="-8.01519"><ele>877.75</ele><time>2026-04-01T10:41:02.811Z</time></trkpt><trkpt lat="42.0237867" lon="-8.0153167"><ele>877.0</ele><time>2026-04-01T10:41:03.81Z</time></trkpt><trkpt lat="42.0238783" lon="-8.01546"><ele>877.0</ele><time>2026-04-01T10:41:04.811Z</time></trkpt><trkpt lat="42.02398" lon="-8.0155817"><ele>877.0</ele><time>2026-04-01T10:41:05.81Z</time></trkpt><trkpt lat="42.0240867" lon="-8.0157033"><ele>877.0</ele><time>2026-04-01T10:41:06.809Z</time></trkpt><trkpt lat="42.024195" lon="-8.0158217"><ele>877.0</ele><time>2026-04-01T10:41:07.81Z</time></trkpt><trkpt lat="42.024305" lon="-8.0159467"><ele>878.5</ele><time>2026-04-01T10:41:08.809Z</time></trkpt><trkpt lat="42.0244167" lon="-8.01608"><ele>880.0</ele><time>2026-04-01T10:41:09.809Z</time></trkpt><trkpt lat="42.0245317" lon="-8.0162083"><ele>881.5</ele><time>2026-04-01T10:41:10.81Z</time></trkpt><trkpt lat="42.0246483" lon="-8.0163333"><ele>883.0</ele><time>2026-04-01T10:41:11.81Z</time></trkpt><trkpt lat="42.0247633" lon="-8.016455"><ele>883.0</ele><time>2026-04-01T10:41:12.809Z</time></trkpt><trkpt lat="42.0248783" lon="-8.0165767"><ele>883.0</ele><time>2026-04-01T10:41:13.811Z</time></trkpt><trkpt lat="42.0249883" lon="-8.0166983"><ele>883.0</ele><time>2026-04-01T10:41:14.813Z</time></trkpt><trkpt lat="42.025095" lon="-8.0168117"><ele>883.0</ele><time>2026-04-01T10:41:15.81Z</time></trkpt><trkpt lat="42.0252017" lon="-8.0169283"><ele>883.75</ele><time>2026-04-01T10:41:16.81Z</time></trkpt><trkpt lat="42.025315" lon="-8.0170467"><ele>884.5</ele><time>2026-04-01T10:41:17.81Z</time></trkpt><trkpt lat="42.025425" lon="-8.0171633"><ele>885.25</ele><time>2026-04-01T10:41:18.811Z</time></trkpt><trkpt lat="42.0255317" lon="-8.0172783"><ele>886.0</ele><time>2026-04-01T10:41:19.811Z</time></trkpt><trkpt lat="42.0256383" lon="-8.0173917"><ele>887.5</ele><time>2026-04-01T10:41:20.812Z</time></trkpt><trkpt lat="42.0257383" lon="-8.017495"><ele>889.0</ele><time>2026-04-01T10:41:21.814Z</time></trkpt><trkpt lat="42.0258383" lon="-8.0176017"><ele>890.5</ele><time>2026-04-01T10:41:22.812Z</time></trkpt><trkpt lat="42.0259333" lon="-8.0177167"><ele>892.0</ele><time>2026-04-01T10:41:23.812Z</time></trkpt><trkpt lat="42.026025" lon="-8.0178333"><ele>894.75</ele><time>2026-04-01T10:41:24.809Z</time></trkpt><trkpt lat="42.0261083" lon="-8.0179617"><ele>897.5</ele><time>2026-04-01T10:41:25.812Z</time></trkpt><trkpt lat="42.026175" lon="-8.0181067"><ele>900.25</ele><time>2026-04-01T10:41:26.81Z</time></trkpt><trkpt lat="42.0262017" lon="-8.01827"><ele>903.0</ele><time>2026-04-01T10:41:27.81Z</time></trkpt><trkpt lat="42.02621" lon="-8.0184283"><ele>903.8</ele><time>2026-04-01T10:41:28.809Z</time></trkpt><trkpt lat="42.0262217" lon="-8.0185667"><ele>904.5999999999999</ele><time>2026-04-01T10:41:29.809Z</time></trkpt><trkpt lat="42.0262583" lon="-8.0186833"><ele>905.4000000000001</ele><time>2026-04-01T10:41:30.809Z</time></trkpt><trkpt lat="42.0263133" lon="-8.0187733"><ele>906.2</ele><time>2026-04-01T10:41:31.812Z</time></trkpt><trkpt lat="42.0263933" lon="-8.01884"><ele>907.0</ele><time>2026-04-01T10:41:32.812Z</time></trkpt><trkpt lat="42.0264883" lon="-8.0188817"><ele>907.0</ele><time>2026-04-01T10:41:33.812Z</time></trkpt><trkpt lat="42.0265933" lon="-8.0189083"><ele>907.0</ele><time>2026-04-01T10:41:34.809Z</time></trkpt><trkpt lat="42.0267033" lon="-8.018935"><ele>907.0</ele><time>2026-04-01T10:41:35.809Z</time></trkpt><trkpt lat="42.0268133" lon="-8.018975"><ele>907.0</ele><time>2026-04-01T10:41:36.809Z</time></trkpt><trkpt lat="42.026925" lon="-8.0190233"><ele>910.25</ele><time>2026-04-01T10:41:37.81Z</time></trkpt><trkpt lat="42.0270283" lon="-8.0190767"><ele>913.5</ele><time>2026-04-01T10:41:38.812Z</time></trkpt><trkpt lat="42.02713" lon="-8.019145"><ele>916.75</ele><time>2026-04-01T10:41:39.809Z</time></trkpt><trkpt lat="42.0272317" lon="-8.0192317"><ele>920.0</ele><time>2026-04-01T10:41:40.809Z</time></trkpt><trkpt lat="42.0273367" lon="-8.019345"><ele>920.0</ele><time>2026-04-01T10:41:41.809Z</time></trkpt><trkpt lat="42.0274433" lon="-8.01947"><ele>920.0</ele><time>2026-04-01T10:41:42.809Z</time></trkpt><trkpt lat="42.0275533" lon="-8.0195967"><ele>920.0</ele><time>2026-04-01T10:41:43.812Z</time></trkpt><trkpt lat="42.0276683" lon="-8.019735"><ele>920.0</ele><time>2026-04-01T10:41:44.813Z</time></trkpt><trkpt lat="42.02778" lon="-8.0198817"><ele>922.25</ele><time>2026-04-01T10:41:45.812Z</time></trkpt><trkpt lat="42.02789" lon="-8.0200267"><ele>924.5</ele><time>2026-04-01T10:41:46.814Z</time></trkpt><trkpt lat="42.0279883" lon="-8.0201683"><ele>926.75</ele><time>2026-04-01T10:41:47.81Z</time></trkpt><trkpt lat="42.0280867" lon="-8.0203183"><ele>929.0</ele><time>2026-04-01T10:41:48.81Z</time></trkpt><trkpt lat="42.028185" lon="-8.0204667"><ele>929.0</ele><time>2026-04-01T10:41:49.81Z</time></trkpt><trkpt lat="42.0282917" lon="-8.0206283"><ele>929.0</ele><time>2026-04-01T10:41:50.812Z</time></trkpt><trkpt lat="42.0284028" lon="-8.0207921"><ele>929.0</ele><time>2026-04-01T10:41:51.808Z</time></trkpt><trkpt lat="42.0285095" lon="-8.0209505"><ele>934.6666666666667</ele><time>2026-04-01T10:41:52.812Z</time></trkpt><trkpt lat="42.0286147" lon="-8.0211022"><ele>940.3333333333333</ele><time>2026-04-01T10:41:53.809Z</time></trkpt><trkpt lat="42.0287186" lon="-8.0212497"><ele>946.0</ele><time>2026-04-01T10:41:54.81Z</time></trkpt><trkpt lat="42.0288217" lon="-8.021387"><ele>946.0</ele><time>2026-04-01T10:41:55.813Z</time></trkpt><trkpt lat="42.0289257" lon="-8.0215237"><ele>946.0</ele><time>2026-04-01T10:41:56.808Z</time></trkpt><trkpt lat="42.029029" lon="-8.0216642"><ele>946.0</ele><time>2026-04-01T10:41:57.808Z</time></trkpt><trkpt lat="42.0291291" lon="-8.0218014"><ele>946.0</ele><time>2026-04-01T10:41:58.808Z</time></trkpt><trkpt lat="42.0292178" lon="-8.021918"><ele>950.0</ele><time>2026-04-01T10:41:59.81Z</time></trkpt><trkpt lat="42.0293009" lon="-8.0220125"><ele>954.0</ele><time>2026-04-01T10:42:00.808Z</time></trkpt><trkpt lat="42.0293899" lon="-8.0221002"><ele>958.0</ele><time>2026-04-01T10:42:01.809Z</time></trkpt><trkpt lat="42.0294882" lon="-8.0221915"><ele>962.0</ele><time>2026-04-01T10:42:02.811Z</time></trkpt><trkpt lat="42.0295985" lon="-8.0222925"><ele>962.0</ele><time>2026-04-01T10:42:03.811Z</time></trkpt><trkpt lat="42.0297131" lon="-8.0224046"><ele>962.0</ele><time>2026-04-01T10:42:04.81Z</time></trkpt><trkpt lat="42.0298332" lon="-8.0225333"><ele>962.0</ele><time>2026-04-01T10:42:05.812Z</time></trkpt><trkpt lat="42.0299583" lon="-8.0226673"><ele>965.0</ele><time>2026-04-01T10:42:06.811Z</time></trkpt><trkpt lat="42.0300811" lon="-8.0228054"><ele>968.0</ele><time>2026-04-01T10:42:07.811Z</time></trkpt><trkpt lat="42.0301973" lon="-8.022943"><ele>971.0</ele><time>2026-04-01T10:42:08.813Z</time></trkpt><trkpt lat="42.0303073" lon="-8.0230798"><ele>971.0</ele><time>2026-04-01T10:42:09.81Z</time></trkpt><trkpt lat="42.0304079" lon="-8.0232171"><ele>971.0</ele><time>2026-04-01T10:42:10.811Z</time></trkpt><trkpt lat="42.0304995" lon="-8.0233546"><ele>971.0</ele><time>2026-04-01T10:42:11.808Z</time></trkpt><trkpt lat="42.0305843" lon="-8.0234889"><ele>971.0</ele><time>2026-04-01T10:42:12.812Z</time></trkpt><trkpt lat="42.0306703" lon="-8.0236081"><ele>973.0</ele><time>2026-04-01T10:42:13.811Z</time></trkpt><trkpt lat="42.0307647" lon="-8.0237081"><ele>975.0</ele><time>2026-04-01T10:42:14.813Z</time></trkpt><trkpt lat="42.0308677" lon="-8.0237871"><ele>977.0</ele><time>2026-04-01T10:42:15.812Z</time></trkpt><trkpt lat="42.030976" lon="-8.0238502"><ele>979.0</ele><time>2026-04-01T10:42:16.813Z</time></trkpt><trkpt lat="42.0310811" lon="-8.0238932"><ele>979.4000000000001</ele><time>2026-04-01T10:42:17.812Z</time></trkpt><trkpt lat="42.031179" lon="-8.0239063"><ele>979.8000000000001</ele><time>2026-04-01T10:42:18.813Z</time></trkpt><trkpt lat="42.0312725" lon="-8.0238844"><ele>980.1999999999999</ele><time>2026-04-01T10:42:19.813Z</time></trkpt><trkpt lat="42.0313601" lon="-8.0238325"><ele>980.5999999999999</ele><time>2026-04-01T10:42:20.813Z</time></trkpt><trkpt lat="42.0314435" lon="-8.0237452"><ele>981.0</ele><time>2026-04-01T10:42:21.815Z</time></trkpt><trkpt lat="42.0315281" lon="-8.023643"><ele>981.0</ele><time>2026-04-01T10:42:22.814Z</time></trkpt><trkpt lat="42.0316222" lon="-8.0235492"><ele>981.0</ele><time>2026-04-01T10:42:23.814Z</time></trkpt><trkpt lat="42.0317291" lon="-8.023476"><ele>981.0</ele><time>2026-04-01T10:42:24.812Z</time></trkpt><trkpt lat="42.0318501" lon="-8.0234213"><ele>981.0</ele><time>2026-04-01T10:42:25.814Z</time></trkpt><trkpt lat="42.0319834" lon="-8.0233783"><ele>982.25</ele><time>2026-04-01T10:42:26.813Z</time></trkpt><trkpt lat="42.0321191" lon="-8.0233442"><ele>983.5</ele><time>2026-04-01T10:42:27.813Z</time></trkpt><trkpt lat="42.0322493" lon="-8.023316"><ele>984.75</ele><time>2026-04-01T10:42:28.812Z</time></trkpt><trkpt lat="42.0323787" lon="-8.0232919"><ele>986.0</ele><time>2026-04-01T10:42:29.811Z</time></trkpt><trkpt lat="42.0325073" lon="-8.0232764"><ele>987.75</ele><time>2026-04-01T10:42:30.812Z</time></trkpt><trkpt lat="42.0326421" lon="-8.0232764"><ele>989.5</ele><time>2026-04-01T10:42:31.812Z</time></trkpt><trkpt lat="42.0327829" lon="-8.023291"><ele>991.25</ele><time>2026-04-01T10:42:32.811Z</time></trkpt><trkpt lat="42.032923" lon="-8.0233135"><ele>993.0</ele><time>2026-04-01T10:42:33.812Z</time></trkpt><trkpt lat="42.0330561" lon="-8.0233391"><ele>995.5</ele><time>2026-04-01T10:42:34.81Z</time></trkpt><trkpt lat="42.033186" lon="-8.0233767"><ele>998.0</ele><time>2026-04-01T10:42:35.813Z</time></trkpt><trkpt lat="42.0333142" lon="-8.0234225"><ele>1000.5</ele><time>2026-04-01T10:42:36.812Z</time></trkpt><trkpt lat="42.033438" lon="-8.0234759"><ele>1003.0</ele><time>2026-04-01T10:42:37.81Z</time></trkpt><trkpt lat="42.0335634" lon="-8.0235276"><ele>1004.25</ele><time>2026-04-01T10:42:38.814Z</time></trkpt><trkpt lat="42.033687" lon="-8.0235739"><ele>1005.5</ele><time>2026-04-01T10:42:39.808Z</time></trkpt><trkpt lat="42.0338093" lon="-8.0236188"><ele>1006.75</ele><time>2026-04-01T10:42:40.808Z</time></trkpt><trkpt lat="42.0339097" lon="-8.0236635"><ele>1008.0</ele><time>2026-04-01T10:42:41.809Z</time></trkpt><trkpt lat="42.0340068" lon="-8.0237148"><ele>1008.0</ele><time>2026-04-01T10:42:42.81Z</time></trkpt><trkpt lat="42.0341073" lon="-8.0237687"><ele>1008.0</ele><time>2026-04-01T10:42:43.809Z</time></trkpt><trkpt lat="42.0342095" lon="-8.02381"><ele>1008.0</ele><time>2026-04-01T10:42:44.815Z</time></trkpt><trkpt lat="42.0343182" lon="-8.0238462"><ele>1008.0</ele><time>2026-04-01T10:42:45.809Z</time></trkpt><trkpt lat="42.0344296" lon="-8.0238797"><ele>1008.0</ele><time>2026-04-01T10:42:46.808Z</time></trkpt><trkpt lat="42.0345532" lon="-8.0239107"><ele>1008.75</ele><time>2026-04-01T10:42:47.81Z</time></trkpt><trkpt lat="42.0346868" lon="-8.0239487"><ele>1009.5</ele><time>2026-04-01T10:42:48.808Z</time></trkpt><trkpt lat="42.0348177" lon="-8.0239941"><ele>1010.25</ele><time>2026-04-01T10:42:49.808Z</time></trkpt><trkpt lat="42.0349556" lon="-8.0240427"><ele>1011.0</ele><time>2026-04-01T10:42:50.809Z</time></trkpt><trkpt lat="42.0350914" lon="-8.024091"><ele>1012.75</ele><time>2026-04-01T10:42:51.809Z</time></trkpt><trkpt lat="42.0352254" lon="-8.0241348"><ele>1014.5</ele><time>2026-04-01T10:42:52.809Z</time></trkpt><trkpt lat="42.0353658" lon="-8.0241797"><ele>1016.25</ele><time>2026-04-01T10:42:53.812Z</time></trkpt><trkpt lat="42.0355028" lon="-8.0242297"><ele>1018.0</ele><time>2026-04-01T10:42:54.811Z</time></trkpt><trkpt lat="42.0356359" lon="-8.0242804"><ele>1018.0</ele><time>2026-04-01T10:42:55.809Z</time></trkpt><trkpt lat="42.0357583" lon="-8.0243347"><ele>1018.0</ele><time>2026-04-01T10:42:56.812Z</time></trkpt><trkpt lat="42.0358823" lon="-8.0243817"><ele>1018.0</ele><time>2026-04-01T10:42:57.808Z</time></trkpt><trkpt lat="42.0360128" lon="-8.0244247"><ele>1018.0</ele><time>2026-04-01T10:42:58.811Z</time></trkpt><trkpt lat="42.0361523" lon="-8.0244714"><ele>1020.25</ele><time>2026-04-01T10:42:59.811Z</time></trkpt><trkpt lat="42.0362975" lon="-8.0245132"><ele>1022.5</ele><time>2026-04-01T10:43:00.812Z</time></trkpt><trkpt lat="42.0364364" lon="-8.0245513"><ele>1024.75</ele><time>2026-04-01T10:43:01.812Z</time></trkpt><trkpt lat="42.0365684" lon="-8.0245889"><ele>1027.0</ele><time>2026-04-01T10:43:02.808Z</time></trkpt><trkpt lat="42.0366998" lon="-8.0246303"><ele>1029.25</ele><time>2026-04-01T10:43:03.808Z</time></trkpt><trkpt lat="42.0368326" lon="-8.0246671"><ele>1031.5</ele><time>2026-04-01T10:43:04.809Z</time></trkpt><trkpt lat="42.0369669" lon="-8.0247012"><ele>1033.75</ele><time>2026-04-01T10:43:05.81Z</time></trkpt><trkpt lat="42.0370964" lon="-8.0247331"><ele>1036.0</ele><time>2026-04-01T10:43:06.808Z</time></trkpt><trkpt lat="42.0372249" lon="-8.0247664"><ele>1036.0</ele><time>2026-04-01T10:43:07.811Z</time></trkpt><trkpt lat="42.0373488" lon="-8.0248102"><ele>1036.0</ele><time>2026-04-01T10:43:08.808Z</time></trkpt><trkpt lat="42.0374787" lon="-8.0248563"><ele>1036.0</ele><time>2026-04-01T10:43:09.811Z</time></trkpt><trkpt lat="42.03761" lon="-8.0249003"><ele>1036.0</ele><time>2026-04-01T10:43:10.811Z</time></trkpt><trkpt lat="42.0377405" lon="-8.0249475"><ele>1037.25</ele><time>2026-04-01T10:43:11.811Z</time></trkpt><trkpt lat="42.037873" lon="-8.024997"><ele>1038.5</ele><time>2026-04-01T10:43:12.811Z</time></trkpt><trkpt lat="42.0380045" lon="-8.0250613"><ele>1039.75</ele><time>2026-04-01T10:43:13.811Z</time></trkpt><trkpt lat="42.0381286" lon="-8.025143"><ele>1041.0</ele><time>2026-04-01T10:43:14.808Z</time></trkpt><trkpt lat="42.038254" lon="-8.0252397"><ele>1042.25</ele><time>2026-04-01T10:43:15.812Z</time></trkpt><trkpt lat="42.0383703" lon="-8.0253382"><ele>1043.5</ele><time>2026-04-01T10:43:16.811Z</time></trkpt><trkpt lat="42.0384774" lon="-8.0254425"><ele>1044.75</ele><time>2026-04-01T10:43:17.811Z</time></trkpt><trkpt lat="42.0385773" lon="-8.0255549"><ele>1046.0</ele><time>2026-04-01T10:43:18.811Z</time></trkpt><trkpt lat="42.0386719" lon="-8.0256714"><ele>1046.0</ele><time>2026-04-01T10:43:19.813Z</time></trkpt><trkpt lat="42.0387571" lon="-8.0257994"><ele>1046.0</ele><time>2026-04-01T10:43:20.812Z</time></trkpt><trkpt lat="42.0388316" lon="-8.0259375"><ele>1046.0</ele><time>2026-04-01T10:43:21.811Z</time></trkpt><trkpt lat="42.0388973" lon="-8.0260862"><ele>1046.0</ele><time>2026-04-01T10:43:22.808Z</time></trkpt><trkpt lat="42.0389486" lon="-8.0262299"><ele>1045.0</ele><time>2026-04-01T10:43:23.811Z</time></trkpt><trkpt lat="42.038984" lon="-8.0263666"><ele>1044.0</ele><time>2026-04-01T10:43:24.811Z</time></trkpt><trkpt lat="42.0390129" lon="-8.0264959"><ele>1043.0</ele><time>2026-04-01T10:43:25.811Z</time></trkpt><trkpt lat="42.0390415" lon="-8.0266204"><ele>1042.0</ele><time>2026-04-01T10:43:26.812Z</time></trkpt><trkpt lat="42.0390722" lon="-8.0267443"><ele>1041.0</ele><time>2026-04-01T10:43:27.811Z</time></trkpt><trkpt lat="42.0391006" lon="-8.0268662"><ele>1041.0</ele><time>2026-04-01T10:43:28.812Z</time></trkpt><trkpt lat="42.0391237" lon="-8.0269828"><ele>1041.0</ele><time>2026-04-01T10:43:29.811Z</time></trkpt><trkpt lat="42.0391408" lon="-8.0270892"><ele>1041.0</ele><time>2026-04-01T10:43:30.811Z</time></trkpt><trkpt lat="42.0391544" lon="-8.0271766"><ele>1041.0</ele><time>2026-04-01T10:43:31.811Z</time></trkpt><trkpt lat="42.0391852" lon="-8.027296"><ele>1041.0</ele><time>2026-04-01T10:43:33.811Z</time></trkpt><trkpt lat="42.0392051" lon="-8.0273846"><ele>1041.0</ele><time>2026-04-01T10:43:35.811Z</time></trkpt><trkpt lat="42.0392243" lon="-8.0275091"><ele>1043.4285714285716</ele><time>2026-04-01T10:43:38.811Z</time></trkpt><trkpt lat="42.0392506" lon="-8.0275981"><ele>1045.857142857143</ele><time>2026-04-01T10:43:40.808Z</time></trkpt><trkpt lat="42.0392713" lon="-8.0277047"><ele>1048.2857142857142</ele><time>2026-04-01T10:43:42.812Z</time></trkpt><trkpt lat="42.0392978" lon="-8.0278064"><ele>1050.7142857142858</ele><time>2026-04-01T10:43:44.812Z</time></trkpt><trkpt lat="42.0393217" lon="-8.0279052"><ele>1053.142857142857</ele><time>2026-04-01T10:43:46.811Z</time></trkpt><trkpt lat="42.0393365" lon="-8.0280007"><ele>1055.5714285714287</ele><time>2026-04-01T10:43:48.812Z</time></trkpt><trkpt lat="42.0393389" lon="-8.0280861"><ele>1058.0</ele><time>2026-04-01T10:43:50.813Z</time></trkpt><trkpt lat="42.0393417" lon="-8.0281767"><ele>1058.0</ele><time>2026-04-01T10:43:52.811Z</time></trkpt><trkpt lat="42.03935" lon="-8.0282633"><ele>1058.0</ele><time>2026-04-01T10:43:54.812Z</time></trkpt><trkpt lat="42.0393633" lon="-8.0283567"><ele>1058.0</ele><time>2026-04-01T10:43:56.812Z</time></trkpt><trkpt lat="42.0393733" lon="-8.0284483"><ele>1058.0</ele><time>2026-04-01T10:43:58.812Z</time></trkpt><trkpt lat="42.039395" lon="-8.0285583"><ele>1058.0</ele><time>2026-04-01T10:44:00.812Z</time></trkpt><trkpt lat="42.0394383" lon="-8.028695"><ele>1058.0</ele><time>2026-04-01T10:44:02.812Z</time></trkpt><trkpt lat="42.0394633" lon="-8.0287833"><ele>1059.0</ele><time>2026-04-01T10:44:03.811Z</time></trkpt><trkpt lat="42.0394883" lon="-8.028885"><ele>1060.0</ele><time>2026-04-01T10:44:04.809Z</time></trkpt><trkpt lat="42.03951" lon="-8.0289983"><ele>1061.0</ele><time>2026-04-01T10:44:05.813Z</time></trkpt><trkpt lat="42.0395317" lon="-8.029125"><ele>1062.0</ele><time>2026-04-01T10:44:06.813Z</time></trkpt><trkpt lat="42.0395583" lon="-8.0292517"><ele>1063.0</ele><time>2026-04-01T10:44:07.812Z</time></trkpt><trkpt lat="42.039585" lon="-8.02939"><ele>1065.0</ele><time>2026-04-01T10:44:08.813Z</time></trkpt><trkpt lat="42.0396183" lon="-8.0295467"><ele>1067.0</ele><time>2026-04-01T10:44:09.811Z</time></trkpt><trkpt lat="42.03966" lon="-8.029725"><ele>1069.0</ele><time>2026-04-01T10:44:10.811Z</time></trkpt><trkpt lat="42.0397067" lon="-8.0299183"><ele>1071.0</ele><time>2026-04-01T10:44:11.811Z</time></trkpt><trkpt lat="42.039755" lon="-8.0301083"><ele>1073.25</ele><time>2026-04-01T10:44:12.812Z</time></trkpt><trkpt lat="42.0397917" lon="-8.0302883"><ele>1075.5</ele><time>2026-04-01T10:44:13.811Z</time></trkpt><trkpt lat="42.0398233" lon="-8.030455"><ele>1077.75</ele><time>2026-04-01T10:44:14.813Z</time></trkpt><trkpt lat="42.0398467" lon="-8.030615"><ele>1080.0</ele><time>2026-04-01T10:44:15.808Z</time></trkpt><trkpt lat="42.0398733" lon="-8.0307667"><ele>1081.0</ele><time>2026-04-01T10:44:16.812Z</time></trkpt><trkpt lat="42.0399" lon="-8.0309133"><ele>1082.0</ele><time>2026-04-01T10:44:17.812Z</time></trkpt><trkpt lat="42.0399283" lon="-8.031055"><ele>1083.0</ele><time>2026-04-01T10:44:18.812Z</time></trkpt><trkpt lat="42.03995" lon="-8.0311667"><ele>1084.0</ele><time>2026-04-01T10:44:19.812Z</time></trkpt><trkpt lat="42.039975" lon="-8.03125"><ele>1085.0</ele><time>2026-04-01T10:44:20.812Z</time></trkpt><trkpt lat="42.0400333" lon="-8.0313383"><ele>1086.0</ele><time>2026-04-01T10:44:22.811Z</time></trkpt><trkpt lat="42.0401417" lon="-8.03135"><ele>1087.0</ele><time>2026-04-01T10:44:24.808Z</time></trkpt><trkpt lat="42.040225" lon="-8.0313583"><ele>1088.0</ele><time>2026-04-01T10:44:25.809Z</time></trkpt><trkpt lat="42.0403217" lon="-8.0313767"><ele>1089.0</ele><time>2026-04-01T10:44:26.809Z</time></trkpt><trkpt lat="42.040445" lon="-8.0314133"><ele>1090.0</ele><time>2026-04-01T10:44:27.808Z</time></trkpt><trkpt lat="42.0405867" lon="-8.0314567"><ele>1090.0</ele><time>2026-04-01T10:44:28.808Z</time></trkpt><trkpt lat="42.04074" lon="-8.0315017"><ele>1090.0</ele><time>2026-04-01T10:44:29.809Z</time></trkpt><trkpt lat="42.0408783" lon="-8.031525"><ele>1090.0</ele><time>2026-04-01T10:44:30.809Z</time></trkpt><trkpt lat="42.0410133" lon="-8.0315367"><ele>1090.0</ele><time>2026-04-01T10:44:31.809Z</time></trkpt><trkpt lat="42.04115" lon="-8.03157"><ele>1090.0</ele><time>2026-04-01T10:44:32.81Z</time></trkpt><trkpt lat="42.0412683" lon="-8.0316167"><ele>1090.0</ele><time>2026-04-01T10:44:33.809Z</time></trkpt><trkpt lat="42.041365" lon="-8.0316733"><ele>1090.0</ele><time>2026-04-01T10:44:34.809Z</time></trkpt><trkpt lat="42.0414467" lon="-8.0317617"><ele>1090.0</ele><time>2026-04-01T10:44:35.811Z</time></trkpt><trkpt lat="42.0415133" lon="-8.0318617"><ele>1090.0</ele><time>2026-04-01T10:44:36.808Z</time></trkpt><trkpt lat="42.04157" lon="-8.0319767"><ele>1090.5</ele><time>2026-04-01T10:44:37.808Z</time></trkpt><trkpt lat="42.04162" lon="-8.0321217"><ele>1091.0</ele><time>2026-04-01T10:44:38.809Z</time></trkpt><trkpt lat="42.0416583" lon="-8.0322917"><ele>1091.5</ele><time>2026-04-01T10:44:39.808Z</time></trkpt><trkpt lat="42.0417" lon="-8.0324683"><ele>1092.0</ele><time>2026-04-01T10:44:40.812Z</time></trkpt><trkpt lat="42.04174" lon="-8.0326383"><ele>1092.4</ele><time>2026-04-01T10:44:41.808Z</time></trkpt><trkpt lat="42.0417717" lon="-8.032815"><ele>1092.8000000000002</ele><time>2026-04-01T10:44:42.81Z</time></trkpt><trkpt lat="42.0418" lon="-8.0329683"><ele>1093.2</ele><time>2026-04-01T10:44:43.813Z</time></trkpt><trkpt lat="42.041825" lon="-8.0330817"><ele>1093.6000000000001</ele><time>2026-04-01T10:44:44.812Z</time></trkpt><trkpt lat="42.0418683" lon="-8.0331817"><ele>1094.0</ele><time>2026-04-01T10:44:45.812Z</time></trkpt><trkpt lat="42.0419133" lon="-8.0332667"><ele>1094.1666666666667</ele><time>2026-04-01T10:44:46.812Z</time></trkpt><trkpt lat="42.0419683" lon="-8.0333283"><ele>1094.3333333333335</ele><time>2026-04-01T10:44:47.811Z</time></trkpt><trkpt lat="42.042035" lon="-8.0333783"><ele>1094.5</ele><time>2026-04-01T10:44:48.812Z</time></trkpt><trkpt lat="42.04212" lon="-8.0334083"><ele>1094.6666666666667</ele><time>2026-04-01T10:44:49.809Z</time></trkpt><trkpt lat="42.0422267" lon="-8.0334283"><ele>1094.8333333333333</ele><time>2026-04-01T10:44:50.809Z</time></trkpt><trkpt lat="42.0423233" lon="-8.03345"><ele>1095.0</ele><time>2026-04-01T10:44:51.809Z</time></trkpt><trkpt lat="42.0424217" lon="-8.0334717"><ele>1093.6</ele><time>2026-04-01T10:44:52.812Z</time></trkpt><trkpt lat="42.0425183" lon="-8.033485"><ele>1092.2</ele><time>2026-04-01T10:44:53.813Z</time></trkpt><trkpt lat="42.042625" lon="-8.0334967"><ele>1090.8</ele><time>2026-04-01T10:44:54.811Z</time></trkpt><trkpt lat="42.0427333" lon="-8.0335083"><ele>1089.4</ele><time>2026-04-01T10:44:55.809Z</time></trkpt><trkpt lat="42.0428383" lon="-8.0334933"><ele>1088.0</ele><time>2026-04-01T10:44:56.812Z</time></trkpt><trkpt lat="42.0429333" lon="-8.0334667"><ele>1088.0</ele><time>2026-04-01T10:44:57.811Z</time></trkpt><trkpt lat="42.0430167" lon="-8.0334383"><ele>1088.0</ele><time>2026-04-01T10:44:58.808Z</time></trkpt><trkpt lat="42.0431033" lon="-8.0334183"><ele>1088.0</ele><time>2026-04-01T10:44:59.808Z</time></trkpt><trkpt lat="42.043195" lon="-8.0334083"><ele>1088.0</ele><time>2026-04-01T10:45:00.808Z</time></trkpt><trkpt lat="42.0433283" lon="-8.0334167"><ele>1088.0</ele><time>2026-04-01T10:45:01.809Z</time></trkpt><trkpt lat="42.0434717" lon="-8.033435"><ele>1087.0</ele><time>2026-04-01T10:45:02.809Z</time></trkpt><trkpt lat="42.043595" lon="-8.033435"><ele>1086.0</ele><time>2026-04-01T10:45:03.81Z</time></trkpt><trkpt lat="42.0437117" lon="-8.0334233"><ele>1085.0</ele><time>2026-04-01T10:45:04.809Z</time></trkpt><trkpt lat="42.0438217" lon="-8.0333883"><ele>1084.0</ele><time>2026-04-01T10:45:05.809Z</time></trkpt><trkpt lat="42.0439483" lon="-8.0333367"><ele>1081.25</ele><time>2026-04-01T10:45:06.809Z</time></trkpt><trkpt lat="42.0440917" lon="-8.03328"><ele>1078.5</ele><time>2026-04-01T10:45:07.809Z</time></trkpt><trkpt lat="42.0442383" lon="-8.0332267"><ele>1075.75</ele><time>2026-04-01T10:45:08.809Z</time></trkpt><trkpt lat="42.044375" lon="-8.0331833"><ele>1073.0</ele><time>2026-04-01T10:45:09.809Z</time></trkpt><trkpt lat="42.0444983" lon="-8.0331467"><ele>1073.0</ele><time>2026-04-01T10:45:10.812Z</time></trkpt><trkpt lat="42.0446083" lon="-8.0331267"><ele>1073.0</ele><time>2026-04-01T10:45:11.809Z</time></trkpt><trkpt lat="42.04472" lon="-8.0331383"><ele>1073.0</ele><time>2026-04-01T10:45:12.809Z</time></trkpt><trkpt lat="42.0448233" lon="-8.0331517"><ele>1073.0</ele><time>2026-04-01T10:45:13.81Z</time></trkpt><trkpt lat="42.0449333" lon="-8.03315"><ele>1073.0</ele><time>2026-04-01T10:45:14.812Z</time></trkpt><trkpt lat="42.0450383" lon="-8.0331433"><ele>1072.2</ele><time>2026-04-01T10:45:15.808Z</time></trkpt><trkpt lat="42.045135" lon="-8.033165"><ele>1071.4</ele><time>2026-04-01T10:45:16.81Z</time></trkpt><trkpt lat="42.0452217" lon="-8.0332133"><ele>1070.6000000000001</ele><time>2026-04-01T10:45:17.812Z</time></trkpt><trkpt lat="42.0452967" lon="-8.03328"><ele>1069.8</ele><time>2026-04-01T10:45:18.808Z</time></trkpt><trkpt lat="42.0453667" lon="-8.0333583"><ele>1069.0</ele><time>2026-04-01T10:45:19.81Z</time></trkpt><trkpt lat="42.0454367" lon="-8.0334333"><ele>1069.8333333333333</ele><time>2026-04-01T10:45:20.812Z</time></trkpt><trkpt lat="42.0455133" lon="-8.0334917"><ele>1070.6666666666665</ele><time>2026-04-01T10:45:21.812Z</time></trkpt><trkpt lat="42.045595" lon="-8.033545"><ele>1071.5</ele><time>2026-04-01T10:45:22.812Z</time></trkpt><trkpt lat="42.0456817" lon="-8.0336"><ele>1072.3333333333333</ele><time>2026-04-01T10:45:23.81Z</time></trkpt><trkpt lat="42.0457583" lon="-8.0336467"><ele>1073.1666666666667</ele><time>2026-04-01T10:45:24.812Z</time></trkpt><trkpt lat="42.0458267" lon="-8.0336983"><ele>1074.0</ele><time>2026-04-01T10:45:25.809Z</time></trkpt><trkpt lat="42.0458883" lon="-8.0337567"><ele>1074.0</ele><time>2026-04-01T10:45:26.811Z</time></trkpt><trkpt lat="42.0459383" lon="-8.0338217"><ele>1074.0</ele><time>2026-04-01T10:45:27.812Z</time></trkpt><trkpt lat="42.0460383" lon="-8.03391"><ele>1074.0</ele><time>2026-04-01T10:45:29.811Z</time></trkpt><trkpt lat="42.04616" lon="-8.0339533"><ele>1074.0</ele><time>2026-04-01T10:45:31.813Z</time></trkpt><trkpt lat="42.0462317" lon="-8.033955"><ele>1074.0</ele><time>2026-04-01T10:45:32.812Z</time></trkpt><trkpt lat="42.0463083" lon="-8.033965"><ele>1074.0</ele><time>2026-04-01T10:45:33.809Z</time></trkpt><trkpt lat="42.0463867" lon="-8.0339917"><ele>1074.0</ele><time>2026-04-01T10:45:34.81Z</time></trkpt><trkpt lat="42.0464767" lon="-8.0340517"><ele>1074.0</ele><time>2026-04-01T10:45:35.809Z</time></trkpt><trkpt lat="42.04658" lon="-8.0341483"><ele>1074.0</ele><time>2026-04-01T10:45:36.808Z</time></trkpt><trkpt lat="42.0466667" lon="-8.0342117"><ele>1074.0</ele><time>2026-04-01T10:45:37.813Z</time></trkpt><trkpt lat="42.0467533" lon="-8.03425"><ele>1074.8</ele><time>2026-04-01T10:45:38.812Z</time></trkpt><trkpt lat="42.0468517" lon="-8.034265"><ele>1075.6000000000001</ele><time>2026-04-01T10:45:39.808Z</time></trkpt><trkpt lat="42.0469467" lon="-8.0342767"><ele>1076.4</ele><time>2026-04-01T10:45:40.809Z</time></trkpt><trkpt lat="42.0470383" lon="-8.0343083"><ele>1077.2</ele><time>2026-04-01T10:45:41.809Z</time></trkpt><trkpt lat="42.0471233" lon="-8.0343867"><ele>1078.0</ele><time>2026-04-01T10:45:42.809Z</time></trkpt><trkpt lat="42.0471917" lon="-8.0345083"><ele>1078.0</ele><time>2026-04-01T10:45:43.809Z</time></trkpt><trkpt lat="42.0472433" lon="-8.03464"><ele>1078.0</ele><time>2026-04-01T10:45:44.809Z</time></trkpt><trkpt lat="42.047305" lon="-8.034775"><ele>1078.0</ele><time>2026-04-01T10:45:45.812Z</time></trkpt><trkpt lat="42.0473733" lon="-8.0349217"><ele>1078.0</ele><time>2026-04-01T10:45:46.81Z</time></trkpt><trkpt lat="42.0474333" lon="-8.03505"><ele>1078.8333333333333</ele><time>2026-04-01T10:45:47.81Z</time></trkpt><trkpt lat="42.0474917" lon="-8.0351367"><ele>1079.6666666666665</ele><time>2026-04-01T10:45:48.809Z</time></trkpt><trkpt lat="42.047555" lon="-8.035205"><ele>1080.5</ele><time>2026-04-01T10:45:49.809Z</time></trkpt><trkpt lat="42.0476283" lon="-8.0352533"><ele>1081.3333333333333</ele><time>2026-04-01T10:45:50.809Z</time></trkpt><trkpt lat="42.047705" lon="-8.0352767"><ele>1082.1666666666667</ele><time>2026-04-01T10:45:51.809Z</time></trkpt><trkpt lat="42.0477717" lon="-8.0352783"><ele>1083.0</ele><time>2026-04-01T10:45:52.809Z</time></trkpt><trkpt lat="42.0478767" lon="-8.0352167"><ele>1083.0</ele><time>2026-04-01T10:45:54.812Z</time></trkpt><trkpt lat="42.0479267" lon="-8.0351467"><ele>1083.0</ele><time>2026-04-01T10:45:55.812Z</time></trkpt><trkpt lat="42.0479983" lon="-8.0350533"><ele>1083.0</ele><time>2026-04-01T10:45:56.813Z</time></trkpt><trkpt lat="42.0480667" lon="-8.0349683"><ele>1083.0</ele><time>2026-04-01T10:45:57.809Z</time></trkpt><trkpt lat="42.0481317" lon="-8.0348717"><ele>1083.0</ele><time>2026-04-01T10:45:58.81Z</time></trkpt><trkpt lat="42.0481933" lon="-8.0347767"><ele>1083.0</ele><time>2026-04-01T10:45:59.811Z</time></trkpt><trkpt lat="42.0482667" lon="-8.0346633"><ele>1083.0</ele><time>2026-04-01T10:46:00.81Z</time></trkpt><trkpt lat="42.0483383" lon="-8.0345533"><ele>1083.0</ele><time>2026-04-01T10:46:01.811Z</time></trkpt><trkpt lat="42.0484083" lon="-8.034445"><ele>1083.0</ele><time>2026-04-01T10:46:02.814Z</time></trkpt><trkpt lat="42.0484867" lon="-8.0343367"><ele>1083.0</ele><time>2026-04-01T10:46:03.809Z</time></trkpt><trkpt lat="42.0485667" lon="-8.03423"><ele>1083.2</ele><time>2026-04-01T10:46:04.809Z</time></trkpt><trkpt lat="42.0486567" lon="-8.0341233"><ele>1083.4</ele><time>2026-04-01T10:46:05.809Z</time></trkpt><trkpt lat="42.0487417" lon="-8.0340367"><ele>1083.6000000000001</ele><time>2026-04-01T10:46:06.809Z</time></trkpt><trkpt lat="42.0488317" lon="-8.0339667"><ele>1083.8</ele><time>2026-04-01T10:46:07.809Z</time></trkpt><trkpt lat="42.048915" lon="-8.0338983"><ele>1084.0</ele><time>2026-04-01T10:46:08.811Z</time></trkpt><trkpt lat="42.0489867" lon="-8.03382"><ele>1084.0</ele><time>2026-04-01T10:46:09.813Z</time></trkpt><trkpt lat="42.0490583" lon="-8.03375"><ele>1084.0</ele><time>2026-04-01T10:46:10.813Z</time></trkpt><trkpt lat="42.0491517" lon="-8.03371"><ele>1084.0</ele><time>2026-04-01T10:46:11.81Z</time></trkpt><trkpt lat="42.04926" lon="-8.03368"><ele>1084.0</ele><time>2026-04-01T10:46:12.809Z</time></trkpt><trkpt lat="42.0493717" lon="-8.0336467"><ele>1084.0</ele><time>2026-04-01T10:46:13.809Z</time></trkpt><trkpt lat="42.049485" lon="-8.0336"><ele>1084.8333333333333</ele><time>2026-04-01T10:46:14.81Z</time></trkpt><trkpt lat="42.0495733" lon="-8.03355"><ele>1085.6666666666665</ele><time>2026-04-01T10:46:15.809Z</time></trkpt><trkpt lat="42.04965" lon="-8.0335033"><ele>1086.5</ele><time>2026-04-01T10:46:16.81Z</time></trkpt><trkpt lat="42.04972" lon="-8.0334633"><ele>1087.3333333333333</ele><time>2026-04-01T10:46:17.809Z</time></trkpt><trkpt lat="42.0497783" lon="-8.03342"><ele>1088.1666666666667</ele><time>2026-04-01T10:46:18.809Z</time></trkpt><trkpt lat="42.049835" lon="-8.0333683"><ele>1089.0</ele><time>2026-04-01T10:46:19.809Z</time></trkpt><trkpt lat="42.0498933" lon="-8.0333217"><ele>1089.0</ele><time>2026-04-01T10:46:20.809Z</time></trkpt><trkpt lat="42.0499517" lon="-8.0332883"><ele>1089.0</ele><time>2026-04-01T10:46:21.809Z</time></trkpt><trkpt lat="42.050015" lon="-8.0332533"><ele>1089.0</ele><time>2026-04-01T10:46:22.81Z</time></trkpt><trkpt lat="42.0500867" lon="-8.0332117"><ele>1089.0</ele><time>2026-04-01T10:46:23.809Z</time></trkpt><trkpt lat="42.050165" lon="-8.0331733"><ele>1089.0</ele><time>2026-04-01T10:46:24.812Z</time></trkpt><trkpt lat="42.0502483" lon="-8.0331317"><ele>1089.0</ele><time>2026-04-01T10:46:25.81Z</time></trkpt><trkpt lat="42.0503417" lon="-8.0331"><ele>1088.6666666666667</ele><time>2026-04-01T10:46:26.812Z</time></trkpt><trkpt lat="42.0504" lon="-8.033065"><ele>1088.3333333333333</ele><time>2026-04-01T10:46:27.811Z</time></trkpt><trkpt lat="42.0505033" lon="-8.03304"><ele>1088.0</ele><time>2026-04-01T10:46:29.811Z</time></trkpt><trkpt lat="42.050575" lon="-8.0330233"><ele>1087.6666666666665</ele><time>2026-04-01T10:46:30.809Z</time></trkpt><trkpt lat="42.0506567" lon="-8.0329933"><ele>1087.3333333333333</ele><time>2026-04-01T10:46:31.809Z</time></trkpt><trkpt lat="42.0507633" lon="-8.0329467"><ele>1087.0</ele><time>2026-04-01T10:46:32.809Z</time></trkpt><trkpt lat="42.0508533" lon="-8.0329033"><ele>1087.0</ele><time>2026-04-01T10:46:33.812Z</time></trkpt><trkpt lat="42.050945" lon="-8.0328633"><ele>1087.0</ele><time>2026-04-01T10:46:34.81Z</time></trkpt><trkpt lat="42.05104" lon="-8.0328317"><ele>1087.0</ele><time>2026-04-01T10:46:35.811Z</time></trkpt><trkpt lat="42.05115" lon="-8.032815"><ele>1087.0</ele><time>2026-04-01T10:46:36.81Z</time></trkpt><trkpt lat="42.051265" lon="-8.03281"><ele>1087.0</ele><time>2026-04-01T10:46:37.814Z</time></trkpt><trkpt lat="42.0513833" lon="-8.0328183"><ele>1087.0</ele><time>2026-04-01T10:46:38.812Z</time></trkpt><trkpt lat="42.0514967" lon="-8.0328333"><ele>1087.0</ele><time>2026-04-01T10:46:39.812Z</time></trkpt><trkpt lat="42.0516" lon="-8.0328567"><ele>1087.0</ele><time>2026-04-01T10:46:40.809Z</time></trkpt><trkpt lat="42.0517" lon="-8.032875"><ele>1087.0</ele><time>2026-04-01T10:46:41.809Z</time></trkpt><trkpt lat="42.0517983" lon="-8.0328817"><ele>1087.0</ele><time>2026-04-01T10:46:42.809Z</time></trkpt><trkpt lat="42.0519033" lon="-8.0328717"><ele>1085.6666666666665</ele><time>2026-04-01T10:46:43.809Z</time></trkpt><trkpt lat="42.0520033" lon="-8.0328667"><ele>1084.3333333333333</ele><time>2026-04-01T10:46:44.81Z</time></trkpt><trkpt lat="42.05209" lon="-8.0328733"><ele>1083.0</ele><time>2026-04-01T10:46:45.813Z</time></trkpt><trkpt lat="42.0521717" lon="-8.0328933"><ele>1081.6666666666667</ele><time>2026-04-01T10:46:46.808Z</time></trkpt><trkpt lat="42.0522483" lon="-8.032905"><ele>1080.3333333333335</ele><time>2026-04-01T10:46:47.809Z</time></trkpt><trkpt lat="42.05233" lon="-8.0329183"><ele>1079.0</ele><time>2026-04-01T10:46:48.81Z</time></trkpt><trkpt lat="42.0524183" lon="-8.0329133"><ele>1077.6000000000001</ele><time>2026-04-01T10:46:49.813Z</time></trkpt><trkpt lat="42.0525083" lon="-8.0328983"><ele>1076.2</ele><time>2026-04-01T10:46:50.809Z</time></trkpt><trkpt lat="42.0526" lon="-8.0328533"><ele>1074.8000000000002</ele><time>2026-04-01T10:46:51.809Z</time></trkpt><trkpt lat="42.0526733" lon="-8.03279"><ele>1073.4</ele><time>2026-04-01T10:46:52.81Z</time></trkpt><trkpt lat="42.052735" lon="-8.03271"><ele>1072.0</ele><time>2026-04-01T10:46:53.81Z</time></trkpt><trkpt lat="42.0527933" lon="-8.0326117"><ele>1072.0</ele><time>2026-04-01T10:46:54.81Z</time></trkpt><trkpt lat="42.0528633" lon="-8.0325"><ele>1072.0</ele><time>2026-04-01T10:46:55.811Z</time></trkpt><trkpt lat="42.0529383" lon="-8.0323933"><ele>1072.0</ele><time>2026-04-01T10:46:56.812Z</time></trkpt><trkpt lat="42.053005" lon="-8.0323033"><ele>1072.0</ele><time>2026-04-01T10:46:57.812Z</time></trkpt><trkpt lat="42.0530633" lon="-8.0322317"><ele>1072.0</ele><time>2026-04-01T10:46:58.809Z</time></trkpt><trkpt lat="42.053125" lon="-8.0321483"><ele>1070.0</ele><time>2026-04-01T10:47:00.811Z</time></trkpt><trkpt lat="42.0530917" lon="-8.0320117"><ele>1068.0</ele><time>2026-04-01T10:47:03.812Z</time></trkpt><trkpt lat="42.0530167" lon="-8.031845"><ele>1066.0</ele><time>2026-04-01T10:47:05.81Z</time></trkpt><trkpt lat="42.052975" lon="-8.031735"><ele>1064.0</ele><time>2026-04-01T10:47:06.809Z</time></trkpt><trkpt lat="42.0529271" lon="-8.0316014"><ele>1064.0</ele><time>2026-04-01T10:47:07.809Z</time></trkpt><trkpt lat="42.0528746" lon="-8.0314709"><ele>1064.0</ele><time>2026-04-01T10:47:08.813Z</time></trkpt><trkpt lat="42.052826" lon="-8.0313466"><ele>1064.0</ele><time>2026-04-01T10:47:09.809Z</time></trkpt><trkpt lat="42.0527923" lon="-8.0312382"><ele>1064.0</ele><time>2026-04-01T10:47:10.812Z</time></trkpt><trkpt lat="42.0527815" lon="-8.0311335"><ele>1064.0</ele><time>2026-04-01T10:47:11.81Z</time></trkpt><trkpt lat="42.052783" lon="-8.0310187"><ele>1064.0</ele><time>2026-04-01T10:47:12.81Z</time></trkpt><trkpt lat="42.0527967" lon="-8.0308847"><ele>1064.0</ele><time>2026-04-01T10:47:13.809Z</time></trkpt><trkpt lat="42.0528264" lon="-8.0307284"><ele>1064.0</ele><time>2026-04-01T10:47:14.81Z</time></trkpt><trkpt lat="42.0528597" lon="-8.0305762"><ele>1064.0</ele><time>2026-04-01T10:47:15.81Z</time></trkpt><trkpt lat="42.0528913" lon="-8.0304379"><ele>1064.0</ele><time>2026-04-01T10:47:16.809Z</time></trkpt><trkpt lat="42.0529147" lon="-8.0303063"><ele>1063.8</ele><time>2026-04-01T10:47:17.809Z</time></trkpt><trkpt lat="42.0529372" lon="-8.0301703"><ele>1063.6000000000001</ele><time>2026-04-01T10:47:18.81Z</time></trkpt><trkpt lat="42.0529575" lon="-8.0300267"><ele>1063.4</ele><time>2026-04-01T10:47:19.811Z</time></trkpt><trkpt lat="42.0529757" lon="-8.029879"><ele>1063.2</ele><time>2026-04-01T10:47:20.812Z</time></trkpt><trkpt lat="42.0529873" lon="-8.0297393"><ele>1063.0</ele><time>2026-04-01T10:47:21.81Z</time></trkpt><trkpt lat="42.0529938" lon="-8.0296119"><ele>1062.4</ele><time>2026-04-01T10:47:22.81Z</time></trkpt><trkpt lat="42.0529913" lon="-8.0294865"><ele>1061.8</ele><time>2026-04-01T10:47:23.811Z</time></trkpt><trkpt lat="42.0529667" lon="-8.0293594"><ele>1061.2</ele><time>2026-04-01T10:47:24.811Z</time></trkpt><trkpt lat="42.0529194" lon="-8.0292164"><ele>1060.6</ele><time>2026-04-01T10:47:25.81Z</time></trkpt><trkpt lat="42.0528721" lon="-8.0290862"><ele>1060.0</ele><time>2026-04-01T10:47:26.811Z</time></trkpt><trkpt lat="42.0528366" lon="-8.0289634"><ele>1059.0</ele><time>2026-04-01T10:47:27.811Z</time></trkpt><trkpt lat="42.0528114" lon="-8.0288398"><ele>1058.0</ele><time>2026-04-01T10:47:28.81Z</time></trkpt><trkpt lat="42.0527983" lon="-8.0287148"><ele>1057.0</ele><time>2026-04-01T10:47:29.81Z</time></trkpt><trkpt lat="42.0527872" lon="-8.0285726"><ele>1056.0</ele><time>2026-04-01T10:47:30.81Z</time></trkpt><trkpt lat="42.052786" lon="-8.0284197"><ele>1055.0</ele><time>2026-04-01T10:47:31.811Z</time></trkpt><trkpt lat="42.0527925" lon="-8.0282778"><ele>1053.3333333333335</ele><time>2026-04-01T10:47:32.811Z</time></trkpt><trkpt lat="42.0528042" lon="-8.0281559"><ele>1051.6666666666667</ele><time>2026-04-01T10:47:33.813Z</time></trkpt><trkpt lat="42.0528055" lon="-8.0280477"><ele>1050.0</ele><time>2026-04-01T10:47:34.811Z</time></trkpt><trkpt lat="42.0527964" lon="-8.0279567"><ele>1048.3333333333333</ele><time>2026-04-01T10:47:35.811Z</time></trkpt><trkpt lat="42.0527682" lon="-8.0278725"><ele>1046.6666666666665</ele><time>2026-04-01T10:47:36.811Z</time></trkpt><trkpt lat="42.0527202" lon="-8.0277847"><ele>1045.0</ele><time>2026-04-01T10:47:37.808Z</time></trkpt><trkpt lat="42.0526555" lon="-8.0276912"><ele>1045.0</ele><time>2026-04-01T10:47:38.812Z</time></trkpt><trkpt lat="42.0525728" lon="-8.0276007"><ele>1045.0</ele><time>2026-04-01T10:47:39.807Z</time></trkpt><trkpt lat="42.0524743" lon="-8.027509"><ele>1045.0</ele><time>2026-04-01T10:47:40.81Z</time></trkpt><trkpt lat="42.0523646" lon="-8.02742"><ele>1045.0</ele><time>2026-04-01T10:47:41.813Z</time></trkpt><trkpt lat="42.0522434" lon="-8.0273421"><ele>1042.3333333333333</ele><time>2026-04-01T10:47:42.809Z</time></trkpt><trkpt lat="42.0520903" lon="-8.0272733"><ele>1039.6666666666667</ele><time>2026-04-01T10:47:43.811Z</time></trkpt><trkpt lat="42.0519141" lon="-8.0272228"><ele>1037.0</ele><time>2026-04-01T10:47:44.811Z</time></trkpt><trkpt lat="42.0517412" lon="-8.0271861"><ele>1038.5</ele><time>2026-04-01T10:47:45.809Z</time></trkpt><trkpt lat="42.0515769" lon="-8.0271737"><ele>1040.0</ele><time>2026-04-01T10:47:46.812Z</time></trkpt><trkpt lat="42.0514407" lon="-8.0271759"><ele>1041.5</ele><time>2026-04-01T10:47:47.809Z</time></trkpt><trkpt lat="42.0513281" lon="-8.0271756"><ele>1043.0</ele><time>2026-04-01T10:47:48.809Z</time></trkpt><trkpt lat="42.0512387" lon="-8.0271618"><ele>1043.0</ele><time>2026-04-01T10:47:49.812Z</time></trkpt><trkpt lat="42.051159" lon="-8.0271309"><ele>1043.0</ele><time>2026-04-01T10:47:50.809Z</time></trkpt><trkpt lat="42.051082" lon="-8.0270825"><ele>1043.0</ele><time>2026-04-01T10:47:51.808Z</time></trkpt><trkpt lat="42.0509913" lon="-8.0270087"><ele>1043.0</ele><time>2026-04-01T10:47:52.809Z</time></trkpt><trkpt lat="42.0508838" lon="-8.0268992"><ele>1043.0</ele><time>2026-04-01T10:47:53.808Z</time></trkpt><trkpt lat="42.0507814" lon="-8.0267844"><ele>1041.75</ele><time>2026-04-01T10:47:54.808Z</time></trkpt><trkpt lat="42.0506908" lon="-8.0266702"><ele>1040.5</ele><time>2026-04-01T10:47:55.808Z</time></trkpt><trkpt lat="42.0506194" lon="-8.0265387"><ele>1039.25</ele><time>2026-04-01T10:47:56.809Z</time></trkpt><trkpt lat="42.050559" lon="-8.0264039"><ele>1038.0</ele><time>2026-04-01T10:47:57.808Z</time></trkpt><trkpt lat="42.0505128" lon="-8.0262758"><ele>1038.0</ele><time>2026-04-01T10:47:58.811Z</time></trkpt><trkpt lat="42.050478" lon="-8.0261515"><ele>1038.0</ele><time>2026-04-01T10:47:59.808Z</time></trkpt><trkpt lat="42.0504492" lon="-8.026008"><ele>1038.0</ele><time>2026-04-01T10:48:00.81Z</time></trkpt><trkpt lat="42.050422" lon="-8.0258517"><ele>1038.0</ele><time>2026-04-01T10:48:01.81Z</time></trkpt><trkpt lat="42.0504042" lon="-8.0256948"><ele>1038.0</ele><time>2026-04-01T10:48:02.809Z</time></trkpt><trkpt lat="42.0503949" lon="-8.0255449"><ele>1038.4</ele><time>2026-04-01T10:48:03.808Z</time></trkpt><trkpt lat="42.0503981" lon="-8.0253984"><ele>1038.8</ele><time>2026-04-01T10:48:04.808Z</time></trkpt><trkpt lat="42.050415" lon="-8.0252749"><ele>1039.2</ele><time>2026-04-01T10:48:05.809Z</time></trkpt><trkpt lat="42.0504525" lon="-8.0251711"><ele>1039.6</ele><time>2026-04-01T10:48:06.808Z</time></trkpt><trkpt lat="42.0505047" lon="-8.0250691"><ele>1040.0</ele><time>2026-04-01T10:48:07.809Z</time></trkpt><trkpt lat="42.0506075" lon="-8.024961"><ele>1040.0</ele><time>2026-04-01T10:48:08.809Z</time></trkpt><trkpt lat="42.0507287" lon="-8.0248498"><ele>1040.0</ele><time>2026-04-01T10:48:09.808Z</time></trkpt><trkpt lat="42.0508299" lon="-8.0247399"><ele>1040.0</ele><time>2026-04-01T10:48:10.808Z</time></trkpt><trkpt lat="42.0509169" lon="-8.0246251"><ele>1040.0</ele><time>2026-04-01T10:48:11.808Z</time></trkpt><trkpt lat="42.0509885" lon="-8.0244909"><ele>1039.3333333333335</ele><time>2026-04-01T10:48:12.808Z</time></trkpt><trkpt lat="42.0510567" lon="-8.0243268"><ele>1038.6666666666667</ele><time>2026-04-01T10:48:13.808Z</time></trkpt><trkpt lat="42.0511352" lon="-8.0241407"><ele>1038.0</ele><time>2026-04-01T10:48:14.811Z</time></trkpt><trkpt lat="42.0512156" lon="-8.0239556"><ele>1038.0</ele><time>2026-04-01T10:48:15.808Z</time></trkpt><trkpt lat="42.0512888" lon="-8.0237806"><ele>1038.0</ele><time>2026-04-01T10:48:16.812Z</time></trkpt><trkpt lat="42.0513424" lon="-8.0236213"><ele>1038.0</ele><time>2026-04-01T10:48:17.809Z</time></trkpt><trkpt lat="42.0513744" lon="-8.0234667"><ele>1038.0</ele><time>2026-04-01T10:48:18.811Z</time></trkpt><trkpt lat="42.0513815" lon="-8.0233135"><ele>1035.8</ele><time>2026-04-01T10:48:19.808Z</time></trkpt><trkpt lat="42.051381" lon="-8.0231566"><ele>1033.6</ele><time>2026-04-01T10:48:20.81Z</time></trkpt><trkpt lat="42.0513795" lon="-8.0230163"><ele>1031.4</ele><time>2026-04-01T10:48:21.809Z</time></trkpt><trkpt lat="42.0513985" lon="-8.0228933"><ele>1029.2</ele><time>2026-04-01T10:48:22.811Z</time></trkpt><trkpt lat="42.0514304" lon="-8.0227817"><ele>1027.0</ele><time>2026-04-01T10:48:23.81Z</time></trkpt><trkpt lat="42.0514718" lon="-8.0226713"><ele>1027.0</ele><time>2026-04-01T10:48:24.81Z</time></trkpt><trkpt lat="42.0515443" lon="-8.0225765"><ele>1027.0</ele><time>2026-04-01T10:48:25.811Z</time></trkpt><trkpt lat="42.0516367" lon="-8.0224932"><ele>1027.0</ele><time>2026-04-01T10:48:26.812Z</time></trkpt><trkpt lat="42.0517334" lon="-8.0224092"><ele>1027.0</ele><time>2026-04-01T10:48:27.808Z</time></trkpt><trkpt lat="42.0518252" lon="-8.0223156"><ele>1027.0</ele><time>2026-04-01T10:48:28.809Z</time></trkpt><trkpt lat="42.0519019" lon="-8.0222065"><ele>1024.25</ele><time>2026-04-01T10:48:29.812Z</time></trkpt><trkpt lat="42.0519688" lon="-8.022077"><ele>1021.5</ele><time>2026-04-01T10:48:30.808Z</time></trkpt><trkpt lat="42.0520304" lon="-8.0219241"><ele>1018.75</ele><time>2026-04-01T10:48:31.81Z</time></trkpt><trkpt lat="42.0520953" lon="-8.0217697"><ele>1016.0</ele><time>2026-04-01T10:48:32.81Z</time></trkpt><trkpt lat="42.0521672" lon="-8.0216377"><ele>1014.5</ele><time>2026-04-01T10:48:33.81Z</time></trkpt><trkpt lat="42.0522604" lon="-8.0215358"><ele>1013.0</ele><time>2026-04-01T10:48:34.81Z</time></trkpt><trkpt lat="42.0523747" lon="-8.0214472"><ele>1011.5</ele><time>2026-04-01T10:48:35.81Z</time></trkpt><trkpt lat="42.0524976" lon="-8.0213593"><ele>1010.0</ele><time>2026-04-01T10:48:36.809Z</time></trkpt><trkpt lat="42.052619" lon="-8.0212717"><ele>1010.0</ele><time>2026-04-01T10:48:37.811Z</time></trkpt><trkpt lat="42.0527302" lon="-8.0212021"><ele>1010.0</ele><time>2026-04-01T10:48:38.81Z</time></trkpt><trkpt lat="42.052826" lon="-8.021131"><ele>1010.0</ele><time>2026-04-01T10:48:39.81Z</time></trkpt><trkpt lat="42.0529" lon="-8.0210396"><ele>1010.0</ele><time>2026-04-01T10:48:40.81Z</time></trkpt><trkpt lat="42.052972" lon="-8.0209306"><ele>1010.0</ele><time>2026-04-01T10:48:41.812Z</time></trkpt><trkpt lat="42.0530616" lon="-8.0208199"><ele>1007.6</ele><time>2026-04-01T10:48:42.813Z</time></trkpt><trkpt lat="42.0531659" lon="-8.0207143"><ele>1005.2</ele><time>2026-04-01T10:48:43.808Z</time></trkpt><trkpt lat="42.0532654" lon="-8.0206102"><ele>1002.8</ele><time>2026-04-01T10:48:44.812Z</time></trkpt><trkpt lat="42.0533417" lon="-8.020525"><ele>1000.4</ele><time>2026-04-01T10:48:45.808Z</time></trkpt><trkpt lat="42.0534" lon="-8.0204533"><ele>998.0</ele><time>2026-04-01T10:48:46.809Z</time></trkpt><trkpt lat="42.0534767" lon="-8.020385"><ele>998.0</ele><time>2026-04-01T10:48:48.81Z</time></trkpt><trkpt lat="42.0535583" lon="-8.0204317"><ele>998.0</ele><time>2026-04-01T10:48:50.811Z</time></trkpt><trkpt lat="42.05363" lon="-8.0204933"><ele>998.0</ele><time>2026-04-01T10:48:51.81Z</time></trkpt><trkpt lat="42.053695" lon="-8.020565"><ele>998.0</ele><time>2026-04-01T10:48:52.811Z</time></trkpt><trkpt lat="42.0537467" lon="-8.0206583"><ele>998.0</ele><time>2026-04-01T10:48:53.81Z</time></trkpt><trkpt lat="42.0537933" lon="-8.0207917"><ele>1001.0</ele><time>2026-04-01T10:48:54.81Z</time></trkpt><trkpt lat="42.0538517" lon="-8.0209667"><ele>1004.0</ele><time>2026-04-01T10:48:55.812Z</time></trkpt><trkpt lat="42.0539233" lon="-8.0211617"><ele>1007.0</ele><time>2026-04-01T10:48:56.809Z</time></trkpt><trkpt lat="42.0539967" lon="-8.021345"><ele>1007.0</ele><time>2026-04-01T10:48:57.81Z</time></trkpt><trkpt lat="42.0540667" lon="-8.021515"><ele>1007.0</ele><time>2026-04-01T10:48:58.81Z</time></trkpt><trkpt lat="42.0541333" lon="-8.02166"><ele>1007.0</ele><time>2026-04-01T10:48:59.809Z</time></trkpt><trkpt lat="42.0542033" lon="-8.0217767"><ele>1007.0</ele><time>2026-04-01T10:49:00.809Z</time></trkpt><trkpt lat="42.054275" lon="-8.0218933"><ele>1008.25</ele><time>2026-04-01T10:49:01.811Z</time></trkpt><trkpt lat="42.0543383" lon="-8.0220117"><ele>1009.5</ele><time>2026-04-01T10:49:02.81Z</time></trkpt><trkpt lat="42.0543867" lon="-8.022145"><ele>1010.75</ele><time>2026-04-01T10:49:03.811Z</time></trkpt><trkpt lat="42.054435" lon="-8.022305"><ele>1012.0</ele><time>2026-04-01T10:49:04.812Z</time></trkpt><trkpt lat="42.054495" lon="-8.0224733"><ele>1015.0</ele><time>2026-04-01T10:49:05.812Z</time></trkpt><trkpt lat="42.0545617" lon="-8.0226217"><ele>1018.0</ele><time>2026-04-01T10:49:06.811Z</time></trkpt><trkpt lat="42.0546233" lon="-8.02276"><ele>1021.0</ele><time>2026-04-01T10:49:07.81Z</time></trkpt><trkpt lat="42.05469" lon="-8.0228783"><ele>1024.0</ele><time>2026-04-01T10:49:08.811Z</time></trkpt><trkpt lat="42.0547517" lon="-8.0229867"><ele>1024.0</ele><time>2026-04-01T10:49:09.81Z</time></trkpt><trkpt lat="42.0548067" lon="-8.0231133"><ele>1024.0</ele><time>2026-04-01T10:49:10.811Z</time></trkpt><trkpt lat="42.0548483" lon="-8.0232383"><ele>1024.0</ele><time>2026-04-01T10:49:11.812Z</time></trkpt><trkpt lat="42.0548833" lon="-8.0233517"><ele>1024.0</ele><time>2026-04-01T10:49:12.812Z</time></trkpt><trkpt lat="42.0549017" lon="-8.0234667"><ele>1024.0</ele><time>2026-04-01T10:49:13.809Z</time></trkpt><trkpt lat="42.0549117" lon="-8.0235717"><ele>1024.6000000000001</ele><time>2026-04-01T10:49:14.809Z</time></trkpt><trkpt lat="42.0548983" lon="-8.023695"><ele>1025.2</ele><time>2026-04-01T10:49:15.808Z</time></trkpt><trkpt lat="42.0548733" lon="-8.0238283"><ele>1025.8000000000002</ele><time>2026-04-01T10:49:16.808Z</time></trkpt><trkpt lat="42.0548417" lon="-8.0239617"><ele>1026.4</ele><time>2026-04-01T10:49:17.809Z</time></trkpt><trkpt lat="42.0548117" lon="-8.0240983"><ele>1027.0</ele><time>2026-04-01T10:49:18.809Z</time></trkpt><trkpt lat="42.0547883" lon="-8.02423"><ele>1027.0</ele><time>2026-04-01T10:49:19.809Z</time></trkpt><trkpt lat="42.05477" lon="-8.0243567"><ele>1027.0</ele><time>2026-04-01T10:49:20.81Z</time></trkpt><trkpt lat="42.0547617" lon="-8.02448"><ele>1027.0</ele><time>2026-04-01T10:49:21.808Z</time></trkpt><trkpt lat="42.0547533" lon="-8.0245967"><ele>1027.0</ele><time>2026-04-01T10:49:22.812Z</time></trkpt><trkpt lat="42.0547367" lon="-8.02471"><ele>1027.0</ele><time>2026-04-01T10:49:23.809Z</time></trkpt><trkpt lat="42.05471" lon="-8.0248067"><ele>1027.0</ele><time>2026-04-01T10:49:24.808Z</time></trkpt><trkpt lat="42.0546767" lon="-8.0248933"><ele>1027.0</ele><time>2026-04-01T10:49:25.809Z</time></trkpt><trkpt lat="42.0546367" lon="-8.024975"><ele>1027.0</ele><time>2026-04-01T10:49:26.808Z</time></trkpt><trkpt lat="42.0546033" lon="-8.0250483"><ele>1027.0</ele><time>2026-04-01T10:49:27.809Z</time></trkpt><trkpt lat="42.054575" lon="-8.0251417"><ele>1027.0</ele><time>2026-04-01T10:49:28.809Z</time></trkpt><trkpt lat="42.0545717" lon="-8.0252333"><ele>1027.0</ele><time>2026-04-01T10:49:29.809Z</time></trkpt><trkpt lat="42.054575" lon="-8.02539"><ele>1027.0</ele><time>2026-04-01T10:49:31.81Z</time></trkpt><trkpt lat="42.05456" lon="-8.0255517"><ele>1025.1666666666665</ele><time>2026-04-01T10:49:33.808Z</time></trkpt><trkpt lat="42.0545467" lon="-8.02565"><ele>1023.3333333333333</ele><time>2026-04-01T10:49:34.809Z</time></trkpt><trkpt lat="42.05454" lon="-8.0257633"><ele>1021.5</ele><time>2026-04-01T10:49:35.809Z</time></trkpt><trkpt lat="42.0545383" lon="-8.0258683"><ele>1019.6666666666667</ele><time>2026-04-01T10:49:36.808Z</time></trkpt><trkpt lat="42.0545483" lon="-8.0259633"><ele>1017.8333333333334</ele><time>2026-04-01T10:49:37.809Z</time></trkpt><trkpt lat="42.054555" lon="-8.0261083"><ele>1016.0</ele><time>2026-04-01T10:49:39.808Z</time></trkpt><trkpt lat="42.0545717" lon="-8.0262667"><ele>1015.5000000000001</ele><time>2026-04-01T10:49:41.809Z</time></trkpt><trkpt lat="42.0545833" lon="-8.0263517"><ele>1015.0</ele><time>2026-04-01T10:49:42.808Z</time></trkpt><trkpt lat="42.0546133" lon="-8.02649"><ele>1014.5</ele><time>2026-04-01T10:49:44.809Z</time></trkpt><trkpt lat="42.0546283" lon="-8.0266033"><ele>1014.0</ele><time>2026-04-01T10:49:46.808Z</time></trkpt><trkpt lat="42.054615" lon="-8.0267417"><ele>1013.5000000000001</ele><time>2026-04-01T10:49:48.809Z</time></trkpt><trkpt lat="42.0546083" lon="-8.0268483"><ele>1013.0</ele><time>2026-04-01T10:49:49.809Z</time></trkpt><trkpt lat="42.054615" lon="-8.0269467"><ele>1013.0</ele><time>2026-04-01T10:49:50.809Z</time></trkpt><trkpt lat="42.05468" lon="-8.02707"><ele>1013.0</ele><time>2026-04-01T10:49:52.809Z</time></trkpt><trkpt lat="42.0547917" lon="-8.0271183"><ele>1013.0</ele><time>2026-04-01T10:49:54.809Z</time></trkpt><trkpt lat="42.05488" lon="-8.0271617"><ele>1013.0</ele><time>2026-04-01T10:49:55.81Z</time></trkpt><trkpt lat="42.0549717" lon="-8.0271983"><ele>1013.0</ele><time>2026-04-01T10:49:56.809Z</time></trkpt><trkpt lat="42.055065" lon="-8.0272333"><ele>1013.0</ele><time>2026-04-01T10:49:57.809Z</time></trkpt><trkpt lat="42.0551683" lon="-8.027275"><ele>1013.0</ele><time>2026-04-01T10:49:58.81Z</time></trkpt><trkpt lat="42.0552633" lon="-8.0273"><ele>1013.0</ele><time>2026-04-01T10:49:59.808Z</time></trkpt><trkpt lat="42.0553617" lon="-8.0273083"><ele>1013.0</ele><time>2026-04-01T10:50:00.809Z</time></trkpt><trkpt lat="42.0554817" lon="-8.0273217"><ele>1013.0</ele><time>2026-04-01T10:50:01.809Z</time></trkpt><trkpt lat="42.0556" lon="-8.02734"><ele>1013.0</ele><time>2026-04-01T10:50:02.809Z</time></trkpt><trkpt lat="42.055715" lon="-8.0273533"><ele>1013.0</ele><time>2026-04-01T10:50:03.809Z</time></trkpt><trkpt lat="42.055845" lon="-8.0273783"><ele>1013.0</ele><time>2026-04-01T10:50:04.809Z</time></trkpt><trkpt lat="42.05598" lon="-8.0273983"><ele>1013.0</ele><time>2026-04-01T10:50:05.809Z</time></trkpt><trkpt lat="42.056105" lon="-8.0274167"><ele>1013.8</ele><time>2026-04-01T10:50:06.81Z</time></trkpt><trkpt lat="42.056205" lon="-8.0274467"><ele>1014.5999999999999</ele><time>2026-04-01T10:50:07.809Z</time></trkpt><trkpt lat="42.056285" lon="-8.0274967"><ele>1015.4000000000001</ele><time>2026-04-01T10:50:08.81Z</time></trkpt><trkpt lat="42.0563517" lon="-8.02756"><ele>1016.2</ele><time>2026-04-01T10:50:09.808Z</time></trkpt><trkpt lat="42.0564217" lon="-8.02766"><ele>1017.0</ele><time>2026-04-01T10:50:10.809Z</time></trkpt><trkpt lat="42.056505" lon="-8.0277933"><ele>1018.0</ele><time>2026-04-01T10:50:11.809Z</time></trkpt><trkpt lat="42.05658" lon="-8.0279317"><ele>1019.0</ele><time>2026-04-01T10:50:12.809Z</time></trkpt><trkpt lat="42.0566583" lon="-8.0280617"><ele>1020.0</ele><time>2026-04-01T10:50:13.809Z</time></trkpt><trkpt lat="42.05672" lon="-8.028155"><ele>1021.0</ele><time>2026-04-01T10:50:14.812Z</time></trkpt><trkpt lat="42.0567767" lon="-8.0282417"><ele>1022.0</ele><time>2026-04-01T10:50:15.812Z</time></trkpt><trkpt lat="42.0568233" lon="-8.0283133"><ele>1022.8</ele><time>2026-04-01T10:50:16.812Z</time></trkpt><trkpt lat="42.0569067" lon="-8.0284417"><ele>1023.6</ele><time>2026-04-01T10:50:18.809Z</time></trkpt><trkpt lat="42.05696" lon="-8.0285083"><ele>1024.3999999999999</ele><time>2026-04-01T10:50:19.808Z</time></trkpt><trkpt lat="42.057035" lon="-8.0285833"><ele>1025.2</ele><time>2026-04-01T10:50:20.808Z</time></trkpt><trkpt lat="42.0571333" lon="-8.02867"><ele>1026.0</ele><time>2026-04-01T10:50:21.81Z</time></trkpt><trkpt lat="42.0572383" lon="-8.0287433"><ele>1026.0</ele><time>2026-04-01T10:50:22.808Z</time></trkpt><trkpt lat="42.057355" lon="-8.0288067"><ele>1026.0</ele><time>2026-04-01T10:50:23.81Z</time></trkpt><trkpt lat="42.0574733" lon="-8.0288567"><ele>1026.0</ele><time>2026-04-01T10:50:24.813Z</time></trkpt><trkpt lat="42.0575767" lon="-8.0288967"><ele>1026.0</ele><time>2026-04-01T10:50:25.812Z</time></trkpt><trkpt lat="42.05766" lon="-8.0289233"><ele>1026.0</ele><time>2026-04-01T10:50:26.812Z</time></trkpt><trkpt lat="42.0577633" lon="-8.02892"><ele>1026.0</ele><time>2026-04-01T10:50:28.809Z</time></trkpt><trkpt lat="42.0578033" lon="-8.0288217"><ele>1026.0</ele><time>2026-04-01T10:50:30.812Z</time></trkpt><trkpt lat="42.0578267" lon="-8.028675"><ele>1026.0</ele><time>2026-04-01T10:50:32.812Z</time></trkpt><trkpt lat="42.0578517" lon="-8.0285933"><ele>1026.0</ele><time>2026-04-01T10:50:33.808Z</time></trkpt><trkpt lat="42.0578817" lon="-8.028505"><ele>1026.0</ele><time>2026-04-01T10:50:34.811Z</time></trkpt><trkpt lat="42.0579217" lon="-8.0283983"><ele>1026.0</ele><time>2026-04-01T10:50:35.814Z</time></trkpt><trkpt lat="42.0579667" lon="-8.0282683"><ele>1027.0</ele><time>2026-04-01T10:50:36.812Z</time></trkpt><trkpt lat="42.0580117" lon="-8.0281"><ele>1028.0</ele><time>2026-04-01T10:50:37.813Z</time></trkpt><trkpt lat="42.058035" lon="-8.027895"><ele>1029.0</ele><time>2026-04-01T10:50:38.812Z</time></trkpt><trkpt lat="42.058055" lon="-8.0277133"><ele>1030.0</ele><time>2026-04-01T10:50:39.812Z</time></trkpt><trkpt lat="42.0580733" lon="-8.0275517"><ele>1029.8</ele><time>2026-04-01T10:50:40.809Z</time></trkpt><trkpt lat="42.0580883" lon="-8.0273933"><ele>1029.6</ele><time>2026-04-01T10:50:41.812Z</time></trkpt><trkpt lat="42.0580917" lon="-8.02727"><ele>1029.4</ele><time>2026-04-01T10:50:42.812Z</time></trkpt><trkpt lat="42.058075" lon="-8.0271583"><ele>1029.2</ele><time>2026-04-01T10:50:43.812Z</time></trkpt><trkpt lat="42.0580417" lon="-8.027035"><ele>1029.0</ele><time>2026-04-01T10:50:44.812Z</time></trkpt><trkpt lat="42.0579917" lon="-8.0269133"><ele>1029.0</ele><time>2026-04-01T10:50:45.808Z</time></trkpt><trkpt lat="42.0579167" lon="-8.0267917"><ele>1029.0</ele><time>2026-04-01T10:50:46.812Z</time></trkpt><trkpt lat="42.0578217" lon="-8.0266783"><ele>1029.0</ele><time>2026-04-01T10:50:47.812Z</time></trkpt><trkpt lat="42.057705" lon="-8.0265567"><ele>1029.0</ele><time>2026-04-01T10:50:48.808Z</time></trkpt><trkpt lat="42.0575817" lon="-8.0264367"><ele>1028.0</ele><time>2026-04-01T10:50:49.81Z</time></trkpt><trkpt lat="42.0574717" lon="-8.02632"><ele>1027.0</ele><time>2026-04-01T10:50:50.812Z</time></trkpt><trkpt lat="42.0573833" lon="-8.0262133"><ele>1026.0</ele><time>2026-04-01T10:50:51.808Z</time></trkpt><trkpt lat="42.0573233" lon="-8.0261083"><ele>1025.0</ele><time>2026-04-01T10:50:52.813Z</time></trkpt><trkpt lat="42.057275" lon="-8.02599"><ele>1025.0</ele><time>2026-04-01T10:50:53.812Z</time></trkpt><trkpt lat="42.057225" lon="-8.02585"><ele>1025.0</ele><time>2026-04-01T10:50:54.811Z</time></trkpt><trkpt lat="42.0571617" lon="-8.0257067"><ele>1025.0</ele><time>2026-04-01T10:50:55.811Z</time></trkpt><trkpt lat="42.0570917" lon="-8.0255783"><ele>1025.0</ele><time>2026-04-01T10:50:56.812Z</time></trkpt><trkpt lat="42.0570267" lon="-8.025485"><ele>1021.6</ele><time>2026-04-01T10:50:57.811Z</time></trkpt><trkpt lat="42.0569467" lon="-8.02542"><ele>1018.2</ele><time>2026-04-01T10:50:58.812Z</time></trkpt><trkpt lat="42.05685" lon="-8.025375"><ele>1014.8</ele><time>2026-04-01T10:50:59.81Z</time></trkpt><trkpt lat="42.0567383" lon="-8.02535"><ele>1011.4</ele><time>2026-04-01T10:51:00.813Z</time></trkpt><trkpt lat="42.0566367" lon="-8.0253233"><ele>1008.0</ele><time>2026-04-01T10:51:01.812Z</time></trkpt><trkpt lat="42.0565417" lon="-8.025275"><ele>1007.5999999999999</ele><time>2026-04-01T10:51:02.812Z</time></trkpt><trkpt lat="42.05645" lon="-8.0251883"><ele>1007.1999999999999</ele><time>2026-04-01T10:51:03.808Z</time></trkpt><trkpt lat="42.0563617" lon="-8.0250867"><ele>1006.8</ele><time>2026-04-01T10:51:04.809Z</time></trkpt><trkpt lat="42.05629" lon="-8.02499"><ele>1006.4</ele><time>2026-04-01T10:51:05.809Z</time></trkpt><trkpt lat="42.0562167" lon="-8.0249167"><ele>1006.0</ele><time>2026-04-01T10:51:06.809Z</time></trkpt><trkpt lat="42.0561467" lon="-8.024855"><ele>1004.3333333333333</ele><time>2026-04-01T10:51:07.809Z</time></trkpt><trkpt lat="42.0560783" lon="-8.024785"><ele>1002.6666666666666</ele><time>2026-04-01T10:51:08.81Z</time></trkpt><trkpt lat="42.05602" lon="-8.0247133"><ele>1001.0</ele><time>2026-04-01T10:51:09.808Z</time></trkpt><trkpt lat="42.055975" lon="-8.0246217"><ele>999.3333333333333</ele><time>2026-04-01T10:51:10.809Z</time></trkpt><trkpt lat="42.0559517" lon="-8.0245067"><ele>997.6666666666666</ele><time>2026-04-01T10:51:11.809Z</time></trkpt><trkpt lat="42.0559367" lon="-8.0243933"><ele>996.0</ele><time>2026-04-01T10:51:12.809Z</time></trkpt><trkpt lat="42.0559333" lon="-8.0242967"><ele>996.0</ele><time>2026-04-01T10:51:13.812Z</time></trkpt><trkpt lat="42.0558783" lon="-8.0241583"><ele>995.9999999999999</ele><time>2026-04-01T10:51:15.81Z</time></trkpt><trkpt lat="42.0558167" lon="-8.02404"><ele>995.9999999999999</ele><time>2026-04-01T10:51:17.813Z</time></trkpt><trkpt lat="42.0557633" lon="-8.023905"><ele>996.0</ele><time>2026-04-01T10:51:19.81Z</time></trkpt><trkpt lat="42.0557383" lon="-8.0237817"><ele>996.0</ele><time>2026-04-01T10:51:20.809Z</time></trkpt><trkpt lat="42.0557083" lon="-8.023605"><ele>999.6666666666667</ele><time>2026-04-01T10:51:21.81Z</time></trkpt><trkpt lat="42.05569" lon="-8.0233467"><ele>1003.3333333333334</ele><time>2026-04-01T10:51:22.812Z</time></trkpt><trkpt lat="42.0556617" lon="-8.0231283"><ele>1007.0</ele><time>2026-04-01T10:51:23.809Z</time></trkpt><trkpt lat="42.05563" lon="-8.0229617"><ele>1007.0</ele><time>2026-04-01T10:51:24.809Z</time></trkpt><trkpt lat="42.0555867" lon="-8.0228017"><ele>1007.0</ele><time>2026-04-01T10:51:25.809Z</time></trkpt><trkpt lat="42.0555617" lon="-8.0226417"><ele>1007.0</ele><time>2026-04-01T10:51:26.809Z</time></trkpt><trkpt lat="42.0555567" lon="-8.0224317"><ele>1007.0</ele><time>2026-04-01T10:51:27.809Z</time></trkpt><trkpt lat="42.05555" lon="-8.0221933"><ele>1004.5</ele><time>2026-04-01T10:51:28.809Z</time></trkpt><trkpt lat="42.0555617" lon="-8.0219933"><ele>1002.0</ele><time>2026-04-01T10:51:29.81Z</time></trkpt><trkpt lat="42.0555617" lon="-8.0218083"><ele>999.5</ele><time>2026-04-01T10:51:30.809Z</time></trkpt><trkpt lat="42.0555467" lon="-8.02162"><ele>997.0</ele><time>2026-04-01T10:51:31.809Z</time></trkpt><trkpt lat="42.0555017" lon="-8.0214333"><ele>995.75</ele><time>2026-04-01T10:51:32.809Z</time></trkpt><trkpt lat="42.0554517" lon="-8.02125"><ele>994.5</ele><time>2026-04-01T10:51:33.809Z</time></trkpt><trkpt lat="42.0554067" lon="-8.0210733"><ele>993.25</ele><time>2026-04-01T10:51:34.81Z</time></trkpt><trkpt lat="42.0553767" lon="-8.0208883"><ele>992.0</ele><time>2026-04-01T10:51:35.809Z</time></trkpt><trkpt lat="42.0553433" lon="-8.0206967"><ele>991.25</ele><time>2026-04-01T10:51:36.809Z</time></trkpt><trkpt lat="42.0553333" lon="-8.0205"><ele>990.5</ele><time>2026-04-01T10:51:37.809Z</time></trkpt><trkpt lat="42.0553217" lon="-8.0203133"><ele>989.75</ele><time>2026-04-01T10:51:38.81Z</time></trkpt><trkpt lat="42.055325" lon="-8.0201133"><ele>989.0</ele><time>2026-04-01T10:51:39.809Z</time></trkpt><trkpt lat="42.0553417" lon="-8.0199067"><ele>989.0</ele><time>2026-04-01T10:51:40.809Z</time></trkpt><trkpt lat="42.0553617" lon="-8.0197233"><ele>989.0000000000001</ele><time>2026-04-01T10:51:41.81Z</time></trkpt><trkpt lat="42.0553683" lon="-8.0195733"><ele>989.0000000000001</ele><time>2026-04-01T10:51:42.809Z</time></trkpt><trkpt lat="42.0553583" lon="-8.0194467"><ele>989.0</ele><time>2026-04-01T10:51:43.812Z</time></trkpt><trkpt lat="42.055325" lon="-8.01932"><ele>989.0</ele><time>2026-04-01T10:51:44.812Z</time></trkpt><trkpt lat="42.0552617" lon="-8.0191683"><ele>989.25</ele><time>2026-04-01T10:51:45.812Z</time></trkpt><trkpt lat="42.0551883" lon="-8.019015"><ele>989.5</ele><time>2026-04-01T10:51:46.812Z</time></trkpt><trkpt lat="42.0551017" lon="-8.01886"><ele>989.75</ele><time>2026-04-01T10:51:47.812Z</time></trkpt><trkpt lat="42.0550017" lon="-8.0187033"><ele>990.0</ele><time>2026-04-01T10:51:48.808Z</time></trkpt><trkpt lat="42.0548833" lon="-8.0185317"><ele>990.0</ele><time>2026-04-01T10:51:49.809Z</time></trkpt><trkpt lat="42.05474" lon="-8.0183467"><ele>990.0</ele><time>2026-04-01T10:51:50.809Z</time></trkpt><trkpt lat="42.0545917" lon="-8.018175"><ele>990.0</ele><time>2026-04-01T10:51:51.809Z</time></trkpt><trkpt lat="42.0544533" lon="-8.018025"><ele>988.5</ele><time>2026-04-01T10:51:52.809Z</time></trkpt><trkpt lat="42.0543233" lon="-8.0179017"><ele>987.0</ele><time>2026-04-01T10:51:53.809Z</time></trkpt><trkpt lat="42.0542017" lon="-8.0178033"><ele>985.5</ele><time>2026-04-01T10:51:54.809Z</time></trkpt><trkpt lat="42.0541067" lon="-8.0177383"><ele>984.0</ele><time>2026-04-01T10:51:55.809Z</time></trkpt><trkpt lat="42.05401" lon="-8.0177"><ele>984.0</ele><time>2026-04-01T10:51:57.809Z</time></trkpt><trkpt lat="42.053945" lon="-8.01769"><ele>984.0</ele><time>2026-04-01T10:52:00.81Z</time></trkpt><trkpt lat="42.0540217" lon="-8.0176767"><ele>984.0</ele><time>2026-04-01T10:52:06.809Z</time></trkpt><trkpt lat="42.0541133" lon="-8.0177067"><ele>984.0</ele><time>2026-04-01T10:52:08.813Z</time></trkpt><trkpt lat="42.05419" lon="-8.017735"><ele>984.0</ele><time>2026-04-01T10:52:09.808Z</time></trkpt><trkpt lat="42.054275" lon="-8.0177617"><ele>984.0</ele><time>2026-04-01T10:52:10.809Z</time></trkpt><trkpt lat="42.05438" lon="-8.0178067"><ele>983.0</ele><time>2026-04-01T10:52:11.81Z</time></trkpt><trkpt lat="42.054495" lon="-8.0178533"><ele>982.0</ele><time>2026-04-01T10:52:12.808Z</time></trkpt><trkpt lat="42.05461" lon="-8.0179067"><ele>981.0</ele><time>2026-04-01T10:52:13.809Z</time></trkpt><trkpt lat="42.0547317" lon="-8.01796"><ele>980.0</ele><time>2026-04-01T10:52:14.813Z</time></trkpt><trkpt lat="42.0548567" lon="-8.0180083"><ele>976.75</ele><time>2026-04-01T10:52:15.812Z</time></trkpt><trkpt lat="42.05498" lon="-8.0180533"><ele>973.5</ele><time>2026-04-01T10:52:16.809Z</time></trkpt><trkpt lat="42.0550967" lon="-8.0180933"><ele>970.25</ele><time>2026-04-01T10:52:17.812Z</time></trkpt><trkpt lat="42.0552117" lon="-8.0181267"><ele>967.0</ele><time>2026-04-01T10:52:18.809Z</time></trkpt><trkpt lat="42.0553067" lon="-8.0181433"><ele>967.0</ele><time>2026-04-01T10:52:19.812Z</time></trkpt><trkpt lat="42.055395" lon="-8.0181317"><ele>967.0</ele><time>2026-04-01T10:52:20.811Z</time></trkpt><trkpt lat="42.0554983" lon="-8.0180833"><ele>967.0</ele><time>2026-04-01T10:52:21.811Z</time></trkpt><trkpt lat="42.0556067" lon="-8.0180283"><ele>967.0</ele><time>2026-04-01T10:52:22.814Z</time></trkpt><trkpt lat="42.05571" lon="-8.0179767"><ele>967.0</ele><time>2026-04-01T10:52:23.811Z</time></trkpt><trkpt lat="42.0558033" lon="-8.0179283"><ele>966.4999999999999</ele><time>2026-04-01T10:52:24.811Z</time></trkpt><trkpt lat="42.0558883" lon="-8.01789"><ele>966.0</ele><time>2026-04-01T10:52:25.811Z</time></trkpt><trkpt lat="42.0559683" lon="-8.0178667"><ele>965.5</ele><time>2026-04-01T10:52:26.813Z</time></trkpt><trkpt lat="42.05604" lon="-8.0178617"><ele>965.0</ele><time>2026-04-01T10:52:27.811Z</time></trkpt><trkpt lat="42.0561083" lon="-8.01787"><ele>964.4999999999999</ele><time>2026-04-01T10:52:28.811Z</time></trkpt><trkpt lat="42.0562133" lon="-8.0178867"><ele>964.0</ele><time>2026-04-01T10:52:30.809Z</time></trkpt><trkpt lat="42.05626" lon="-8.01782"><ele>964.0</ele><time>2026-04-01T10:52:32.809Z</time></trkpt><trkpt lat="42.0562717" lon="-8.0176633"><ele>964.0000000000001</ele><time>2026-04-01T10:52:34.811Z</time></trkpt><trkpt lat="42.0562567" lon="-8.01758"><ele>964.0000000000001</ele><time>2026-04-01T10:52:35.808Z</time></trkpt><trkpt lat="42.0561917" lon="-8.017455"><ele>964.0</ele><time>2026-04-01T10:52:37.809Z</time></trkpt><trkpt lat="42.056055" lon="-8.01736"><ele>964.0</ele><time>2026-04-01T10:52:39.808Z</time></trkpt><trkpt lat="42.05598" lon="-8.0173167"><ele>962.6666666666666</ele><time>2026-04-01T10:52:40.811Z</time></trkpt><trkpt lat="42.0559033" lon="-8.0172883"><ele>961.3333333333333</ele><time>2026-04-01T10:52:41.808Z</time></trkpt><trkpt lat="42.0558217" lon="-8.0172833"><ele>960.0</ele><time>2026-04-01T10:52:42.808Z</time></trkpt><trkpt lat="42.0557483" lon="-8.0172967"><ele>958.6666666666667</ele><time>2026-04-01T10:52:43.812Z</time></trkpt><trkpt lat="42.055685" lon="-8.0173233"><ele>957.3333333333334</ele><time>2026-04-01T10:52:44.808Z</time></trkpt><trkpt lat="42.0556017" lon="-8.01736"><ele>956.0</ele><time>2026-04-01T10:52:45.809Z</time></trkpt><trkpt lat="42.055515" lon="-8.0173917"><ele>956.0</ele><time>2026-04-01T10:52:46.809Z</time></trkpt><trkpt lat="42.0554167" lon="-8.01741"><ele>955.9999999999999</ele><time>2026-04-01T10:52:47.811Z</time></trkpt><trkpt lat="42.0553167" lon="-8.0174117"><ele>955.9999999999999</ele><time>2026-04-01T10:52:48.81Z</time></trkpt><trkpt lat="42.0552317" lon="-8.0174"><ele>956.0</ele><time>2026-04-01T10:52:49.809Z</time></trkpt><trkpt lat="42.0551467" lon="-8.01737"><ele>956.0</ele><time>2026-04-01T10:52:50.811Z</time></trkpt><trkpt lat="42.0550733" lon="-8.017295"><ele>956.0</ele><time>2026-04-01T10:52:51.81Z</time></trkpt><trkpt lat="42.05501" lon="-8.0172117"><ele>955.9999999999999</ele><time>2026-04-01T10:52:52.811Z</time></trkpt><trkpt lat="42.05494" lon="-8.0171017"><ele>955.9999999999999</ele><time>2026-04-01T10:52:53.811Z</time></trkpt><trkpt lat="42.0548733" lon="-8.0169667"><ele>956.0</ele><time>2026-04-01T10:52:54.81Z</time></trkpt><trkpt lat="42.0548233" lon="-8.0168617"><ele>956.0</ele><time>2026-04-01T10:52:55.81Z</time></trkpt><trkpt lat="42.0547783" lon="-8.016755"><ele>956.5999999999999</ele><time>2026-04-01T10:52:56.809Z</time></trkpt><trkpt lat="42.054745" lon="-8.01664"><ele>957.1999999999999</ele><time>2026-04-01T10:52:57.809Z</time></trkpt><trkpt lat="42.0547333" lon="-8.0164967"><ele>957.8000000000001</ele><time>2026-04-01T10:52:58.809Z</time></trkpt><trkpt lat="42.0547583" lon="-8.016315"><ele>958.4000000000001</ele><time>2026-04-01T10:52:59.809Z</time></trkpt><trkpt lat="42.0547717" lon="-8.0161917"><ele>959.0</ele><time>2026-04-01T10:53:00.809Z</time></trkpt><trkpt lat="42.0547783" lon="-8.01609"><ele>959.0</ele><time>2026-04-01T10:53:01.81Z</time></trkpt><trkpt lat="42.05477" lon="-8.016005"><ele>959.0000000000001</ele><time>2026-04-01T10:53:02.812Z</time></trkpt><trkpt lat="42.0547317" lon="-8.0159317"><ele>959.0000000000001</ele><time>2026-04-01T10:53:03.811Z</time></trkpt><trkpt lat="42.054655" lon="-8.0158567"><ele>959.0</ele><time>2026-04-01T10:53:04.808Z</time></trkpt><trkpt lat="42.05453" lon="-8.0157533"><ele>959.0</ele><time>2026-04-01T10:53:05.811Z</time></trkpt><trkpt lat="42.054415" lon="-8.0156467"><ele>958.6</ele><time>2026-04-01T10:53:06.811Z</time></trkpt><trkpt lat="42.0543133" lon="-8.0155567"><ele>958.2</ele><time>2026-04-01T10:53:07.811Z</time></trkpt><trkpt lat="42.0542183" lon="-8.0154717"><ele>957.8000000000001</ele><time>2026-04-01T10:53:08.809Z</time></trkpt><trkpt lat="42.0541367" lon="-8.0153883"><ele>957.4000000000001</ele><time>2026-04-01T10:53:09.81Z</time></trkpt><trkpt lat="42.0540783" lon="-8.0153133"><ele>957.0</ele><time>2026-04-01T10:53:10.808Z</time></trkpt><trkpt lat="42.05403" lon="-8.0152483"><ele>957.0</ele><time>2026-04-01T10:53:11.809Z</time></trkpt><trkpt lat="42.05396" lon="-8.0151433"><ele>957.0</ele><time>2026-04-01T10:53:13.809Z</time></trkpt><trkpt lat="42.0539" lon="-8.01501"><ele>957.0</ele><time>2026-04-01T10:53:15.813Z</time></trkpt><trkpt lat="42.053865" lon="-8.0149317"><ele>957.0</ele><time>2026-04-01T10:53:16.809Z</time></trkpt><trkpt lat="42.053835" lon="-8.014835"><ele>957.0</ele><time>2026-04-01T10:53:17.808Z</time></trkpt><trkpt lat="42.0538083" lon="-8.0147317"><ele>957.0</ele><time>2026-04-01T10:53:18.809Z</time></trkpt><trkpt lat="42.0537917" lon="-8.014605"><ele>956.5</ele><time>2026-04-01T10:53:19.808Z</time></trkpt><trkpt lat="42.0537733" lon="-8.0144867"><ele>956.0</ele><time>2026-04-01T10:53:20.809Z</time></trkpt><trkpt lat="42.0537417" lon="-8.01437"><ele>955.5</ele><time>2026-04-01T10:53:21.808Z</time></trkpt><trkpt lat="42.0537117" lon="-8.0142533"><ele>955.0</ele><time>2026-04-01T10:53:22.809Z</time></trkpt><trkpt lat="42.05369" lon="-8.0141433"><ele>954.5</ele><time>2026-04-01T10:53:23.81Z</time></trkpt><trkpt lat="42.0536717" lon="-8.0140333"><ele>954.0</ele><time>2026-04-01T10:53:24.808Z</time></trkpt><trkpt lat="42.0536617" lon="-8.0139183"><ele>953.6666666666666</ele><time>2026-04-01T10:53:25.812Z</time></trkpt><trkpt lat="42.0536583" lon="-8.0138033"><ele>953.3333333333333</ele><time>2026-04-01T10:53:26.81Z</time></trkpt><trkpt lat="42.0536667" lon="-8.01369"><ele>953.0</ele><time>2026-04-01T10:53:27.808Z</time></trkpt><trkpt lat="42.0536917" lon="-8.0136017"><ele>952.6666666666666</ele><time>2026-04-01T10:53:28.808Z</time></trkpt><trkpt lat="42.053735" lon="-8.0135117"><ele>952.3333333333333</ele><time>2026-04-01T10:53:29.809Z</time></trkpt><trkpt lat="42.0537867" lon="-8.0134333"><ele>952.0</ele><time>2026-04-01T10:53:30.808Z</time></trkpt><trkpt lat="42.0538583" lon="-8.0133567"><ele>952.25</ele><time>2026-04-01T10:53:31.811Z</time></trkpt><trkpt lat="42.0539533" lon="-8.0132917"><ele>952.5</ele><time>2026-04-01T10:53:32.809Z</time></trkpt><trkpt lat="42.0540667" lon="-8.0132317"><ele>952.75</ele><time>2026-04-01T10:53:33.808Z</time></trkpt><trkpt lat="42.05418" lon="-8.01318"><ele>953.0</ele><time>2026-04-01T10:53:34.809Z</time></trkpt><trkpt lat="42.0542783" lon="-8.013135"><ele>952.2</ele><time>2026-04-01T10:53:35.813Z</time></trkpt><trkpt lat="42.05438" lon="-8.0131117"><ele>951.4</ele><time>2026-04-01T10:53:36.808Z</time></trkpt><trkpt lat="42.05449" lon="-8.013105"><ele>950.6000000000001</ele><time>2026-04-01T10:53:37.809Z</time></trkpt><trkpt lat="42.05459" lon="-8.01309"><ele>949.8000000000001</ele><time>2026-04-01T10:53:38.81Z</time></trkpt><trkpt lat="42.05469" lon="-8.013075"><ele>949.0</ele><time>2026-04-01T10:53:39.81Z</time></trkpt><trkpt lat="42.054775" lon="-8.0130617"><ele>949.0</ele><time>2026-04-01T10:53:40.812Z</time></trkpt><trkpt lat="42.0548483" lon="-8.0130333"><ele>949.0000000000001</ele><time>2026-04-01T10:53:41.808Z</time></trkpt><trkpt lat="42.05491" lon="-8.013005"><ele>949.0000000000001</ele><time>2026-04-01T10:53:42.809Z</time></trkpt><trkpt lat="42.0550183" lon="-8.0130267"><ele>949.0</ele><time>2026-04-01T10:53:44.812Z</time></trkpt><trkpt lat="42.0551267" lon="-8.01311"><ele>949.0</ele><time>2026-04-01T10:53:46.81Z</time></trkpt><trkpt lat="42.055185" lon="-8.013195"><ele>949.0</ele><time>2026-04-01T10:53:47.811Z</time></trkpt><trkpt lat="42.0552533" lon="-8.0133017"><ele>949.0</ele><time>2026-04-01T10:53:48.81Z</time></trkpt><trkpt lat="42.0553333" lon="-8.0134083"><ele>949.0</ele><time>2026-04-01T10:53:49.811Z</time></trkpt><trkpt lat="42.0554233" lon="-8.013515"><ele>949.0</ele><time>2026-04-01T10:53:50.811Z</time></trkpt><trkpt lat="42.055515" lon="-8.0136267"><ele>949.0</ele><time>2026-04-01T10:53:51.81Z</time></trkpt><trkpt lat="42.05561" lon="-8.01374"><ele>949.0</ele><time>2026-04-01T10:53:52.813Z</time></trkpt><trkpt lat="42.0557067" lon="-8.013855"><ele>949.0</ele><time>2026-04-01T10:53:53.811Z</time></trkpt><trkpt lat="42.0558017" lon="-8.0139767"><ele>949.0</ele><time>2026-04-01T10:53:54.812Z</time></trkpt><trkpt lat="42.0559017" lon="-8.0141"><ele>948.75</ele><time>2026-04-01T10:53:55.811Z</time></trkpt><trkpt lat="42.056015" lon="-8.0142183"><ele>948.5</ele><time>2026-04-01T10:53:56.812Z</time></trkpt><trkpt lat="42.0561283" lon="-8.01434"><ele>948.25</ele><time>2026-04-01T10:53:57.811Z</time></trkpt><trkpt lat="42.0562367" lon="-8.0144733"><ele>948.0</ele><time>2026-04-01T10:53:58.811Z</time></trkpt><trkpt lat="42.05634" lon="-8.0146167"><ele>948.0</ele><time>2026-04-01T10:53:59.812Z</time></trkpt><trkpt lat="42.0564367" lon="-8.0147717"><ele>948.0</ele><time>2026-04-01T10:54:00.813Z</time></trkpt><trkpt lat="42.0565383" lon="-8.0149267"><ele>948.0</ele><time>2026-04-01T10:54:01.811Z</time></trkpt><trkpt lat="42.05665" lon="-8.01508"><ele>947.0</ele><time>2026-04-01T10:54:02.813Z</time></trkpt><trkpt lat="42.05676" lon="-8.015225"><ele>946.0</ele><time>2026-04-01T10:54:03.811Z</time></trkpt><trkpt lat="42.0568633" lon="-8.0153717"><ele>945.0</ele><time>2026-04-01T10:54:04.809Z</time></trkpt><trkpt lat="42.05694" lon="-8.015515"><ele>944.0</ele><time>2026-04-01T10:54:05.813Z</time></trkpt><trkpt lat="42.0570117" lon="-8.0156667"><ele>942.75</ele><time>2026-04-01T10:54:06.808Z</time></trkpt><trkpt lat="42.05707" lon="-8.015835"><ele>941.5</ele><time>2026-04-01T10:54:07.809Z</time></trkpt><trkpt lat="42.0571167" lon="-8.0159967"><ele>940.25</ele><time>2026-04-01T10:54:08.812Z</time></trkpt><trkpt lat="42.057175" lon="-8.0161367"><ele>939.0</ele><time>2026-04-01T10:54:09.811Z</time></trkpt><trkpt lat="42.0572633" lon="-8.0162467"><ele>939.0</ele><time>2026-04-01T10:54:10.811Z</time></trkpt><trkpt lat="42.0573767" lon="-8.01634"><ele>939.0</ele><time>2026-04-01T10:54:11.811Z</time></trkpt><trkpt lat="42.0574933" lon="-8.0164617"><ele>939.0</ele><time>2026-04-01T10:54:12.812Z</time></trkpt><trkpt lat="42.0576017" lon="-8.0166017"><ele>939.0</ele><time>2026-04-01T10:54:13.809Z</time></trkpt><trkpt lat="42.057705" lon="-8.0167583"><ele>937.3333333333333</ele><time>2026-04-01T10:54:14.809Z</time></trkpt><trkpt lat="42.0578183" lon="-8.0169067"><ele>935.6666666666666</ele><time>2026-04-01T10:54:15.811Z</time></trkpt><trkpt lat="42.0579417" lon="-8.01704"><ele>934.0</ele><time>2026-04-01T10:54:16.811Z</time></trkpt><trkpt lat="42.0580767" lon="-8.0171567"><ele>934.0</ele><time>2026-04-01T10:54:17.811Z</time></trkpt><trkpt lat="42.0582083" lon="-8.0172633"><ele>934.0</ele><time>2026-04-01T10:54:18.811Z</time></trkpt><trkpt lat="42.0583183" lon="-8.0173583"><ele>934.0</ele><time>2026-04-01T10:54:19.809Z</time></trkpt><trkpt lat="42.0584133" lon="-8.01747"><ele>934.0</ele><time>2026-04-01T10:54:20.809Z</time></trkpt><trkpt lat="42.0584817" lon="-8.0176"><ele>937.25</ele><time>2026-04-01T10:54:21.809Z</time></trkpt><trkpt lat="42.058525" lon="-8.01775"><ele>940.5</ele><time>2026-04-01T10:54:22.812Z</time></trkpt><trkpt lat="42.0585717" lon="-8.0179067"><ele>943.75</ele><time>2026-04-01T10:54:23.812Z</time></trkpt><trkpt lat="42.0586533" lon="-8.0180567"><ele>947.0</ele><time>2026-04-01T10:54:24.812Z</time></trkpt><trkpt lat="42.0587583" lon="-8.018195"><ele>951.0</ele><time>2026-04-01T10:54:25.809Z</time></trkpt><trkpt lat="42.0588867" lon="-8.01833"><ele>955.0</ele><time>2026-04-01T10:54:26.812Z</time></trkpt><trkpt lat="42.0590333" lon="-8.0184517"><ele>959.0</ele><time>2026-04-01T10:54:27.811Z</time></trkpt><trkpt lat="42.05918" lon="-8.01856"><ele>959.0</ele><time>2026-04-01T10:54:28.808Z</time></trkpt><trkpt lat="42.05932" lon="-8.018645"><ele>959.0</ele><time>2026-04-01T10:54:29.81Z</time></trkpt><trkpt lat="42.059455" lon="-8.0187067"><ele>959.0</ele><time>2026-04-01T10:54:30.808Z</time></trkpt><trkpt lat="42.059585" lon="-8.0187817"><ele>959.0</ele><time>2026-04-01T10:54:31.809Z</time></trkpt><trkpt lat="42.0597083" lon="-8.018885"><ele>959.0</ele><time>2026-04-01T10:54:32.809Z</time></trkpt><trkpt lat="42.0598283" lon="-8.019015"><ele>959.0</ele><time>2026-04-01T10:54:33.809Z</time></trkpt><trkpt lat="42.05994" lon="-8.0191467"><ele>959.0</ele><time>2026-04-01T10:54:34.809Z</time></trkpt><trkpt lat="42.0600483" lon="-8.0192583"><ele>959.0</ele><time>2026-04-01T10:54:35.81Z</time></trkpt><trkpt lat="42.0601583" lon="-8.0193383"><ele>959.75</ele><time>2026-04-01T10:54:36.808Z</time></trkpt><trkpt lat="42.0602617" lon="-8.0194133"><ele>960.5</ele><time>2026-04-01T10:54:37.808Z</time></trkpt><trkpt lat="42.0603617" lon="-8.019495"><ele>961.25</ele><time>2026-04-01T10:54:38.809Z</time></trkpt><trkpt lat="42.0604583" lon="-8.0195717"><ele>962.0</ele><time>2026-04-01T10:54:39.808Z</time></trkpt><trkpt lat="42.0605517" lon="-8.0196317"><ele>962.0000000000001</ele><time>2026-04-01T10:54:40.81Z</time></trkpt><trkpt lat="42.0606383" lon="-8.01968"><ele>962.0</ele><time>2026-04-01T10:54:41.809Z</time></trkpt><trkpt lat="42.06071" lon="-8.0197117"><ele>962.0</ele><time>2026-04-01T10:54:42.808Z</time></trkpt><trkpt lat="42.0607933" lon="-8.0197183"><ele>962.0</ele><time>2026-04-01T10:54:44.809Z</time></trkpt><trkpt lat="42.0608" lon="-8.0195983"><ele>962.0000000000001</ele><time>2026-04-01T10:54:50.808Z</time></trkpt><trkpt lat="42.0607833" lon="-8.019515"><ele>962.0</ele><time>2026-04-01T10:54:51.812Z</time></trkpt><trkpt lat="42.0607583" lon="-8.0194017"><ele>962.0</ele><time>2026-04-01T10:54:52.81Z</time></trkpt><trkpt lat="42.0607467" lon="-8.01929"><ele>962.0</ele><time>2026-04-01T10:54:53.813Z</time></trkpt><trkpt lat="42.0607467" lon="-8.019155"><ele>962.0</ele><time>2026-04-01T10:54:54.809Z</time></trkpt><trkpt lat="42.0607617" lon="-8.0189917"><ele>962.0</ele><time>2026-04-01T10:54:55.809Z</time></trkpt><trkpt lat="42.0607617" lon="-8.01884"><ele>962.0</ele><time>2026-04-01T10:54:56.813Z</time></trkpt><trkpt lat="42.060745" lon="-8.0187067"><ele>961.75</ele><time>2026-04-01T10:54:57.809Z</time></trkpt><trkpt lat="42.060715" lon="-8.0185817"><ele>961.5</ele><time>2026-04-01T10:54:58.809Z</time></trkpt><trkpt lat="42.0606517" lon="-8.0184533"><ele>961.25</ele><time>2026-04-01T10:54:59.809Z</time></trkpt><trkpt lat="42.0605817" lon="-8.01831"><ele>961.0</ele><time>2026-04-01T10:55:00.809Z</time></trkpt><trkpt lat="42.0605067" lon="-8.0181533"><ele>961.0</ele><time>2026-04-01T10:55:01.809Z</time></trkpt><trkpt lat="42.06043" lon="-8.0179667"><ele>961.0</ele><time>2026-04-01T10:55:02.809Z</time></trkpt><trkpt lat="42.0603533" lon="-8.0177633"><ele>961.0</ele><time>2026-04-01T10:55:03.808Z</time></trkpt><trkpt lat="42.0602817" lon="-8.0175783"><ele>962.25</ele><time>2026-04-01T10:55:04.812Z</time></trkpt><trkpt lat="42.0602283" lon="-8.0174233"><ele>963.5</ele><time>2026-04-01T10:55:05.809Z</time></trkpt><trkpt lat="42.0601967" lon="-8.01728"><ele>964.75</ele><time>2026-04-01T10:55:06.812Z</time></trkpt><trkpt lat="42.06019" lon="-8.0171367"><ele>966.0</ele><time>2026-04-01T10:55:07.808Z</time></trkpt><trkpt lat="42.0602133" lon="-8.0169817"><ele>966.0</ele><time>2026-04-01T10:55:08.809Z</time></trkpt><trkpt lat="42.0602683" lon="-8.016835"><ele>965.9999999999999</ele><time>2026-04-01T10:55:09.808Z</time></trkpt><trkpt lat="42.0603017" lon="-8.0167017"><ele>965.9999999999999</ele><time>2026-04-01T10:55:10.809Z</time></trkpt><trkpt lat="42.0603167" lon="-8.01657"><ele>966.0</ele><time>2026-04-01T10:55:11.809Z</time></trkpt><trkpt lat="42.06032" lon="-8.0164317"><ele>966.0</ele><time>2026-04-01T10:55:12.809Z</time></trkpt><trkpt lat="42.06032" lon="-8.0162683"><ele>965.0</ele><time>2026-04-01T10:55:13.811Z</time></trkpt><trkpt lat="42.0603167" lon="-8.0160917"><ele>964.0</ele><time>2026-04-01T10:55:14.809Z</time></trkpt><trkpt lat="42.06032" lon="-8.015935"><ele>963.0</ele><time>2026-04-01T10:55:15.808Z</time></trkpt><trkpt lat="42.0603433" lon="-8.0157667"><ele>962.0</ele><time>2026-04-01T10:55:16.809Z</time></trkpt><trkpt lat="42.06039" lon="-8.0156183"><ele>955.75</ele><time>2026-04-01T10:55:17.809Z</time></trkpt><trkpt lat="42.06045" lon="-8.01547"><ele>949.5</ele><time>2026-04-01T10:55:18.809Z</time></trkpt><trkpt lat="42.0605267" lon="-8.0153233"><ele>943.25</ele><time>2026-04-01T10:55:19.809Z</time></trkpt><trkpt lat="42.06061" lon="-8.0152117"><ele>937.0</ele><time>2026-04-01T10:55:20.81Z</time></trkpt><trkpt lat="42.0607017" lon="-8.0151117"><ele>936.75</ele><time>2026-04-01T10:55:21.808Z</time></trkpt><trkpt lat="42.0608033" lon="-8.0150417"><ele>936.5</ele><time>2026-04-01T10:55:22.809Z</time></trkpt><trkpt lat="42.0609083" lon="-8.0149883"><ele>936.25</ele><time>2026-04-01T10:55:23.812Z</time></trkpt><trkpt lat="42.0610217" lon="-8.0149317"><ele>936.0</ele><time>2026-04-01T10:55:24.809Z</time></trkpt><trkpt lat="42.061135" lon="-8.014875"><ele>936.0</ele><time>2026-04-01T10:55:25.809Z</time></trkpt><trkpt lat="42.06125" lon="-8.0148283"><ele>936.0</ele><time>2026-04-01T10:55:26.81Z</time></trkpt><trkpt lat="42.0613617" lon="-8.0148017"><ele>936.0</ele><time>2026-04-01T10:55:27.808Z</time></trkpt><trkpt lat="42.06148" lon="-8.0147667"><ele>936.0</ele><time>2026-04-01T10:55:28.808Z</time></trkpt><trkpt lat="42.0615967" lon="-8.0147183"><ele>937.6666666666667</ele><time>2026-04-01T10:55:29.81Z</time></trkpt><trkpt lat="42.0617167" lon="-8.0146417"><ele>939.3333333333334</ele><time>2026-04-01T10:55:30.808Z</time></trkpt><trkpt lat="42.061845" lon="-8.0145283"><ele>941.0</ele><time>2026-04-01T10:55:31.812Z</time></trkpt><trkpt lat="42.061975" lon="-8.014385"><ele>941.0</ele><time>2026-04-01T10:55:32.812Z</time></trkpt><trkpt lat="42.0620867" lon="-8.0142517"><ele>941.0</ele><time>2026-04-01T10:55:33.808Z</time></trkpt><trkpt lat="42.0621833" lon="-8.0141167"><ele>941.0</ele><time>2026-04-01T10:55:34.81Z</time></trkpt><trkpt lat="42.0622683" lon="-8.0139717"><ele>941.0</ele><time>2026-04-01T10:55:35.809Z</time></trkpt><trkpt lat="42.062345" lon="-8.0138383"><ele>940.3333333333334</ele><time>2026-04-01T10:55:36.809Z</time></trkpt><trkpt lat="42.06242" lon="-8.0137167"><ele>939.6666666666667</ele><time>2026-04-01T10:55:37.809Z</time></trkpt><trkpt lat="42.062495" lon="-8.0136317"><ele>939.0</ele><time>2026-04-01T10:55:38.812Z</time></trkpt><trkpt lat="42.0625517" lon="-8.0135633"><ele>938.3333333333333</ele><time>2026-04-01T10:55:39.811Z</time></trkpt><trkpt lat="42.0626033" lon="-8.0134717"><ele>937.6666666666666</ele><time>2026-04-01T10:55:41.813Z</time></trkpt><trkpt lat="42.0625717" lon="-8.0133967"><ele>937.0</ele><time>2026-04-01T10:55:43.811Z</time></trkpt><trkpt lat="42.0625333" lon="-8.0132933"><ele>935.6666666666666</ele><time>2026-04-01T10:55:45.81Z</time></trkpt><trkpt lat="42.0625233" lon="-8.0131683"><ele>934.3333333333333</ele><time>2026-04-01T10:55:47.812Z</time></trkpt><trkpt lat="42.0625733" lon="-8.0130633"><ele>933.0</ele><time>2026-04-01T10:55:49.81Z</time></trkpt><trkpt lat="42.0626333" lon="-8.01298"><ele>931.6666666666667</ele><time>2026-04-01T10:55:51.811Z</time></trkpt><trkpt lat="42.0626917" lon="-8.0129067"><ele>930.3333333333334</ele><time>2026-04-01T10:55:53.811Z</time></trkpt><trkpt lat="42.0627433" lon="-8.0128333"><ele>929.0</ele><time>2026-04-01T10:55:55.81Z</time></trkpt><trkpt lat="42.0628033" lon="-8.01276"><ele>929.0</ele><time>2026-04-01T10:55:57.809Z</time></trkpt><trkpt lat="42.0628567" lon="-8.0127017"><ele>929.0000000000001</ele><time>2026-04-01T10:55:59.811Z</time></trkpt><trkpt lat="42.0629083" lon="-8.01261"><ele>929.0</ele><time>2026-04-01T10:56:01.811Z</time></trkpt><trkpt lat="42.0629517" lon="-8.0125367"><ele>929.0</ele><time>2026-04-01T10:56:03.811Z</time></trkpt><trkpt lat="42.063015" lon="-8.0125217"><ele>929.0000000000001</ele><time>2026-04-01T10:56:06.81Z</time></trkpt><trkpt lat="42.0631033" lon="-8.0125033"><ele>929.0</ele><time>2026-04-01T10:56:08.811Z</time></trkpt><trkpt lat="42.0631667" lon="-8.012475"><ele>929.0</ele><time>2026-04-01T10:56:09.809Z</time></trkpt><trkpt lat="42.0632533" lon="-8.0124183"><ele>928.2</ele><time>2026-04-01T10:56:11.809Z</time></trkpt><trkpt lat="42.0633033" lon="-8.01234"><ele>927.4000000000001</ele><time>2026-04-01T10:56:13.81Z</time></trkpt><trkpt lat="42.063275" lon="-8.0122467"><ele>926.6</ele><time>2026-04-01T10:56:16.81Z</time></trkpt><trkpt lat="42.0631967" lon="-8.0121667"><ele>925.8</ele><time>2026-04-01T10:56:18.809Z</time></trkpt><trkpt lat="42.0631017" lon="-8.0120483"><ele>925.0</ele><time>2026-04-01T10:56:20.81Z</time></trkpt><trkpt lat="42.0630567" lon="-8.0119667"><ele>925.0</ele><time>2026-04-01T10:56:21.809Z</time></trkpt><trkpt lat="42.0630283" lon="-8.0118767"><ele>925.0</ele><time>2026-04-01T10:56:22.812Z</time></trkpt><trkpt lat="42.063" lon="-8.0117717"><ele>925.0</ele><time>2026-04-01T10:56:23.81Z</time></trkpt><trkpt lat="42.0629867" lon="-8.0116383"><ele>925.0</ele><time>2026-04-01T10:56:24.81Z</time></trkpt><trkpt lat="42.06301" lon="-8.0114667"><ele>925.0</ele><time>2026-04-01T10:56:25.811Z</time></trkpt><trkpt lat="42.0630467" lon="-8.011295"><ele>924.75</ele><time>2026-04-01T10:56:26.812Z</time></trkpt><trkpt lat="42.0631" lon="-8.011105"><ele>924.5</ele><time>2026-04-01T10:56:27.812Z</time></trkpt><trkpt lat="42.0631567" lon="-8.0109183"><ele>924.25</ele><time>2026-04-01T10:56:28.812Z</time></trkpt><trkpt lat="42.063215" lon="-8.010755"><ele>924.0</ele><time>2026-04-01T10:56:29.809Z</time></trkpt><trkpt lat="42.0632717" lon="-8.0106133"><ele>926.25</ele><time>2026-04-01T10:56:30.813Z</time></trkpt><trkpt lat="42.0633033" lon="-8.0104883"><ele>928.5</ele><time>2026-04-01T10:56:31.812Z</time></trkpt><trkpt lat="42.063315" lon="-8.01035"><ele>930.75</ele><time>2026-04-01T10:56:32.812Z</time></trkpt><trkpt lat="42.0633067" lon="-8.0101817"><ele>933.0</ele><time>2026-04-01T10:56:33.812Z</time></trkpt><trkpt lat="42.063295" lon="-8.0099767"><ele>931.25</ele><time>2026-04-01T10:56:34.809Z</time></trkpt><trkpt lat="42.0632717" lon="-8.0097817"><ele>929.5</ele><time>2026-04-01T10:56:35.813Z</time></trkpt><trkpt lat="42.063255" lon="-8.0096117"><ele>927.75</ele><time>2026-04-01T10:56:36.81Z</time></trkpt><trkpt lat="42.0632417" lon="-8.00946"><ele>926.0</ele><time>2026-04-01T10:56:37.811Z</time></trkpt><trkpt lat="42.0632283" lon="-8.0093417"><ele>926.0000000000001</ele><time>2026-04-01T10:56:38.812Z</time></trkpt><trkpt lat="42.0632033" lon="-8.009245"><ele>926.0</ele><time>2026-04-01T10:56:39.809Z</time></trkpt><trkpt lat="42.063165" lon="-8.0091717"><ele>926.0</ele><time>2026-04-01T10:56:40.809Z</time></trkpt><trkpt lat="42.06311" lon="-8.0090767"><ele>926.0</ele><time>2026-04-01T10:56:42.809Z</time></trkpt><trkpt lat="42.0632033" lon="-8.0090983"><ele>926.0000000000001</ele><time>2026-04-01T10:56:48.812Z</time></trkpt><trkpt lat="42.06329" lon="-8.0092117"><ele>926.0</ele><time>2026-04-01T10:56:49.812Z</time></trkpt><trkpt lat="42.0634033" lon="-8.0093533"><ele>929.0</ele><time>2026-04-01T10:56:50.812Z</time></trkpt><trkpt lat="42.0635267" lon="-8.0094833"><ele>932.0</ele><time>2026-04-01T10:56:51.812Z</time></trkpt><trkpt lat="42.0636833" lon="-8.00963"><ele>935.0</ele><time>2026-04-01T10:56:52.813Z</time></trkpt><trkpt lat="42.0638417" lon="-8.0097817"><ele>935.0</ele><time>2026-04-01T10:56:53.812Z</time></trkpt><trkpt lat="42.0639967" lon="-8.009945"><ele>935.0</ele><time>2026-04-01T10:56:54.81Z</time></trkpt><trkpt lat="42.06414" lon="-8.0101083"><ele>935.0</ele><time>2026-04-01T10:56:55.809Z</time></trkpt><trkpt lat="42.0642617" lon="-8.0102567"><ele>936.0</ele><time>2026-04-01T10:56:56.812Z</time></trkpt><trkpt lat="42.0643533" lon="-8.0104033"><ele>937.0</ele><time>2026-04-01T10:56:57.812Z</time></trkpt><trkpt lat="42.0644217" lon="-8.0105533"><ele>938.0</ele><time>2026-04-01T10:56:58.809Z</time></trkpt><trkpt lat="42.0644733" lon="-8.0107233"><ele>939.0</ele><time>2026-04-01T10:56:59.812Z</time></trkpt><trkpt lat="42.0645167" lon="-8.010895"><ele>939.25</ele><time>2026-04-01T10:57:00.81Z</time></trkpt><trkpt lat="42.06456" lon="-8.01105"><ele>939.5</ele><time>2026-04-01T10:57:01.813Z</time></trkpt><trkpt lat="42.064605" lon="-8.0112"><ele>939.75</ele><time>2026-04-01T10:57:02.812Z</time></trkpt><trkpt lat="42.064665" lon="-8.0113467"><ele>940.0</ele><time>2026-04-01T10:57:03.812Z</time></trkpt><trkpt lat="42.0647483" lon="-8.0114967"><ele>940.0</ele><time>2026-04-01T10:57:04.812Z</time></trkpt><trkpt lat="42.064855" lon="-8.0116517"><ele>940.0</ele><time>2026-04-01T10:57:05.812Z</time></trkpt><trkpt lat="42.0649633" lon="-8.0118133"><ele>940.0</ele><time>2026-04-01T10:57:06.813Z</time></trkpt><trkpt lat="42.0650617" lon="-8.0119533"><ele>942.75</ele><time>2026-04-01T10:57:07.812Z</time></trkpt><trkpt lat="42.0651617" lon="-8.0120717"><ele>945.5</ele><time>2026-04-01T10:57:08.813Z</time></trkpt><trkpt lat="42.0652733" lon="-8.01219"><ele>948.25</ele><time>2026-04-01T10:57:09.812Z</time></trkpt><trkpt lat="42.0653917" lon="-8.0122983"><ele>951.0</ele><time>2026-04-01T10:57:10.812Z</time></trkpt><trkpt lat="42.0655183" lon="-8.01239"><ele>951.0</ele><time>2026-04-01T10:57:11.812Z</time></trkpt><trkpt lat="42.0656467" lon="-8.012485"><ele>951.0</ele><time>2026-04-01T10:57:12.812Z</time></trkpt><trkpt lat="42.0657667" lon="-8.01259"><ele>951.0</ele><time>2026-04-01T10:57:13.809Z</time></trkpt><trkpt lat="42.06588" lon="-8.0127"><ele>951.0</ele><time>2026-04-01T10:57:14.813Z</time></trkpt><trkpt lat="42.06599" lon="-8.0128217"><ele>954.75</ele><time>2026-04-01T10:57:15.808Z</time></trkpt><trkpt lat="42.0661017" lon="-8.01293"><ele>958.5</ele><time>2026-04-01T10:57:16.811Z</time></trkpt><trkpt lat="42.0662183" lon="-8.0130233"><ele>962.25</ele><time>2026-04-01T10:57:17.812Z</time></trkpt><trkpt lat="42.0663433" lon="-8.0130967"><ele>966.0</ele><time>2026-04-01T10:57:18.812Z</time></trkpt><trkpt lat="42.066455" lon="-8.01315"><ele>966.0</ele><time>2026-04-01T10:57:19.81Z</time></trkpt><trkpt lat="42.06655" lon="-8.0131783"><ele>966.0</ele><time>2026-04-01T10:57:20.812Z</time></trkpt><trkpt lat="42.06665" lon="-8.0131683"><ele>966.0</ele><time>2026-04-01T10:57:21.812Z</time></trkpt><trkpt lat="42.06678" lon="-8.0131433"><ele>966.0</ele><time>2026-04-01T10:57:22.81Z</time></trkpt><trkpt lat="42.066925" lon="-8.01313"><ele>968.0</ele><time>2026-04-01T10:57:23.812Z</time></trkpt><trkpt lat="42.0670867" lon="-8.0131267"><ele>970.0</ele><time>2026-04-01T10:57:24.809Z</time></trkpt><trkpt lat="42.0672417" lon="-8.0131283"><ele>972.0</ele><time>2026-04-01T10:57:25.811Z</time></trkpt><trkpt lat="42.0673867" lon="-8.013125"><ele>972.5</ele><time>2026-04-01T10:57:26.811Z</time></trkpt><trkpt lat="42.0675283" lon="-8.0131033"><ele>973.0</ele><time>2026-04-01T10:57:27.811Z</time></trkpt><trkpt lat="42.0676617" lon="-8.0130633"><ele>973.5</ele><time>2026-04-01T10:57:28.812Z</time></trkpt><trkpt lat="42.0677783" lon="-8.013"><ele>974.0</ele><time>2026-04-01T10:57:29.812Z</time></trkpt><trkpt lat="42.0678667" lon="-8.0129067"><ele>974.0</ele><time>2026-04-01T10:57:30.812Z</time></trkpt><trkpt lat="42.0679433" lon="-8.012775"><ele>974.0</ele><time>2026-04-01T10:57:31.812Z</time></trkpt><trkpt lat="42.0680183" lon="-8.0126067"><ele>974.0</ele><time>2026-04-01T10:57:32.812Z</time></trkpt><trkpt lat="42.0681233" lon="-8.0124283"><ele>974.0</ele><time>2026-04-01T10:57:33.809Z</time></trkpt><trkpt lat="42.0682417" lon="-8.0122433"><ele>975.3333333333334</ele><time>2026-04-01T10:57:34.812Z</time></trkpt><trkpt lat="42.0683583" lon="-8.0120683"><ele>976.6666666666667</ele><time>2026-04-01T10:57:35.809Z</time></trkpt><trkpt lat="42.0684683" lon="-8.0119117"><ele>978.0</ele><time>2026-04-01T10:57:36.81Z</time></trkpt><trkpt lat="42.06857" lon="-8.0117767"><ele>978.0</ele><time>2026-04-01T10:57:37.813Z</time></trkpt><trkpt lat="42.0686617" lon="-8.0116633"><ele>978.0</ele><time>2026-04-01T10:57:38.813Z</time></trkpt><trkpt lat="42.0687433" lon="-8.011555"><ele>978.0</ele><time>2026-04-01T10:57:39.812Z</time></trkpt><trkpt lat="42.0688183" lon="-8.0114283"><ele>978.0</ele><time>2026-04-01T10:57:40.81Z</time></trkpt><trkpt lat="42.0688833" lon="-8.0113067"><ele>978.0</ele><time>2026-04-01T10:57:41.809Z</time></trkpt><trkpt lat="42.0689583" lon="-8.0112"><ele>978.0</ele><time>2026-04-01T10:57:42.812Z</time></trkpt><trkpt lat="42.0690383" lon="-8.0111283"><ele>978.0</ele><time>2026-04-01T10:57:43.812Z</time></trkpt><trkpt lat="42.0691417" lon="-8.011085"><ele>978.0</ele><time>2026-04-01T10:57:44.809Z</time></trkpt><trkpt lat="42.06927" lon="-8.0110633"><ele>978.0</ele><time>2026-04-01T10:57:45.809Z</time></trkpt><trkpt lat="42.06942" lon="-8.0110567"><ele>979.0</ele><time>2026-04-01T10:57:46.809Z</time></trkpt><trkpt lat="42.0695833" lon="-8.0110483"><ele>980.0</ele><time>2026-04-01T10:57:47.811Z</time></trkpt><trkpt lat="42.0697567" lon="-8.011025"><ele>981.0</ele><time>2026-04-01T10:57:48.809Z</time></trkpt><trkpt lat="42.0699367" lon="-8.01099"><ele>979.6666666666667</ele><time>2026-04-01T10:57:49.809Z</time></trkpt><trkpt lat="42.0701217" lon="-8.0109633"><ele>978.3333333333334</ele><time>2026-04-01T10:57:50.81Z</time></trkpt><trkpt lat="42.07032" lon="-8.0109633"><ele>977.0</ele><time>2026-04-01T10:57:51.809Z</time></trkpt><trkpt lat="42.0705117" lon="-8.0109733"><ele>977.0</ele><time>2026-04-01T10:57:52.811Z</time></trkpt><trkpt lat="42.070695" lon="-8.0109833"><ele>977.0</ele><time>2026-04-01T10:57:53.81Z</time></trkpt><trkpt lat="42.0708833" lon="-8.0109867"><ele>977.0</ele><time>2026-04-01T10:57:54.812Z</time></trkpt><trkpt lat="42.07107" lon="-8.010985"><ele>976.3333333333334</ele><time>2026-04-01T10:57:55.812Z</time></trkpt><trkpt lat="42.071245" lon="-8.0109883"><ele>975.6666666666667</ele><time>2026-04-01T10:57:56.809Z</time></trkpt><trkpt lat="42.0713917" lon="-8.01101"><ele>975.0</ele><time>2026-04-01T10:57:57.813Z</time></trkpt><trkpt lat="42.0715267" lon="-8.0110483"><ele>973.5</ele><time>2026-04-01T10:57:58.813Z</time></trkpt><trkpt lat="42.0716467" lon="-8.0111"><ele>972.0</ele><time>2026-04-01T10:57:59.809Z</time></trkpt><trkpt lat="42.07175" lon="-8.011175"><ele>970.5</ele><time>2026-04-01T10:58:00.81Z</time></trkpt><trkpt lat="42.0718367" lon="-8.0112817"><ele>969.0</ele><time>2026-04-01T10:58:01.811Z</time></trkpt><trkpt lat="42.0719183" lon="-8.01142"><ele>969.0</ele><time>2026-04-01T10:58:02.812Z</time></trkpt><trkpt lat="42.072015" lon="-8.0116167"><ele>969.0</ele><time>2026-04-01T10:58:03.812Z</time></trkpt><trkpt lat="42.072125" lon="-8.0118217"><ele>969.0</ele><time>2026-04-01T10:58:04.813Z</time></trkpt><trkpt lat="42.072235" lon="-8.0120183"><ele>969.6666666666667</ele><time>2026-04-01T10:58:05.811Z</time></trkpt><trkpt lat="42.0723417" lon="-8.012195"><ele>970.3333333333334</ele><time>2026-04-01T10:58:06.811Z</time></trkpt><trkpt lat="42.0724433" lon="-8.0123733"><ele>971.0</ele><time>2026-04-01T10:58:07.811Z</time></trkpt><trkpt lat="42.0725583" lon="-8.01254"><ele>969.5</ele><time>2026-04-01T10:58:08.811Z</time></trkpt><trkpt lat="42.0726717" lon="-8.0126867"><ele>968.0</ele><time>2026-04-01T10:58:09.811Z</time></trkpt><trkpt lat="42.0727817" lon="-8.0128133"><ele>966.5</ele><time>2026-04-01T10:58:10.808Z</time></trkpt><trkpt lat="42.072895" lon="-8.012935"><ele>965.0</ele><time>2026-04-01T10:58:11.808Z</time></trkpt><trkpt lat="42.073015" lon="-8.0130583"><ele>965.0</ele><time>2026-04-01T10:58:12.808Z</time></trkpt><trkpt lat="42.0731233" lon="-8.0131983"><ele>965.0</ele><time>2026-04-01T10:58:13.808Z</time></trkpt><trkpt lat="42.07321" lon="-8.0133117"><ele>965.0</ele><time>2026-04-01T10:58:14.811Z</time></trkpt><trkpt lat="42.0732767" lon="-8.0133783"><ele>965.0</ele><time>2026-04-01T10:58:15.809Z</time></trkpt><trkpt lat="42.073335" lon="-8.0134117"><ele>965.0</ele><time>2026-04-01T10:58:16.808Z</time></trkpt><trkpt lat="42.0734583" lon="-8.01342"><ele>965.0</ele><time>2026-04-01T10:58:18.808Z</time></trkpt><trkpt lat="42.0735517" lon="-8.0133833"><ele>965.0</ele><time>2026-04-01T10:58:19.807Z</time></trkpt><trkpt lat="42.073675" lon="-8.013325"><ele>965.0</ele><time>2026-04-01T10:58:20.808Z</time></trkpt><trkpt lat="42.0738183" lon="-8.0132633"><ele>965.0</ele><time>2026-04-01T10:58:21.808Z</time></trkpt><trkpt lat="42.0739683" lon="-8.0131933"><ele>965.3333333333334</ele><time>2026-04-01T10:58:22.808Z</time></trkpt><trkpt lat="42.074125" lon="-8.0131083"><ele>965.6666666666667</ele><time>2026-04-01T10:58:23.81Z</time></trkpt><trkpt lat="42.074295" lon="-8.0130017"><ele>966.0</ele><time>2026-04-01T10:58:24.811Z</time></trkpt><trkpt lat="42.0744567" lon="-8.0128783"><ele>966.0</ele><time>2026-04-01T10:58:25.808Z</time></trkpt><trkpt lat="42.0745883" lon="-8.0127617"><ele>965.9999999999999</ele><time>2026-04-01T10:58:26.811Z</time></trkpt><trkpt lat="42.0746817" lon="-8.0126667"><ele>965.9999999999999</ele><time>2026-04-01T10:58:27.812Z</time></trkpt><trkpt lat="42.0747483" lon="-8.0125867"><ele>966.0</ele><time>2026-04-01T10:58:28.808Z</time></trkpt><trkpt lat="42.0748067" lon="-8.012505"><ele>966.0</ele><time>2026-04-01T10:58:29.811Z</time></trkpt><trkpt lat="42.0748567" lon="-8.0124217"><ele>966.1999999999999</ele><time>2026-04-01T10:58:30.808Z</time></trkpt><trkpt lat="42.0749083" lon="-8.01234"><ele>966.3999999999999</ele><time>2026-04-01T10:58:31.808Z</time></trkpt><trkpt lat="42.0749483" lon="-8.0122633"><ele>966.6</ele><time>2026-04-01T10:58:32.812Z</time></trkpt><trkpt lat="42.074935" lon="-8.012095"><ele>966.8</ele><time>2026-04-01T10:58:34.808Z</time></trkpt><trkpt lat="42.0749217" lon="-8.0119733"><ele>967.0</ele><time>2026-04-01T10:58:35.811Z</time></trkpt><trkpt lat="42.07488" lon="-8.01181"><ele>967.0</ele><time>2026-04-01T10:58:36.812Z</time></trkpt><trkpt lat="42.0748433" lon="-8.011655"><ele>967.0</ele><time>2026-04-01T10:58:37.811Z</time></trkpt><trkpt lat="42.0748133" lon="-8.0115183"><ele>967.0</ele><time>2026-04-01T10:58:38.812Z</time></trkpt><trkpt lat="42.0748017" lon="-8.011405"><ele>967.0</ele><time>2026-04-01T10:58:39.808Z</time></trkpt><trkpt lat="42.0748017" lon="-8.0113"><ele>967.0</ele><time>2026-04-01T10:58:40.81Z</time></trkpt><trkpt lat="42.07481" lon="-8.0112033"><ele>966.9999999999999</ele><time>2026-04-01T10:58:41.808Z</time></trkpt><trkpt lat="42.07486" lon="-8.0111367"><ele>967.0</ele><time>2026-04-01T10:58:42.812Z</time></trkpt><trkpt lat="42.0749567" lon="-8.0111033"><ele>967.0</ele><time>2026-04-01T10:58:43.808Z</time></trkpt><trkpt lat="42.0750383" lon="-8.0110767"><ele>967.0</ele><time>2026-04-01T10:58:44.809Z</time></trkpt><trkpt lat="42.075135" lon="-8.0110233"><ele>966.9999999999999</ele><time>2026-04-01T10:58:46.811Z</time></trkpt><trkpt lat="42.0751917" lon="-8.0109433"><ele>967.0</ele><time>2026-04-01T10:58:49.81Z</time></trkpt><trkpt lat="42.07525" lon="-8.0108667"><ele>967.4000000000001</ele><time>2026-04-01T10:58:52.808Z</time></trkpt><trkpt lat="42.0753267" lon="-8.0107617"><ele>967.8000000000001</ele><time>2026-04-01T10:58:54.812Z</time></trkpt><trkpt lat="42.07538" lon="-8.0106833"><ele>968.2</ele><time>2026-04-01T10:58:55.811Z</time></trkpt><trkpt lat="42.0754533" lon="-8.0105917"><ele>968.6</ele><time>2026-04-01T10:58:56.811Z</time></trkpt><trkpt lat="42.075535" lon="-8.01051"><ele>969.0</ele><time>2026-04-01T10:58:57.811Z</time></trkpt><trkpt lat="42.0756033" lon="-8.0104467"><ele>969.0</ele><time>2026-04-01T10:58:58.811Z</time></trkpt><trkpt lat="42.0756617" lon="-8.0103783"><ele>969.0000000000001</ele><time>2026-04-01T10:58:59.811Z</time></trkpt><trkpt lat="42.0757133" lon="-8.0102917"><ele>969.0000000000001</ele><time>2026-04-01T10:59:00.811Z</time></trkpt><trkpt lat="42.07577" lon="-8.0101783"><ele>969.0</ele><time>2026-04-01T10:59:01.811Z</time></trkpt><trkpt lat="42.075835" lon="-8.01004"><ele>969.0</ele><time>2026-04-01T10:59:02.812Z</time></trkpt><trkpt lat="42.075905" lon="-8.0098917"><ele>969.25</ele><time>2026-04-01T10:59:03.812Z</time></trkpt><trkpt lat="42.0759767" lon="-8.0097333"><ele>969.5</ele><time>2026-04-01T10:59:04.811Z</time></trkpt><trkpt lat="42.07605" lon="-8.0095683"><ele>969.75</ele><time>2026-04-01T10:59:05.812Z</time></trkpt><trkpt lat="42.076125" lon="-8.0094017"><ele>970.0</ele><time>2026-04-01T10:59:06.811Z</time></trkpt><trkpt lat="42.0762017" lon="-8.00923"><ele>967.3333333333333</ele><time>2026-04-01T10:59:07.811Z</time></trkpt><trkpt lat="42.0762767" lon="-8.0090533"><ele>964.6666666666667</ele><time>2026-04-01T10:59:08.812Z</time></trkpt><trkpt lat="42.0763517" lon="-8.008875"><ele>962.0</ele><time>2026-04-01T10:59:09.811Z</time></trkpt><trkpt lat="42.0764233" lon="-8.0086967"><ele>962.0</ele><time>2026-04-01T10:59:10.809Z</time></trkpt><trkpt lat="42.076495" lon="-8.0085167"><ele>962.0</ele><time>2026-04-01T10:59:11.814Z</time></trkpt><trkpt lat="42.076565" lon="-8.0083433"><ele>962.0</ele><time>2026-04-01T10:59:12.811Z</time></trkpt><trkpt lat="42.0766417" lon="-8.00818"><ele>962.0</ele><time>2026-04-01T10:59:13.811Z</time></trkpt><trkpt lat="42.0767267" lon="-8.00803"><ele>961.75</ele><time>2026-04-01T10:59:14.812Z</time></trkpt><trkpt lat="42.0768267" lon="-8.007895"><ele>961.5</ele><time>2026-04-01T10:59:15.808Z</time></trkpt><trkpt lat="42.0769267" lon="-8.007775"><ele>961.25</ele><time>2026-04-01T10:59:16.812Z</time></trkpt><trkpt lat="42.0770317" lon="-8.0076667"><ele>961.0</ele><time>2026-04-01T10:59:17.809Z</time></trkpt><trkpt lat="42.0771517" lon="-8.0076067"><ele>961.0</ele><time>2026-04-01T10:59:18.812Z</time></trkpt><trkpt lat="42.0772783" lon="-8.007595"><ele>961.0</ele><time>2026-04-01T10:59:19.809Z</time></trkpt><trkpt lat="42.0774083" lon="-8.0076283"><ele>961.0</ele><time>2026-04-01T10:59:20.809Z</time></trkpt><trkpt lat="42.0775317" lon="-8.0076783"><ele>961.0</ele><time>2026-04-01T10:59:21.811Z</time></trkpt><trkpt lat="42.07765" lon="-8.0077167"><ele>961.5</ele><time>2026-04-01T10:59:22.808Z</time></trkpt><trkpt lat="42.077765" lon="-8.0077233"><ele>962.0</ele><time>2026-04-01T10:59:23.81Z</time></trkpt><trkpt lat="42.0778717" lon="-8.0076717"><ele>962.5</ele><time>2026-04-01T10:59:24.812Z</time></trkpt><trkpt lat="42.0779667" lon="-8.0075633"><ele>963.0</ele><time>2026-04-01T10:59:25.813Z</time></trkpt><trkpt lat="42.0780533" lon="-8.0074283"><ele>962.5</ele><time>2026-04-01T10:59:26.812Z</time></trkpt><trkpt lat="42.07814" lon="-8.0072817"><ele>962.0</ele><time>2026-04-01T10:59:27.812Z</time></trkpt><trkpt lat="42.0782217" lon="-8.0071383"><ele>961.5</ele><time>2026-04-01T10:59:28.812Z</time></trkpt><trkpt lat="42.0782933" lon="-8.0070017"><ele>961.0</ele><time>2026-04-01T10:59:29.808Z</time></trkpt><trkpt lat="42.0783333" lon="-8.006865"><ele>961.0</ele><time>2026-04-01T10:59:30.812Z</time></trkpt><trkpt lat="42.0783367" lon="-8.00672"><ele>960.9999999999999</ele><time>2026-04-01T10:59:31.811Z</time></trkpt><trkpt lat="42.0783067" lon="-8.0065783"><ele>960.9999999999999</ele><time>2026-04-01T10:59:32.812Z</time></trkpt><trkpt lat="42.078255" lon="-8.0064517"><ele>961.0</ele><time>2026-04-01T10:59:33.808Z</time></trkpt><trkpt lat="42.07819" lon="-8.0063383"><ele>961.0</ele><time>2026-04-01T10:59:34.812Z</time></trkpt><trkpt lat="42.07813" lon="-8.0062367"><ele>960.5999999999999</ele><time>2026-04-01T10:59:35.808Z</time></trkpt><trkpt lat="42.078085" lon="-8.0061417"><ele>960.1999999999999</ele><time>2026-04-01T10:59:36.808Z</time></trkpt><trkpt lat="42.07806" lon="-8.0060517"><ele>959.8000000000001</ele><time>2026-04-01T10:59:37.808Z</time></trkpt><trkpt lat="42.07811" lon="-8.00589"><ele>959.4000000000001</ele><time>2026-04-01T10:59:39.809Z</time></trkpt><trkpt lat="42.0781783" lon="-8.0058"><ele>959.0</ele><time>2026-04-01T10:59:40.811Z</time></trkpt><trkpt lat="42.0782833" lon="-8.0057067"><ele>960.5</ele><time>2026-04-01T10:59:41.811Z</time></trkpt><trkpt lat="42.0783967" lon="-8.005615"><ele>962.0</ele><time>2026-04-01T10:59:42.811Z</time></trkpt><trkpt lat="42.0785033" lon="-8.005515"><ele>963.5</ele><time>2026-04-01T10:59:43.812Z</time></trkpt><trkpt lat="42.0786083" lon="-8.0053933"><ele>965.0</ele><time>2026-04-01T10:59:44.81Z</time></trkpt><trkpt lat="42.0787" lon="-8.0052517"><ele>965.0</ele><time>2026-04-01T10:59:45.81Z</time></trkpt><trkpt lat="42.07877" lon="-8.0050867"><ele>965.0</ele><time>2026-04-01T10:59:46.811Z</time></trkpt><trkpt lat="42.078825" lon="-8.00489"><ele>965.0</ele><time>2026-04-01T10:59:47.811Z</time></trkpt><trkpt lat="42.0788733" lon="-8.004675"><ele>965.6666666666667</ele><time>2026-04-01T10:59:48.813Z</time></trkpt><trkpt lat="42.0789267" lon="-8.00446"><ele>966.3333333333333</ele><time>2026-04-01T10:59:49.811Z</time></trkpt><trkpt lat="42.07898" lon="-8.0042517"><ele>967.0</ele><time>2026-04-01T10:59:50.812Z</time></trkpt><trkpt lat="42.0790417" lon="-8.0040517"><ele>968.0</ele><time>2026-04-01T10:59:51.811Z</time></trkpt><trkpt lat="42.0791" lon="-8.0038617"><ele>969.0</ele><time>2026-04-01T10:59:52.808Z</time></trkpt><trkpt lat="42.0791467" lon="-8.0036883"><ele>970.0</ele><time>2026-04-01T10:59:53.811Z</time></trkpt><trkpt lat="42.079185" lon="-8.0035367"><ele>971.0</ele><time>2026-04-01T10:59:54.811Z</time></trkpt><trkpt lat="42.07922" lon="-8.0034217"><ele>971.8</ele><time>2026-04-01T10:59:55.811Z</time></trkpt><trkpt lat="42.0792667" lon="-8.003335"><ele>972.5999999999999</ele><time>2026-04-01T10:59:56.809Z</time></trkpt><trkpt lat="42.0793217" lon="-8.00326"><ele>973.4</ele><time>2026-04-01T10:59:57.898Z</time></trkpt><trkpt lat="42.0794117" lon="-8.0032033"><ele>974.2</ele><time>2026-04-01T10:59:58.809Z</time></trkpt><trkpt lat="42.07955" lon="-8.003155"><ele>975.0</ele><time>2026-04-01T10:59:59.808Z</time></trkpt><trkpt lat="42.0797" lon="-8.0030833"><ele>975.0</ele><time>2026-04-01T11:00:00.809Z</time></trkpt><trkpt lat="42.079865" lon="-8.0030017"><ele>975.0</ele><time>2026-04-01T11:00:01.808Z</time></trkpt><trkpt lat="42.0800333" lon="-8.002905"><ele>975.0</ele><time>2026-04-01T11:00:02.809Z</time></trkpt><trkpt lat="42.0801933" lon="-8.002805"><ele>975.6666666666667</ele><time>2026-04-01T11:00:03.808Z</time></trkpt><trkpt lat="42.0803383" lon="-8.0027033"><ele>976.3333333333334</ele><time>2026-04-01T11:00:04.811Z</time></trkpt><trkpt lat="42.080485" lon="-8.0026117"><ele>977.0</ele><time>2026-04-01T11:00:05.813Z</time></trkpt><trkpt lat="42.0806317" lon="-8.002515"><ele>976.0</ele><time>2026-04-01T11:00:06.812Z</time></trkpt><trkpt lat="42.0807817" lon="-8.0024217"><ele>975.0</ele><time>2026-04-01T11:00:07.809Z</time></trkpt><trkpt lat="42.0809283" lon="-8.00233"><ele>974.0</ele><time>2026-04-01T11:00:08.811Z</time></trkpt><trkpt lat="42.0810717" lon="-8.0022233"><ele>974.0</ele><time>2026-04-01T11:00:09.81Z</time></trkpt><trkpt lat="42.08121" lon="-8.00211"><ele>974.0</ele><time>2026-04-01T11:00:10.813Z</time></trkpt><trkpt lat="42.0813583" lon="-8.00198"><ele>974.0</ele><time>2026-04-01T11:00:11.812Z</time></trkpt><trkpt lat="42.0815017" lon="-8.00186"><ele>975.0</ele><time>2026-04-01T11:00:12.813Z</time></trkpt><trkpt lat="42.0816333" lon="-8.001755"><ele>976.0</ele><time>2026-04-01T11:00:13.808Z</time></trkpt><trkpt lat="42.08176" lon="-8.00166"><ele>977.0</ele><time>2026-04-01T11:00:14.811Z</time></trkpt><trkpt lat="42.0818867" lon="-8.0015617"><ele>978.0</ele><time>2026-04-01T11:00:15.811Z</time></trkpt><trkpt lat="42.082005" lon="-8.0014633"><ele>978.0</ele><time>2026-04-01T11:00:16.812Z</time></trkpt><trkpt lat="42.0821133" lon="-8.0013717"><ele>978.0</ele><time>2026-04-01T11:00:17.818Z</time></trkpt><trkpt lat="42.0822217" lon="-8.001295"><ele>978.0</ele><time>2026-04-01T11:00:18.808Z</time></trkpt><trkpt lat="42.0823383" lon="-8.0012267"><ele>978.0</ele><time>2026-04-01T11:00:19.809Z</time></trkpt><trkpt lat="42.0824517" lon="-8.001155"><ele>977.75</ele><time>2026-04-01T11:00:20.81Z</time></trkpt><trkpt lat="42.082565" lon="-8.0010733"><ele>977.5</ele><time>2026-04-01T11:00:21.808Z</time></trkpt><trkpt lat="42.08268" lon="-8.0009833"><ele>977.25</ele><time>2026-04-01T11:00:22.809Z</time></trkpt><trkpt lat="42.0827933" lon="-8.0008917"><ele>977.0</ele><time>2026-04-01T11:00:23.811Z</time></trkpt><trkpt lat="42.0829083" lon="-8.0007983"><ele>977.0</ele><time>2026-04-01T11:00:24.812Z</time></trkpt><trkpt lat="42.0830217" lon="-8.0006883"><ele>977.0</ele><time>2026-04-01T11:00:25.812Z</time></trkpt><trkpt lat="42.083135" lon="-8.00056"><ele>977.0</ele><time>2026-04-01T11:00:26.812Z</time></trkpt><trkpt lat="42.083245" lon="-8.00044"><ele>977.0</ele><time>2026-04-01T11:00:27.812Z</time></trkpt><trkpt lat="42.0833583" lon="-8.000325"><ele>976.0</ele><time>2026-04-01T11:00:28.81Z</time></trkpt><trkpt lat="42.083475" lon="-8.0002133"><ele>975.0</ele><time>2026-04-01T11:00:29.808Z</time></trkpt><trkpt lat="42.0835917" lon="-8.0000983"><ele>974.0</ele><time>2026-04-01T11:00:30.809Z</time></trkpt><trkpt lat="42.08371" lon="-7.9999817"><ele>973.0</ele><time>2026-04-01T11:00:31.811Z</time></trkpt><trkpt lat="42.083825" lon="-7.9998717"><ele>973.0</ele><time>2026-04-01T11:00:32.809Z</time></trkpt><trkpt lat="42.08393" lon="-7.99977"><ele>973.0</ele><time>2026-04-01T11:00:33.808Z</time></trkpt><trkpt lat="42.0840167" lon="-7.9996933"><ele>973.0</ele><time>2026-04-01T11:00:34.809Z</time></trkpt><trkpt lat="42.0840833" lon="-7.9996333"><ele>973.0</ele><time>2026-04-01T11:00:35.809Z</time></trkpt><trkpt lat="42.0841617" lon="-7.9995567"><ele>973.0</ele><time>2026-04-01T11:00:37.809Z</time></trkpt><trkpt lat="42.08425" lon="-7.9994917"><ele>973.0</ele><time>2026-04-01T11:01:30.812Z</time></trkpt><trkpt lat="42.0843133" lon="-7.9994533"><ele>973.0</ele><time>2026-04-01T11:01:31.809Z</time></trkpt><trkpt lat="42.084395" lon="-7.9993933"><ele>973.0</ele><time>2026-04-01T11:01:32.812Z</time></trkpt><trkpt lat="42.0844933" lon="-7.9993183"><ele>973.0</ele><time>2026-04-01T11:01:33.808Z</time></trkpt><trkpt lat="42.084595" lon="-7.999245"><ele>973.0</ele><time>2026-04-01T11:01:34.809Z</time></trkpt><trkpt lat="42.0847067" lon="-7.999165"><ele>973.0</ele><time>2026-04-01T11:01:35.81Z</time></trkpt><trkpt lat="42.0848167" lon="-7.9990867"><ele>973.0</ele><time>2026-04-01T11:01:36.809Z</time></trkpt><trkpt lat="42.08492" lon="-7.9990067"><ele>973.0</ele><time>2026-04-01T11:01:37.81Z</time></trkpt><trkpt lat="42.0850183" lon="-7.998915"><ele>973.0</ele><time>2026-04-01T11:01:38.812Z</time></trkpt><trkpt lat="42.0851117" lon="-7.998815"><ele>970.75</ele><time>2026-04-01T11:01:39.812Z</time></trkpt><trkpt lat="42.08521" lon="-7.9987167"><ele>968.5</ele><time>2026-04-01T11:01:40.809Z</time></trkpt><trkpt lat="42.0853183" lon="-7.998625"><ele>966.25</ele><time>2026-04-01T11:01:41.809Z</time></trkpt><trkpt lat="42.08543" lon="-7.99854"><ele>964.0</ele><time>2026-04-01T11:01:42.809Z</time></trkpt><trkpt lat="42.0855433" lon="-7.998455"><ele>964.0</ele><time>2026-04-01T11:01:43.812Z</time></trkpt><trkpt lat="42.08565" lon="-7.9983667"><ele>964.0</ele><time>2026-04-01T11:01:44.813Z</time></trkpt><trkpt lat="42.085755" lon="-7.998275"><ele>964.0</ele><time>2026-04-01T11:01:45.811Z</time></trkpt><trkpt lat="42.08586" lon="-7.9981817"><ele>964.0</ele><time>2026-04-01T11:01:46.809Z</time></trkpt><trkpt lat="42.0859733" lon="-7.9980867"><ele>964.25</ele><time>2026-04-01T11:01:47.811Z</time></trkpt><trkpt lat="42.086085" lon="-7.997995"><ele>964.5</ele><time>2026-04-01T11:01:48.812Z</time></trkpt><trkpt lat="42.0861983" lon="-7.9978983"><ele>964.75</ele><time>2026-04-01T11:01:49.811Z</time></trkpt><trkpt lat="42.08631" lon="-7.9977983"><ele>965.0</ele><time>2026-04-01T11:01:50.81Z</time></trkpt><trkpt lat="42.08642" lon="-7.997705"><ele>965.0</ele><time>2026-04-01T11:01:51.811Z</time></trkpt><trkpt lat="42.0865367" lon="-7.99762"><ele>965.0</ele><time>2026-04-01T11:01:52.812Z</time></trkpt><trkpt lat="42.0866617" lon="-7.99753"><ele>965.0</ele><time>2026-04-01T11:01:53.811Z</time></trkpt><trkpt lat="42.08679" lon="-7.9974333"><ele>965.0</ele><time>2026-04-01T11:01:54.813Z</time></trkpt><trkpt lat="42.0869183" lon="-7.99734"><ele>966.25</ele><time>2026-04-01T11:01:55.811Z</time></trkpt><trkpt lat="42.087035" lon="-7.99725"><ele>967.5</ele><time>2026-04-01T11:01:56.812Z</time></trkpt><trkpt lat="42.0871483" lon="-7.9971617"><ele>968.75</ele><time>2026-04-01T11:01:57.812Z</time></trkpt><trkpt lat="42.0872633" lon="-7.9970667"><ele>970.0</ele><time>2026-04-01T11:01:58.813Z</time></trkpt><trkpt lat="42.0873717" lon="-7.9969633"><ele>969.8</ele><time>2026-04-01T11:01:59.81Z</time></trkpt><trkpt lat="42.087465" lon="-7.9968733"><ele>969.6</ele><time>2026-04-01T11:02:00.813Z</time></trkpt><trkpt lat="42.08753" lon="-7.9968083"><ele>969.4000000000001</ele><time>2026-04-01T11:02:01.81Z</time></trkpt><trkpt lat="42.0876067" lon="-7.996695"><ele>969.2</ele><time>2026-04-01T11:02:03.812Z</time></trkpt><trkpt lat="42.08765" lon="-7.9966333"><ele>969.0</ele><time>2026-04-01T11:02:04.808Z</time></trkpt><trkpt lat="42.0877417" lon="-7.996545"><ele>969.8000000000001</ele><time>2026-04-01T11:02:06.813Z</time></trkpt><trkpt lat="42.08781" lon="-7.9965033"><ele>970.6000000000001</ele><time>2026-04-01T11:02:08.809Z</time></trkpt><trkpt lat="42.087915" lon="-7.9964617"><ele>971.4</ele><time>2026-04-01T11:02:11.812Z</time></trkpt><trkpt lat="42.0879767" lon="-7.9964183"><ele>972.2</ele><time>2026-04-01T11:02:12.812Z</time></trkpt><trkpt lat="42.0880633" lon="-7.9963567"><ele>973.0</ele><time>2026-04-01T11:02:13.813Z</time></trkpt><trkpt lat="42.0881683" lon="-7.9962867"><ele>972.25</ele><time>2026-04-01T11:02:14.812Z</time></trkpt><trkpt lat="42.0882917" lon="-7.9962117"><ele>971.5</ele><time>2026-04-01T11:02:15.812Z</time></trkpt><trkpt lat="42.0884317" lon="-7.9961417"><ele>970.75</ele><time>2026-04-01T11:02:16.809Z</time></trkpt><trkpt lat="42.0885567" lon="-7.996075"><ele>970.0</ele><time>2026-04-01T11:02:17.809Z</time></trkpt><trkpt lat="42.08865" lon="-7.9960167"><ele>970.0</ele><time>2026-04-01T11:02:18.809Z</time></trkpt><trkpt lat="42.0887183" lon="-7.995945"><ele>970.0</ele><time>2026-04-01T11:02:19.809Z</time></trkpt><trkpt lat="42.0887783" lon="-7.9958517"><ele>970.0</ele><time>2026-04-01T11:02:20.81Z</time></trkpt><trkpt lat="42.0888483" lon="-7.9957433"><ele>970.0</ele><time>2026-04-01T11:02:21.809Z</time></trkpt><trkpt lat="42.08894" lon="-7.9956233"><ele>970.0</ele><time>2026-04-01T11:02:22.81Z</time></trkpt><trkpt lat="42.0890267" lon="-7.9955183"><ele>970.25</ele><time>2026-04-01T11:02:23.81Z</time></trkpt><trkpt lat="42.0891133" lon="-7.9954217"><ele>970.5</ele><time>2026-04-01T11:02:24.812Z</time></trkpt><trkpt lat="42.0892183" lon="-7.9953417"><ele>970.75</ele><time>2026-04-01T11:02:25.809Z</time></trkpt><trkpt lat="42.0893283" lon="-7.9952617"><ele>971.0</ele><time>2026-04-01T11:02:26.811Z</time></trkpt><trkpt lat="42.08945" lon="-7.9951867"><ele>971.0</ele><time>2026-04-01T11:02:27.81Z</time></trkpt><trkpt lat="42.0895733" lon="-7.9951033"><ele>971.0</ele><time>2026-04-01T11:02:28.812Z</time></trkpt><trkpt lat="42.0896917" lon="-7.99502"><ele>971.0</ele><time>2026-04-01T11:02:29.81Z</time></trkpt><trkpt lat="42.0897917" lon="-7.9949433"><ele>971.0</ele><time>2026-04-01T11:02:30.81Z</time></trkpt><trkpt lat="42.0898617" lon="-7.9948667"><ele>971.3333333333334</ele><time>2026-04-01T11:02:31.812Z</time></trkpt><trkpt lat="42.0899117" lon="-7.9947833"><ele>971.6666666666667</ele><time>2026-04-01T11:02:32.81Z</time></trkpt><trkpt lat="42.0899533" lon="-7.9946867"><ele>972.0</ele><time>2026-04-01T11:02:33.809Z</time></trkpt><trkpt lat="42.0899983" lon="-7.9945733"><ele>972.3333333333333</ele><time>2026-04-01T11:02:34.81Z</time></trkpt><trkpt lat="42.090045" lon="-7.9944717"><ele>972.6666666666666</ele><time>2026-04-01T11:02:35.809Z</time></trkpt><trkpt lat="42.0900917" lon="-7.9943967"><ele>973.0</ele><time>2026-04-01T11:02:36.813Z</time></trkpt><trkpt lat="42.0901517" lon="-7.99434"><ele>973.0</ele><time>2026-04-01T11:02:37.812Z</time></trkpt><trkpt lat="42.0902417" lon="-7.994285"><ele>973.0</ele><time>2026-04-01T11:02:38.809Z</time></trkpt><trkpt lat="42.0903433" lon="-7.9942217"><ele>973.0</ele><time>2026-04-01T11:02:39.809Z</time></trkpt><trkpt lat="42.0904317" lon="-7.994145"><ele>973.0</ele><time>2026-04-01T11:02:40.809Z</time></trkpt><trkpt lat="42.0905133" lon="-7.9940767"><ele>973.0</ele><time>2026-04-01T11:02:41.812Z</time></trkpt><trkpt lat="42.0906" lon="-7.9940283"><ele>974.0</ele><time>2026-04-01T11:02:42.812Z</time></trkpt><trkpt lat="42.0906983" lon="-7.994005"><ele>975.0</ele><time>2026-04-01T11:02:43.812Z</time></trkpt><trkpt lat="42.0908" lon="-7.9940067"><ele>976.0</ele><time>2026-04-01T11:02:44.812Z</time></trkpt><trkpt lat="42.090895" lon="-7.9940267"><ele>977.0</ele><time>2026-04-01T11:02:45.809Z</time></trkpt><trkpt lat="42.0909767" lon="-7.9940483"><ele>978.0</ele><time>2026-04-01T11:02:46.812Z</time></trkpt><trkpt lat="42.09105" lon="-7.9940567"><ele>978.0</ele><time>2026-04-01T11:02:47.812Z</time></trkpt><trkpt lat="42.0911667" lon="-7.9940867"><ele>978.0</ele><time>2026-04-01T11:02:49.81Z</time></trkpt><trkpt lat="42.091275" lon="-7.99413"><ele>978.0</ele><time>2026-04-01T11:02:51.81Z</time></trkpt><trkpt lat="42.0913333" lon="-7.99417"><ele>978.0</ele><time>2026-04-01T11:02:52.809Z</time></trkpt><trkpt lat="42.0914" lon="-7.9942167"><ele>978.0</ele><time>2026-04-01T11:02:53.812Z</time></trkpt><trkpt lat="42.09147" lon="-7.99425"><ele>978.0</ele><time>2026-04-01T11:02:54.812Z</time></trkpt><trkpt lat="42.09156" lon="-7.9942467"><ele>978.3333333333334</ele><time>2026-04-01T11:02:56.812Z</time></trkpt><trkpt lat="42.0916117" lon="-7.9941767"><ele>978.6666666666667</ele><time>2026-04-01T11:03:00.809Z</time></trkpt><trkpt lat="42.0916333" lon="-7.994075"><ele>979.0</ele><time>2026-04-01T11:03:03.809Z</time></trkpt><trkpt lat="42.0916683" lon="-7.9939833"><ele>979.3333333333334</ele><time>2026-04-01T11:03:13.809Z</time></trkpt><trkpt lat="42.09175" lon="-7.99393"><ele>979.6666666666667</ele><time>2026-04-01T11:03:16.812Z</time></trkpt><trkpt lat="42.0918017" lon="-7.99388"><ele>980.0</ele><time>2026-04-01T11:03:18.809Z</time></trkpt><trkpt lat="42.091885" lon="-7.9938167"><ele>981.4</ele><time>2026-04-01T11:03:21.809Z</time></trkpt><trkpt lat="42.0919433" lon="-7.9937817"><ele>982.8</ele><time>2026-04-01T11:03:23.809Z</time></trkpt><trkpt lat="42.09202" lon="-7.9937617"><ele>984.2</ele><time>2026-04-01T11:03:27.809Z</time></trkpt><trkpt lat="42.0920833" lon="-7.993735"><ele>985.6</ele><time>2026-04-01T11:03:29.809Z</time></trkpt><trkpt lat="42.0922067" lon="-7.9936383"><ele>987.0</ele><time>2026-04-01T11:03:31.809Z</time></trkpt><trkpt lat="42.0923167" lon="-7.9935367"><ele>990.0</ele><time>2026-04-01T11:03:32.812Z</time></trkpt><trkpt lat="42.09245" lon="-7.99341"><ele>993.0</ele><time>2026-04-01T11:03:33.812Z</time></trkpt><trkpt lat="42.0925933" lon="-7.99328"><ele>996.0</ele><time>2026-04-01T11:03:34.811Z</time></trkpt><trkpt lat="42.0927333" lon="-7.9931567"><ele>996.0</ele><time>2026-04-01T11:03:35.812Z</time></trkpt><trkpt lat="42.0928533" lon="-7.9930583"><ele>996.0</ele><time>2026-04-01T11:03:36.809Z</time></trkpt><trkpt lat="42.0929617" lon="-7.9929733"><ele>996.0</ele><time>2026-04-01T11:03:37.81Z</time></trkpt><trkpt lat="42.0930583" lon="-7.9929033"><ele>996.0</ele><time>2026-04-01T11:03:38.809Z</time></trkpt><trkpt lat="42.0931383" lon="-7.992825"><ele>996.0</ele><time>2026-04-01T11:03:39.809Z</time></trkpt><trkpt lat="42.0932167" lon="-7.9927533"><ele>995.9999999999999</ele><time>2026-04-01T11:03:40.809Z</time></trkpt><trkpt lat="42.0932867" lon="-7.9926933"><ele>995.9999999999999</ele><time>2026-04-01T11:03:41.818Z</time></trkpt><trkpt lat="42.093365" lon="-7.9926233"><ele>996.0</ele><time>2026-04-01T11:03:42.808Z</time></trkpt><trkpt lat="42.0934583" lon="-7.9925417"><ele>996.0</ele><time>2026-04-01T11:03:43.808Z</time></trkpt><trkpt lat="42.093565" lon="-7.9924667"><ele>996.0</ele><time>2026-04-01T11:03:44.811Z</time></trkpt><trkpt lat="42.0936767" lon="-7.9923817"><ele>996.0</ele><time>2026-04-01T11:03:45.808Z</time></trkpt><trkpt lat="42.0937967" lon="-7.9922867"><ele>996.0</ele><time>2026-04-01T11:03:46.809Z</time></trkpt><trkpt lat="42.09392" lon="-7.9921933"><ele>996.0</ele><time>2026-04-01T11:03:47.812Z</time></trkpt><trkpt lat="42.09404" lon="-7.992105"><ele>995.5</ele><time>2026-04-01T11:03:48.808Z</time></trkpt><trkpt lat="42.0941617" lon="-7.992015"><ele>995.0</ele><time>2026-04-01T11:03:49.808Z</time></trkpt><trkpt lat="42.094285" lon="-7.9919233"><ele>994.5</ele><time>2026-04-01T11:03:50.81Z</time></trkpt><trkpt lat="42.0944133" lon="-7.991835"><ele>994.0</ele><time>2026-04-01T11:03:51.809Z</time></trkpt><trkpt lat="42.09455" lon="-7.9917483"><ele>994.0</ele><time>2026-04-01T11:03:52.809Z</time></trkpt><trkpt lat="42.0946967" lon="-7.991665"><ele>994.0</ele><time>2026-04-01T11:03:53.808Z</time></trkpt><trkpt lat="42.0948467" lon="-7.9915883"><ele>994.0</ele><time>2026-04-01T11:03:54.809Z</time></trkpt><trkpt lat="42.09499" lon="-7.9915033"><ele>990.6666666666666</ele><time>2026-04-01T11:03:55.808Z</time></trkpt><trkpt lat="42.0951333" lon="-7.9914133"><ele>987.3333333333333</ele><time>2026-04-01T11:03:56.809Z</time></trkpt><trkpt lat="42.0952783" lon="-7.99132"><ele>984.0</ele><time>2026-04-01T11:03:57.808Z</time></trkpt><trkpt lat="42.0954117" lon="-7.9912333"><ele>984.0</ele><time>2026-04-01T11:03:58.808Z</time></trkpt><trkpt lat="42.095535" lon="-7.9911467"><ele>984.0</ele><time>2026-04-01T11:03:59.808Z</time></trkpt><trkpt lat="42.095645" lon="-7.991055"><ele>984.0</ele><time>2026-04-01T11:04:00.808Z</time></trkpt><trkpt lat="42.09574" lon="-7.9909583"><ele>984.0</ele><time>2026-04-01T11:04:01.809Z</time></trkpt><trkpt lat="42.09581" lon="-7.9908533"><ele>983.0</ele><time>2026-04-01T11:04:02.812Z</time></trkpt><trkpt lat="42.0958617" lon="-7.9907367"><ele>982.0</ele><time>2026-04-01T11:04:03.808Z</time></trkpt><trkpt lat="42.0958933" lon="-7.9905983"><ele>981.0</ele><time>2026-04-01T11:04:04.808Z</time></trkpt><trkpt lat="42.0959083" lon="-7.9904367"><ele>980.0</ele><time>2026-04-01T11:04:05.808Z</time></trkpt><trkpt lat="42.0959167" lon="-7.9902667"><ele>980.0</ele><time>2026-04-01T11:04:06.808Z</time></trkpt><trkpt lat="42.09592" lon="-7.990095"><ele>980.0</ele><time>2026-04-01T11:04:07.81Z</time></trkpt><trkpt lat="42.0959267" lon="-7.9899433"><ele>980.0</ele><time>2026-04-01T11:04:08.809Z</time></trkpt><trkpt lat="42.0959483" lon="-7.9898"><ele>980.0</ele><time>2026-04-01T11:04:09.808Z</time></trkpt><trkpt lat="42.0959917" lon="-7.989675"><ele>981.75</ele><time>2026-04-01T11:04:10.808Z</time></trkpt><trkpt lat="42.0960583" lon="-7.9895683"><ele>983.5</ele><time>2026-04-01T11:04:11.808Z</time></trkpt><trkpt lat="42.09615" lon="-7.9894867"><ele>985.25</ele><time>2026-04-01T11:04:12.809Z</time></trkpt><trkpt lat="42.0962633" lon="-7.9894167"><ele>987.0</ele><time>2026-04-01T11:04:13.808Z</time></trkpt><trkpt lat="42.096385" lon="-7.98937"><ele>987.0</ele><time>2026-04-01T11:04:14.809Z</time></trkpt><trkpt lat="42.0965183" lon="-7.989355"><ele>987.0</ele><time>2026-04-01T11:04:15.808Z</time></trkpt><trkpt lat="42.0966633" lon="-7.9893717"><ele>987.0</ele><time>2026-04-01T11:04:16.81Z</time></trkpt><trkpt lat="42.09681" lon="-7.989385"><ele>987.0</ele><time>2026-04-01T11:04:17.808Z</time></trkpt><trkpt lat="42.096955" lon="-7.9894"><ele>985.5</ele><time>2026-04-01T11:04:18.808Z</time></trkpt><trkpt lat="42.0971017" lon="-7.9894167"><ele>984.0</ele><time>2026-04-01T11:04:19.809Z</time></trkpt><trkpt lat="42.0972433" lon="-7.989445"><ele>982.5</ele><time>2026-04-01T11:04:20.809Z</time></trkpt><trkpt lat="42.0973883" lon="-7.9894883"><ele>981.0</ele><time>2026-04-01T11:04:21.808Z</time></trkpt><trkpt lat="42.0975183" lon="-7.9895333"><ele>980.3333333333334</ele><time>2026-04-01T11:04:22.808Z</time></trkpt><trkpt lat="42.0976233" lon="-7.98957"><ele>979.6666666666667</ele><time>2026-04-01T11:04:23.81Z</time></trkpt><trkpt lat="42.097705" lon="-7.9895983"><ele>979.0</ele><time>2026-04-01T11:04:24.808Z</time></trkpt><trkpt lat="42.0977683" lon="-7.9896183"><ele>978.3333333333334</ele><time>2026-04-01T11:04:25.808Z</time></trkpt><trkpt lat="42.097845" lon="-7.9896417"><ele>977.6666666666667</ele><time>2026-04-01T11:04:27.808Z</time></trkpt><trkpt lat="42.097865" lon="-7.9897233"><ele>977.0</ele><time>2026-04-01T11:04:30.808Z</time></trkpt><trkpt lat="42.0977617" lon="-7.98971"><ele>977.0000000000001</ele><time>2026-04-01T11:04:33.808Z</time></trkpt><trkpt lat="42.0976933" lon="-7.9896683"><ele>977.0</ele><time>2026-04-01T11:04:34.811Z</time></trkpt><trkpt lat="42.0976133" lon="-7.9896267"><ele>977.0</ele><time>2026-04-01T11:04:35.808Z</time></trkpt><trkpt lat="42.0975167" lon="-7.9895833"><ele>977.0</ele><time>2026-04-01T11:04:36.808Z</time></trkpt><trkpt lat="42.0974217" lon="-7.98954"><ele>977.0000000000001</ele><time>2026-04-01T11:04:37.808Z</time></trkpt><trkpt lat="42.0973417" lon="-7.9895033"><ele>977.0</ele><time>2026-04-01T11:04:38.809Z</time></trkpt><trkpt lat="42.0972767" lon="-7.989465"><ele>977.1666666666667</ele><time>2026-04-01T11:04:39.812Z</time></trkpt><trkpt lat="42.097205" lon="-7.98938"><ele>977.3333333333334</ele><time>2026-04-01T11:04:41.809Z</time></trkpt><trkpt lat="42.097275" lon="-7.98928"><ele>977.5</ele><time>2026-04-01T11:04:44.813Z</time></trkpt><trkpt lat="42.09734" lon="-7.98923"><ele>977.6666666666667</ele><time>2026-04-01T11:04:45.812Z</time></trkpt><trkpt lat="42.0974183" lon="-7.9891667"><ele>977.8333333333334</ele><time>2026-04-01T11:04:46.812Z</time></trkpt><trkpt lat="42.0974833" lon="-7.9891"><ele>978.0</ele><time>2026-04-01T11:04:47.808Z</time></trkpt><trkpt lat="42.09754" lon="-7.9890283"><ele>978.0</ele><time>2026-04-01T11:04:48.809Z</time></trkpt><trkpt lat="42.09759" lon="-7.9889583"><ele>978.0</ele><time>2026-04-01T11:04:49.808Z</time></trkpt><trkpt lat="42.0976433" lon="-7.9888833"><ele>978.0</ele><time>2026-04-01T11:04:50.809Z</time></trkpt><trkpt lat="42.0976983" lon="-7.9888117"><ele>978.0</ele><time>2026-04-01T11:04:51.808Z</time></trkpt><trkpt lat="42.0977583" lon="-7.9887433"><ele>978.0</ele><time>2026-04-01T11:04:52.808Z</time></trkpt><trkpt lat="42.0978183" lon="-7.988655"><ele>978.0</ele><time>2026-04-01T11:04:53.808Z</time></trkpt><trkpt lat="42.0978967" lon="-7.9885283"><ele>978.0</ele><time>2026-04-01T11:04:54.809Z</time></trkpt><trkpt lat="42.0979833" lon="-7.9883883"><ele>978.0</ele><time>2026-04-01T11:04:55.809Z</time></trkpt><trkpt lat="42.0980683" lon="-7.98824"><ele>978.0</ele><time>2026-04-01T11:04:56.809Z</time></trkpt><trkpt lat="42.0981517" lon="-7.98809"><ele>978.0</ele><time>2026-04-01T11:04:57.809Z</time></trkpt><trkpt lat="42.09824" lon="-7.9879383"><ele>975.5</ele><time>2026-04-01T11:04:58.808Z</time></trkpt><trkpt lat="42.0983317" lon="-7.9877933"><ele>973.0</ele><time>2026-04-01T11:04:59.809Z</time></trkpt><trkpt lat="42.0984217" lon="-7.9876467"><ele>970.5</ele><time>2026-04-01T11:05:00.809Z</time></trkpt><trkpt lat="42.0985233" lon="-7.987505"><ele>968.0</ele><time>2026-04-01T11:05:01.811Z</time></trkpt><trkpt lat="42.098635" lon="-7.9873817"><ele>967.75</ele><time>2026-04-01T11:05:02.813Z</time></trkpt><trkpt lat="42.0987533" lon="-7.9872783"><ele>967.5</ele><time>2026-04-01T11:05:03.811Z</time></trkpt><trkpt lat="42.0988767" lon="-7.9871833"><ele>967.25</ele><time>2026-04-01T11:05:04.808Z</time></trkpt><trkpt lat="42.0990083" lon="-7.9871067"><ele>967.0</ele><time>2026-04-01T11:05:05.812Z</time></trkpt><trkpt lat="42.0991417" lon="-7.9870483"><ele>965.25</ele><time>2026-04-01T11:05:06.809Z</time></trkpt><trkpt lat="42.09928" lon="-7.987005"><ele>963.5</ele><time>2026-04-01T11:05:07.809Z</time></trkpt><trkpt lat="42.099415" lon="-7.9869883"><ele>961.75</ele><time>2026-04-01T11:05:08.812Z</time></trkpt><trkpt lat="42.0995483" lon="-7.986995"><ele>960.0</ele><time>2026-04-01T11:05:09.809Z</time></trkpt><trkpt lat="42.0996783" lon="-7.9870183"><ele>960.0</ele><time>2026-04-01T11:05:10.81Z</time></trkpt><trkpt lat="42.0998117" lon="-7.9870617"><ele>960.0</ele><time>2026-04-01T11:05:11.81Z</time></trkpt><trkpt lat="42.0999467" lon="-7.9871083"><ele>960.0</ele><time>2026-04-01T11:05:12.812Z</time></trkpt><trkpt lat="42.10008" lon="-7.98715"><ele>960.0</ele><time>2026-04-01T11:05:13.811Z</time></trkpt><trkpt lat="42.1002133" lon="-7.9871783"><ele>959.25</ele><time>2026-04-01T11:05:14.812Z</time></trkpt><trkpt lat="42.10034" lon="-7.9871917"><ele>958.5</ele><time>2026-04-01T11:05:15.812Z</time></trkpt><trkpt lat="42.10046" lon="-7.9871767"><ele>957.75</ele><time>2026-04-01T11:05:16.813Z</time></trkpt><trkpt lat="42.1005733" lon="-7.9871417"><ele>957.0</ele><time>2026-04-01T11:05:17.809Z</time></trkpt><trkpt lat="42.10068" lon="-7.9870833"><ele>956.0</ele><time>2026-04-01T11:05:18.809Z</time></trkpt><trkpt lat="42.100785" lon="-7.9870067"><ele>955.0</ele><time>2026-04-01T11:05:19.809Z</time></trkpt><trkpt lat="42.1008883" lon="-7.986915"><ele>954.0</ele><time>2026-04-01T11:05:20.809Z</time></trkpt><trkpt lat="42.1009933" lon="-7.98681"><ele>953.0</ele><time>2026-04-01T11:05:21.808Z</time></trkpt><trkpt lat="42.1010933" lon="-7.9866917"><ele>953.25</ele><time>2026-04-01T11:05:22.809Z</time></trkpt><trkpt lat="42.1011883" lon="-7.98656"><ele>953.5</ele><time>2026-04-01T11:05:23.808Z</time></trkpt><trkpt lat="42.10128" lon="-7.98642"><ele>953.75</ele><time>2026-04-01T11:05:24.809Z</time></trkpt><trkpt lat="42.101375" lon="-7.98628"><ele>954.0</ele><time>2026-04-01T11:05:25.811Z</time></trkpt><trkpt lat="42.1014717" lon="-7.98614"><ele>954.0</ele><time>2026-04-01T11:05:26.812Z</time></trkpt><trkpt lat="42.1015717" lon="-7.9859917"><ele>954.0</ele><time>2026-04-01T11:05:27.812Z</time></trkpt><trkpt lat="42.1016683" lon="-7.98584"><ele>954.0</ele><time>2026-04-01T11:05:28.811Z</time></trkpt><trkpt lat="42.1017667" lon="-7.985685"><ele>954.0</ele><time>2026-04-01T11:05:29.808Z</time></trkpt><trkpt lat="42.1018633" lon="-7.9855333"><ele>954.25</ele><time>2026-04-01T11:05:30.809Z</time></trkpt><trkpt lat="42.1019617" lon="-7.9853883"><ele>954.5</ele><time>2026-04-01T11:05:31.812Z</time></trkpt><trkpt lat="42.102055" lon="-7.9852467"><ele>954.75</ele><time>2026-04-01T11:05:32.812Z</time></trkpt><trkpt lat="42.1021517" lon="-7.985105"><ele>955.0</ele><time>2026-04-01T11:05:33.812Z</time></trkpt><trkpt lat="42.1022517" lon="-7.9849733"><ele>955.0</ele><time>2026-04-01T11:05:34.812Z</time></trkpt><trkpt lat="42.10236" lon="-7.98485"><ele>955.0</ele><time>2026-04-01T11:05:35.811Z</time></trkpt><trkpt lat="42.10248" lon="-7.98474"><ele>955.0</ele><time>2026-04-01T11:05:36.812Z</time></trkpt><trkpt lat="42.1026083" lon="-7.9846433"><ele>955.0</ele><time>2026-04-01T11:05:37.811Z</time></trkpt><trkpt lat="42.10274" lon="-7.9845517"><ele>951.3333333333333</ele><time>2026-04-01T11:05:38.811Z</time></trkpt><trkpt lat="42.1028767" lon="-7.9844617"><ele>947.6666666666667</ele><time>2026-04-01T11:05:39.813Z</time></trkpt><trkpt lat="42.1030133" lon="-7.9843733"><ele>944.0</ele><time>2026-04-01T11:05:40.811Z</time></trkpt><trkpt lat="42.1031567" lon="-7.9842883"><ele>943.0</ele><time>2026-04-01T11:05:41.811Z</time></trkpt><trkpt lat="42.1033017" lon="-7.9842117"><ele>942.0</ele><time>2026-04-01T11:05:42.811Z</time></trkpt><trkpt lat="42.1034483" lon="-7.9841517"><ele>941.0</ele><time>2026-04-01T11:05:43.812Z</time></trkpt><trkpt lat="42.103595" lon="-7.9841017"><ele>941.0</ele><time>2026-04-01T11:05:44.812Z</time></trkpt><trkpt lat="42.1037433" lon="-7.984055"><ele>941.0</ele><time>2026-04-01T11:05:45.812Z</time></trkpt><trkpt lat="42.1038883" lon="-7.984005"><ele>941.0</ele><time>2026-04-01T11:05:46.811Z</time></trkpt><trkpt lat="42.1040333" lon="-7.98395"><ele>940.0</ele><time>2026-04-01T11:05:47.809Z</time></trkpt><trkpt lat="42.1041767" lon="-7.983885"><ele>939.0</ele><time>2026-04-01T11:05:48.809Z</time></trkpt><trkpt lat="42.1043183" lon="-7.983815"><ele>938.0</ele><time>2026-04-01T11:05:49.809Z</time></trkpt><trkpt lat="42.1044567" lon="-7.9837367"><ele>938.0</ele><time>2026-04-01T11:05:50.809Z</time></trkpt><trkpt lat="42.1045933" lon="-7.9836517"><ele>938.0</ele><time>2026-04-01T11:05:51.808Z</time></trkpt><trkpt lat="42.104725" lon="-7.9835733"><ele>938.0</ele><time>2026-04-01T11:05:52.81Z</time></trkpt><trkpt lat="42.1048567" lon="-7.9835033"><ele>938.0</ele><time>2026-04-01T11:05:53.809Z</time></trkpt><trkpt lat="42.1049883" lon="-7.9834383"><ele>938.25</ele><time>2026-04-01T11:05:54.809Z</time></trkpt><trkpt lat="42.1051183" lon="-7.9833717"><ele>938.5</ele><time>2026-04-01T11:05:55.811Z</time></trkpt><trkpt lat="42.105255" lon="-7.9833033"><ele>938.75</ele><time>2026-04-01T11:05:56.809Z</time></trkpt><trkpt lat="42.1053883" lon="-7.9832283"><ele>939.0</ele><time>2026-04-01T11:05:57.809Z</time></trkpt><trkpt lat="42.1055217" lon="-7.983155"><ele>939.0</ele><time>2026-04-01T11:05:58.81Z</time></trkpt><trkpt lat="42.105655" lon="-7.9830783"><ele>939.0</ele><time>2026-04-01T11:05:59.812Z</time></trkpt><trkpt lat="42.1057867" lon="-7.9830067"><ele>939.0</ele><time>2026-04-01T11:06:00.812Z</time></trkpt><trkpt lat="42.1059183" lon="-7.982935"><ele>939.0</ele><time>2026-04-01T11:06:01.809Z</time></trkpt><trkpt lat="42.1060483" lon="-7.982875"><ele>939.0</ele><time>2026-04-01T11:06:02.81Z</time></trkpt><trkpt lat="42.1061883" lon="-7.9828133"><ele>939.0</ele><time>2026-04-01T11:06:03.811Z</time></trkpt><trkpt lat="42.1063517" lon="-7.982735"><ele>939.0</ele><time>2026-04-01T11:06:04.811Z</time></trkpt><trkpt lat="42.1065217" lon="-7.982635"><ele>939.6666666666667</ele><time>2026-04-01T11:06:05.809Z</time></trkpt><trkpt lat="42.1067067" lon="-7.982515"><ele>940.3333333333334</ele><time>2026-04-01T11:06:06.808Z</time></trkpt><trkpt lat="42.1069" lon="-7.9823917"><ele>941.0</ele><time>2026-04-01T11:06:07.809Z</time></trkpt><trkpt lat="42.1070983" lon="-7.9822783"><ele>939.0</ele><time>2026-04-01T11:06:08.809Z</time></trkpt><trkpt lat="42.1072583" lon="-7.9821833"><ele>937.0</ele><time>2026-04-01T11:06:09.808Z</time></trkpt><trkpt lat="42.107375" lon="-7.9821067"><ele>935.0</ele><time>2026-04-01T11:06:10.81Z</time></trkpt><trkpt lat="42.1074833" lon="-7.982025"><ele>933.0</ele><time>2026-04-01T11:06:11.812Z</time></trkpt><trkpt lat="42.1075667" lon="-7.9819833"><ele>933.0</ele><time>2026-04-01T11:06:12.811Z</time></trkpt><trkpt lat="42.1076467" lon="-7.981965"><ele>933.0</ele><time>2026-04-01T11:06:13.812Z</time></trkpt><trkpt lat="42.1077333" lon="-7.981965"><ele>933.0</ele><time>2026-04-01T11:06:14.809Z</time></trkpt><trkpt lat="42.1078233" lon="-7.9819717"><ele>933.0</ele><time>2026-04-01T11:06:15.812Z</time></trkpt><trkpt lat="42.1079267" lon="-7.9819483"><ele>933.0</ele><time>2026-04-01T11:06:16.811Z</time></trkpt><trkpt lat="42.108045" lon="-7.9818967"><ele>933.0</ele><time>2026-04-01T11:06:17.81Z</time></trkpt><trkpt lat="42.1081733" lon="-7.9818267"><ele>933.0</ele><time>2026-04-01T11:06:18.809Z</time></trkpt><trkpt lat="42.1083067" lon="-7.9817333"><ele>933.0</ele><time>2026-04-01T11:06:19.811Z</time></trkpt><trkpt lat="42.1084417" lon="-7.9816117"><ele>930.75</ele><time>2026-04-01T11:06:20.81Z</time></trkpt><trkpt lat="42.1085633" lon="-7.9814767"><ele>928.5</ele><time>2026-04-01T11:06:21.809Z</time></trkpt><trkpt lat="42.1086683" lon="-7.9813417"><ele>926.25</ele><time>2026-04-01T11:06:22.811Z</time></trkpt><trkpt lat="42.1087617" lon="-7.9812167"><ele>924.0</ele><time>2026-04-01T11:06:23.809Z</time></trkpt><trkpt lat="42.10885" lon="-7.9811233"><ele>924.0</ele><time>2026-04-01T11:06:24.811Z</time></trkpt><trkpt lat="42.1089167" lon="-7.9810583"><ele>924.0</ele><time>2026-04-01T11:06:25.81Z</time></trkpt><trkpt lat="42.1089617" lon="-7.98095"><ele>924.0</ele><time>2026-04-01T11:06:27.81Z</time></trkpt><trkpt lat="42.108975" lon="-7.9808517"><ele>924.0</ele><time>2026-04-01T11:06:29.81Z</time></trkpt><trkpt lat="42.109045" lon="-7.9807917"><ele>924.0</ele><time>2026-04-01T11:06:31.81Z</time></trkpt><trkpt lat="42.1091167" lon="-7.9807583"><ele>924.0</ele><time>2026-04-01T11:06:32.811Z</time></trkpt><trkpt lat="42.10921" lon="-7.9807167"><ele>922.4000000000001</ele><time>2026-04-01T11:06:33.81Z</time></trkpt><trkpt lat="42.1093017" lon="-7.9806767"><ele>920.8000000000001</ele><time>2026-04-01T11:06:34.811Z</time></trkpt><trkpt lat="42.1093917" lon="-7.9806467"><ele>919.1999999999999</ele><time>2026-04-01T11:06:35.809Z</time></trkpt><trkpt lat="42.109485" lon="-7.9806133"><ele>917.5999999999999</ele><time>2026-04-01T11:06:36.812Z</time></trkpt><trkpt lat="42.1095783" lon="-7.9805783"><ele>916.0</ele><time>2026-04-01T11:06:37.809Z</time></trkpt><trkpt lat="42.1096717" lon="-7.9805483"><ele>915.9999999999999</ele><time>2026-04-01T11:06:38.812Z</time></trkpt><trkpt lat="42.10977" lon="-7.980525"><ele>916.0</ele><time>2026-04-01T11:06:39.811Z</time></trkpt><trkpt lat="42.1098717" lon="-7.980505"><ele>916.0</ele><time>2026-04-01T11:06:40.809Z</time></trkpt><trkpt lat="42.1099667" lon="-7.9804783"><ele>916.0</ele><time>2026-04-01T11:06:41.811Z</time></trkpt><trkpt lat="42.110045" lon="-7.980455"><ele>915.9999999999999</ele><time>2026-04-01T11:06:42.812Z</time></trkpt><trkpt lat="42.1101083" lon="-7.9804383"><ele>916.0</ele><time>2026-04-01T11:06:43.812Z</time></trkpt><trkpt lat="42.110195" lon="-7.980415"><ele>914.5999999999999</ele><time>2026-04-01T11:06:45.812Z</time></trkpt><trkpt lat="42.1102383" lon="-7.9803217"><ele>913.1999999999999</ele><time>2026-04-01T11:06:48.81Z</time></trkpt><trkpt lat="42.1102562" lon="-7.9802175"><ele>911.8000000000001</ele><time>2026-04-01T11:06:50.81Z</time></trkpt><trkpt lat="42.1102734" lon="-7.9800912"><ele>910.4000000000001</ele><time>2026-04-01T11:06:52.809Z</time></trkpt><trkpt lat="42.1103112" lon="-7.9799414"><ele>909.0</ele><time>2026-04-01T11:06:54.809Z</time></trkpt><trkpt lat="42.110388" lon="-7.9798159"><ele>907.4000000000001</ele><time>2026-04-01T11:06:56.809Z</time></trkpt><trkpt lat="42.1104971" lon="-7.979768"><ele>905.8000000000001</ele><time>2026-04-01T11:06:58.81Z</time></trkpt><trkpt lat="42.11059" lon="-7.9796828"><ele>904.1999999999999</ele><time>2026-04-01T11:07:00.811Z</time></trkpt><trkpt lat="42.1106305" lon="-7.9795895"><ele>902.5999999999999</ele><time>2026-04-01T11:07:01.809Z</time></trkpt><trkpt lat="42.1106712" lon="-7.9794528"><ele>901.0</ele><time>2026-04-01T11:07:02.809Z</time></trkpt><trkpt lat="42.1107164" lon="-7.979293"><ele>899.5</ele><time>2026-04-01T11:07:03.808Z</time></trkpt><trkpt lat="42.1107704" lon="-7.9791377"><ele>898.0</ele><time>2026-04-01T11:07:04.809Z</time></trkpt><trkpt lat="42.1108519" lon="-7.9789977"><ele>896.5</ele><time>2026-04-01T11:07:05.809Z</time></trkpt><trkpt lat="42.1109678" lon="-7.9788644"><ele>895.0</ele><time>2026-04-01T11:07:06.809Z</time></trkpt><trkpt lat="42.1110933" lon="-7.9787217"><ele>895.0</ele><time>2026-04-01T11:07:07.809Z</time></trkpt><trkpt lat="42.111202" lon="-7.9785483"><ele>895.0</ele><time>2026-04-01T11:07:08.809Z</time></trkpt><trkpt lat="42.1112933" lon="-7.9783542"><ele>895.0</ele><time>2026-04-01T11:07:09.809Z</time></trkpt><trkpt lat="42.1113634" lon="-7.9781726"><ele>895.0</ele><time>2026-04-01T11:07:10.81Z</time></trkpt><trkpt lat="42.1114176" lon="-7.9780172"><ele>895.0</ele><time>2026-04-01T11:07:11.81Z</time></trkpt><trkpt lat="42.111459" lon="-7.9778883"><ele>895.0</ele><time>2026-04-01T11:07:12.809Z</time></trkpt><trkpt lat="42.1114939" lon="-7.9777806"><ele>895.0</ele><time>2026-04-01T11:07:13.809Z</time></trkpt><trkpt lat="42.1115332" lon="-7.9776933"><ele>895.0</ele><time>2026-04-01T11:07:14.809Z</time></trkpt><trkpt lat="42.11164" lon="-7.9776258"><ele>895.0</ele><time>2026-04-01T11:07:16.81Z</time></trkpt><trkpt lat="42.1117269" lon="-7.9776365"><ele>895.0</ele><time>2026-04-01T11:07:17.812Z</time></trkpt><trkpt lat="42.1118517" lon="-7.9776762"><ele>895.0</ele><time>2026-04-01T11:07:18.808Z</time></trkpt><trkpt lat="42.1119846" lon="-7.9777098"><ele>895.0</ele><time>2026-04-01T11:07:19.812Z</time></trkpt><trkpt lat="42.112129" lon="-7.9777233"><ele>895.0</ele><time>2026-04-01T11:07:20.812Z</time></trkpt><trkpt lat="42.1122816" lon="-7.9777027"><ele>895.0</ele><time>2026-04-01T11:07:21.811Z</time></trkpt><trkpt lat="42.1124458" lon="-7.9776525"><ele>895.0</ele><time>2026-04-01T11:07:22.81Z</time></trkpt><trkpt lat="42.1126092" lon="-7.9775749"><ele>896.6666666666666</ele><time>2026-04-01T11:07:23.811Z</time></trkpt><trkpt lat="42.1127688" lon="-7.9774824"><ele>898.3333333333333</ele><time>2026-04-01T11:07:24.812Z</time></trkpt><trkpt lat="42.1129193" lon="-7.9773879"><ele>900.0</ele><time>2026-04-01T11:07:25.811Z</time></trkpt><trkpt lat="42.1130487" lon="-7.9773029"><ele>900.0</ele><time>2026-04-01T11:07:26.812Z</time></trkpt><trkpt lat="42.113162" lon="-7.9772186"><ele>900.0</ele><time>2026-04-01T11:07:27.809Z</time></trkpt><trkpt lat="42.1132654" lon="-7.9771418"><ele>900.0</ele><time>2026-04-01T11:07:28.812Z</time></trkpt><trkpt lat="42.1133562" lon="-7.9770782"><ele>900.0</ele><time>2026-04-01T11:07:29.812Z</time></trkpt><trkpt lat="42.1134302" lon="-7.9770185"><ele>900.0</ele><time>2026-04-01T11:07:30.811Z</time></trkpt><trkpt lat="42.1134968" lon="-7.9769669"><ele>898.4</ele><time>2026-04-01T11:07:31.812Z</time></trkpt><trkpt lat="42.1135723" lon="-7.9769316"><ele>896.8</ele><time>2026-04-01T11:07:32.81Z</time></trkpt><trkpt lat="42.1136728" lon="-7.97692"><ele>895.2</ele><time>2026-04-01T11:07:33.809Z</time></trkpt><trkpt lat="42.1137832" lon="-7.9769222"><ele>893.6</ele><time>2026-04-01T11:07:34.812Z</time></trkpt><trkpt lat="42.1139009" lon="-7.9769261"><ele>892.0</ele><time>2026-04-01T11:07:35.81Z</time></trkpt><trkpt lat="42.1140189" lon="-7.9769291"><ele>889.0</ele><time>2026-04-01T11:07:36.809Z</time></trkpt><trkpt lat="42.1141372" lon="-7.9769259"><ele>886.0</ele><time>2026-04-01T11:07:37.812Z</time></trkpt><trkpt lat="42.1142479" lon="-7.9769169"><ele>883.0</ele><time>2026-04-01T11:07:38.812Z</time></trkpt><trkpt lat="42.1143588" lon="-7.9769065"><ele>880.0</ele><time>2026-04-01T11:07:39.809Z</time></trkpt><trkpt lat="42.114469" lon="-7.9768946"><ele>880.0</ele><time>2026-04-01T11:07:40.81Z</time></trkpt><trkpt lat="42.1145834" lon="-7.9768851"><ele>880.0</ele><time>2026-04-01T11:07:41.9Z</time></trkpt><trkpt lat="42.1146924" lon="-7.9768771"><ele>880.0</ele><time>2026-04-01T11:07:42.809Z</time></trkpt><trkpt lat="42.1148111" lon="-7.9768693"><ele>880.0</ele><time>2026-04-01T11:07:43.812Z</time></trkpt><trkpt lat="42.1149277" lon="-7.9768643"><ele>878.4</ele><time>2026-04-01T11:07:44.809Z</time></trkpt><trkpt lat="42.1150418" lon="-7.9768614"><ele>876.8</ele><time>2026-04-01T11:07:45.81Z</time></trkpt><trkpt lat="42.1151478" lon="-7.9768669"><ele>875.2</ele><time>2026-04-01T11:07:46.811Z</time></trkpt><trkpt lat="42.1152425" lon="-7.976875"><ele>873.6</ele><time>2026-04-01T11:07:47.812Z</time></trkpt><trkpt lat="42.1153268" lon="-7.9768769"><ele>872.0</ele><time>2026-04-01T11:07:48.809Z</time></trkpt><trkpt lat="42.1154103" lon="-7.9768737"><ele>872.0000000000001</ele><time>2026-04-01T11:07:49.811Z</time></trkpt><trkpt lat="42.1154944" lon="-7.976863"><ele>872.0</ele><time>2026-04-01T11:07:50.809Z</time></trkpt><trkpt lat="42.1155805" lon="-7.9768492"><ele>872.0</ele><time>2026-04-01T11:07:51.812Z</time></trkpt><trkpt lat="42.1156668" lon="-7.9768301"><ele>872.0</ele><time>2026-04-01T11:07:52.809Z</time></trkpt><trkpt lat="42.1157561" lon="-7.9768178"><ele>872.0000000000001</ele><time>2026-04-01T11:07:53.813Z</time></trkpt><trkpt lat="42.1158518" lon="-7.9768235"><ele>872.0</ele><time>2026-04-01T11:07:54.808Z</time></trkpt><trkpt lat="42.1159701" lon="-7.976836"><ele>871.0</ele><time>2026-04-01T11:07:55.809Z</time></trkpt><trkpt lat="42.1161003" lon="-7.9768458"><ele>870.0</ele><time>2026-04-01T11:07:56.809Z</time></trkpt><trkpt lat="42.1162328" lon="-7.9768456"><ele>869.0</ele><time>2026-04-01T11:07:57.809Z</time></trkpt><trkpt lat="42.1163619" lon="-7.9768378"><ele>868.0</ele><time>2026-04-01T11:07:58.809Z</time></trkpt><trkpt lat="42.116473" lon="-7.9768271"><ele>867.9999999999999</ele><time>2026-04-01T11:07:59.812Z</time></trkpt><trkpt lat="42.1165538" lon="-7.9768209"><ele>868.0</ele><time>2026-04-01T11:08:00.812Z</time></trkpt><trkpt lat="42.11667" lon="-7.9768174"><ele>868.0</ele><time>2026-04-01T11:08:02.809Z</time></trkpt><trkpt lat="42.1167361" lon="-7.9768208"><ele>868.0</ele><time>2026-04-01T11:08:03.812Z</time></trkpt><trkpt lat="42.1168146" lon="-7.9768211"><ele>867.9999999999999</ele><time>2026-04-01T11:08:04.814Z</time></trkpt><trkpt lat="42.1169029" lon="-7.9768163"><ele>868.0</ele><time>2026-04-01T11:08:05.809Z</time></trkpt><trkpt lat="42.1170045" lon="-7.9768055"><ele>866.75</ele><time>2026-04-01T11:08:06.811Z</time></trkpt><trkpt lat="42.1171187" lon="-7.9767972"><ele>865.5</ele><time>2026-04-01T11:08:07.81Z</time></trkpt><trkpt lat="42.1172482" lon="-7.9767885"><ele>864.25</ele><time>2026-04-01T11:08:08.811Z</time></trkpt><trkpt lat="42.1173901" lon="-7.9767799"><ele>863.0</ele><time>2026-04-01T11:08:09.811Z</time></trkpt><trkpt lat="42.117536" lon="-7.9767709"><ele>862.6666666666667</ele><time>2026-04-01T11:08:10.812Z</time></trkpt><trkpt lat="42.1176898" lon="-7.9767691"><ele>862.3333333333333</ele><time>2026-04-01T11:08:11.809Z</time></trkpt><trkpt lat="42.1178482" lon="-7.9767816"><ele>862.0</ele><time>2026-04-01T11:08:12.811Z</time></trkpt><trkpt lat="42.1180092" lon="-7.9767941"><ele>862.0</ele><time>2026-04-01T11:08:13.812Z</time></trkpt><trkpt lat="42.1181682" lon="-7.9767922"><ele>862.0</ele><time>2026-04-01T11:08:14.813Z</time></trkpt><trkpt lat="42.1183231" lon="-7.9767818"><ele>862.0</ele><time>2026-04-01T11:08:15.809Z</time></trkpt><trkpt lat="42.1184819" lon="-7.976765"><ele>861.0</ele><time>2026-04-01T11:08:16.811Z</time></trkpt><trkpt lat="42.118654" lon="-7.9767478"><ele>860.0</ele><time>2026-04-01T11:08:17.812Z</time></trkpt><trkpt lat="42.1188523" lon="-7.9767332"><ele>859.0</ele><time>2026-04-01T11:08:18.808Z</time></trkpt><trkpt lat="42.1190527" lon="-7.9767256"><ele>857.3333333333333</ele><time>2026-04-01T11:08:19.812Z</time></trkpt><trkpt lat="42.1192377" lon="-7.9767163"><ele>855.6666666666667</ele><time>2026-04-01T11:08:20.81Z</time></trkpt><trkpt lat="42.1194173" lon="-7.9767003"><ele>854.0</ele><time>2026-04-01T11:08:21.814Z</time></trkpt><trkpt lat="42.1195953" lon="-7.9766861"><ele>852.3333333333334</ele><time>2026-04-01T11:08:22.809Z</time></trkpt><trkpt lat="42.1197666" lon="-7.9766733"><ele>850.6666666666667</ele><time>2026-04-01T11:08:23.81Z</time></trkpt><trkpt lat="42.1199209" lon="-7.9766617"><ele>849.0</ele><time>2026-04-01T11:08:24.812Z</time></trkpt><trkpt lat="42.1200621" lon="-7.9766527"><ele>849.0</ele><time>2026-04-01T11:08:25.809Z</time></trkpt><trkpt lat="42.1201794" lon="-7.9766453"><ele>849.0</ele><time>2026-04-01T11:08:26.812Z</time></trkpt><trkpt lat="42.1202762" lon="-7.976645"><ele>849.0</ele><time>2026-04-01T11:08:27.81Z</time></trkpt><trkpt lat="42.1203536" lon="-7.9766686"><ele>849.0</ele><time>2026-04-01T11:08:28.811Z</time></trkpt><trkpt lat="42.1204267" lon="-7.9767094"><ele>849.0</ele><time>2026-04-01T11:08:29.812Z</time></trkpt><trkpt lat="42.1205008" lon="-7.9767743"><ele>849.0</ele><time>2026-04-01T11:08:30.808Z</time></trkpt><trkpt lat="42.1205863" lon="-7.976842"><ele>849.0</ele><time>2026-04-01T11:08:31.808Z</time></trkpt><trkpt lat="42.1206697" lon="-7.9768835"><ele>849.0</ele><time>2026-04-01T11:08:32.811Z</time></trkpt><trkpt lat="42.1207486" lon="-7.9768965"><ele>849.0</ele><time>2026-04-01T11:08:33.81Z</time></trkpt><trkpt lat="42.1208264" lon="-7.9768842"><ele>849.0</ele><time>2026-04-01T11:08:34.808Z</time></trkpt><trkpt lat="42.1208886" lon="-7.9768651"><ele>849.0</ele><time>2026-04-01T11:08:35.811Z</time></trkpt><trkpt lat="42.1209702" lon="-7.9768043"><ele>848.6</ele><time>2026-04-01T11:08:37.81Z</time></trkpt><trkpt lat="42.1210306" lon="-7.9767421"><ele>848.2</ele><time>2026-04-01T11:08:39.811Z</time></trkpt><trkpt lat="42.1211179" lon="-7.9767246"><ele>847.8000000000001</ele><time>2026-04-01T11:08:41.81Z</time></trkpt><trkpt lat="42.1212552" lon="-7.9766954"><ele>847.4000000000001</ele><time>2026-04-01T11:08:43.808Z</time></trkpt><trkpt lat="42.1213583" lon="-7.9766634"><ele>847.0</ele><time>2026-04-01T11:08:44.811Z</time></trkpt><trkpt lat="42.1214555" lon="-7.9766333"><ele>846.2</ele><time>2026-04-01T11:08:45.81Z</time></trkpt><trkpt lat="42.1215568" lon="-7.9766181"><ele>845.4000000000001</ele><time>2026-04-01T11:08:46.809Z</time></trkpt><trkpt lat="42.1216569" lon="-7.976618"><ele>844.5999999999999</ele><time>2026-04-01T11:08:47.811Z</time></trkpt><trkpt lat="42.1217516" lon="-7.9766209"><ele>843.8</ele><time>2026-04-01T11:08:48.808Z</time></trkpt><trkpt lat="42.1218347" lon="-7.976623"><ele>843.0</ele><time>2026-04-01T11:08:49.811Z</time></trkpt><trkpt lat="42.1219174" lon="-7.9766194"><ele>842.1666666666666</ele><time>2026-04-01T11:08:50.808Z</time></trkpt><trkpt lat="42.1219978" lon="-7.9766066"><ele>841.3333333333333</ele><time>2026-04-01T11:08:51.808Z</time></trkpt><trkpt lat="42.1220745" lon="-7.9765848"><ele>840.5</ele><time>2026-04-01T11:08:52.808Z</time></trkpt><trkpt lat="42.1221441" lon="-7.9765703"><ele>839.6666666666666</ele><time>2026-04-01T11:08:53.809Z</time></trkpt><trkpt lat="42.1222135" lon="-7.976557"><ele>838.8333333333333</ele><time>2026-04-01T11:08:54.808Z</time></trkpt><trkpt lat="42.1222935" lon="-7.976541"><ele>838.0</ele><time>2026-04-01T11:08:55.808Z</time></trkpt><trkpt lat="42.1223884" lon="-7.9765255"><ele>836.5</ele><time>2026-04-01T11:08:56.808Z</time></trkpt><trkpt lat="42.1225116" lon="-7.9765022"><ele>835.0</ele><time>2026-04-01T11:08:57.808Z</time></trkpt><trkpt lat="42.1226605" lon="-7.9764807"><ele>833.5</ele><time>2026-04-01T11:08:58.809Z</time></trkpt><trkpt lat="42.122805" lon="-7.9764602"><ele>832.0</ele><time>2026-04-01T11:08:59.811Z</time></trkpt><trkpt lat="42.1229295" lon="-7.9764415"><ele>831.9999999999999</ele><time>2026-04-01T11:09:00.807Z</time></trkpt><trkpt lat="42.12302" lon="-7.9764272"><ele>832.0</ele><time>2026-04-01T11:09:01.811Z</time></trkpt><trkpt lat="42.1230838" lon="-7.9764192"><ele>832.0</ele><time>2026-04-01T11:09:02.808Z</time></trkpt><trkpt lat="42.1231547" lon="-7.9763979"><ele>832.0</ele><time>2026-04-01T11:09:04.811Z</time></trkpt><trkpt lat="42.1232137" lon="-7.9763312"><ele>831.9999999999999</ele><time>2026-04-01T11:09:06.811Z</time></trkpt><trkpt lat="42.1233078" lon="-7.9762332"><ele>832.0</ele><time>2026-04-01T11:09:08.812Z</time></trkpt><trkpt lat="42.123355" lon="-7.976159"><ele>832.25</ele><time>2026-04-01T11:09:09.808Z</time></trkpt><trkpt lat="42.1234127" lon="-7.9760625"><ele>832.5</ele><time>2026-04-01T11:09:10.809Z</time></trkpt><trkpt lat="42.1234773" lon="-7.9759426"><ele>832.75</ele><time>2026-04-01T11:09:11.809Z</time></trkpt><trkpt lat="42.1235512" lon="-7.9758026"><ele>833.0</ele><time>2026-04-01T11:09:12.809Z</time></trkpt><trkpt lat="42.1236283" lon="-7.9756569"><ele>833.0</ele><time>2026-04-01T11:09:13.809Z</time></trkpt><trkpt lat="42.1237033" lon="-7.9755147"><ele>833.0</ele><time>2026-04-01T11:09:14.812Z</time></trkpt><trkpt lat="42.1237689" lon="-7.9753735"><ele>833.0</ele><time>2026-04-01T11:09:15.811Z</time></trkpt><trkpt lat="42.123831" lon="-7.9752444"><ele>833.0</ele><time>2026-04-01T11:09:16.809Z</time></trkpt><trkpt lat="42.1238864" lon="-7.9751333"><ele>833.0</ele><time>2026-04-01T11:09:17.81Z</time></trkpt><trkpt lat="42.1239384" lon="-7.9750275"><ele>833.0</ele><time>2026-04-01T11:09:18.812Z</time></trkpt><trkpt lat="42.1239963" lon="-7.9749371"><ele>833.0</ele><time>2026-04-01T11:09:19.81Z</time></trkpt><trkpt lat="42.1240543" lon="-7.9748352"><ele>833.0</ele><time>2026-04-01T11:09:20.808Z</time></trkpt><trkpt lat="42.1241101" lon="-7.9747173"><ele>833.0</ele><time>2026-04-01T11:09:21.811Z</time></trkpt><trkpt lat="42.1241776" lon="-7.9745756"><ele>833.3333333333334</ele><time>2026-04-01T11:09:22.811Z</time></trkpt><trkpt lat="42.124271" lon="-7.9744094"><ele>833.6666666666667</ele><time>2026-04-01T11:09:23.808Z</time></trkpt><trkpt lat="42.1243958" lon="-7.9742264"><ele>834.0</ele><time>2026-04-01T11:09:24.812Z</time></trkpt><trkpt lat="42.1245345" lon="-7.9740366"><ele>834.0</ele><time>2026-04-01T11:09:25.811Z</time></trkpt><trkpt lat="42.1246779" lon="-7.973842"><ele>834.0</ele><time>2026-04-01T11:09:26.813Z</time></trkpt><trkpt lat="42.1248284" lon="-7.9736376"><ele>834.0</ele><time>2026-04-01T11:09:27.811Z</time></trkpt><trkpt lat="42.124988" lon="-7.9734193"><ele>834.0</ele><time>2026-04-01T11:09:28.809Z</time></trkpt><trkpt lat="42.1251586" lon="-7.9731875"><ele>834.0</ele><time>2026-04-01T11:09:29.81Z</time></trkpt><trkpt lat="42.1253427" lon="-7.9729464"><ele>834.0</ele><time>2026-04-01T11:09:30.811Z</time></trkpt><trkpt lat="42.1255316" lon="-7.9727062"><ele>834.0</ele><time>2026-04-01T11:09:31.808Z</time></trkpt><trkpt lat="42.1257037" lon="-7.972483"><ele>835.0</ele><time>2026-04-01T11:09:32.811Z</time></trkpt><trkpt lat="42.1258565" lon="-7.9722866"><ele>836.0</ele><time>2026-04-01T11:09:33.811Z</time></trkpt><trkpt lat="42.1259935" lon="-7.9721054"><ele>837.0</ele><time>2026-04-01T11:09:34.81Z</time></trkpt><trkpt lat="42.1261164" lon="-7.9719322"><ele>837.0</ele><time>2026-04-01T11:09:35.808Z</time></trkpt><trkpt lat="42.1262327" lon="-7.9717648"><ele>837.0</ele><time>2026-04-01T11:09:36.808Z</time></trkpt><trkpt lat="42.1263396" lon="-7.9716129"><ele>837.0</ele><time>2026-04-01T11:09:37.809Z</time></trkpt><trkpt lat="42.1264332" lon="-7.9714683"><ele>837.25</ele><time>2026-04-01T11:09:38.808Z</time></trkpt><trkpt lat="42.1265165" lon="-7.9713398"><ele>837.5</ele><time>2026-04-01T11:09:39.809Z</time></trkpt><trkpt lat="42.1265906" lon="-7.9712118"><ele>837.75</ele><time>2026-04-01T11:09:40.811Z</time></trkpt><trkpt lat="42.126651" lon="-7.9710746"><ele>838.0</ele><time>2026-04-01T11:09:41.808Z</time></trkpt><trkpt lat="42.126701" lon="-7.9709346"><ele>837.75</ele><time>2026-04-01T11:09:42.811Z</time></trkpt><trkpt lat="42.1267383" lon="-7.9707764"><ele>837.5</ele><time>2026-04-01T11:09:43.808Z</time></trkpt><trkpt lat="42.1267691" lon="-7.970615"><ele>837.25</ele><time>2026-04-01T11:09:44.809Z</time></trkpt><trkpt lat="42.1267938" lon="-7.9704632"><ele>837.0</ele><time>2026-04-01T11:09:45.809Z</time></trkpt><trkpt lat="42.126811" lon="-7.9703251"><ele>837.0</ele><time>2026-04-01T11:09:46.808Z</time></trkpt><trkpt lat="42.1268244" lon="-7.970212"><ele>837.0</ele><time>2026-04-01T11:09:47.81Z</time></trkpt><trkpt lat="42.1268354" lon="-7.9701125"><ele>837.0</ele><time>2026-04-01T11:09:48.808Z</time></trkpt><trkpt lat="42.1268662" lon="-7.9699744"><ele>837.0</ele><time>2026-04-01T11:09:50.809Z</time></trkpt><trkpt lat="42.1269405" lon="-7.9699531"><ele>837.0</ele><time>2026-04-01T11:09:52.811Z</time></trkpt><trkpt lat="42.1270097" lon="-7.9699682"><ele>837.0</ele><time>2026-04-01T11:09:53.808Z</time></trkpt><trkpt lat="42.127106" lon="-7.9700003"><ele>837.0</ele><time>2026-04-01T11:09:54.808Z</time></trkpt><trkpt lat="42.1272136" lon="-7.9700273"><ele>837.0</ele><time>2026-04-01T11:09:55.809Z</time></trkpt><trkpt lat="42.1273235" lon="-7.9700304"><ele>837.0</ele><time>2026-04-01T11:09:56.812Z</time></trkpt><trkpt lat="42.1274437" lon="-7.9700141"><ele>837.0</ele><time>2026-04-01T11:09:57.809Z</time></trkpt><trkpt lat="42.1275819" lon="-7.9699921"><ele>838.75</ele><time>2026-04-01T11:09:58.809Z</time></trkpt><trkpt lat="42.1277156" lon="-7.9699521"><ele>840.5</ele><time>2026-04-01T11:09:59.811Z</time></trkpt><trkpt lat="42.1278333" lon="-7.9698998"><ele>842.25</ele><time>2026-04-01T11:10:00.811Z</time></trkpt><trkpt lat="42.1279367" lon="-7.9698289"><ele>844.0</ele><time>2026-04-01T11:10:01.808Z</time></trkpt><trkpt lat="42.1280354" lon="-7.9697382"><ele>844.0</ele><time>2026-04-01T11:10:02.812Z</time></trkpt><trkpt lat="42.1281291" lon="-7.9696465"><ele>844.0</ele><time>2026-04-01T11:10:03.808Z</time></trkpt><trkpt lat="42.1282299" lon="-7.9695585"><ele>844.0</ele><time>2026-04-01T11:10:04.809Z</time></trkpt><trkpt lat="42.1283485" lon="-7.9694848"><ele>844.0</ele><time>2026-04-01T11:10:05.808Z</time></trkpt><trkpt lat="42.1284755" lon="-7.9694231"><ele>844.5</ele><time>2026-04-01T11:10:06.808Z</time></trkpt><trkpt lat="42.1286" lon="-7.9693877"><ele>845.0</ele><time>2026-04-01T11:10:07.811Z</time></trkpt><trkpt lat="42.128717" lon="-7.9693561"><ele>845.5</ele><time>2026-04-01T11:10:08.812Z</time></trkpt><trkpt lat="42.1288313" lon="-7.9693157"><ele>846.0</ele><time>2026-04-01T11:10:09.811Z</time></trkpt><trkpt lat="42.1289479" lon="-7.9692736"><ele>843.5</ele><time>2026-04-01T11:10:10.808Z</time></trkpt><trkpt lat="42.1290676" lon="-7.9692293"><ele>841.0</ele><time>2026-04-01T11:10:11.809Z</time></trkpt><trkpt lat="42.1291882" lon="-7.9691852"><ele>838.5</ele><time>2026-04-01T11:10:12.808Z</time></trkpt><trkpt lat="42.1293005" lon="-7.9691513"><ele>836.0</ele><time>2026-04-01T11:10:13.809Z</time></trkpt><trkpt lat="42.1293987" lon="-7.9691296"><ele>834.1999999999999</ele><time>2026-04-01T11:10:14.809Z</time></trkpt><trkpt lat="42.1294951" lon="-7.9691091"><ele>832.4</ele><time>2026-04-01T11:10:15.808Z</time></trkpt><trkpt lat="42.1295975" lon="-7.9690875"><ele>830.6</ele><time>2026-04-01T11:10:16.809Z</time></trkpt><trkpt lat="42.1297054" lon="-7.9690524"><ele>828.8</ele><time>2026-04-01T11:10:17.81Z</time></trkpt><trkpt lat="42.1298287" lon="-7.9690153"><ele>827.0</ele><time>2026-04-01T11:10:18.808Z</time></trkpt><trkpt lat="42.1299555" lon="-7.9689641"><ele>824.4000000000001</ele><time>2026-04-01T11:10:19.808Z</time></trkpt><trkpt lat="42.1300725" lon="-7.9689144"><ele>821.8000000000001</ele><time>2026-04-01T11:10:20.809Z</time></trkpt><trkpt lat="42.1301792" lon="-7.9688724"><ele>819.2</ele><time>2026-04-01T11:10:21.809Z</time></trkpt><trkpt lat="42.1302546" lon="-7.9688349"><ele>816.6</ele><time>2026-04-01T11:10:22.808Z</time></trkpt><trkpt lat="42.1303368" lon="-7.968788"><ele>814.0</ele><time>2026-04-01T11:10:24.812Z</time></trkpt><trkpt lat="42.1303989" lon="-7.9687031"><ele>814.0</ele><time>2026-04-01T11:10:28.809Z</time></trkpt><trkpt lat="42.1304379" lon="-7.9685791"><ele>814.0</ele><time>2026-04-01T11:10:30.808Z</time></trkpt><trkpt lat="42.1304247" lon="-7.9683957"><ele>814.0</ele><time>2026-04-01T11:10:32.812Z</time></trkpt><trkpt lat="42.1303914" lon="-7.9682741"><ele>814.0</ele><time>2026-04-01T11:10:33.811Z</time></trkpt><trkpt lat="42.1303556" lon="-7.9681024"><ele>812.25</ele><time>2026-04-01T11:10:34.808Z</time></trkpt><trkpt lat="42.1303351" lon="-7.9679199"><ele>810.5</ele><time>2026-04-01T11:10:35.812Z</time></trkpt><trkpt lat="42.1303188" lon="-7.96775"><ele>808.75</ele><time>2026-04-01T11:10:36.811Z</time></trkpt><trkpt lat="42.1302979" lon="-7.9675961"><ele>807.0</ele><time>2026-04-01T11:10:37.81Z</time></trkpt><trkpt lat="42.1302763" lon="-7.9674495"><ele>806.5</ele><time>2026-04-01T11:10:38.812Z</time></trkpt><trkpt lat="42.1302436" lon="-7.9672781"><ele>806.0</ele><time>2026-04-01T11:10:39.808Z</time></trkpt><trkpt lat="42.1302062" lon="-7.9671032"><ele>805.5</ele><time>2026-04-01T11:10:40.812Z</time></trkpt><trkpt lat="42.1301645" lon="-7.9669241"><ele>805.0</ele><time>2026-04-01T11:10:41.808Z</time></trkpt><trkpt lat="42.1301209" lon="-7.9667392"><ele>803.8</ele><time>2026-04-01T11:10:42.809Z</time></trkpt><trkpt lat="42.1300817" lon="-7.9665653"><ele>802.6</ele><time>2026-04-01T11:10:43.811Z</time></trkpt><trkpt lat="42.1300448" lon="-7.9664128"><ele>801.4000000000001</ele><time>2026-04-01T11:10:44.812Z</time></trkpt><trkpt lat="42.1300233" lon="-7.9662926"><ele>800.2</ele><time>2026-04-01T11:10:45.811Z</time></trkpt><trkpt lat="42.1300238" lon="-7.9661764"><ele>799.0</ele><time>2026-04-01T11:10:46.809Z</time></trkpt><trkpt lat="42.1300386" lon="-7.9660623"><ele>799.0</ele><time>2026-04-01T11:10:47.809Z</time></trkpt><trkpt lat="42.1300534" lon="-7.9659457"><ele>799.0</ele><time>2026-04-01T11:10:48.808Z</time></trkpt><trkpt lat="42.1300603" lon="-7.9658223"><ele>799.0</ele><time>2026-04-01T11:10:49.81Z</time></trkpt><trkpt lat="42.130053" lon="-7.9656771"><ele>799.0</ele><time>2026-04-01T11:10:50.811Z</time></trkpt><trkpt lat="42.13003" lon="-7.9655098"><ele>799.0</ele><time>2026-04-01T11:10:51.808Z</time></trkpt><trkpt lat="42.1299959" lon="-7.9653304"><ele>798.75</ele><time>2026-04-01T11:10:52.81Z</time></trkpt><trkpt lat="42.1299682" lon="-7.9651437"><ele>798.5</ele><time>2026-04-01T11:10:53.808Z</time></trkpt><trkpt lat="42.1299422" lon="-7.9649659"><ele>798.25</ele><time>2026-04-01T11:10:54.808Z</time></trkpt><trkpt lat="42.1299149" lon="-7.9648149"><ele>798.0</ele><time>2026-04-01T11:10:55.811Z</time></trkpt><trkpt lat="42.1298919" lon="-7.9647066"><ele>797.6666666666666</ele><time>2026-04-01T11:10:56.812Z</time></trkpt><trkpt lat="42.1298769" lon="-7.9646229"><ele>797.3333333333333</ele><time>2026-04-01T11:10:57.808Z</time></trkpt><trkpt lat="42.1298418" lon="-7.9644556"><ele>797.0</ele><time>2026-04-01T11:10:59.808Z</time></trkpt><trkpt lat="42.129817" lon="-7.9643604"><ele>796.6666666666666</ele><time>2026-04-01T11:11:00.809Z</time></trkpt><trkpt lat="42.1297922" lon="-7.9642755"><ele>796.3333333333333</ele><time>2026-04-01T11:11:01.812Z</time></trkpt><trkpt lat="42.1297953" lon="-7.9641766"><ele>796.0</ele><time>2026-04-01T11:11:03.809Z</time></trkpt><trkpt lat="42.1298911" lon="-7.9642147"><ele>795.4999999999999</ele><time>2026-04-01T11:11:06.808Z</time></trkpt><trkpt lat="42.129938" lon="-7.9642777"><ele>795.0</ele><time>2026-04-01T11:11:07.812Z</time></trkpt><trkpt lat="42.1300019" lon="-7.9643666"><ele>794.5</ele><time>2026-04-01T11:11:08.809Z</time></trkpt><trkpt lat="42.1300703" lon="-7.9644637"><ele>794.0</ele><time>2026-04-01T11:11:09.812Z</time></trkpt><trkpt lat="42.1301256" lon="-7.9645484"><ele>793.4999999999999</ele><time>2026-04-01T11:11:10.809Z</time></trkpt><trkpt lat="42.1301671" lon="-7.964645"><ele>793.0</ele><time>2026-04-01T11:11:11.809Z</time></trkpt><trkpt lat="42.1301936" lon="-7.9647618"><ele>793.0</ele><time>2026-04-01T11:11:12.81Z</time></trkpt><trkpt lat="42.1302198" lon="-7.9649127"><ele>793.0</ele><time>2026-04-01T11:11:13.812Z</time></trkpt><trkpt lat="42.1302595" lon="-7.9650812"><ele>793.0</ele><time>2026-04-01T11:11:14.812Z</time></trkpt><trkpt lat="42.1303133" lon="-7.9652645"><ele>793.0</ele><time>2026-04-01T11:11:15.808Z</time></trkpt><trkpt lat="42.1303697" lon="-7.9654304"><ele>794.6666666666666</ele><time>2026-04-01T11:11:16.809Z</time></trkpt><trkpt lat="42.1304313" lon="-7.9655963"><ele>796.3333333333333</ele><time>2026-04-01T11:11:17.81Z</time></trkpt><trkpt lat="42.1304921" lon="-7.9658039"><ele>798.0</ele><time>2026-04-01T11:11:18.811Z</time></trkpt><trkpt lat="42.1305393" lon="-7.9660117"><ele>798.3333333333333</ele><time>2026-04-01T11:11:19.812Z</time></trkpt><trkpt lat="42.1305796" lon="-7.9662124"><ele>798.6666666666666</ele><time>2026-04-01T11:11:20.81Z</time></trkpt><trkpt lat="42.1306274" lon="-7.9664133"><ele>799.0</ele><time>2026-04-01T11:11:21.81Z</time></trkpt><trkpt lat="42.1306839" lon="-7.9666236"><ele>794.3333333333333</ele><time>2026-04-01T11:11:22.811Z</time></trkpt><trkpt lat="42.1307467" lon="-7.9668359"><ele>789.6666666666667</ele><time>2026-04-01T11:11:23.811Z</time></trkpt><trkpt lat="42.1308182" lon="-7.9670415"><ele>785.0</ele><time>2026-04-01T11:11:24.811Z</time></trkpt><trkpt lat="42.1308893" lon="-7.9672318"><ele>785.0</ele><time>2026-04-01T11:11:25.812Z</time></trkpt><trkpt lat="42.1309618" lon="-7.9674092"><ele>785.0</ele><time>2026-04-01T11:11:26.81Z</time></trkpt><trkpt lat="42.1310371" lon="-7.9675719"><ele>785.0</ele><time>2026-04-01T11:11:27.811Z</time></trkpt><trkpt lat="42.1311198" lon="-7.9677326"><ele>785.0</ele><time>2026-04-01T11:11:28.81Z</time></trkpt><trkpt lat="42.1312122" lon="-7.9678934"><ele>786.75</ele><time>2026-04-01T11:11:29.901Z</time></trkpt><trkpt lat="42.1313003" lon="-7.9680389"><ele>788.5</ele><time>2026-04-01T11:11:30.808Z</time></trkpt><trkpt lat="42.1313894" lon="-7.968176"><ele>790.25</ele><time>2026-04-01T11:11:31.81Z</time></trkpt><trkpt lat="42.1314672" lon="-7.9682951"><ele>792.0</ele><time>2026-04-01T11:11:32.809Z</time></trkpt><trkpt lat="42.1315189" lon="-7.9684141"><ele>793.2</ele><time>2026-04-01T11:11:33.809Z</time></trkpt><trkpt lat="42.131525" lon="-7.9685433"><ele>794.4000000000001</ele><time>2026-04-01T11:11:34.808Z</time></trkpt><trkpt lat="42.1315317" lon="-7.9686917"><ele>795.5999999999999</ele><time>2026-04-01T11:11:35.808Z</time></trkpt><trkpt lat="42.1315517" lon="-7.9688433"><ele>796.8</ele><time>2026-04-01T11:11:36.809Z</time></trkpt><trkpt lat="42.1315967" lon="-7.9689917"><ele>798.0</ele><time>2026-04-01T11:11:37.809Z</time></trkpt><trkpt lat="42.1316683" lon="-7.969165"><ele>795.0</ele><time>2026-04-01T11:11:38.811Z</time></trkpt><trkpt lat="42.1317483" lon="-7.96935"><ele>792.0</ele><time>2026-04-01T11:11:39.809Z</time></trkpt><trkpt lat="42.1318267" lon="-7.9695233"><ele>789.0</ele><time>2026-04-01T11:11:40.812Z</time></trkpt><trkpt lat="42.1318933" lon="-7.96966"><ele>786.0</ele><time>2026-04-01T11:11:41.809Z</time></trkpt><trkpt lat="42.131965" lon="-7.9697617"><ele>786.0</ele><time>2026-04-01T11:11:42.81Z</time></trkpt><trkpt lat="42.1320267" lon="-7.9698633"><ele>786.0</ele><time>2026-04-01T11:11:43.811Z</time></trkpt><trkpt lat="42.13208" lon="-7.9699783"><ele>786.0</ele><time>2026-04-01T11:11:44.81Z</time></trkpt><trkpt lat="42.1321317" lon="-7.970105"><ele>786.0</ele><time>2026-04-01T11:11:45.811Z</time></trkpt><trkpt lat="42.1321833" lon="-7.9702417"><ele>786.0</ele><time>2026-04-01T11:11:46.808Z</time></trkpt><trkpt lat="42.13224" lon="-7.9704117"><ele>787.25</ele><time>2026-04-01T11:11:47.808Z</time></trkpt><trkpt lat="42.1322967" lon="-7.97057"><ele>788.5</ele><time>2026-04-01T11:11:48.812Z</time></trkpt><trkpt lat="42.1323533" lon="-7.9707233"><ele>789.75</ele><time>2026-04-01T11:11:49.81Z</time></trkpt><trkpt lat="42.1324067" lon="-7.97087"><ele>791.0</ele><time>2026-04-01T11:11:50.809Z</time></trkpt><trkpt lat="42.1324683" lon="-7.9710117"><ele>783.5</ele><time>2026-04-01T11:11:51.808Z</time></trkpt><trkpt lat="42.13253" lon="-7.971175"><ele>776.0</ele><time>2026-04-01T11:11:52.808Z</time></trkpt><trkpt lat="42.13259" lon="-7.9713267"><ele>768.5</ele><time>2026-04-01T11:11:53.809Z</time></trkpt><trkpt lat="42.1326567" lon="-7.9714833"><ele>761.0</ele><time>2026-04-01T11:11:54.812Z</time></trkpt><trkpt lat="42.1327283" lon="-7.9716367"><ele>762.25</ele><time>2026-04-01T11:11:55.812Z</time></trkpt><trkpt lat="42.1327933" lon="-7.9717883"><ele>763.5</ele><time>2026-04-01T11:11:56.812Z</time></trkpt><trkpt lat="42.132845" lon="-7.9719467"><ele>764.75</ele><time>2026-04-01T11:11:57.809Z</time></trkpt><trkpt lat="42.1328917" lon="-7.9721067"><ele>766.0</ele><time>2026-04-01T11:11:58.813Z</time></trkpt><trkpt lat="42.13293" lon="-7.9722617"><ele>766.0</ele><time>2026-04-01T11:11:59.811Z</time></trkpt><trkpt lat="42.1329683" lon="-7.9724"><ele>766.0</ele><time>2026-04-01T11:12:00.811Z</time></trkpt><trkpt lat="42.1330267" lon="-7.9725217"><ele>766.0</ele><time>2026-04-01T11:12:01.811Z</time></trkpt><trkpt lat="42.1331" lon="-7.9726317"><ele>766.0</ele><time>2026-04-01T11:12:02.81Z</time></trkpt><trkpt lat="42.1331883" lon="-7.9727217"><ele>766.0</ele><time>2026-04-01T11:12:03.812Z</time></trkpt><trkpt lat="42.1332917" lon="-7.97281"><ele>759.25</ele><time>2026-04-01T11:12:04.81Z</time></trkpt><trkpt lat="42.1333933" lon="-7.972895"><ele>752.5</ele><time>2026-04-01T11:12:05.812Z</time></trkpt><trkpt lat="42.133495" lon="-7.9729917"><ele>745.75</ele><time>2026-04-01T11:12:06.808Z</time></trkpt><trkpt lat="42.13359" lon="-7.9731017"><ele>739.0</ele><time>2026-04-01T11:12:07.81Z</time></trkpt><trkpt lat="42.1336833" lon="-7.97323"><ele>740.4000000000001</ele><time>2026-04-01T11:12:08.81Z</time></trkpt><trkpt lat="42.1337717" lon="-7.973365"><ele>741.8</ele><time>2026-04-01T11:12:09.811Z</time></trkpt><trkpt lat="42.13384" lon="-7.9735017"><ele>743.2</ele><time>2026-04-01T11:12:10.812Z</time></trkpt><trkpt lat="42.1338933" lon="-7.9736217"><ele>744.5999999999999</ele><time>2026-04-01T11:12:11.811Z</time></trkpt><trkpt lat="42.133945" lon="-7.9737167"><ele>746.0</ele><time>2026-04-01T11:12:12.81Z</time></trkpt><trkpt lat="42.1340033" lon="-7.973795"><ele>742.5</ele><time>2026-04-01T11:12:13.812Z</time></trkpt><trkpt lat="42.1340633" lon="-7.9738433"><ele>739.0</ele><time>2026-04-01T11:12:14.81Z</time></trkpt><trkpt lat="42.13413" lon="-7.9738517"><ele>735.5</ele><time>2026-04-01T11:12:15.809Z</time></trkpt><trkpt lat="42.1342433" lon="-7.9738183"><ele>732.0</ele><time>2026-04-01T11:12:17.812Z</time></trkpt><trkpt lat="42.1343" lon="-7.97375"><ele>728.5</ele><time>2026-04-01T11:12:18.808Z</time></trkpt><trkpt lat="42.1343633" lon="-7.9736867"><ele>725.0</ele><time>2026-04-01T11:12:19.811Z</time></trkpt><trkpt lat="42.1344317" lon="-7.973645"><ele>725.0</ele><time>2026-04-01T11:12:20.813Z</time></trkpt><trkpt lat="42.1345133" lon="-7.9736167"><ele>725.0</ele><time>2026-04-01T11:12:21.808Z</time></trkpt><trkpt lat="42.13461" lon="-7.9736"><ele>725.0</ele><time>2026-04-01T11:12:22.811Z</time></trkpt><trkpt lat="42.1347283" lon="-7.9735833"><ele>725.0</ele><time>2026-04-01T11:12:23.81Z</time></trkpt><trkpt lat="42.1348533" lon="-7.9735967"><ele>725.0</ele><time>2026-04-01T11:12:24.811Z</time></trkpt><trkpt lat="42.1349717" lon="-7.9736217"><ele>723.5</ele><time>2026-04-01T11:12:25.81Z</time></trkpt><trkpt lat="42.135065" lon="-7.9736567"><ele>722.0</ele><time>2026-04-01T11:12:26.81Z</time></trkpt><trkpt lat="42.1351433" lon="-7.9737033"><ele>720.5</ele><time>2026-04-01T11:12:27.81Z</time></trkpt><trkpt lat="42.135205" lon="-7.9737667"><ele>719.0</ele><time>2026-04-01T11:12:28.811Z</time></trkpt><trkpt lat="42.1352617" lon="-7.9738517"><ele>717.5</ele><time>2026-04-01T11:12:29.81Z</time></trkpt><trkpt lat="42.1353017" lon="-7.9739567"><ele>716.0</ele><time>2026-04-01T11:12:30.81Z</time></trkpt><trkpt lat="42.1353317" lon="-7.9740567"><ele>716.0</ele><time>2026-04-01T11:12:31.811Z</time></trkpt><trkpt lat="42.1353867" lon="-7.9741733"><ele>716.0</ele><time>2026-04-01T11:12:33.81Z</time></trkpt><trkpt lat="42.1354883" lon="-7.9742117"><ele>716.0</ele><time>2026-04-01T11:12:35.812Z</time></trkpt><trkpt lat="42.1355633" lon="-7.974205"><ele>716.0</ele><time>2026-04-01T11:12:36.812Z</time></trkpt><trkpt lat="42.1356583" lon="-7.974185"><ele>716.0</ele><time>2026-04-01T11:12:37.809Z</time></trkpt><trkpt lat="42.135765" lon="-7.97415"><ele>714.75</ele><time>2026-04-01T11:12:38.81Z</time></trkpt><trkpt lat="42.1358783" lon="-7.9741267"><ele>713.5</ele><time>2026-04-01T11:12:39.809Z</time></trkpt><trkpt lat="42.1359983" lon="-7.97412"><ele>712.25</ele><time>2026-04-01T11:12:40.809Z</time></trkpt><trkpt lat="42.1361283" lon="-7.9741233"><ele>711.0</ele><time>2026-04-01T11:12:41.809Z</time></trkpt><trkpt lat="42.1362767" lon="-7.9741483"><ele>713.4</ele><time>2026-04-01T11:12:42.81Z</time></trkpt><trkpt lat="42.1364067" lon="-7.9741933"><ele>715.8</ele><time>2026-04-01T11:12:43.809Z</time></trkpt><trkpt lat="42.136515" lon="-7.9742517"><ele>718.1999999999999</ele><time>2026-04-01T11:12:44.81Z</time></trkpt><trkpt lat="42.1366167" lon="-7.9743017"><ele>720.5999999999999</ele><time>2026-04-01T11:12:45.812Z</time></trkpt><trkpt lat="42.136705" lon="-7.9743183"><ele>723.0</ele><time>2026-04-01T11:12:46.811Z</time></trkpt><trkpt lat="42.1367867" lon="-7.9743033"><ele>723.0</ele><time>2026-04-01T11:12:47.81Z</time></trkpt><trkpt lat="42.136865" lon="-7.9742567"><ele>723.0</ele><time>2026-04-01T11:12:48.809Z</time></trkpt><trkpt lat="42.1369333" lon="-7.9741667"><ele>723.0</ele><time>2026-04-01T11:12:49.811Z</time></trkpt><trkpt lat="42.1370067" lon="-7.97406"><ele>723.0</ele><time>2026-04-01T11:12:50.81Z</time></trkpt><trkpt lat="42.13707" lon="-7.973975"><ele>723.0</ele><time>2026-04-01T11:12:51.812Z</time></trkpt><trkpt lat="42.1371283" lon="-7.9739"><ele>722.0</ele><time>2026-04-01T11:12:52.812Z</time></trkpt><trkpt lat="42.1371867" lon="-7.9738483"><ele>721.0</ele><time>2026-04-01T11:12:53.809Z</time></trkpt><trkpt lat="42.13729" lon="-7.973835"><ele>720.0</ele><time>2026-04-01T11:12:55.81Z</time></trkpt><trkpt lat="42.1373383" lon="-7.9739267"><ele>719.0</ele><time>2026-04-01T11:12:56.813Z</time></trkpt><trkpt lat="42.1373817" lon="-7.9740017"><ele>718.0</ele><time>2026-04-01T11:12:57.812Z</time></trkpt><trkpt lat="42.137405" lon="-7.974085"><ele>717.0</ele><time>2026-04-01T11:12:58.808Z</time></trkpt><trkpt lat="42.1374083" lon="-7.97419"><ele>718.2</ele><time>2026-04-01T11:12:59.81Z</time></trkpt><trkpt lat="42.1373767" lon="-7.9743333"><ele>719.4000000000001</ele><time>2026-04-01T11:13:00.811Z</time></trkpt><trkpt lat="42.1373417" lon="-7.97447"><ele>720.5999999999999</ele><time>2026-04-01T11:13:01.813Z</time></trkpt><trkpt lat="42.137315" lon="-7.974615"><ele>721.8</ele><time>2026-04-01T11:13:02.809Z</time></trkpt><trkpt lat="42.1372967" lon="-7.9747317"><ele>723.0</ele><time>2026-04-01T11:13:03.811Z</time></trkpt><trkpt lat="42.137275" lon="-7.9748233"><ele>723.0</ele><time>2026-04-01T11:13:04.811Z</time></trkpt><trkpt lat="42.1372817" lon="-7.97498"><ele>723.0</ele><time>2026-04-01T11:13:06.811Z</time></trkpt><trkpt lat="42.137305" lon="-7.9750617"><ele>723.0</ele><time>2026-04-01T11:13:07.812Z</time></trkpt><trkpt lat="42.1373083" lon="-7.975225"><ele>723.0</ele><time>2026-04-01T11:13:09.81Z</time></trkpt><trkpt lat="42.1372833" lon="-7.9753283"><ele>723.0</ele><time>2026-04-01T11:13:10.811Z</time></trkpt><trkpt lat="42.1372767" lon="-7.975435"><ele>722.8</ele><time>2026-04-01T11:13:11.814Z</time></trkpt><trkpt lat="42.13728" lon="-7.9755233"><ele>722.5999999999999</ele><time>2026-04-01T11:13:12.811Z</time></trkpt><trkpt lat="42.13731" lon="-7.975615"><ele>722.4000000000001</ele><time>2026-04-01T11:13:14.811Z</time></trkpt><trkpt lat="42.1374183" lon="-7.9756433"><ele>722.2</ele><time>2026-04-01T11:13:16.809Z</time></trkpt><trkpt lat="42.1375267" lon="-7.9756567"><ele>722.0</ele><time>2026-04-01T11:13:17.81Z</time></trkpt><trkpt lat="42.137675" lon="-7.9756617"><ele>719.6666666666666</ele><time>2026-04-01T11:13:18.81Z</time></trkpt><trkpt lat="42.13786" lon="-7.9756683"><ele>717.3333333333334</ele><time>2026-04-01T11:13:19.809Z</time></trkpt><trkpt lat="42.138025" lon="-7.975675"><ele>715.0</ele><time>2026-04-01T11:13:20.81Z</time></trkpt><trkpt lat="42.1381833" lon="-7.9756733"><ele>713.0</ele><time>2026-04-01T11:13:21.809Z</time></trkpt><trkpt lat="42.1383267" lon="-7.9756633"><ele>711.0</ele><time>2026-04-01T11:13:22.809Z</time></trkpt><trkpt lat="42.1384533" lon="-7.975635"><ele>709.0</ele><time>2026-04-01T11:13:23.813Z</time></trkpt><trkpt lat="42.1385867" lon="-7.97558"><ele>707.0</ele><time>2026-04-01T11:13:24.808Z</time></trkpt><trkpt lat="42.13873" lon="-7.97551"><ele>707.0</ele><time>2026-04-01T11:13:25.811Z</time></trkpt><trkpt lat="42.1388733" lon="-7.9754483"><ele>707.0</ele><time>2026-04-01T11:13:26.812Z</time></trkpt><trkpt lat="42.13902" lon="-7.9753933"><ele>707.0</ele><time>2026-04-01T11:13:27.81Z</time></trkpt><trkpt lat="42.1391617" lon="-7.9753433"><ele>707.0</ele><time>2026-04-01T11:13:28.81Z</time></trkpt><trkpt lat="42.1393" lon="-7.9753"><ele>704.25</ele><time>2026-04-01T11:13:29.901Z</time></trkpt><trkpt lat="42.13944" lon="-7.97525"><ele>701.5</ele><time>2026-04-01T11:13:30.809Z</time></trkpt><trkpt lat="42.1395733" lon="-7.975195"><ele>698.75</ele><time>2026-04-01T11:13:31.81Z</time></trkpt><trkpt lat="42.1396967" lon="-7.9751483"><ele>696.0</ele><time>2026-04-01T11:13:32.81Z</time></trkpt><trkpt lat="42.1397983" lon="-7.9751083"><ele>696.0</ele><time>2026-04-01T11:13:33.809Z</time></trkpt><trkpt lat="42.1398767" lon="-7.97507"><ele>696.0</ele><time>2026-04-01T11:13:34.81Z</time></trkpt><trkpt lat="42.1399467" lon="-7.97503"><ele>696.0</ele><time>2026-04-01T11:13:35.809Z</time></trkpt><trkpt lat="42.1400367" lon="-7.975015"><ele>696.0</ele><time>2026-04-01T11:13:37.809Z</time></trkpt><trkpt lat="42.1400917" lon="-7.9750883"><ele>696.0</ele><time>2026-04-01T11:13:39.809Z</time></trkpt><trkpt lat="42.1401017" lon="-7.9751867"><ele>696.0</ele><time>2026-04-01T11:13:40.809Z</time></trkpt><trkpt lat="42.1400867" lon="-7.97534"><ele>695.0</ele><time>2026-04-01T11:13:41.811Z</time></trkpt><trkpt lat="42.1400917" lon="-7.9754967"><ele>694.0</ele><time>2026-04-01T11:13:42.81Z</time></trkpt><trkpt lat="42.1400767" lon="-7.97584"><ele>693.0</ele><time>2026-04-01T11:13:43.81Z</time></trkpt><trkpt lat="42.1400783" lon="-7.976075"><ele>693.0</ele><time>2026-04-01T11:13:44.81Z</time></trkpt><trkpt lat="42.140065" lon="-7.97635"><ele>693.0</ele><time>2026-04-01T11:13:45.809Z</time></trkpt><trkpt lat="42.1400733" lon="-7.9765933"><ele>693.0</ele><time>2026-04-01T11:13:46.809Z</time></trkpt><trkpt lat="42.1400917" lon="-7.976785"><ele>694.5</ele><time>2026-04-01T11:13:47.809Z</time></trkpt><trkpt lat="42.1401133" lon="-7.9769517"><ele>696.0</ele><time>2026-04-01T11:13:48.809Z</time></trkpt><trkpt lat="42.14014" lon="-7.9770983"><ele>697.5</ele><time>2026-04-01T11:13:49.809Z</time></trkpt><trkpt lat="42.1401883" lon="-7.97723"><ele>699.0</ele><time>2026-04-01T11:13:50.81Z</time></trkpt><trkpt lat="42.1402533" lon="-7.9773417"><ele>699.0</ele><time>2026-04-01T11:13:51.809Z</time></trkpt><trkpt lat="42.1403317" lon="-7.9774233"><ele>699.0</ele><time>2026-04-01T11:13:52.809Z</time></trkpt><trkpt lat="42.1404133" lon="-7.9774717"><ele>699.0</ele><time>2026-04-01T11:13:53.809Z</time></trkpt><trkpt lat="42.1404983" lon="-7.9774883"><ele>699.0</ele><time>2026-04-01T11:13:54.812Z</time></trkpt><trkpt lat="42.1405717" lon="-7.9774867"><ele>699.0</ele><time>2026-04-01T11:13:55.81Z</time></trkpt><trkpt lat="42.1406583" lon="-7.9774983"><ele>699.0</ele><time>2026-04-01T11:13:57.813Z</time></trkpt><trkpt lat="42.1407033" lon="-7.9775917"><ele>700.8333333333334</ele><time>2026-04-01T11:14:00.81Z</time></trkpt><trkpt lat="42.140665" lon="-7.9777083"><ele>702.6666666666666</ele><time>2026-04-01T11:14:02.81Z</time></trkpt><trkpt lat="42.14063" lon="-7.9777933"><ele>704.5</ele><time>2026-04-01T11:14:03.81Z</time></trkpt><trkpt lat="42.1406217" lon="-7.97788"><ele>706.3333333333333</ele><time>2026-04-01T11:14:04.809Z</time></trkpt><trkpt lat="42.14062" lon="-7.9779767"><ele>708.1666666666666</ele><time>2026-04-01T11:14:05.808Z</time></trkpt><trkpt lat="42.1405817" lon="-7.9781233"><ele>710.0</ele><time>2026-04-01T11:14:07.809Z</time></trkpt><trkpt lat="42.1405417" lon="-7.9781917"><ele>710.0</ele><time>2026-04-01T11:14:08.808Z</time></trkpt><trkpt lat="42.1404933" lon="-7.9782533"><ele>710.0</ele><time>2026-04-01T11:14:09.808Z</time></trkpt><trkpt lat="42.140435" lon="-7.978295"><ele>710.0</ele><time>2026-04-01T11:14:10.808Z</time></trkpt><trkpt lat="42.1403067" lon="-7.9783467"><ele>710.0</ele><time>2026-04-01T11:14:12.808Z</time></trkpt><trkpt lat="42.1402017" lon="-7.97837"><ele>710.0</ele><time>2026-04-01T11:14:13.808Z</time></trkpt><trkpt lat="42.1400783" lon="-7.9784083"><ele>714.25</ele><time>2026-04-01T11:14:14.809Z</time></trkpt><trkpt lat="42.139965" lon="-7.9784333"><ele>718.5</ele><time>2026-04-01T11:14:15.808Z</time></trkpt><trkpt lat="42.1398517" lon="-7.978435"><ele>722.75</ele><time>2026-04-01T11:14:16.808Z</time></trkpt><trkpt lat="42.1397117" lon="-7.9784267"><ele>727.0</ele><time>2026-04-01T11:14:17.809Z</time></trkpt><trkpt lat="42.139585" lon="-7.9784133"><ele>727.0</ele><time>2026-04-01T11:14:18.809Z</time></trkpt><trkpt lat="42.1394617" lon="-7.9783967"><ele>727.0</ele><time>2026-04-01T11:14:19.808Z</time></trkpt><trkpt lat="42.1393517" lon="-7.9784233"><ele>727.0</ele><time>2026-04-01T11:14:20.808Z</time></trkpt><trkpt lat="42.1392433" lon="-7.9784833"><ele>727.0</ele><time>2026-04-01T11:14:21.808Z</time></trkpt><trkpt lat="42.1391267" lon="-7.978555"><ele>727.8</ele><time>2026-04-01T11:14:22.808Z</time></trkpt><trkpt lat="42.139015" lon="-7.978625"><ele>728.6</ele><time>2026-04-01T11:14:23.808Z</time></trkpt><trkpt lat="42.138915" lon="-7.9787"><ele>729.4</ele><time>2026-04-01T11:14:24.809Z</time></trkpt><trkpt lat="42.1388333" lon="-7.9787783"><ele>730.1999999999999</ele><time>2026-04-01T11:14:25.811Z</time></trkpt><trkpt lat="42.138785" lon="-7.9788633"><ele>731.0</ele><time>2026-04-01T11:14:26.808Z</time></trkpt><trkpt lat="42.138735" lon="-7.9789483"><ele>731.0</ele><time>2026-04-01T11:14:27.811Z</time></trkpt><trkpt lat="42.1387" lon="-7.97904"><ele>731.0</ele><time>2026-04-01T11:14:28.809Z</time></trkpt><trkpt lat="42.1386783" lon="-7.9791433"><ele>731.0</ele><time>2026-04-01T11:14:29.809Z</time></trkpt><trkpt lat="42.1386633" lon="-7.9792783"><ele>731.0</ele><time>2026-04-01T11:14:30.808Z</time></trkpt><trkpt lat="42.1386717" lon="-7.9794267"><ele>731.0</ele><time>2026-04-01T11:14:31.809Z</time></trkpt><trkpt lat="42.1386967" lon="-7.9795767"><ele>732.8</ele><time>2026-04-01T11:14:32.808Z</time></trkpt><trkpt lat="42.1387333" lon="-7.9797017"><ele>734.5999999999999</ele><time>2026-04-01T11:14:33.809Z</time></trkpt><trkpt lat="42.138795" lon="-7.9798267"><ele>736.4</ele><time>2026-04-01T11:14:34.808Z</time></trkpt><trkpt lat="42.138855" lon="-7.9799433"><ele>738.2</ele><time>2026-04-01T11:14:35.808Z</time></trkpt><trkpt lat="42.138915" lon="-7.98007"><ele>740.0</ele><time>2026-04-01T11:14:36.809Z</time></trkpt><trkpt lat="42.138975" lon="-7.980205"><ele>739.6</ele><time>2026-04-01T11:14:37.808Z</time></trkpt><trkpt lat="42.1390117" lon="-7.980305"><ele>739.2</ele><time>2026-04-01T11:14:38.809Z</time></trkpt><trkpt lat="42.1390567" lon="-7.98037"><ele>738.8</ele><time>2026-04-01T11:14:39.808Z</time></trkpt><trkpt lat="42.1391567" lon="-7.980405"><ele>738.4</ele><time>2026-04-01T11:14:41.808Z</time></trkpt><trkpt lat="42.1392667" lon="-7.9803983"><ele>738.0</ele><time>2026-04-01T11:14:43.811Z</time></trkpt><trkpt lat="42.1393783" lon="-7.9803683"><ele>738.0</ele><time>2026-04-01T11:14:45.808Z</time></trkpt><trkpt lat="42.13948" lon="-7.980285"><ele>738.0</ele><time>2026-04-01T11:14:47.808Z</time></trkpt><trkpt lat="42.13952" lon="-7.9802067"><ele>738.0</ele><time>2026-04-01T11:14:48.809Z</time></trkpt><trkpt lat="42.1395533" lon="-7.98012"><ele>738.0</ele><time>2026-04-01T11:14:49.808Z</time></trkpt><trkpt lat="42.1395983" lon="-7.98004"><ele>738.0</ele><time>2026-04-01T11:14:50.809Z</time></trkpt><trkpt lat="42.1396583" lon="-7.9799667"><ele>738.0</ele><time>2026-04-01T11:14:51.808Z</time></trkpt><trkpt lat="42.13974" lon="-7.9798917"><ele>737.0</ele><time>2026-04-01T11:14:52.808Z</time></trkpt><trkpt lat="42.139825" lon="-7.97984"><ele>736.0</ele><time>2026-04-01T11:14:53.808Z</time></trkpt><trkpt lat="42.1399117" lon="-7.9797983"><ele>735.0</ele><time>2026-04-01T11:14:54.808Z</time></trkpt><trkpt lat="42.1399983" lon="-7.9797667"><ele>734.0</ele><time>2026-04-01T11:14:55.809Z</time></trkpt><trkpt lat="42.140075" lon="-7.9797483"><ele>733.0</ele><time>2026-04-01T11:14:56.811Z</time></trkpt><trkpt lat="42.14014" lon="-7.9797417"><ele>732.0</ele><time>2026-04-01T11:14:57.81Z</time></trkpt><trkpt lat="42.14023" lon="-7.9797683"><ele>734.4000000000001</ele><time>2026-04-01T11:14:59.811Z</time></trkpt><trkpt lat="42.140315" lon="-7.9798667"><ele>736.8000000000001</ele><time>2026-04-01T11:15:01.809Z</time></trkpt><trkpt lat="42.140365" lon="-7.9799417"><ele>739.2</ele><time>2026-04-01T11:15:02.812Z</time></trkpt><trkpt lat="42.1404333" lon="-7.9800317"><ele>741.6</ele><time>2026-04-01T11:15:03.811Z</time></trkpt><trkpt lat="42.14051" lon="-7.9801133"><ele>744.0</ele><time>2026-04-01T11:15:04.808Z</time></trkpt><trkpt lat="42.1405917" lon="-7.9802"><ele>744.2</ele><time>2026-04-01T11:15:05.812Z</time></trkpt><trkpt lat="42.1406733" lon="-7.9802883"><ele>744.4000000000001</ele><time>2026-04-01T11:15:06.809Z</time></trkpt><trkpt lat="42.1407467" lon="-7.9803717"><ele>744.6</ele><time>2026-04-01T11:15:07.811Z</time></trkpt><trkpt lat="42.1408167" lon="-7.9804567"><ele>744.8</ele><time>2026-04-01T11:15:08.81Z</time></trkpt><trkpt lat="42.14088" lon="-7.9805183"><ele>745.0</ele><time>2026-04-01T11:15:09.808Z</time></trkpt><trkpt lat="42.1409883" lon="-7.9805933"><ele>745.0</ele><time>2026-04-01T11:15:11.812Z</time></trkpt><trkpt lat="42.1410533" lon="-7.9806317"><ele>745.0</ele><time>2026-04-01T11:15:12.808Z</time></trkpt><trkpt lat="42.1411267" lon="-7.980675"><ele>745.0</ele><time>2026-04-01T11:15:13.809Z</time></trkpt><trkpt lat="42.1412017" lon="-7.9807167"><ele>745.0</ele><time>2026-04-01T11:15:14.809Z</time></trkpt><trkpt lat="42.14129" lon="-7.9807633"><ele>745.0</ele><time>2026-04-01T11:15:15.809Z</time></trkpt><trkpt lat="42.1413733" lon="-7.980835"><ele>745.0</ele><time>2026-04-01T11:15:16.808Z</time></trkpt><trkpt lat="42.14144" lon="-7.98089"><ele>745.3333333333334</ele><time>2026-04-01T11:15:17.809Z</time></trkpt><trkpt lat="42.1415217" lon="-7.9809517"><ele>745.6666666666667</ele><time>2026-04-01T11:15:19.809Z</time></trkpt><trkpt lat="42.1415883" lon="-7.9809533"><ele>746.0</ele><time>2026-04-01T11:15:30.809Z</time></trkpt><trkpt lat="42.14164" lon="-7.9810067"><ele>746.3333333333334</ele><time>2026-04-01T11:15:33.809Z</time></trkpt><trkpt lat="42.14163" lon="-7.981125"><ele>746.6666666666666</ele><time>2026-04-01T11:15:35.808Z</time></trkpt><trkpt lat="42.1416033" lon="-7.9812083"><ele>747.0</ele><time>2026-04-01T11:15:36.809Z</time></trkpt><trkpt lat="42.1415683" lon="-7.9813133"><ele>747.0</ele><time>2026-04-01T11:15:37.811Z</time></trkpt><trkpt lat="42.1415217" lon="-7.9814433"><ele>747.0</ele><time>2026-04-01T11:15:38.812Z</time></trkpt><trkpt lat="42.141485" lon="-7.9815667"><ele>747.0</ele><time>2026-04-01T11:15:39.808Z</time></trkpt><trkpt lat="42.1414733" lon="-7.9816917"><ele>747.0</ele><time>2026-04-01T11:15:40.81Z</time></trkpt><trkpt lat="42.1414733" lon="-7.981815"><ele>747.0</ele><time>2026-04-01T11:15:41.812Z</time></trkpt><trkpt lat="42.1414733" lon="-7.9819367"><ele>747.4000000000001</ele><time>2026-04-01T11:15:42.812Z</time></trkpt><trkpt lat="42.141475" lon="-7.98203"><ele>747.8000000000001</ele><time>2026-04-01T11:15:43.811Z</time></trkpt><trkpt lat="42.1415267" lon="-7.9821533"><ele>748.2</ele><time>2026-04-01T11:15:45.808Z</time></trkpt><trkpt lat="42.1416483" lon="-7.98218"><ele>748.6</ele><time>2026-04-01T11:15:47.813Z</time></trkpt><trkpt lat="42.1417317" lon="-7.9821783"><ele>749.0</ele><time>2026-04-01T11:15:48.809Z</time></trkpt><trkpt lat="42.14186" lon="-7.98213"><ele>747.0</ele><time>2026-04-01T11:15:49.81Z</time></trkpt><trkpt lat="42.141985" lon="-7.9820883"><ele>745.0</ele><time>2026-04-01T11:15:50.809Z</time></trkpt><trkpt lat="42.1421017" lon="-7.982065"><ele>743.0</ele><time>2026-04-01T11:15:51.808Z</time></trkpt><trkpt lat="42.14221" lon="-7.98205"><ele>741.0</ele><time>2026-04-01T11:15:52.811Z</time></trkpt><trkpt lat="42.142315" lon="-7.9820467"><ele>739.3333333333334</ele><time>2026-04-01T11:15:53.809Z</time></trkpt><trkpt lat="42.1424083" lon="-7.9820417"><ele>737.6666666666666</ele><time>2026-04-01T11:15:54.81Z</time></trkpt><trkpt lat="42.14248" lon="-7.9820583"><ele>736.0</ele><time>2026-04-01T11:15:55.81Z</time></trkpt><trkpt lat="42.1425367" lon="-7.9820967"><ele>734.3333333333333</ele><time>2026-04-01T11:15:56.809Z</time></trkpt><trkpt lat="42.1425833" lon="-7.982185"><ele>732.6666666666666</ele><time>2026-04-01T11:15:58.808Z</time></trkpt><trkpt lat="42.1425667" lon="-7.9823167"><ele>731.0</ele><time>2026-04-01T11:16:00.808Z</time></trkpt><trkpt lat="42.14255" lon="-7.9824367"><ele>731.1666666666666</ele><time>2026-04-01T11:16:01.81Z</time></trkpt><trkpt lat="42.1425317" lon="-7.98258"><ele>731.3333333333333</ele><time>2026-04-01T11:16:02.812Z</time></trkpt><trkpt lat="42.1425383" lon="-7.98269"><ele>731.5</ele><time>2026-04-01T11:16:03.812Z</time></trkpt><trkpt lat="42.1425483" lon="-7.9827767"><ele>731.6666666666666</ele><time>2026-04-01T11:16:04.812Z</time></trkpt><trkpt lat="42.1425533" lon="-7.982895"><ele>731.8333333333334</ele><time>2026-04-01T11:16:06.808Z</time></trkpt><trkpt lat="42.142545" lon="-7.9829883"><ele>732.0</ele><time>2026-04-01T11:16:08.809Z</time></trkpt><trkpt lat="42.142515" lon="-7.98314"><ele>732.0</ele><time>2026-04-01T11:16:10.808Z</time></trkpt><trkpt lat="42.142495" lon="-7.9832283"><ele>732.0</ele><time>2026-04-01T11:16:11.809Z</time></trkpt><trkpt lat="42.1424883" lon="-7.9833783"><ele>732.0</ele><time>2026-04-01T11:16:13.811Z</time></trkpt><trkpt lat="42.1425133" lon="-7.9834783"><ele>732.0</ele><time>2026-04-01T11:16:15.809Z</time></trkpt><trkpt lat="42.1425833" lon="-7.9834567"><ele>732.0</ele><time>2026-04-01T11:16:17.811Z</time></trkpt><trkpt lat="42.142635" lon="-7.9833967"><ele>732.0</ele><time>2026-04-01T11:16:18.808Z</time></trkpt><trkpt lat="42.14269" lon="-7.9833283"><ele>732.0</ele><time>2026-04-01T11:16:19.808Z</time></trkpt><trkpt lat="42.142775" lon="-7.983245"><ele>732.0</ele><time>2026-04-01T11:16:21.81Z</time></trkpt><trkpt lat="42.1428533" lon="-7.9832783"><ele>732.0</ele><time>2026-04-01T11:16:23.809Z</time></trkpt><trkpt lat="42.142945" lon="-7.9833733"><ele>732.0</ele><time>2026-04-01T11:16:25.808Z</time></trkpt><trkpt lat="42.1430483" lon="-7.983465"><ele>732.0</ele><time>2026-04-01T11:16:27.809Z</time></trkpt><trkpt lat="42.1431087" lon="-7.9835141"><ele>732.0</ele><time>2026-04-01T11:16:28.808Z</time></trkpt><trkpt lat="42.1431783" lon="-7.9835802"><ele>732.0</ele><time>2026-04-01T11:16:29.809Z</time></trkpt><trkpt lat="42.1432565" lon="-7.9836712"><ele>732.0</ele><time>2026-04-01T11:16:30.812Z</time></trkpt><trkpt lat="42.1433663" lon="-7.9837938"><ele>732.0</ele><time>2026-04-01T11:16:31.812Z</time></trkpt><trkpt lat="42.1434988" lon="-7.9839289"><ele>730.3333333333334</ele><time>2026-04-01T11:16:32.813Z</time></trkpt><trkpt lat="42.1436406" lon="-7.9840707"><ele>728.6666666666667</ele><time>2026-04-01T11:16:33.81Z</time></trkpt><trkpt lat="42.1437686" lon="-7.9841988"><ele>727.0</ele><time>2026-04-01T11:16:34.812Z</time></trkpt><trkpt lat="42.1438644" lon="-7.9842984"><ele>726.8</ele><time>2026-04-01T11:16:35.809Z</time></trkpt><trkpt lat="42.1439345" lon="-7.984368"><ele>726.6</ele><time>2026-04-01T11:16:36.812Z</time></trkpt><trkpt lat="42.1440171" lon="-7.984377"><ele>726.4</ele><time>2026-04-01T11:16:38.812Z</time></trkpt><trkpt lat="42.144086" lon="-7.9842539"><ele>726.1999999999999</ele><time>2026-04-01T11:16:40.811Z</time></trkpt><trkpt lat="42.1441023" lon="-7.9841323"><ele>726.0</ele><time>2026-04-01T11:16:41.809Z</time></trkpt><trkpt lat="42.1441096" lon="-7.9840059"><ele>725.8</ele><time>2026-04-01T11:16:42.809Z</time></trkpt><trkpt lat="42.1441205" lon="-7.9839087"><ele>725.5999999999999</ele><time>2026-04-01T11:16:43.811Z</time></trkpt><trkpt lat="42.1441601" lon="-7.9838196"><ele>725.4</ele><time>2026-04-01T11:16:45.811Z</time></trkpt><trkpt lat="42.1442244" lon="-7.9837653"><ele>725.2</ele><time>2026-04-01T11:16:47.81Z</time></trkpt><trkpt lat="42.1442936" lon="-7.9836052"><ele>725.0</ele><time>2026-04-01T11:16:49.809Z</time></trkpt><trkpt lat="42.1443328" lon="-7.9834662"><ele>724.25</ele><time>2026-04-01T11:16:50.809Z</time></trkpt><trkpt lat="42.1443919" lon="-7.9832991"><ele>723.5</ele><time>2026-04-01T11:16:51.81Z</time></trkpt><trkpt lat="42.1444655" lon="-7.9831221"><ele>722.75</ele><time>2026-04-01T11:16:52.808Z</time></trkpt><trkpt lat="42.144546" lon="-7.9829521"><ele>722.0</ele><time>2026-04-01T11:16:53.809Z</time></trkpt><trkpt lat="42.1446328" lon="-7.9827813"><ele>722.0</ele><time>2026-04-01T11:16:54.81Z</time></trkpt><trkpt lat="42.1447273" lon="-7.9826038"><ele>722.0</ele><time>2026-04-01T11:16:55.808Z</time></trkpt><trkpt lat="42.1448308" lon="-7.982424"><ele>722.0</ele><time>2026-04-01T11:16:56.809Z</time></trkpt><trkpt lat="42.1449441" lon="-7.98224"><ele>719.0</ele><time>2026-04-01T11:16:57.808Z</time></trkpt><trkpt lat="42.1450593" lon="-7.9820554"><ele>716.0</ele><time>2026-04-01T11:16:58.809Z</time></trkpt><trkpt lat="42.1451683" lon="-7.9818741"><ele>713.0</ele><time>2026-04-01T11:16:59.812Z</time></trkpt><trkpt lat="42.1452647" lon="-7.9816967"><ele>712.25</ele><time>2026-04-01T11:17:00.812Z</time></trkpt><trkpt lat="42.1453407" lon="-7.9815289"><ele>711.5</ele><time>2026-04-01T11:17:01.811Z</time></trkpt><trkpt lat="42.1453993" lon="-7.9813535"><ele>710.75</ele><time>2026-04-01T11:17:02.812Z</time></trkpt><trkpt lat="42.1454433" lon="-7.9811617"><ele>710.0</ele><time>2026-04-01T11:17:03.811Z</time></trkpt><trkpt lat="42.14548" lon="-7.980955"><ele>708.6666666666666</ele><time>2026-04-01T11:17:04.813Z</time></trkpt><trkpt lat="42.1455133" lon="-7.9807333"><ele>707.3333333333334</ele><time>2026-04-01T11:17:05.811Z</time></trkpt><trkpt lat="42.1455467" lon="-7.9805"><ele>706.0</ele><time>2026-04-01T11:17:06.812Z</time></trkpt><trkpt lat="42.1455833" lon="-7.980265"><ele>706.0</ele><time>2026-04-01T11:17:07.809Z</time></trkpt><trkpt lat="42.1456233" lon="-7.9800333"><ele>706.0</ele><time>2026-04-01T11:17:08.809Z</time></trkpt><trkpt lat="42.14567" lon="-7.9798167"><ele>706.0</ele><time>2026-04-01T11:17:09.81Z</time></trkpt><trkpt lat="42.145725" lon="-7.9796133"><ele>704.3333333333334</ele><time>2026-04-01T11:17:10.809Z</time></trkpt><trkpt lat="42.1457967" lon="-7.9794317"><ele>702.6666666666666</ele><time>2026-04-01T11:17:11.81Z</time></trkpt><trkpt lat="42.1458983" lon="-7.9792717"><ele>701.0</ele><time>2026-04-01T11:17:12.809Z</time></trkpt><trkpt lat="42.1460217" lon="-7.9791317"><ele>699.6666666666666</ele><time>2026-04-01T11:17:13.812Z</time></trkpt><trkpt lat="42.146165" lon="-7.9790183"><ele>698.3333333333334</ele><time>2026-04-01T11:17:14.812Z</time></trkpt><trkpt lat="42.1463183" lon="-7.9789367"><ele>697.0</ele><time>2026-04-01T11:17:15.808Z</time></trkpt><trkpt lat="42.146485" lon="-7.9788733"><ele>695.6666666666667</ele><time>2026-04-01T11:17:16.809Z</time></trkpt><trkpt lat="42.146655" lon="-7.97884"><ele>694.3333333333334</ele><time>2026-04-01T11:17:17.809Z</time></trkpt><trkpt lat="42.14683" lon="-7.9788233"><ele>693.0</ele><time>2026-04-01T11:17:18.809Z</time></trkpt><trkpt lat="42.147005" lon="-7.9788067"><ele>693.0</ele><time>2026-04-01T11:17:19.809Z</time></trkpt><trkpt lat="42.1471867" lon="-7.978785"><ele>693.0</ele><time>2026-04-01T11:17:20.811Z</time></trkpt><trkpt lat="42.1473683" lon="-7.9787617"><ele>693.0</ele><time>2026-04-01T11:17:21.808Z</time></trkpt><trkpt lat="42.1475483" lon="-7.97874"><ele>692.6666666666666</ele><time>2026-04-01T11:17:22.808Z</time></trkpt><trkpt lat="42.147725" lon="-7.9787083"><ele>692.3333333333333</ele><time>2026-04-01T11:17:23.809Z</time></trkpt><trkpt lat="42.1479" lon="-7.9786767"><ele>692.0</ele><time>2026-04-01T11:17:24.812Z</time></trkpt><trkpt lat="42.1480733" lon="-7.9786367"><ele>693.0</ele><time>2026-04-01T11:17:25.81Z</time></trkpt><trkpt lat="42.148235" lon="-7.9785783"><ele>694.0</ele><time>2026-04-01T11:17:26.81Z</time></trkpt><trkpt lat="42.1483783" lon="-7.9784983"><ele>695.0</ele><time>2026-04-01T11:17:27.812Z</time></trkpt><trkpt lat="42.148505" lon="-7.97841"><ele>693.25</ele><time>2026-04-01T11:17:28.811Z</time></trkpt><trkpt lat="42.1486167" lon="-7.9783183"><ele>691.5</ele><time>2026-04-01T11:17:29.811Z</time></trkpt><trkpt lat="42.14872" lon="-7.9782233"><ele>689.75</ele><time>2026-04-01T11:17:30.808Z</time></trkpt><trkpt lat="42.1488167" lon="-7.978135"><ele>688.0</ele><time>2026-04-01T11:17:31.809Z</time></trkpt><trkpt lat="42.1489167" lon="-7.9780567"><ele>688.0</ele><time>2026-04-01T11:17:32.809Z</time></trkpt><trkpt lat="42.14903" lon="-7.9779833"><ele>688.0</ele><time>2026-04-01T11:17:33.809Z</time></trkpt><trkpt lat="42.1491517" lon="-7.9779217"><ele>688.0</ele><time>2026-04-01T11:17:34.81Z</time></trkpt><trkpt lat="42.1492733" lon="-7.97787"><ele>688.0</ele><time>2026-04-01T11:17:35.811Z</time></trkpt><trkpt lat="42.1493867" lon="-7.9778267"><ele>688.5999999999999</ele><time>2026-04-01T11:17:36.808Z</time></trkpt><trkpt lat="42.1494933" lon="-7.9777833"><ele>689.1999999999999</ele><time>2026-04-01T11:17:37.811Z</time></trkpt><trkpt lat="42.149595" lon="-7.97777"><ele>689.8</ele><time>2026-04-01T11:17:38.814Z</time></trkpt><trkpt lat="42.1496983" lon="-7.977785"><ele>690.4</ele><time>2026-04-01T11:17:39.809Z</time></trkpt><trkpt lat="42.1498033" lon="-7.9778033"><ele>691.0</ele><time>2026-04-01T11:17:40.809Z</time></trkpt><trkpt lat="42.1498983" lon="-7.97782"><ele>691.5</ele><time>2026-04-01T11:17:41.81Z</time></trkpt><trkpt lat="42.149965" lon="-7.9778133"><ele>692.0</ele><time>2026-04-01T11:17:42.809Z</time></trkpt><trkpt lat="42.150065" lon="-7.9777867"><ele>692.5</ele><time>2026-04-01T11:17:44.815Z</time></trkpt><trkpt lat="42.1499817" lon="-7.9778417"><ele>693.0</ele><time>2026-04-01T11:17:52.811Z</time></trkpt><trkpt lat="42.1500183" lon="-7.9779583"><ele>693.5</ele><time>2026-04-01T11:17:56.81Z</time></trkpt><trkpt lat="42.1500767" lon="-7.9780017"><ele>694.0</ele><time>2026-04-01T11:17:57.812Z</time></trkpt><trkpt lat="42.1502083" lon="-7.9780017"><ele>694.0</ele><time>2026-04-01T11:17:59.811Z</time></trkpt><trkpt lat="42.1503017" lon="-7.9779583"><ele>694.0</ele><time>2026-04-01T11:18:00.812Z</time></trkpt><trkpt lat="42.1503833" lon="-7.9779167"><ele>694.0</ele><time>2026-04-01T11:18:01.811Z</time></trkpt><trkpt lat="42.1504617" lon="-7.9778983"><ele>694.0</ele><time>2026-04-01T11:18:02.809Z</time></trkpt><trkpt lat="42.1505467" lon="-7.9778933"><ele>694.0</ele><time>2026-04-01T11:18:03.809Z</time></trkpt><trkpt lat="42.1506683" lon="-7.9779183"><ele>695.0</ele><time>2026-04-01T11:18:04.809Z</time></trkpt><trkpt lat="42.1508" lon="-7.9779567"><ele>696.0</ele><time>2026-04-01T11:18:05.81Z</time></trkpt><trkpt lat="42.150935" lon="-7.97798"><ele>697.0</ele><time>2026-04-01T11:18:06.812Z</time></trkpt><trkpt lat="42.1510967" lon="-7.9780017"><ele>698.0</ele><time>2026-04-01T11:18:07.809Z</time></trkpt><trkpt lat="42.1512433" lon="-7.97803"><ele>698.0</ele><time>2026-04-01T11:18:08.809Z</time></trkpt><trkpt lat="42.1513617" lon="-7.9780667"><ele>698.0</ele><time>2026-04-01T11:18:09.812Z</time></trkpt><trkpt lat="42.151445" lon="-7.9780967"><ele>698.0</ele><time>2026-04-01T11:18:10.809Z</time></trkpt><trkpt lat="42.15151" lon="-7.9781567"><ele>698.0</ele><time>2026-04-01T11:18:11.809Z</time></trkpt><trkpt lat="42.151575" lon="-7.9782317"><ele>698.0</ele><time>2026-04-01T11:18:12.81Z</time></trkpt><trkpt lat="42.151665" lon="-7.9782983"><ele>702.0</ele><time>2026-04-01T11:18:13.809Z</time></trkpt><trkpt lat="42.1517567" lon="-7.9783583"><ele>706.0</ele><time>2026-04-01T11:18:14.809Z</time></trkpt><trkpt lat="42.15184" lon="-7.9784"><ele>710.0</ele><time>2026-04-01T11:18:15.809Z</time></trkpt><trkpt lat="42.15193" lon="-7.978415"><ele>714.0</ele><time>2026-04-01T11:18:16.811Z</time></trkpt><trkpt lat="42.15204" lon="-7.9784067"><ele>718.0</ele><time>2026-04-01T11:18:17.812Z</time></trkpt><trkpt lat="42.15216" lon="-7.9784067"><ele>718.0</ele><time>2026-04-01T11:18:18.809Z</time></trkpt><trkpt lat="42.152265" lon="-7.97842"><ele>718.0</ele><time>2026-04-01T11:18:19.809Z</time></trkpt><trkpt lat="42.15236" lon="-7.9784433"><ele>718.0</ele><time>2026-04-01T11:18:20.809Z</time></trkpt><trkpt lat="42.1524467" lon="-7.9785017"><ele>718.0</ele><time>2026-04-01T11:18:21.811Z</time></trkpt><trkpt lat="42.1525283" lon="-7.9785667"><ele>718.0</ele><time>2026-04-01T11:18:22.81Z</time></trkpt><trkpt lat="42.1526117" lon="-7.9786033"><ele>717.5</ele><time>2026-04-01T11:18:23.812Z</time></trkpt><trkpt lat="42.152695" lon="-7.9786083"><ele>717.0</ele><time>2026-04-01T11:18:24.81Z</time></trkpt><trkpt lat="42.1527783" lon="-7.9785733"><ele>716.5</ele><time>2026-04-01T11:18:25.809Z</time></trkpt><trkpt lat="42.15285" lon="-7.9785133"><ele>716.0</ele><time>2026-04-01T11:18:26.81Z</time></trkpt><trkpt lat="42.1529017" lon="-7.97844"><ele>715.5</ele><time>2026-04-01T11:18:27.81Z</time></trkpt><trkpt lat="42.1529417" lon="-7.9783683"><ele>715.0</ele><time>2026-04-01T11:18:28.809Z</time></trkpt><trkpt lat="42.1530467" lon="-7.9782717"><ele>714.0</ele><time>2026-04-01T11:18:30.81Z</time></trkpt><trkpt lat="42.1531333" lon="-7.9782367"><ele>713.0</ele><time>2026-04-01T11:18:31.809Z</time></trkpt><trkpt lat="42.15325" lon="-7.978235"><ele>712.0</ele><time>2026-04-01T11:18:32.81Z</time></trkpt><trkpt lat="42.153345" lon="-7.9782417"><ele>711.0</ele><time>2026-04-01T11:18:33.813Z</time></trkpt><trkpt lat="42.1534333" lon="-7.9782567"><ele>710.0</ele><time>2026-04-01T11:18:34.81Z</time></trkpt><trkpt lat="42.15352" lon="-7.9782767"><ele>710.0</ele><time>2026-04-01T11:18:35.81Z</time></trkpt><trkpt lat="42.1535817" lon="-7.978315"><ele>710.0</ele><time>2026-04-01T11:18:36.81Z</time></trkpt><trkpt lat="42.1536367" lon="-7.9784217"><ele>710.0</ele><time>2026-04-01T11:18:37.811Z</time></trkpt><trkpt lat="42.1537033" lon="-7.9785983"><ele>710.0</ele><time>2026-04-01T11:18:38.811Z</time></trkpt><trkpt lat="42.1537533" lon="-7.9788283"><ele>711.3333333333333</ele><time>2026-04-01T11:18:39.812Z</time></trkpt><trkpt lat="42.1538267" lon="-7.978995"><ele>712.6666666666666</ele><time>2026-04-01T11:18:40.812Z</time></trkpt><trkpt lat="42.153915" lon="-7.9791833"><ele>714.0</ele><time>2026-04-01T11:18:41.812Z</time></trkpt><trkpt lat="42.1540017" lon="-7.97936"><ele>715.4000000000001</ele><time>2026-04-01T11:18:42.811Z</time></trkpt><trkpt lat="42.1540783" lon="-7.97951"><ele>716.8</ele><time>2026-04-01T11:18:43.811Z</time></trkpt><trkpt lat="42.154155" lon="-7.9796"><ele>718.2</ele><time>2026-04-01T11:18:44.812Z</time></trkpt><trkpt lat="42.1542383" lon="-7.9796917"><ele>719.5999999999999</ele><time>2026-04-01T11:18:45.809Z</time></trkpt><trkpt lat="42.154305" lon="-7.9797867"><ele>721.0</ele><time>2026-04-01T11:18:46.811Z</time></trkpt><trkpt lat="42.1543583" lon="-7.979875"><ele>721.0</ele><time>2026-04-01T11:18:47.812Z</time></trkpt><trkpt lat="42.1543883" lon="-7.979975"><ele>721.0</ele><time>2026-04-01T11:18:48.811Z</time></trkpt><trkpt lat="42.1543983" lon="-7.9800933"><ele>721.0</ele><time>2026-04-01T11:18:49.813Z</time></trkpt><trkpt lat="42.1543883" lon="-7.9802483"><ele>721.0</ele><time>2026-04-01T11:18:50.814Z</time></trkpt><trkpt lat="42.15437" lon="-7.9804067"><ele>721.0</ele><time>2026-04-01T11:18:51.812Z</time></trkpt><trkpt lat="42.1543583" lon="-7.9805367"><ele>721.5999999999999</ele><time>2026-04-01T11:18:52.812Z</time></trkpt><trkpt lat="42.154355" lon="-7.9806367"><ele>722.2</ele><time>2026-04-01T11:18:53.812Z</time></trkpt><trkpt lat="42.154435" lon="-7.9807567"><ele>722.8</ele><time>2026-04-01T11:18:55.812Z</time></trkpt><trkpt lat="42.154515" lon="-7.9807933"><ele>723.4000000000001</ele><time>2026-04-01T11:18:56.813Z</time></trkpt><trkpt lat="42.154625" lon="-7.98082"><ele>724.0</ele><time>2026-04-01T11:18:57.812Z</time></trkpt><trkpt lat="42.1547483" lon="-7.98085"><ele>725.75</ele><time>2026-04-01T11:18:58.812Z</time></trkpt><trkpt lat="42.15488" lon="-7.9808883"><ele>727.5</ele><time>2026-04-01T11:18:59.81Z</time></trkpt><trkpt lat="42.15502" lon="-7.980935"><ele>729.25</ele><time>2026-04-01T11:19:00.812Z</time></trkpt><trkpt lat="42.15517" lon="-7.9809867"><ele>731.0</ele><time>2026-04-01T11:19:01.812Z</time></trkpt><trkpt lat="42.155325" lon="-7.9810583"><ele>731.0</ele><time>2026-04-01T11:19:02.811Z</time></trkpt><trkpt lat="42.1554833" lon="-7.9811533"><ele>731.0</ele><time>2026-04-01T11:19:03.812Z</time></trkpt><trkpt lat="42.15565" lon="-7.98124"><ele>731.0</ele><time>2026-04-01T11:19:04.811Z</time></trkpt><trkpt lat="42.1558167" lon="-7.981315"><ele>732.0</ele><time>2026-04-01T11:19:05.81Z</time></trkpt><trkpt lat="42.15597" lon="-7.981375"><ele>733.0</ele><time>2026-04-01T11:19:06.81Z</time></trkpt><trkpt lat="42.1560917" lon="-7.981425"><ele>734.0</ele><time>2026-04-01T11:19:07.81Z</time></trkpt><trkpt lat="42.1561883" lon="-7.9814467"><ele>735.0</ele><time>2026-04-01T11:19:08.812Z</time></trkpt><trkpt lat="42.1562783" lon="-7.9814483"><ele>735.0</ele><time>2026-04-01T11:19:09.812Z</time></trkpt><trkpt lat="42.1563683" lon="-7.9814533"><ele>735.0</ele><time>2026-04-01T11:19:10.812Z</time></trkpt><trkpt lat="42.1564533" lon="-7.9814667"><ele>735.0</ele><time>2026-04-01T11:19:11.809Z</time></trkpt><trkpt lat="42.15653" lon="-7.9815"><ele>735.0</ele><time>2026-04-01T11:19:12.813Z</time></trkpt><trkpt lat="42.1565967" lon="-7.9815417"><ele>735.0</ele><time>2026-04-01T11:19:13.812Z</time></trkpt><trkpt lat="42.1567033" lon="-7.9816133"><ele>735.0</ele><time>2026-04-01T11:19:15.809Z</time></trkpt><trkpt lat="42.1567783" lon="-7.981645"><ele>732.0</ele><time>2026-04-01T11:19:17.812Z</time></trkpt><trkpt lat="42.1568367" lon="-7.9815683"><ele>732.0</ele><time>2026-04-01T11:19:20.812Z</time></trkpt><trkpt lat="42.1569" lon="-7.9815"><ele>732.0</ele><time>2026-04-01T11:19:23.812Z</time></trkpt><trkpt lat="42.1569567" lon="-7.9814233"><ele>732.0</ele><time>2026-04-01T11:19:26.812Z</time></trkpt></trkseg></trk></gpx>